GFSGL_prec_precacc_009.txt.gz
Total_Precipitation_Accumulation
0.00 0.00 0.00 0.00 0.00 0.00 0.00 0.00 0.00 0.00 0.00 0.00 0.00 0.00 0.00 0.01 0.01 0.00 0.00 0.00 0.00 0.00 0.00 0.00 0.00 0.00 0.00 0.00 0.00 0.00 0.00 0.00 0.00 0.00 0.00 0.00 0.00 0.00 0.00 0.00 0.00 0.00 0.00
0.00 0.00 0.00 0.00 0.00 0.00 0.00 0.00 0.00 0.00 0.00 0.00 0.00 0.00 0.02 0.02 0.00 0.00 0.00 0.00 0.00 0.00 0.00 0.00 0.00 0.00 0.00 0.00 0.00 0.00 0.00 0.00 0.00 0.00 0.00 0.00 0.00 0.00 0.00 0.00 0.00 0.00 0.00
0.00 0.00 0.00 0.00 0.00 0.00 0.00 0.00 0.00 0.00 0.00 0.00 0.00 0.00 0.00 0.00 0.00 0.00 0.00 0.00 0.00 0.00 0.00 0.00 0.00 0.00 0.00 0.00 0.00 0.00 0.00 0.00 0.00 0.00 0.00 0.00 0.00 0.00 0.00 0.00 0.00 0.00 0.00
0.00 0.00 0.00 0.00 0.00 0.00 0.00 0.00 0.00 0.00 0.00 0.00 0.00 0.00 0.00 0.00 0.00 0.00 0.00 0.00 0.00 0.00 0.00 0.00 0.00 0.00 0.00 0.00 0.00 0.00 0.00 0.00 0.00 0.00 0.00 0.00 0.00 0.00 0.00 0.00 0.00 0.00 0.00
0.00 0.00 0.00 0.00 0.00 0.00 0.00 0.00 0.00 0.00 0.01 0.01 0.01 0.00 0.00 0.00 0.00 0.00 0.00 0.00 0.00 0.00 0.00 0.00 0.00 0.00 0.00 0.00 0.00 0.00 0.00 0.00 0.00 0.00 0.00 0.00 0.00 0.00 0.00 0.00 0.00 0.00 0.00
0.00 0.00 0.01 0.03 0.07 0.10 0.11 0.08 0.04 0.03 0.02 0.00 0.00 0.00 0.00 0.00 0.00 0.00 0.00 0.00 0.00 0.00 0.00 0.00 0.00 0.00 0.00 0.00 0.00 0.00 0.00 0.00 0.01 0.01 0.01 0.00 0.00 0.00 0.00 0.00 0.00 0.00 0.00
0.00 0.00 0.02 0.05 0.07 0.05 0.02 0.01 0.01 0.00 0.00 0.00 0.00 0.00 0.00 0.00 0.00 0.00 0.00 0.00 0.00 0.00 0.00 0.00 0.00 0.00 0.00 0.00 0.00 0.00 0.00 0.00 0.00 0.01 0.02 0.01 0.01 0.00 0.00 0.01 0.01 0.00 0.00
0.00 0.00 0.00 0.00 0.00 0.00 0.00 0.00 0.00 0.00 0.00 0.00 0.00 0.00 0.00 0.00 0.00 0.00 0.00 0.00 0.00 0.00 0.00 0.00 0.00 0.00 0.00 0.00 0.01 0.01 0.01 0.01 0.00 0.00 0.00 0.00 0.00 0.00 0.00 0.00 0.00 0.01 0.01
0.00 0.00 0.00 0.00 0.00 0.00 0.00 0.00 0.00 0.00 0.00 0.00 0.00 0.00 0.00 0.00 0.00 0.00 0.00 0.00 0.00 0.00 0.00 0.00 0.00 0.00 0.00 0.01 0.03 0.05 0.02 0.01 0.00 0.00 0.01 0.01 0.00 0.00 0.01 0.04 0.07 0.07 0.05
0.00 0.00 0.00 0.00 0.00 0.00 0.00 0.00 0.00 0.00 0.00 0.00 0.00 0.00 0.00 0.00 0.00 0.00 0.00 0.00 0.01 0.00 0.00 0.00 0.00 0.00 0.01 0.02 0.06 0.09 0.08 0.01 0.01 0.02 0.01 0.01 0.01 0.01 0.01 0.07 0.10 0.10 0.05
0.00 0.00 0.00 0.00 0.00 0.00 0.00 0.00 0.00 0.00 0.00 0.00 0.00 0.00 0.00 0.00 0.00 0.00 0.00 0.00 0.02 0.03 0.01 0.00 0.01 0.02 0.03 0.03 0.05 0.08 0.05 0.03 0.04 0.04 0.02 0.02 0.01 0.00 0.00 0.02 0.04 0.09 0.10
0.00 0.00 0.00 0.00 0.00 0.00 0.00 0.00 0.00 0.00 0.00 0.00 0.00 0.00 0.00 0.00 0.00 0.00 0.00 0.00 0.01 0.08 0.04 0.05 0.05 0.02 0.02 0.01 0.01 0.02 0.02 0.03 0.03 0.03 0.03 0.02 0.02 0.01 0.00 0.00 0.00 0.01 0.01
0.00 0.00 0.00 0.00 0.00 0.00 0.00 0.00 0.00 0.00 0.00 0.00 0.00 0.00 0.00 0.00 0.00 0.00 0.00 0.00 0.01 0.06 0.11 0.07 0.04 0.01 0.00 0.00 0.00 0.01 0.01 0.02 0.03 0.03 0.02 0.01 0.01 0.01 0.03 0.03 0.02 0.02 0.04
0.00 0.00 0.00 0.00 0.00 0.00 0.00 0.00 0.00 0.00 0.00 0.00 0.00 0.00 0.01 0.00 0.00 0.01 0.03 0.02 0.03 0.08 0.06 0.04 0.02 0.01 0.00 0.00 0.00 0.01 0.03 0.05 0.06 0.06 0.04 0.02 0.04 0.05 0.06 0.05 0.07 0.04 0.10
0.00 0.00 0.00 0.00 0.00 0.00 0.00 0.00 0.00 0.00 0.00 0.00 0.00 0.01 0.02 0.02 0.02 0.07 0.08 0.10 0.14 0.09 0.06 0.04 0.02 0.01 0.00 0.00 0.00 0.01 0.02 0.03 0.04 0.05 0.06 0.04 0.03 0.03 0.02 0.04 0.06 0.07 0.08
0.00 0.00 0.00 0.00 0.00 0.00 0.00 0.00 0.00 0.00 0.00 0.00 0.00 0.00 0.01 0.02 0.05 0.06 0.08 0.12 0.11 0.07 0.05 0.04 0.04 0.02 0.01 0.01 0.01 0.00 0.00 0.01 0.02 0.03 0.03 0.02 0.02 0.02 0.01 0.01 0.03 0.04 0.03
0.00 0.00 0.00 0.00 0.00 0.00 0.00 0.00 0.00 0.00 0.00 0.00 0.00 0.00 0.00 0.03 0.05 0.07 0.09 0.11 0.09 0.06 0.06 0.05 0.04 0.03 0.02 0.01 0.01 0.01 0.02 0.02 0.03 0.04 0.04 0.04 0.04 0.04 0.05 0.03 0.04 0.06 0.09
0.00 0.00 0.00 0.00 0.00 0.00 0.00 0.00 0.00 0.00 0.00 0.00 0.00 0.00 0.00 0.02 0.05 0.06 0.07 0.07 0.07 0.06 0.07 0.06 0.05 0.04 0.03 0.02 0.02 0.02 0.01 0.01 0.01 0.02 0.03 0.04 0.03 0.03 0.04 0.04 0.05 0.06 0.06
0.00 0.00 0.00 0.00 0.00 0.00 0.00 0.00 0.00 0.00 0.00 0.00 0.00 0.00 0.00 0.01 0.03 0.04 0.05 0.06 0.08 0.07 0.07 0.06 0.06 0.05 0.04 0.03 0.03 0.02 0.02 0.01 0.01 0.01 0.01 0.02 0.02 0.02 0.01 0.02 0.02 0.02 0.01
0.00 0.00 0.00 0.00 0.00 0.00 0.00 0.00 0.00 0.00 0.00 0.00 0.00 0.00 0.00 0.01 0.01 0.02 0.03 0.05 0.06 0.07 0.07 0.06 0.06 0.05 0.04 0.03 0.01 0.01 0.01 0.01 0.01 0.01 0.00 0.01 0.01 0.01 0.01 0.01 0.01 0.00 0.01
0.00 0.00 0.00 0.00 0.00 0.00 0.00 0.00 0.00 0.00 0.00 0.00 0.00 0.00 0.01 0.01 0.02 0.02 0.03 0.04 0.05 0.05 0.05 0.04 0.04 0.03 0.02 0.01 0.01 0.01 0.01 0.01 0.01 0.01 0.01 0.00 0.00 0.00 0.01 0.01 0.00 0.00 0.00
0.00 0.00 0.00 0.00 0.00 0.00 0.00 0.00 0.00 0.00 0.00 0.00 0.00 0.00 0.01 0.01 0.01 0.02 0.03 0.03 0.02 0.02 0.02 0.01 0.01 0.01 0.01 0.01 0.01 0.01 0.00 0.00 0.01 0.01 0.00 0.00 0.00 0.00 0.00 0.00 0.00 0.00 0.00
0.01 0.01 0.00 0.00 0.00 0.00 0.00 0.00 0.00 0.00 0.00 0.00 0.00 0.00 0.00 0.01 0.02 0.02 0.02 0.02 0.00 0.00 0.00 0.00 0.00 0.00 0.00 0.00 0.01 0.01 0.01 0.01 0.01 0.01 0.00 0.00 0.00 0.00 0.00 0.00 0.00 0.00 0.00
0.01 0.01 0.01 0.00 0.00 0.00 0.00 0.00 0.00 0.00 0.00 0.00 0.00 0.00 0.01 0.01 0.01 0.02 0.01 0.00 0.00 0.00 0.00 0.00 0.00 0.00 0.00 0.00 0.00 0.00 0.00 0.00 0.00 0.00 0.00 0.00 0.00 0.00 0.00 0.00 0.00 0.00 0.00
0.01 0.01 0.01 0.01 0.00 0.00 0.00 0.00 0.00 0.00 0.00 0.00 0.00 0.00 0.01 0.01 0.01 0.02 0.01 0.00 0.00 0.00 0.00 0.00 0.00 0.00 0.00 0.00 0.00 0.00 0.00 0.00 0.00 0.00 0.00 0.00 0.00 0.00 0.00 0.00 0.00 0.00 0.00
0.01 0.02 0.01 0.01 0.01 0.01 0.01 0.00 0.00 0.00 0.00 0.00 0.00 0.00 0.00 0.01 0.01 0.00 0.00 0.00 0.00 0.00 0.00 0.00 0.00 0.00 0.00 0.00 0.00 0.00 0.00 0.00 0.00 0.00 0.00 0.00 0.00 0.00 0.00 0.00 0.00 0.00 0.00

GFSGL_prec_precacc_012.txt.gz
Total_Precipitation_Accumulation
0.00 0.00 0.00 0.00 0.00 0.00 0.00 0.00 0.00 0.00 0.00 0.00 0.00 0.00 0.01 0.04 0.07 0.03 0.01 0.00 0.00 0.00 0.00 0.00 0.00 0.00 0.00 0.00 0.00 0.00 0.00 0.00 0.00 0.00 0.00 0.00 0.00 0.00 0.00 0.00 0.00 0.00 0.00
0.00 0.00 0.00 0.00 0.00 0.00 0.00 0.00 0.00 0.00 0.00 0.00 0.00 0.01 0.04 0.06 0.02 0.00 0.00 0.00 0.00 0.00 0.00 0.00 0.00 0.00 0.00 0.00 0.00 0.00 0.00 0.00 0.00 0.00 0.00 0.00 0.00 0.00 0.00 0.00 0.00 0.00 0.00
0.00 0.00 0.00 0.00 0.00 0.00 0.00 0.00 0.00 0.01 0.01 0.01 0.01 0.02 0.02 0.01 0.00 0.00 0.00 0.00 0.00 0.00 0.00 0.00 0.00 0.00 0.00 0.00 0.00 0.00 0.00 0.00 0.00 0.00 0.00 0.00 0.00 0.00 0.00 0.00 0.00 0.00 0.00
0.00 0.00 0.00 0.00 0.00 0.00 0.00 0.00 0.00 0.01 0.01 0.01 0.00 0.01 0.01 0.00 0.00 0.00 0.00 0.00 0.00 0.00 0.00 0.00 0.00 0.00 0.00 0.00 0.00 0.00 0.00 0.00 0.00 0.00 0.00 0.00 0.00 0.00 0.00 0.00 0.00 0.00 0.00
0.00 0.00 0.00 0.00 0.00 0.00 0.00 0.00 0.00 0.01 0.01 0.01 0.01 0.00 0.00 0.00 0.00 0.00 0.00 0.00 0.00 0.00 0.00 0.00 0.00 0.00 0.00 0.00 0.00 0.00 0.00 0.00 0.00 0.00 0.00 0.00 0.00 0.00 0.00 0.00 0.00 0.00 0.00
0.00 0.00 0.01 0.03 0.07 0.10 0.11 0.08 0.04 0.03 0.02 0.00 0.00 0.00 0.00 0.00 0.00 0.00 0.00 0.00 0.00 0.00 0.00 0.00 0.00 0.00 0.00 0.00 0.00 0.00 0.00 0.01 0.01 0.01 0.01 0.00 0.00 0.00 0.00 0.00 0.00 0.00 0.00
0.00 0.00 0.02 0.05 0.07 0.05 0.02 0.01 0.01 0.00 0.00 0.00 0.00 0.00 0.00 0.00 0.00 0.00 0.00 0.00 0.00 0.00 0.00 0.00 0.00 0.00 0.00 0.00 0.00 0.00 0.00 0.00 0.01 0.01 0.03 0.01 0.01 0.00 0.01 0.01 0.01 0.01 0.01
0.00 0.00 0.00 0.00 0.00 0.00 0.00 0.00 0.00 0.00 0.00 0.00 0.00 0.00 0.00 0.00 0.00 0.00 0.00 0.00 0.00 0.00 0.00 0.00 0.00 0.00 0.00 0.00 0.01 0.02 0.01 0.01 0.01 0.01 0.01 0.01 0.00 0.00 0.01 0.01 0.01 0.02 0.02
0.00 0.00 0.00 0.00 0.00 0.00 0.00 0.00 0.00 0.00 0.00 0.00 0.00 0.00 0.00 0.00 0.00 0.00 0.00 0.00 0.00 0.00 0.00 0.00 0.00 0.00 0.00 0.01 0.05 0.07 0.04 0.01 0.00 0.00 0.01 0.01 0.01 0.00 0.01 0.05 0.09 0.09 0.07
0.00 0.00 0.00 0.00 0.00 0.00 0.00 0.00 0.00 0.00 0.00 0.00 0.00 0.00 0.00 0.00 0.00 0.00 0.00 0.00 0.01 0.01 0.00 0.00 0.00 0.00 0.01 0.04 0.08 0.11 0.10 0.02 0.02 0.02 0.01 0.01 0.01 0.02 0.02 0.09 0.14 0.14 0.08
0.00 0.00 0.00 0.00 0.00 0.00 0.00 0.00 0.00 0.00 0.00 0.00 0.00 0.00 0.00 0.00 0.00 0.00 0.00 0.01 0.04 0.04 0.02 0.01 0.02 0.04 0.05 0.03 0.05 0.09 0.06 0.03 0.04 0.04 0.03 0.02 0.01 0.01 0.02 0.03 0.06 0.13 0.13
0.00 0.00 0.00 0.00 0.00 0.00 0.00 0.00 0.00 0.00 0.00 0.00 0.00 0.00 0.00 0.00 0.00 0.00 0.00 0.01 0.02 0.10 0.06 0.08 0.09 0.04 0.02 0.01 0.01 0.02 0.02 0.03 0.05 0.05 0.04 0.03 0.03 0.02 0.01 0.01 0.01 0.02 0.03
0.00 0.00 0.00 0.00 0.00 0.00 0.00 0.00 0.00 0.00 0.00 0.00 0.00 0.00 0.00 0.00 0.00 0.00 0.00 0.01 0.02 0.07 0.14 0.11 0.05 0.01 0.00 0.00 0.00 0.01 0.02 0.03 0.04 0.05 0.03 0.02 0.02 0.02 0.05 0.05 0.04 0.03 0.05
0.00 0.00 0.00 0.00 0.00 0.00 0.00 0.00 0.00 0.00 0.00 0.00 0.00 0.00 0.01 0.00 0.00 0.02 0.04 0.03 0.04 0.11 0.08 0.08 0.04 0.02 0.01 0.01 0.01 0.02 0.04 0.05 0.07 0.07 0.05 0.03 0.05 0.06 0.08 0.07 0.09 0.07 0.14
0.00 0.00 0.00 0.00 0.00 0.00 0.00 0.00 0.00 0.00 0.00 0.00 0.00 0.02 0.03 0.03 0.02 0.09 0.09 0.12 0.18 0.11 0.09 0.07 0.05 0.04 0.01 0.00 0.01 0.01 0.02 0.03 0.05 0.06 0.07 0.05 0.04 0.04 0.04 0.05 0.08 0.09 0.11
0.00 0.00 0.00 0.00 0.00 0.00 0.00 0.00 0.00 0.00 0.00 0.00 0.00 0.01 0.01 0.03 0.05 0.06 0.09 0.14 0.13 0.09 0.08 0.08 0.07 0.06 0.03 0.02 0.01 0.01 0.01 0.01 0.02 0.04 0.04 0.03 0.02 0.03 0.03 0.02 0.03 0.06 0.06
0.00 0.00 0.00 0.00 0.00 0.00 0.00 0.00 0.00 0.00 0.00 0.00 0.00 0.00 0.01 0.03 0.06 0.07 0.09 0.12 0.12 0.08 0.09 0.08 0.08 0.07 0.05 0.02 0.02 0.02 0.02 0.03 0.04 0.04 0.04 0.05 0.05 0.05 0.06 0.04 0.05 0.07 0.10
0.00 0.00 0.00 0.00 0.00 0.00 0.00 0.00 0.00 0.00 0.00 0.00 0.00 0.00 0.00 0.03 0.05 0.07 0.07 0.08 0.09 0.08 0.09 0.09 0.08 0.06 0.05 0.03 0.03 0.02 0.02 0.01 0.01 0.02 0.04 0.04 0.04 0.04 0.05 0.06 0.07 0.08 0.07
0.00 0.00 0.00 0.00 0.00 0.00 0.00 0.00 0.00 0.00 0.00 0.00 0.00 0.00 0.00 0.01 0.03 0.05 0.05 0.07 0.09 0.10 0.09 0.08 0.08 0.06 0.05 0.03 0.03 0.03 0.02 0.02 0.02 0.01 0.02 0.02 0.02 0.02 0.02 0.02 0.03 0.03 0.03
0.00 0.00 0.00 0.00 0.00 0.00 0.00 0.00 0.00 0.00 0.00 0.00 0.00 0.00 0.01 0.01 0.01 0.02 0.04 0.06 0.07 0.08 0.08 0.07 0.07 0.06 0.04 0.03 0.02 0.01 0.01 0.01 0.01 0.01 0.01 0.01 0.02 0.02 0.01 0.01 0.01 0.01 0.01
0.00 0.00 0.00 0.00 0.00 0.00 0.00 0.00 0.00 0.00 0.00 0.00 0.00 0.01 0.01 0.02 0.02 0.03 0.04 0.04 0.05 0.05 0.05 0.04 0.04 0.03 0.02 0.01 0.01 0.01 0.01 0.01 0.01 0.01 0.01 0.01 0.01 0.01 0.01 0.01 0.01 0.01 0.01
0.00 0.00 0.00 0.00 0.00 0.00 0.00 0.00 0.00 0.00 0.00 0.00 0.00 0.00 0.01 0.01 0.02 0.03 0.03 0.03 0.02 0.02 0.02 0.01 0.01 0.01 0.02 0.02 0.02 0.01 0.01 0.01 0.01 0.01 0.01 0.01 0.01 0.01 0.01 0.01 0.01 0.01 0.01
0.01 0.01 0.01 0.00 0.00 0.00 0.00 0.00 0.00 0.00 0.00 0.01 0.00 0.00 0.01 0.01 0.02 0.03 0.02 0.02 0.00 0.00 0.00 0.00 0.00 0.00 0.00 0.00 0.01 0.01 0.01 0.01 0.01 0.01 0.00 0.00 0.00 0.01 0.00 0.01 0.01 0.01 0.00
0.02 0.01 0.01 0.01 0.01 0.00 0.00 0.00 0.00 0.00 0.00 0.00 0.00 0.00 0.01 0.01 0.02 0.02 0.02 0.01 0.00 0.00 0.00 0.00 0.00 0.00 0.00 0.00 0.00 0.00 0.00 0.00 0.00 0.00 0.00 0.00 0.00 0.00 0.00 0.00 0.01 0.00 0.00
0.02 0.02 0.02 0.02 0.01 0.01 0.01 0.00 0.00 0.00 0.01 0.00 0.00 0.01 0.01 0.01 0.01 0.02 0.02 0.01 0.00 0.00 0.00 0.00 0.00 0.00 0.00 0.00 0.00 0.00 0.00 0.00 0.00 0.00 0.00 0.00 0.00 0.00 0.00 0.00 0.00 0.00 0.00
0.02 0.03 0.02 0.02 0.02 0.01 0.01 0.01 0.00 0.00 0.00 0.00 0.00 0.00 0.00 0.01 0.01 0.00 0.01 0.00 0.00 0.00 0.00 0.00 0.00 0.00 0.00 0.00 0.00 0.00 0.00 0.00 0.00 0.00 0.00 0.00 0.00 0.00 0.00 0.00 0.00 0.00 0.00

GFSGL_prec_precacc_015.txt.gz
Total_Precipitation_Accumulation
0.00 0.00 0.00 0.00 0.00 0.00 0.00 0.00 0.00 0.00 0.00 0.00 0.00 0.01 0.01 0.04 0.07 0.05 0.03 0.02 0.01 0.00 0.00 0.00 0.00 0.00 0.00 0.00 0.00 0.00 0.00 0.00 0.00 0.00 0.00 0.00 0.00 0.00 0.00 0.00 0.00 0.00 0.00
0.00 0.00 0.00 0.00 0.00 0.00 0.00 0.00 0.00 0.00 0.01 0.03 0.03 0.03 0.05 0.07 0.04 0.03 0.01 0.01 0.00 0.00 0.00 0.00 0.00 0.00 0.00 0.00 0.00 0.00 0.00 0.00 0.00 0.00 0.00 0.00 0.00 0.00 0.00 0.00 0.00 0.00 0.00
0.00 0.00 0.00 0.00 0.00 0.00 0.00 0.00 0.01 0.02 0.03 0.04 0.03 0.04 0.04 0.03 0.01 0.01 0.01 0.01 0.00 0.00 0.00 0.00 0.00 0.00 0.00 0.00 0.00 0.00 0.00 0.00 0.00 0.00 0.00 0.00 0.00 0.00 0.00 0.00 0.00 0.00 0.00
0.00 0.00 0.00 0.00 0.00 0.01 0.00 0.00 0.00 0.01 0.01 0.02 0.01 0.02 0.01 0.00 0.00 0.00 0.00 0.00 0.00 0.00 0.00 0.00 0.00 0.00 0.00 0.00 0.00 0.00 0.00 0.00 0.00 0.00 0.00 0.00 0.00 0.00 0.00 0.00 0.00 0.00 0.00
0.00 0.00 0.00 0.00 0.00 0.00 0.00 0.00 0.00 0.01 0.01 0.01 0.01 0.00 0.00 0.00 0.00 0.00 0.00 0.00 0.00 0.00 0.00 0.00 0.00 0.00 0.00 0.00 0.00 0.00 0.00 0.00 0.00 0.00 0.00 0.00 0.00 0.00 0.00 0.00 0.00 0.00 0.00
0.00 0.00 0.01 0.03 0.07 0.10 0.11 0.08 0.04 0.03 0.02 0.00 0.00 0.00 0.00 0.00 0.00 0.00 0.00 0.00 0.00 0.00 0.00 0.00 0.00 0.00 0.00 0.00 0.00 0.00 0.00 0.01 0.01 0.01 0.01 0.00 0.00 0.00 0.00 0.00 0.00 0.00 0.01
0.00 0.00 0.02 0.05 0.07 0.05 0.02 0.01 0.01 0.00 0.00 0.00 0.00 0.00 0.00 0.00 0.00 0.00 0.00 0.00 0.00 0.00 0.00 0.00 0.00 0.00 0.00 0.00 0.00 0.00 0.00 0.00 0.01 0.02 0.03 0.02 0.01 0.00 0.01 0.02 0.02 0.02 0.01
0.00 0.00 0.00 0.00 0.00 0.00 0.00 0.00 0.00 0.00 0.00 0.00 0.00 0.00 0.00 0.00 0.00 0.00 0.00 0.00 0.00 0.00 0.00 0.00 0.00 0.00 0.00 0.00 0.02 0.02 0.02 0.01 0.01 0.01 0.02 0.01 0.01 0.01 0.01 0.02 0.02 0.03 0.03
0.00 0.00 0.00 0.00 0.00 0.00 0.00 0.00 0.00 0.00 0.00 0.00 0.00 0.00 0.00 0.00 0.00 0.00 0.00 0.00 0.00 0.00 0.00 0.00 0.00 0.01 0.00 0.01 0.06 0.09 0.05 0.02 0.00 0.00 0.01 0.01 0.01 0.01 0.01 0.06 0.11 0.12 0.09
0.00 0.00 0.00 0.00 0.00 0.00 0.00 0.00 0.00 0.00 0.00 0.00 0.00 0.00 0.00 0.00 0.00 0.00 0.00 0.01 0.02 0.02 0.01 0.01 0.01 0.01 0.02 0.05 0.11 0.14 0.12 0.03 0.02 0.03 0.02 0.02 0.02 0.03 0.02 0.10 0.15 0.16 0.09
0.00 0.00 0.00 0.00 0.00 0.00 0.00 0.00 0.00 0.00 0.00 0.00 0.01 0.01 0.01 0.01 0.00 0.00 0.00 0.01 0.05 0.06 0.03 0.02 0.03 0.12 0.07 0.04 0.06 0.10 0.07 0.04 0.04 0.04 0.03 0.03 0.02 0.02 0.03 0.04 0.08 0.15 0.15
0.00 0.00 0.01 0.01 0.00 0.00 0.00 0.00 0.00 0.00 0.00 0.00 0.01 0.01 0.01 0.01 0.00 0.00 0.00 0.01 0.03 0.13 0.08 0.11 0.15 0.07 0.02 0.01 0.02 0.02 0.02 0.03 0.06 0.06 0.07 0.05 0.04 0.03 0.02 0.02 0.03 0.05 0.05
0.01 0.01 0.01 0.00 0.00 0.00 0.00 0.00 0.00 0.00 0.00 0.00 0.00 0.00 0.00 0.00 0.00 0.00 0.01 0.02 0.03 0.08 0.17 0.14 0.07 0.03 0.01 0.01 0.02 0.01 0.02 0.06 0.07 0.07 0.05 0.04 0.04 0.05 0.07 0.08 0.06 0.06 0.08
0.01 0.00 0.00 0.00 0.00 0.00 0.00 0.00 0.00 0.00 0.00 0.00 0.01 0.01 0.01 0.00 0.01 0.02 0.05 0.03 0.05 0.13 0.10 0.11 0.07 0.04 0.03 0.05 0.04 0.04 0.06 0.07 0.08 0.08 0.06 0.04 0.05 0.07 0.11 0.10 0.12 0.10 0.17
0.00 0.00 0.00 0.00 0.00 0.00 0.00 0.00 0.00 0.00 0.00 0.00 0.00 0.02 0.04 0.04 0.03 0.09 0.11 0.13 0.20 0.13 0.11 0.10 0.07 0.06 0.05 0.04 0.03 0.02 0.04 0.04 0.06 0.07 0.08 0.06 0.05 0.06 0.06 0.07 0.09 0.11 0.15
0.00 0.00 0.00 0.00 0.00 0.00 0.00 0.00 0.00 0.00 0.00 0.00 0.00 0.01 0.01 0.03 0.06 0.07 0.09 0.15 0.15 0.10 0.11 0.10 0.11 0.10 0.07 0.05 0.03 0.02 0.02 0.02 0.03 0.05 0.05 0.04 0.04 0.04 0.05 0.04 0.04 0.07 0.08
0.00 0.00 0.00 0.00 0.00 0.00 0.00 0.00 0.00 0.00 0.00 0.00 0.00 0.00 0.01 0.03 0.06 0.07 0.10 0.13 0.13 0.09 0.10 0.11 0.11 0.10 0.08 0.04 0.04 0.03 0.03 0.04 0.05 0.05 0.06 0.06 0.06 0.06 0.08 0.06 0.07 0.09 0.12
0.00 0.00 0.00 0.00 0.00 0.00 0.00 0.00 0.00 0.00 0.00 0.01 0.00 0.00 0.00 0.03 0.05 0.07 0.08 0.08 0.09 0.09 0.11 0.11 0.10 0.08 0.06 0.04 0.03 0.03 0.03 0.03 0.03 0.04 0.05 0.05 0.05 0.05 0.06 0.06 0.08 0.10 0.09
0.00 0.00 0.00 0.00 0.00 0.00 0.00 0.01 0.01 0.00 0.00 0.00 0.00 0.00 0.00 0.02 0.03 0.05 0.05 0.07 0.10 0.11 0.11 0.10 0.09 0.07 0.05 0.04 0.04 0.03 0.03 0.03 0.03 0.03 0.03 0.03 0.03 0.04 0.03 0.03 0.03 0.03 0.03
0.00 0.00 0.00 0.00 0.00 0.00 0.00 0.00 0.00 0.00 0.00 0.01 0.00 0.01 0.01 0.01 0.02 0.03 0.04 0.06 0.07 0.08 0.08 0.07 0.07 0.06 0.05 0.04 0.03 0.02 0.01 0.02 0.02 0.02 0.02 0.03 0.03 0.03 0.02 0.02 0.02 0.01 0.02
0.00 0.00 0.00 0.00 0.00 0.00 0.00 0.00 0.00 0.01 0.01 0.01 0.01 0.01 0.01 0.02 0.03 0.04 0.04 0.04 0.05 0.05 0.05 0.04 0.04 0.03 0.02 0.01 0.01 0.01 0.01 0.01 0.02 0.02 0.02 0.02 0.02 0.02 0.02 0.02 0.02 0.01 0.01
0.00 0.01 0.01 0.01 0.00 0.01 0.00 0.00 0.01 0.01 0.01 0.01 0.00 0.01 0.01 0.02 0.02 0.03 0.03 0.03 0.02 0.02 0.02 0.01 0.01 0.01 0.02 0.02 0.02 0.02 0.01 0.01 0.01 0.01 0.01 0.01 0.01 0.01 0.02 0.01 0.01 0.01 0.01
0.01 0.02 0.01 0.01 0.01 0.00 0.01 0.01 0.01 0.01 0.01 0.01 0.01 0.00 0.01 0.02 0.03 0.03 0.03 0.02 0.01 0.00 0.00 0.00 0.00 0.00 0.00 0.00 0.01 0.01 0.01 0.01 0.01 0.01 0.01 0.00 0.00 0.01 0.01 0.01 0.01 0.01 0.01
0.02 0.02 0.02 0.02 0.02 0.01 0.01 0.01 0.01 0.01 0.01 0.01 0.01 0.01 0.01 0.01 0.02 0.03 0.02 0.01 0.00 0.00 0.00 0.00 0.00 0.00 0.00 0.00 0.00 0.00 0.00 0.00 0.00 0.00 0.00 0.00 0.00 0.00 0.00 0.00 0.01 0.01 0.01
0.03 0.03 0.03 0.03 0.03 0.02 0.01 0.01 0.01 0.02 0.02 0.02 0.01 0.01 0.01 0.01 0.01 0.02 0.02 0.01 0.00 0.00 0.00 0.00 0.00 0.00 0.00 0.00 0.00 0.00 0.00 0.00 0.00 0.00 0.00 0.00 0.00 0.00 0.00 0.00 0.00 0.00 0.00
0.03 0.03 0.03 0.03 0.03 0.03 0.02 0.01 0.01 0.01 0.02 0.02 0.01 0.01 0.01 0.01 0.01 0.00 0.01 0.01 0.00 0.00 0.00 0.00 0.00 0.00 0.00 0.00 0.00 0.00 0.00 0.00 0.00 0.00 0.00 0.00 0.00 0.00 0.00 0.00 0.00 0.00 0.00

GFSGL_prec_precacc_018.txt.gz
Total_Precipitation_Accumulation
0.00 0.00 0.00 0.00 0.00 0.00 0.00 0.00 0.00 0.00 0.00 0.00 0.02 0.04 0.03 0.05 0.08 0.06 0.04 0.03 0.02 0.01 0.01 0.01 0.00 0.00 0.00 0.00 0.00 0.01 0.01 0.01 0.00 0.00 0.00 0.00 0.00 0.00 0.00 0.00 0.00 0.00 0.00
0.00 0.00 0.00 0.00 0.00 0.00 0.00 0.00 0.00 0.00 0.01 0.03 0.05 0.04 0.06 0.08 0.05 0.04 0.02 0.01 0.01 0.01 0.01 0.01 0.01 0.00 0.00 0.00 0.00 0.00 0.00 0.00 0.00 0.00 0.00 0.00 0.00 0.00 0.00 0.00 0.00 0.00 0.00
0.00 0.00 0.00 0.00 0.00 0.00 0.00 0.00 0.01 0.02 0.03 0.04 0.04 0.05 0.05 0.03 0.02 0.01 0.01 0.01 0.00 0.00 0.00 0.00 0.00 0.00 0.00 0.00 0.00 0.00 0.00 0.00 0.00 0.00 0.00 0.00 0.00 0.00 0.00 0.00 0.00 0.00 0.00
0.00 0.00 0.00 0.00 0.00 0.01 0.00 0.00 0.00 0.01 0.01 0.02 0.01 0.02 0.01 0.00 0.00 0.00 0.00 0.00 0.00 0.00 0.00 0.00 0.00 0.00 0.00 0.00 0.00 0.00 0.00 0.00 0.00 0.00 0.00 0.00 0.00 0.00 0.00 0.00 0.00 0.00 0.00
0.00 0.00 0.00 0.00 0.00 0.00 0.00 0.00 0.00 0.01 0.01 0.01 0.01 0.00 0.00 0.00 0.00 0.00 0.00 0.00 0.00 0.00 0.00 0.00 0.00 0.00 0.00 0.00 0.00 0.00 0.00 0.00 0.00 0.00 0.00 0.00 0.00 0.00 0.00 0.00 0.00 0.00 0.00
0.00 0.00 0.01 0.03 0.07 0.10 0.11 0.08 0.04 0.03 0.02 0.00 0.00 0.00 0.00 0.00 0.00 0.00 0.00 0.00 0.00 0.00 0.00 0.00 0.00 0.00 0.00 0.00 0.00 0.00 0.00 0.01 0.01 0.01 0.01 0.00 0.00 0.00 0.00 0.00 0.00 0.00 0.01
0.00 0.00 0.02 0.05 0.07 0.05 0.02 0.01 0.01 0.00 0.00 0.00 0.00 0.00 0.00 0.00 0.00 0.00 0.00 0.00 0.00 0.00 0.00 0.00 0.00 0.00 0.00 0.00 0.00 0.00 0.00 0.00 0.01 0.02 0.03 0.02 0.01 0.00 0.01 0.02 0.02 0.02 0.01
0.00 0.00 0.00 0.00 0.00 0.00 0.00 0.00 0.00 0.00 0.00 0.00 0.00 0.00 0.00 0.00 0.00 0.00 0.00 0.00 0.00 0.00 0.00 0.00 0.00 0.00 0.00 0.00 0.02 0.02 0.02 0.02 0.01 0.02 0.03 0.02 0.01 0.01 0.02 0.02 0.03 0.04 0.03
0.00 0.00 0.00 0.01 0.00 0.00 0.00 0.00 0.00 0.00 0.00 0.00 0.00 0.00 0.00 0.00 0.00 0.00 0.00 0.00 0.00 0.00 0.00 0.01 0.01 0.01 0.01 0.02 0.07 0.09 0.05 0.02 0.01 0.01 0.01 0.02 0.01 0.01 0.01 0.06 0.12 0.14 0.11
0.00 0.00 0.00 0.00 0.01 0.01 0.03 0.01 0.00 0.00 0.00 0.00 0.00 0.00 0.00 0.00 0.01 0.01 0.00 0.01 0.02 0.02 0.02 0.01 0.01 0.02 0.05 0.06 0.13 0.16 0.14 0.03 0.02 0.03 0.02 0.02 0.02 0.03 0.02 0.10 0.15 0.16 0.10
0.00 0.00 0.01 0.02 0.04 0.04 0.01 0.00 0.00 0.00 0.00 0.00 0.01 0.01 0.01 0.01 0.01 0.01 0.00 0.01 0.06 0.07 0.04 0.03 0.04 0.18 0.13 0.06 0.06 0.11 0.08 0.05 0.05 0.05 0.03 0.03 0.02 0.02 0.03 0.05 0.09 0.16 0.15
0.01 0.01 0.02 0.04 0.03 0.00 0.00 0.00 0.00 0.00 0.00 0.00 0.01 0.01 0.01 0.01 0.01 0.00 0.00 0.01 0.04 0.14 0.09 0.13 0.18 0.08 0.03 0.02 0.02 0.03 0.03 0.04 0.06 0.08 0.09 0.06 0.06 0.05 0.03 0.03 0.05 0.07 0.07
0.02 0.03 0.03 0.02 0.00 0.00 0.00 0.00 0.00 0.00 0.00 0.01 0.00 0.01 0.01 0.00 0.00 0.00 0.01 0.02 0.03 0.09 0.19 0.16 0.08 0.06 0.02 0.02 0.04 0.03 0.04 0.09 0.12 0.11 0.07 0.05 0.06 0.06 0.08 0.09 0.07 0.07 0.09
0.01 0.00 0.00 0.00 0.00 0.00 0.00 0.00 0.00 0.00 0.00 0.00 0.01 0.01 0.01 0.00 0.01 0.02 0.05 0.04 0.05 0.14 0.10 0.12 0.12 0.06 0.05 0.08 0.09 0.07 0.10 0.11 0.10 0.11 0.08 0.05 0.06 0.08 0.11 0.11 0.15 0.12 0.19
0.00 0.00 0.00 0.00 0.00 0.00 0.00 0.00 0.00 0.00 0.00 0.00 0.00 0.02 0.04 0.04 0.03 0.10 0.11 0.14 0.21 0.14 0.12 0.14 0.09 0.08 0.07 0.06 0.05 0.05 0.06 0.05 0.07 0.08 0.10 0.08 0.06 0.06 0.07 0.10 0.10 0.13 0.17
0.00 0.00 0.00 0.00 0.00 0.00 0.00 0.00 0.00 0.00 0.00 0.00 0.00 0.01 0.01 0.03 0.06 0.07 0.10 0.15 0.16 0.10 0.13 0.12 0.13 0.12 0.10 0.08 0.07 0.04 0.03 0.03 0.04 0.06 0.07 0.05 0.04 0.05 0.05 0.07 0.06 0.08 0.09
0.00 0.00 0.00 0.00 0.00 0.00 0.00 0.00 0.01 0.00 0.00 0.00 0.00 0.00 0.01 0.03 0.06 0.08 0.10 0.13 0.14 0.10 0.12 0.12 0.13 0.12 0.10 0.05 0.05 0.05 0.05 0.06 0.05 0.06 0.07 0.07 0.06 0.06 0.09 0.07 0.08 0.11 0.14
0.00 0.00 0.00 0.00 0.00 0.00 0.00 0.01 0.01 0.01 0.01 0.01 0.01 0.00 0.00 0.03 0.05 0.07 0.08 0.08 0.10 0.10 0.12 0.12 0.12 0.10 0.06 0.04 0.03 0.04 0.04 0.04 0.03 0.04 0.06 0.06 0.05 0.06 0.07 0.07 0.09 0.10 0.10
0.00 0.00 0.00 0.01 0.01 0.00 0.01 0.01 0.01 0.01 0.01 0.01 0.01 0.00 0.00 0.02 0.04 0.06 0.06 0.08 0.10 0.11 0.11 0.10 0.10 0.07 0.05 0.04 0.04 0.04 0.04 0.04 0.03 0.03 0.04 0.04 0.05 0.05 0.04 0.04 0.04 0.04 0.03
0.00 0.00 0.00 0.00 0.01 0.01 0.01 0.01 0.01 0.01 0.01 0.01 0.01 0.01 0.01 0.01 0.02 0.03 0.05 0.07 0.07 0.08 0.08 0.07 0.07 0.06 0.05 0.04 0.03 0.02 0.02 0.02 0.02 0.02 0.03 0.04 0.05 0.04 0.04 0.03 0.02 0.02 0.02
0.00 0.00 0.00 0.00 0.01 0.01 0.01 0.01 0.01 0.01 0.01 0.01 0.01 0.01 0.01 0.02 0.04 0.04 0.04 0.04 0.05 0.05 0.05 0.04 0.04 0.03 0.02 0.02 0.01 0.01 0.02 0.02 0.02 0.02 0.02 0.03 0.03 0.03 0.03 0.03 0.02 0.02 0.01
0.01 0.01 0.01 0.01 0.01 0.01 0.01 0.01 0.01 0.02 0.01 0.01 0.01 0.01 0.01 0.02 0.03 0.03 0.03 0.03 0.03 0.02 0.02 0.01 0.01 0.01 0.02 0.02 0.02 0.02 0.01 0.01 0.01 0.01 0.01 0.01 0.01 0.02 0.02 0.02 0.02 0.02 0.02
0.02 0.02 0.01 0.01 0.02 0.01 0.01 0.01 0.02 0.02 0.02 0.02 0.01 0.01 0.01 0.02 0.03 0.03 0.03 0.02 0.01 0.00 0.00 0.00 0.00 0.00 0.00 0.00 0.01 0.01 0.01 0.01 0.01 0.01 0.01 0.01 0.00 0.01 0.01 0.01 0.01 0.01 0.01
0.02 0.02 0.03 0.02 0.03 0.02 0.02 0.02 0.02 0.02 0.02 0.02 0.02 0.02 0.02 0.02 0.03 0.03 0.03 0.02 0.00 0.00 0.00 0.00 0.00 0.00 0.00 0.00 0.00 0.00 0.00 0.00 0.00 0.00 0.00 0.00 0.00 0.00 0.00 0.01 0.01 0.01 0.01
0.03 0.03 0.04 0.04 0.04 0.03 0.03 0.02 0.02 0.02 0.03 0.03 0.02 0.02 0.02 0.01 0.01 0.02 0.02 0.02 0.01 0.00 0.00 0.00 0.00 0.00 0.00 0.00 0.00 0.00 0.00 0.00 0.00 0.00 0.00 0.00 0.00 0.00 0.00 0.00 0.00 0.00 0.00
0.03 0.04 0.04 0.04 0.04 0.04 0.04 0.03 0.01 0.02 0.02 0.03 0.02 0.02 0.02 0.01 0.01 0.01 0.01 0.01 0.00 0.00 0.00 0.00 0.00 0.00 0.00 0.00 0.00 0.00 0.00 0.00 0.00 0.00 0.00 0.00 0.00 0.00 0.00 0.00 0.00 0.00 0.00

GFSGL_prec_precacc_024.txt.gz
Total_Precipitation_Accumulation
0.00 0.00 0.00 0.00 0.00 0.00 0.00 0.00 0.00 0.00 0.00 0.00 0.02 0.04 0.03 0.05 0.08 0.07 0.04 0.03 0.03 0.02 0.01 0.01 0.01 0.01 0.01 0.01 0.01 0.02 0.03 0.03 0.02 0.00 0.00 0.00 0.00 0.00 0.00 0.00 0.01 0.03 0.04
0.00 0.00 0.00 0.00 0.00 0.00 0.00 0.00 0.00 0.00 0.01 0.03 0.05 0.04 0.06 0.08 0.06 0.05 0.02 0.01 0.02 0.02 0.01 0.01 0.01 0.00 0.00 0.00 0.00 0.00 0.00 0.00 0.00 0.00 0.00 0.00 0.00 0.00 0.00 0.00 0.00 0.00 0.00
0.00 0.00 0.00 0.00 0.00 0.00 0.00 0.00 0.01 0.02 0.04 0.05 0.04 0.05 0.05 0.03 0.02 0.01 0.01 0.01 0.00 0.00 0.00 0.00 0.00 0.00 0.00 0.00 0.00 0.00 0.00 0.00 0.00 0.00 0.00 0.00 0.00 0.00 0.00 0.00 0.00 0.00 0.00
0.00 0.00 0.00 0.00 0.00 0.01 0.00 0.00 0.01 0.04 0.06 0.03 0.01 0.02 0.01 0.00 0.00 0.00 0.00 0.00 0.00 0.00 0.00 0.00 0.00 0.00 0.00 0.00 0.00 0.00 0.00 0.00 0.00 0.00 0.00 0.00 0.00 0.00 0.00 0.00 0.00 0.00 0.00
0.00 0.00 0.00 0.00 0.00 0.00 0.00 0.01 0.03 0.05 0.02 0.01 0.01 0.00 0.00 0.00 0.00 0.00 0.00 0.00 0.00 0.00 0.00 0.00 0.00 0.00 0.00 0.00 0.00 0.00 0.00 0.00 0.00 0.00 0.00 0.00 0.00 0.00 0.00 0.00 0.00 0.00 0.00
0.00 0.00 0.01 0.04 0.07 0.10 0.13 0.10 0.10 0.07 0.03 0.01 0.00 0.00 0.00 0.00 0.00 0.00 0.00 0.00 0.00 0.00 0.00 0.00 0.00 0.00 0.00 0.00 0.00 0.00 0.00 0.01 0.01 0.01 0.01 0.00 0.00 0.00 0.00 0.00 0.00 0.00 0.01
0.00 0.00 0.02 0.05 0.08 0.07 0.05 0.07 0.05 0.04 0.06 0.03 0.00 0.00 0.00 0.00 0.00 0.00 0.00 0.00 0.00 0.00 0.00 0.00 0.00 0.00 0.00 0.00 0.00 0.00 0.00 0.00 0.01 0.02 0.04 0.02 0.01 0.00 0.01 0.02 0.02 0.02 0.01
0.00 0.00 0.00 0.01 0.02 0.02 0.04 0.06 0.08 0.12 0.06 0.00 0.00 0.00 0.00 0.00 0.00 0.00 0.00 0.00 0.00 0.00 0.00 0.00 0.00 0.00 0.00 0.01 0.03 0.03 0.02 0.02 0.01 0.02 0.04 0.03 0.02 0.01 0.02 0.03 0.05 0.07 0.05
0.00 0.00 0.00 0.01 0.03 0.02 0.04 0.09 0.08 0.01 0.00 0.00 0.00 0.00 0.00 0.00 0.00 0.00 0.00 0.01 0.00 0.00 0.00 0.01 0.01 0.01 0.01 0.04 0.10 0.12 0.06 0.02 0.01 0.02 0.03 0.03 0.04 0.02 0.03 0.09 0.15 0.16 0.12
0.00 0.00 0.00 0.01 0.03 0.04 0.06 0.02 0.00 0.00 0.00 0.00 0.00 0.00 0.00 0.00 0.01 0.01 0.01 0.01 0.03 0.02 0.02 0.01 0.01 0.03 0.10 0.13 0.19 0.19 0.15 0.04 0.02 0.03 0.02 0.02 0.02 0.03 0.02 0.10 0.15 0.17 0.11
0.00 0.00 0.01 0.02 0.04 0.04 0.02 0.00 0.00 0.00 0.00 0.00 0.01 0.01 0.01 0.01 0.01 0.01 0.02 0.02 0.06 0.08 0.04 0.03 0.05 0.20 0.17 0.11 0.09 0.13 0.09 0.07 0.06 0.06 0.04 0.03 0.02 0.03 0.04 0.06 0.10 0.17 0.16
0.01 0.01 0.02 0.04 0.04 0.01 0.00 0.00 0.00 0.00 0.00 0.00 0.01 0.01 0.01 0.01 0.01 0.00 0.01 0.02 0.04 0.15 0.10 0.14 0.21 0.13 0.08 0.04 0.06 0.09 0.07 0.06 0.09 0.11 0.12 0.09 0.09 0.07 0.06 0.07 0.10 0.13 0.10
0.02 0.03 0.03 0.02 0.00 0.00 0.00 0.00 0.00 0.00 0.00 0.01 0.00 0.01 0.01 0.00 0.00 0.00 0.01 0.02 0.03 0.10 0.21 0.20 0.13 0.11 0.05 0.05 0.09 0.09 0.07 0.14 0.17 0.16 0.12 0.09 0.09 0.09 0.11 0.10 0.08 0.07 0.11
0.01 0.00 0.00 0.00 0.00 0.00 0.00 0.00 0.00 0.00 0.00 0.00 0.01 0.01 0.01 0.00 0.01 0.02 0.05 0.04 0.06 0.14 0.11 0.13 0.15 0.07 0.07 0.13 0.13 0.10 0.14 0.15 0.13 0.15 0.11 0.07 0.08 0.09 0.12 0.13 0.20 0.14 0.19
0.00 0.00 0.00 0.00 0.00 0.00 0.00 0.00 0.00 0.00 0.00 0.00 0.00 0.02 0.04 0.04 0.03 0.10 0.12 0.15 0.23 0.16 0.13 0.15 0.10 0.09 0.08 0.08 0.07 0.06 0.07 0.07 0.08 0.10 0.12 0.09 0.07 0.08 0.09 0.11 0.13 0.14 0.17
0.00 0.00 0.00 0.00 0.00 0.00 0.00 0.00 0.00 0.00 0.00 0.00 0.00 0.01 0.01 0.03 0.06 0.07 0.10 0.16 0.17 0.11 0.14 0.13 0.14 0.14 0.12 0.10 0.09 0.06 0.05 0.07 0.05 0.08 0.08 0.07 0.06 0.07 0.07 0.07 0.07 0.09 0.10
0.00 0.00 0.00 0.00 0.00 0.00 0.00 0.00 0.01 0.00 0.00 0.00 0.00 0.00 0.01 0.03 0.06 0.08 0.10 0.13 0.14 0.10 0.12 0.13 0.14 0.13 0.10 0.06 0.06 0.06 0.08 0.10 0.07 0.08 0.09 0.08 0.08 0.08 0.09 0.07 0.08 0.11 0.15
0.00 0.00 0.00 0.00 0.00 0.00 0.00 0.01 0.01 0.01 0.01 0.01 0.01 0.00 0.00 0.03 0.05 0.07 0.08 0.08 0.10 0.10 0.12 0.13 0.12 0.11 0.06 0.04 0.04 0.04 0.04 0.05 0.03 0.05 0.07 0.08 0.08 0.08 0.08 0.07 0.09 0.11 0.11
0.00 0.00 0.00 0.01 0.01 0.01 0.01 0.01 0.01 0.01 0.01 0.01 0.01 0.00 0.00 0.02 0.04 0.06 0.06 0.08 0.10 0.11 0.11 0.10 0.10 0.08 0.05 0.04 0.04 0.04 0.04 0.04 0.03 0.03 0.04 0.05 0.07 0.07 0.06 0.04 0.04 0.04 0.04
0.00 0.00 0.00 0.00 0.01 0.01 0.01 0.01 0.01 0.01 0.01 0.01 0.01 0.01 0.01 0.01 0.02 0.03 0.05 0.07 0.07 0.08 0.08 0.07 0.07 0.06 0.05 0.04 0.03 0.02 0.02 0.02 0.02 0.02 0.03 0.04 0.05 0.05 0.06 0.05 0.03 0.03 0.02
0.00 0.00 0.00 0.00 0.01 0.01 0.01 0.02 0.01 0.01 0.01 0.01 0.01 0.01 0.01 0.02 0.04 0.04 0.04 0.04 0.05 0.05 0.05 0.04 0.04 0.03 0.02 0.02 0.01 0.01 0.02 0.02 0.02 0.02 0.02 0.03 0.03 0.03 0.04 0.04 0.03 0.02 0.02
0.01 0.01 0.01 0.02 0.01 0.01 0.02 0.01 0.02 0.02 0.02 0.02 0.01 0.01 0.01 0.02 0.03 0.04 0.03 0.03 0.03 0.02 0.02 0.01 0.01 0.01 0.02 0.02 0.02 0.02 0.01 0.01 0.01 0.01 0.01 0.01 0.02 0.02 0.02 0.02 0.02 0.02 0.02
0.02 0.02 0.02 0.01 0.02 0.02 0.02 0.02 0.03 0.03 0.02 0.02 0.01 0.01 0.01 0.02 0.03 0.03 0.03 0.02 0.01 0.00 0.00 0.00 0.00 0.00 0.00 0.00 0.01 0.01 0.01 0.01 0.01 0.01 0.01 0.01 0.01 0.01 0.01 0.01 0.01 0.01 0.01
0.02 0.02 0.03 0.03 0.03 0.02 0.02 0.02 0.03 0.03 0.02 0.02 0.02 0.02 0.02 0.02 0.03 0.03 0.03 0.02 0.00 0.00 0.00 0.00 0.00 0.00 0.00 0.00 0.00 0.00 0.00 0.00 0.00 0.00 0.00 0.01 0.00 0.00 0.00 0.01 0.01 0.01 0.01
0.03 0.03 0.04 0.04 0.04 0.04 0.03 0.02 0.03 0.03 0.04 0.04 0.03 0.03 0.02 0.02 0.02 0.02 0.02 0.02 0.01 0.00 0.00 0.00 0.00 0.00 0.00 0.00 0.00 0.00 0.00 0.00 0.00 0.00 0.00 0.00 0.00 0.00 0.00 0.00 0.00 0.00 0.00
0.03 0.04 0.04 0.05 0.05 0.04 0.04 0.03 0.02 0.03 0.03 0.03 0.03 0.02 0.02 0.02 0.01 0.01 0.01 0.01 0.00 0.00 0.00 0.00 0.00 0.00 0.00 0.00 0.00 0.00 0.00 0.00 0.00 0.00 0.00 0.00 0.00 0.00 0.00 0.00 0.00 0.00 0.00

GFSGL_prec_precacc_027.txt.gz
Total_Precipitation_Accumulation
0.00 0.00 0.00 0.00 0.00 0.00 0.00 0.00 0.00 0.00 0.00 0.00 0.02 0.04 0.03 0.05 0.08 0.07 0.04 0.03 0.03 0.02 0.01 0.01 0.01 0.01 0.01 0.01 0.01 0.02 0.03 0.04 0.03 0.00 0.00 0.00 0.00 0.00 0.00 0.00 0.01 0.03 0.04
0.00 0.00 0.00 0.00 0.00 0.00 0.00 0.00 0.00 0.00 0.01 0.04 0.05 0.05 0.07 0.08 0.06 0.05 0.02 0.01 0.02 0.02 0.01 0.01 0.01 0.00 0.00 0.00 0.00 0.00 0.00 0.00 0.00 0.00 0.00 0.00 0.00 0.00 0.00 0.00 0.00 0.00 0.00
0.00 0.00 0.00 0.00 0.00 0.00 0.00 0.00 0.01 0.02 0.04 0.07 0.05 0.05 0.05 0.03 0.02 0.01 0.01 0.01 0.00 0.00 0.00 0.00 0.00 0.00 0.00 0.00 0.00 0.00 0.00 0.00 0.00 0.00 0.00 0.00 0.00 0.00 0.00 0.00 0.00 0.00 0.00
0.00 0.00 0.00 0.00 0.00 0.01 0.00 0.00 0.01 0.05 0.07 0.04 0.02 0.02 0.01 0.00 0.00 0.00 0.00 0.00 0.00 0.00 0.00 0.00 0.00 0.00 0.00 0.00 0.00 0.00 0.00 0.00 0.00 0.00 0.00 0.00 0.00 0.00 0.00 0.00 0.00 0.00 0.00
0.00 0.00 0.00 0.00 0.00 0.00 0.00 0.01 0.03 0.05 0.02 0.02 0.01 0.01 0.00 0.00 0.00 0.00 0.00 0.00 0.00 0.00 0.00 0.00 0.00 0.00 0.00 0.00 0.00 0.00 0.01 0.01 0.01 0.01 0.00 0.00 0.00 0.00 0.00 0.00 0.00 0.00 0.00
0.00 0.00 0.01 0.04 0.07 0.10 0.13 0.10 0.10 0.07 0.03 0.01 0.02 0.00 0.00 0.00 0.00 0.00 0.00 0.00 0.00 0.00 0.00 0.00 0.00 0.00 0.00 0.00 0.00 0.00 0.01 0.02 0.02 0.02 0.01 0.01 0.00 0.00 0.00 0.00 0.00 0.00 0.01
0.00 0.00 0.02 0.05 0.08 0.07 0.05 0.07 0.05 0.04 0.06 0.05 0.00 0.00 0.00 0.00 0.00 0.00 0.00 0.00 0.00 0.00 0.00 0.00 0.00 0.00 0.00 0.00 0.00 0.00 0.00 0.01 0.02 0.03 0.05 0.02 0.01 0.00 0.01 0.02 0.02 0.02 0.01
0.00 0.00 0.00 0.01 0.02 0.02 0.04 0.06 0.08 0.12 0.06 0.00 0.00 0.00 0.00 0.00 0.00 0.00 0.00 0.00 0.00 0.00 0.00 0.00 0.00 0.00 0.00 0.01 0.04 0.04 0.03 0.02 0.01 0.02 0.04 0.03 0.02 0.02 0.02 0.03 0.05 0.07 0.05
0.00 0.00 0.00 0.01 0.03 0.02 0.04 0.09 0.08 0.01 0.00 0.00 0.00 0.00 0.00 0.00 0.00 0.00 0.00 0.01 0.00 0.00 0.00 0.01 0.01 0.01 0.01 0.05 0.12 0.13 0.06 0.02 0.01 0.02 0.03 0.04 0.05 0.04 0.05 0.11 0.16 0.17 0.12
0.00 0.00 0.00 0.01 0.03 0.04 0.06 0.02 0.00 0.00 0.00 0.00 0.00 0.00 0.00 0.00 0.01 0.01 0.01 0.01 0.03 0.02 0.02 0.01 0.01 0.03 0.11 0.15 0.22 0.21 0.17 0.04 0.02 0.03 0.02 0.02 0.02 0.03 0.02 0.10 0.15 0.17 0.11
0.00 0.00 0.01 0.02 0.04 0.04 0.02 0.00 0.00 0.00 0.00 0.00 0.01 0.01 0.01 0.01 0.01 0.01 0.02 0.02 0.06 0.08 0.04 0.03 0.05 0.21 0.18 0.12 0.11 0.17 0.14 0.08 0.07 0.07 0.05 0.04 0.03 0.03 0.04 0.06 0.11 0.17 0.17
0.01 0.01 0.02 0.04 0.04 0.01 0.00 0.00 0.00 0.00 0.00 0.00 0.01 0.01 0.01 0.01 0.01 0.00 0.01 0.02 0.04 0.15 0.10 0.15 0.22 0.13 0.09 0.06 0.08 0.13 0.09 0.07 0.10 0.13 0.13 0.10 0.11 0.09 0.08 0.09 0.11 0.15 0.12
0.02 0.03 0.03 0.02 0.00 0.00 0.00 0.00 0.00 0.00 0.00 0.01 0.00 0.01 0.01 0.00 0.00 0.00 0.01 0.02 0.03 0.10 0.21 0.21 0.13 0.11 0.05 0.05 0.11 0.12 0.08 0.15 0.18 0.16 0.13 0.10 0.11 0.11 0.13 0.12 0.08 0.08 0.11
0.01 0.00 0.00 0.00 0.00 0.00 0.00 0.00 0.00 0.00 0.00 0.00 0.01 0.01 0.01 0.00 0.01 0.02 0.05 0.04 0.06 0.14 0.11 0.13 0.15 0.07 0.08 0.13 0.13 0.12 0.15 0.17 0.16 0.17 0.13 0.09 0.10 0.11 0.16 0.17 0.22 0.17 0.21
0.00 0.00 0.00 0.00 0.00 0.00 0.00 0.00 0.00 0.00 0.00 0.00 0.00 0.02 0.04 0.04 0.03 0.10 0.12 0.15 0.23 0.16 0.13 0.15 0.10 0.09 0.08 0.08 0.07 0.07 0.08 0.07 0.09 0.12 0.13 0.10 0.09 0.10 0.11 0.13 0.15 0.15 0.17
0.00 0.00 0.00 0.00 0.00 0.00 0.00 0.00 0.00 0.00 0.00 0.00 0.00 0.01 0.01 0.03 0.06 0.07 0.10 0.16 0.17 0.11 0.14 0.13 0.14 0.14 0.12 0.11 0.09 0.06 0.05 0.07 0.06 0.09 0.09 0.08 0.08 0.09 0.09 0.08 0.08 0.10 0.12
0.00 0.00 0.00 0.00 0.00 0.00 0.00 0.00 0.01 0.00 0.00 0.00 0.00 0.00 0.01 0.03 0.06 0.08 0.10 0.13 0.14 0.10 0.12 0.13 0.14 0.14 0.10 0.06 0.06 0.06 0.08 0.10 0.07 0.09 0.10 0.10 0.10 0.09 0.10 0.08 0.09 0.12 0.16
0.00 0.00 0.01 0.00 0.00 0.00 0.00 0.01 0.01 0.01 0.01 0.01 0.01 0.00 0.00 0.03 0.05 0.07 0.08 0.08 0.10 0.10 0.12 0.13 0.12 0.11 0.06 0.04 0.04 0.04 0.04 0.05 0.03 0.05 0.08 0.09 0.08 0.09 0.09 0.08 0.09 0.11 0.12
0.00 0.00 0.00 0.01 0.01 0.01 0.01 0.01 0.02 0.01 0.01 0.01 0.01 0.00 0.00 0.02 0.04 0.06 0.06 0.08 0.10 0.11 0.11 0.10 0.10 0.08 0.05 0.04 0.04 0.04 0.04 0.04 0.03 0.03 0.04 0.05 0.07 0.08 0.06 0.05 0.05 0.04 0.04
0.00 0.00 0.00 0.00 0.01 0.01 0.01 0.01 0.01 0.01 0.01 0.01 0.01 0.01 0.01 0.01 0.02 0.03 0.05 0.07 0.07 0.08 0.08 0.07 0.07 0.06 0.05 0.04 0.03 0.02 0.02 0.02 0.02 0.02 0.03 0.04 0.05 0.05 0.06 0.05 0.03 0.03 0.02
0.01 0.00 0.00 0.00 0.01 0.01 0.01 0.02 0.02 0.02 0.02 0.01 0.01 0.01 0.01 0.02 0.04 0.04 0.04 0.04 0.05 0.05 0.05 0.04 0.04 0.03 0.02 0.02 0.01 0.01 0.02 0.02 0.02 0.02 0.02 0.03 0.03 0.03 0.04 0.04 0.03 0.02 0.02
0.02 0.01 0.01 0.02 0.01 0.01 0.02 0.01 0.02 0.03 0.03 0.02 0.01 0.01 0.01 0.02 0.03 0.04 0.03 0.03 0.03 0.02 0.02 0.01 0.01 0.01 0.02 0.02 0.02 0.02 0.01 0.01 0.01 0.01 0.01 0.01 0.02 0.02 0.02 0.02 0.02 0.02 0.02
0.03 0.02 0.02 0.01 0.02 0.02 0.02 0.02 0.03 0.03 0.03 0.03 0.01 0.01 0.01 0.03 0.03 0.03 0.03 0.02 0.01 0.00 0.00 0.00 0.00 0.00 0.00 0.00 0.01 0.01 0.01 0.01 0.01 0.01 0.01 0.01 0.01 0.01 0.01 0.01 0.01 0.01 0.01
0.03 0.03 0.03 0.03 0.03 0.02 0.02 0.02 0.03 0.03 0.03 0.02 0.03 0.03 0.03 0.02 0.03 0.03 0.03 0.02 0.00 0.00 0.00 0.00 0.00 0.00 0.00 0.00 0.00 0.00 0.00 0.00 0.00 0.00 0.00 0.01 0.00 0.00 0.00 0.01 0.01 0.01 0.01
0.04 0.04 0.04 0.05 0.04 0.04 0.03 0.02 0.03 0.03 0.04 0.04 0.03 0.03 0.02 0.02 0.02 0.02 0.02 0.02 0.01 0.00 0.00 0.00 0.00 0.00 0.00 0.00 0.00 0.00 0.00 0.00 0.00 0.00 0.00 0.00 0.00 0.00 0.00 0.00 0.00 0.00 0.00
0.04 0.05 0.05 0.05 0.05 0.05 0.05 0.03 0.02 0.03 0.03 0.03 0.03 0.02 0.02 0.02 0.01 0.01 0.01 0.01 0.00 0.00 0.00 0.00 0.00 0.00 0.00 0.00 0.00 0.00 0.00 0.00 0.00 0.00 0.00 0.00 0.00 0.00 0.00 0.00 0.00 0.00 0.00

GFSGL_prec_precacc_030.txt.gz
Total_Precipitation_Accumulation
0.00 0.00 0.00 0.00 0.00 0.00 0.00 0.00 0.00 0.00 0.00 0.00 0.02 0.04 0.04 0.06 0.08 0.07 0.04 0.03 0.03 0.02 0.01 0.01 0.01 0.01 0.01 0.01 0.01 0.02 0.03 0.04 0.03 0.00 0.00 0.00 0.00 0.00 0.00 0.00 0.01 0.03 0.04
0.00 0.00 0.00 0.00 0.00 0.00 0.00 0.00 0.00 0.00 0.01 0.04 0.05 0.06 0.07 0.08 0.06 0.05 0.02 0.01 0.02 0.02 0.01 0.01 0.01 0.00 0.00 0.00 0.00 0.00 0.00 0.00 0.00 0.00 0.00 0.00 0.00 0.00 0.00 0.00 0.00 0.00 0.00
0.00 0.00 0.00 0.00 0.00 0.00 0.00 0.00 0.01 0.02 0.04 0.07 0.06 0.06 0.05 0.03 0.02 0.01 0.01 0.01 0.00 0.00 0.00 0.00 0.00 0.00 0.00 0.00 0.00 0.00 0.00 0.00 0.00 0.01 0.00 0.00 0.00 0.00 0.00 0.00 0.00 0.00 0.00
0.00 0.00 0.00 0.00 0.00 0.01 0.00 0.00 0.01 0.05 0.07 0.04 0.02 0.03 0.02 0.00 0.00 0.00 0.00 0.00 0.00 0.00 0.00 0.00 0.00 0.00 0.00 0.00 0.00 0.00 0.00 0.00 0.01 0.02 0.01 0.00 0.00 0.00 0.00 0.00 0.00 0.00 0.00
0.00 0.00 0.00 0.00 0.00 0.00 0.00 0.01 0.03 0.05 0.02 0.02 0.02 0.01 0.00 0.00 0.00 0.00 0.00 0.00 0.00 0.00 0.00 0.00 0.00 0.00 0.00 0.00 0.01 0.00 0.01 0.01 0.02 0.02 0.01 0.01 0.00 0.00 0.00 0.00 0.00 0.00 0.00
0.00 0.00 0.01 0.04 0.07 0.10 0.13 0.10 0.10 0.07 0.03 0.01 0.03 0.01 0.00 0.00 0.00 0.00 0.00 0.00 0.00 0.00 0.00 0.00 0.00 0.00 0.00 0.00 0.00 0.00 0.01 0.03 0.04 0.03 0.02 0.02 0.00 0.00 0.00 0.00 0.00 0.00 0.01
0.00 0.00 0.02 0.05 0.08 0.07 0.05 0.07 0.05 0.04 0.06 0.05 0.00 0.00 0.00 0.00 0.00 0.00 0.00 0.00 0.00 0.00 0.00 0.00 0.00 0.00 0.00 0.00 0.00 0.00 0.01 0.01 0.04 0.07 0.09 0.03 0.02 0.00 0.01 0.02 0.02 0.02 0.01
0.00 0.00 0.00 0.01 0.02 0.02 0.04 0.06 0.08 0.12 0.06 0.00 0.00 0.00 0.00 0.00 0.00 0.00 0.00 0.00 0.00 0.00 0.00 0.00 0.00 0.00 0.00 0.01 0.05 0.06 0.03 0.02 0.01 0.02 0.05 0.03 0.02 0.02 0.03 0.04 0.05 0.08 0.05
0.00 0.00 0.00 0.01 0.03 0.02 0.04 0.09 0.08 0.01 0.00 0.00 0.00 0.00 0.00 0.00 0.00 0.00 0.00 0.01 0.00 0.00 0.00 0.01 0.01 0.01 0.02 0.06 0.15 0.14 0.07 0.02 0.01 0.02 0.04 0.04 0.05 0.06 0.07 0.15 0.18 0.19 0.13
0.00 0.00 0.00 0.01 0.03 0.04 0.06 0.02 0.00 0.00 0.00 0.00 0.00 0.00 0.00 0.00 0.01 0.01 0.01 0.01 0.03 0.02 0.02 0.01 0.01 0.03 0.12 0.16 0.25 0.22 0.19 0.04 0.02 0.03 0.02 0.02 0.02 0.03 0.02 0.10 0.16 0.18 0.11
0.00 0.00 0.01 0.02 0.04 0.04 0.02 0.00 0.00 0.00 0.00 0.00 0.01 0.01 0.01 0.01 0.01 0.01 0.02 0.02 0.06 0.08 0.04 0.03 0.05 0.22 0.19 0.13 0.13 0.20 0.18 0.09 0.07 0.08 0.06 0.05 0.04 0.05 0.05 0.06 0.11 0.17 0.17
0.01 0.01 0.02 0.04 0.04 0.01 0.00 0.00 0.00 0.00 0.00 0.00 0.01 0.01 0.01 0.01 0.01 0.00 0.01 0.02 0.04 0.15 0.10 0.15 0.23 0.14 0.10 0.06 0.09 0.15 0.09 0.07 0.11 0.13 0.14 0.10 0.11 0.10 0.09 0.11 0.13 0.16 0.12
0.02 0.03 0.03 0.02 0.00 0.00 0.00 0.00 0.00 0.00 0.00 0.01 0.00 0.01 0.01 0.00 0.00 0.00 0.01 0.02 0.03 0.10 0.21 0.21 0.13 0.11 0.05 0.05 0.11 0.12 0.08 0.15 0.18 0.16 0.14 0.11 0.12 0.12 0.14 0.13 0.10 0.10 0.12
0.01 0.00 0.00 0.00 0.00 0.00 0.00 0.00 0.00 0.00 0.00 0.00 0.01 0.01 0.01 0.00 0.01 0.02 0.06 0.04 0.06 0.14 0.11 0.13 0.15 0.07 0.08 0.13 0.14 0.12 0.15 0.17 0.17 0.18 0.14 0.10 0.11 0.13 0.19 0.21 0.27 0.23 0.23
0.00 0.00 0.00 0.00 0.00 0.00 0.00 0.00 0.00 0.00 0.00 0.00 0.00 0.02 0.04 0.04 0.03 0.10 0.12 0.15 0.23 0.16 0.13 0.15 0.10 0.09 0.08 0.08 0.07 0.07 0.08 0.07 0.09 0.12 0.14 0.11 0.10 0.11 0.13 0.15 0.16 0.16 0.19
0.00 0.00 0.00 0.01 0.00 0.00 0.00 0.00 0.00 0.00 0.00 0.00 0.00 0.01 0.01 0.03 0.06 0.08 0.10 0.16 0.17 0.11 0.14 0.13 0.14 0.14 0.12 0.11 0.09 0.06 0.05 0.07 0.06 0.09 0.10 0.09 0.09 0.10 0.10 0.09 0.10 0.12 0.13
0.00 0.00 0.01 0.01 0.01 0.00 0.00 0.01 0.01 0.00 0.00 0.00 0.00 0.00 0.01 0.03 0.06 0.08 0.10 0.13 0.14 0.10 0.12 0.13 0.14 0.14 0.10 0.06 0.06 0.07 0.08 0.10 0.07 0.09 0.10 0.10 0.10 0.09 0.11 0.08 0.09 0.12 0.17
0.00 0.01 0.01 0.01 0.01 0.00 0.00 0.01 0.01 0.01 0.01 0.01 0.01 0.00 0.00 0.03 0.05 0.07 0.08 0.08 0.10 0.10 0.12 0.13 0.13 0.11 0.06 0.04 0.04 0.04 0.04 0.05 0.03 0.05 0.08 0.09 0.09 0.09 0.09 0.08 0.10 0.11 0.12
0.01 0.01 0.01 0.01 0.01 0.01 0.01 0.02 0.02 0.02 0.02 0.01 0.01 0.00 0.00 0.02 0.04 0.06 0.06 0.08 0.10 0.11 0.11 0.10 0.10 0.08 0.05 0.04 0.04 0.04 0.04 0.04 0.03 0.03 0.04 0.06 0.07 0.08 0.06 0.05 0.05 0.04 0.04
0.01 0.01 0.01 0.01 0.01 0.01 0.01 0.02 0.02 0.02 0.01 0.01 0.01 0.01 0.01 0.01 0.02 0.03 0.05 0.07 0.07 0.08 0.08 0.07 0.07 0.06 0.05 0.04 0.03 0.02 0.02 0.02 0.02 0.02 0.03 0.04 0.05 0.05 0.06 0.05 0.03 0.03 0.02
0.01 0.02 0.02 0.01 0.01 0.01 0.01 0.02 0.02 0.02 0.02 0.02 0.01 0.01 0.01 0.03 0.04 0.04 0.04 0.04 0.05 0.05 0.05 0.04 0.04 0.03 0.02 0.02 0.01 0.01 0.02 0.02 0.02 0.02 0.02 0.03 0.03 0.03 0.04 0.04 0.03 0.02 0.02
0.02 0.02 0.03 0.03 0.02 0.01 0.02 0.01 0.02 0.03 0.03 0.03 0.02 0.01 0.01 0.03 0.03 0.04 0.03 0.03 0.03 0.02 0.02 0.01 0.01 0.01 0.02 0.02 0.02 0.02 0.01 0.01 0.01 0.01 0.01 0.01 0.02 0.02 0.02 0.02 0.02 0.02 0.02
0.03 0.04 0.03 0.02 0.03 0.02 0.02 0.02 0.03 0.03 0.03 0.03 0.02 0.01 0.02 0.03 0.03 0.04 0.03 0.02 0.01 0.00 0.00 0.00 0.00 0.00 0.00 0.00 0.01 0.01 0.01 0.01 0.01 0.01 0.01 0.01 0.01 0.01 0.01 0.01 0.01 0.01 0.01
0.04 0.04 0.04 0.04 0.03 0.03 0.02 0.02 0.03 0.03 0.03 0.02 0.03 0.03 0.03 0.02 0.03 0.03 0.03 0.02 0.00 0.00 0.00 0.00 0.00 0.00 0.00 0.00 0.00 0.00 0.00 0.00 0.00 0.00 0.00 0.01 0.00 0.00 0.00 0.01 0.01 0.01 0.01
0.05 0.05 0.06 0.06 0.05 0.05 0.04 0.03 0.03 0.04 0.05 0.05 0.04 0.03 0.02 0.02 0.02 0.02 0.02 0.02 0.01 0.00 0.00 0.00 0.00 0.00 0.00 0.00 0.00 0.00 0.00 0.00 0.00 0.00 0.00 0.00 0.00 0.00 0.00 0.00 0.00 0.00 0.00
0.05 0.06 0.06 0.06 0.06 0.06 0.07 0.05 0.03 0.03 0.04 0.04 0.03 0.02 0.02 0.02 0.01 0.01 0.01 0.01 0.00 0.00 0.00 0.00 0.00 0.00 0.00 0.00 0.00 0.00 0.00 0.00 0.00 0.00 0.00 0.00 0.00 0.00 0.00 0.00 0.00 0.00 0.00

GFSGL_prec_precacc_033.txt.gz
Total_Precipitation_Accumulation
0.00 0.00 0.00 0.00 0.00 0.00 0.00 0.00 0.00 0.00 0.00 0.00 0.02 0.04 0.04 0.06 0.09 0.07 0.04 0.03 0.03 0.02 0.01 0.01 0.01 0.01 0.01 0.01 0.01 0.02 0.03 0.04 0.03 0.00 0.00 0.00 0.00 0.00 0.00 0.00 0.01 0.03 0.04
0.00 0.00 0.00 0.00 0.00 0.00 0.00 0.00 0.00 0.00 0.01 0.04 0.05 0.06 0.07 0.09 0.06 0.05 0.02 0.01 0.02 0.02 0.01 0.01 0.01 0.00 0.00 0.00 0.00 0.00 0.00 0.00 0.00 0.00 0.00 0.00 0.00 0.00 0.00 0.00 0.00 0.00 0.00
0.00 0.00 0.00 0.00 0.00 0.00 0.00 0.00 0.01 0.02 0.04 0.07 0.06 0.06 0.05 0.03 0.02 0.01 0.01 0.01 0.00 0.00 0.00 0.00 0.00 0.00 0.00 0.00 0.00 0.00 0.00 0.00 0.01 0.02 0.01 0.00 0.00 0.00 0.00 0.00 0.00 0.00 0.00
0.00 0.00 0.00 0.00 0.00 0.01 0.00 0.00 0.01 0.05 0.07 0.04 0.02 0.03 0.02 0.00 0.00 0.00 0.00 0.00 0.00 0.00 0.00 0.00 0.00 0.00 0.00 0.00 0.01 0.01 0.01 0.01 0.01 0.02 0.01 0.01 0.00 0.00 0.00 0.00 0.00 0.00 0.00
0.00 0.00 0.00 0.00 0.00 0.00 0.00 0.01 0.03 0.05 0.02 0.02 0.02 0.01 0.00 0.00 0.00 0.00 0.00 0.00 0.00 0.00 0.00 0.00 0.00 0.00 0.00 0.01 0.01 0.01 0.01 0.02 0.03 0.03 0.02 0.02 0.01 0.01 0.01 0.01 0.01 0.00 0.00
0.00 0.00 0.01 0.04 0.07 0.10 0.13 0.10 0.10 0.07 0.03 0.01 0.03 0.01 0.00 0.00 0.00 0.00 0.00 0.00 0.00 0.00 0.00 0.00 0.00 0.00 0.00 0.00 0.00 0.00 0.02 0.04 0.07 0.05 0.05 0.03 0.01 0.01 0.01 0.01 0.01 0.01 0.01
0.00 0.00 0.02 0.05 0.08 0.07 0.05 0.07 0.05 0.04 0.06 0.05 0.00 0.00 0.00 0.00 0.00 0.00 0.00 0.00 0.00 0.00 0.00 0.00 0.00 0.00 0.00 0.00 0.00 0.01 0.01 0.01 0.06 0.11 0.12 0.05 0.03 0.01 0.02 0.03 0.03 0.03 0.02
0.00 0.00 0.00 0.01 0.02 0.02 0.04 0.06 0.08 0.12 0.06 0.00 0.00 0.00 0.00 0.00 0.00 0.00 0.00 0.00 0.00 0.00 0.00 0.00 0.00 0.00 0.00 0.02 0.08 0.08 0.03 0.02 0.02 0.04 0.07 0.04 0.03 0.03 0.04 0.06 0.07 0.10 0.06
0.00 0.00 0.00 0.01 0.03 0.02 0.04 0.09 0.08 0.01 0.00 0.00 0.00 0.00 0.00 0.00 0.00 0.00 0.00 0.01 0.00 0.00 0.00 0.01 0.01 0.02 0.02 0.08 0.16 0.15 0.07 0.02 0.01 0.02 0.05 0.06 0.07 0.07 0.08 0.17 0.21 0.23 0.15
0.00 0.00 0.00 0.01 0.03 0.04 0.06 0.02 0.00 0.00 0.00 0.00 0.00 0.00 0.00 0.00 0.01 0.01 0.01 0.01 0.03 0.02 0.02 0.01 0.01 0.03 0.12 0.16 0.27 0.23 0.20 0.05 0.03 0.04 0.02 0.03 0.03 0.04 0.03 0.12 0.16 0.20 0.14
0.00 0.00 0.01 0.02 0.04 0.04 0.02 0.00 0.00 0.00 0.00 0.00 0.01 0.01 0.01 0.01 0.01 0.01 0.02 0.02 0.06 0.09 0.04 0.03 0.05 0.22 0.20 0.14 0.13 0.21 0.21 0.10 0.08 0.08 0.06 0.05 0.04 0.06 0.07 0.09 0.12 0.18 0.17
0.01 0.01 0.02 0.04 0.04 0.01 0.00 0.00 0.00 0.00 0.00 0.00 0.01 0.01 0.01 0.01 0.01 0.00 0.01 0.02 0.04 0.15 0.10 0.15 0.23 0.14 0.10 0.06 0.09 0.16 0.10 0.08 0.11 0.13 0.14 0.10 0.11 0.10 0.10 0.12 0.16 0.17 0.12
0.02 0.03 0.03 0.02 0.00 0.00 0.00 0.00 0.00 0.00 0.00 0.01 0.00 0.01 0.01 0.00 0.00 0.00 0.01 0.02 0.03 0.10 0.21 0.21 0.13 0.11 0.05 0.05 0.11 0.12 0.08 0.15 0.18 0.17 0.14 0.12 0.13 0.13 0.16 0.15 0.12 0.12 0.14
0.01 0.00 0.00 0.00 0.00 0.00 0.00 0.00 0.00 0.00 0.00 0.00 0.01 0.01 0.01 0.00 0.01 0.02 0.06 0.04 0.06 0.14 0.11 0.13 0.15 0.07 0.08 0.13 0.14 0.12 0.15 0.17 0.17 0.19 0.15 0.11 0.12 0.14 0.21 0.24 0.32 0.27 0.26
0.00 0.00 0.00 0.00 0.00 0.00 0.00 0.00 0.00 0.00 0.00 0.00 0.00 0.02 0.04 0.04 0.03 0.10 0.12 0.15 0.23 0.16 0.13 0.15 0.10 0.09 0.08 0.08 0.07 0.07 0.08 0.07 0.09 0.12 0.14 0.11 0.10 0.12 0.14 0.16 0.18 0.17 0.22
0.00 0.00 0.00 0.01 0.01 0.00 0.00 0.00 0.00 0.00 0.00 0.00 0.00 0.01 0.01 0.03 0.06 0.08 0.10 0.16 0.17 0.11 0.14 0.13 0.14 0.14 0.12 0.11 0.09 0.06 0.05 0.07 0.06 0.09 0.10 0.09 0.09 0.10 0.10 0.09 0.11 0.13 0.16
0.00 0.00 0.01 0.01 0.01 0.00 0.00 0.01 0.01 0.00 0.00 0.00 0.00 0.00 0.01 0.03 0.06 0.08 0.10 0.13 0.14 0.10 0.12 0.13 0.14 0.14 0.10 0.06 0.06 0.07 0.08 0.10 0.07 0.09 0.10 0.10 0.10 0.10 0.11 0.08 0.10 0.12 0.17
0.00 0.01 0.02 0.01 0.01 0.01 0.01 0.01 0.01 0.01 0.01 0.01 0.01 0.00 0.00 0.03 0.06 0.08 0.08 0.08 0.10 0.10 0.12 0.13 0.13 0.11 0.06 0.04 0.04 0.04 0.04 0.05 0.03 0.05 0.08 0.09 0.09 0.09 0.10 0.09 0.10 0.11 0.12
0.01 0.01 0.01 0.02 0.01 0.01 0.02 0.02 0.02 0.02 0.02 0.01 0.01 0.00 0.00 0.02 0.04 0.06 0.06 0.08 0.10 0.11 0.11 0.10 0.10 0.08 0.05 0.04 0.04 0.04 0.04 0.04 0.03 0.03 0.04 0.06 0.07 0.08 0.06 0.05 0.05 0.04 0.04
0.01 0.01 0.02 0.02 0.02 0.02 0.02 0.02 0.02 0.02 0.02 0.02 0.01 0.01 0.01 0.01 0.03 0.04 0.05 0.07 0.07 0.08 0.08 0.07 0.07 0.06 0.05 0.04 0.03 0.02 0.02 0.02 0.02 0.02 0.03 0.04 0.05 0.05 0.06 0.05 0.03 0.03 0.02
0.01 0.02 0.02 0.02 0.02 0.02 0.02 0.02 0.02 0.02 0.02 0.02 0.02 0.02 0.02 0.03 0.04 0.04 0.04 0.04 0.05 0.05 0.05 0.04 0.04 0.03 0.02 0.02 0.01 0.01 0.02 0.02 0.02 0.02 0.02 0.03 0.03 0.03 0.04 0.04 0.03 0.02 0.02
0.02 0.03 0.03 0.03 0.02 0.02 0.02 0.01 0.02 0.03 0.03 0.03 0.02 0.01 0.01 0.03 0.04 0.04 0.03 0.03 0.03 0.02 0.02 0.01 0.01 0.01 0.02 0.02 0.02 0.02 0.01 0.01 0.01 0.01 0.01 0.01 0.02 0.02 0.02 0.02 0.02 0.02 0.02
0.04 0.04 0.03 0.03 0.03 0.03 0.03 0.02 0.03 0.03 0.03 0.03 0.02 0.01 0.02 0.03 0.03 0.04 0.03 0.02 0.01 0.00 0.00 0.00 0.00 0.00 0.00 0.00 0.01 0.01 0.01 0.01 0.01 0.01 0.01 0.01 0.01 0.01 0.01 0.01 0.01 0.01 0.01
0.04 0.04 0.05 0.04 0.04 0.04 0.03 0.03 0.03 0.03 0.03 0.03 0.03 0.03 0.03 0.02 0.03 0.03 0.03 0.02 0.00 0.00 0.00 0.00 0.00 0.00 0.00 0.00 0.00 0.00 0.00 0.00 0.00 0.00 0.00 0.01 0.00 0.00 0.00 0.01 0.01 0.01 0.01
0.06 0.06 0.07 0.07 0.06 0.06 0.06 0.05 0.05 0.05 0.06 0.06 0.05 0.04 0.03 0.02 0.02 0.02 0.02 0.02 0.01 0.00 0.00 0.00 0.00 0.00 0.00 0.00 0.00 0.00 0.00 0.00 0.00 0.00 0.00 0.00 0.00 0.00 0.00 0.00 0.00 0.00 0.00
0.06 0.07 0.08 0.08 0.08 0.07 0.08 0.07 0.05 0.05 0.06 0.05 0.05 0.05 0.04 0.03 0.01 0.01 0.01 0.01 0.00 0.00 0.00 0.00 0.00 0.00 0.00 0.00 0.00 0.00 0.00 0.00 0.00 0.00 0.00 0.00 0.00 0.00 0.00 0.00 0.00 0.00 0.00

GFSGL_prec_precacc_036.txt.gz
Total_Precipitation_Accumulation
0.00 0.00 0.00 0.00 0.00 0.00 0.00 0.00 0.00 0.00 0.00 0.00 0.02 0.04 0.04 0.06 0.09 0.08 0.06 0.04 0.03 0.02 0.01 0.01 0.01 0.01 0.01 0.01 0.01 0.02 0.03 0.04 0.03 0.00 0.00 0.00 0.00 0.00 0.00 0.00 0.01 0.03 0.04
0.00 0.00 0.00 0.00 0.00 0.00 0.00 0.00 0.00 0.00 0.01 0.04 0.05 0.06 0.08 0.09 0.07 0.05 0.02 0.01 0.02 0.02 0.01 0.01 0.01 0.00 0.00 0.00 0.00 0.00 0.00 0.00 0.00 0.00 0.00 0.00 0.00 0.00 0.00 0.00 0.00 0.00 0.00
0.00 0.00 0.00 0.00 0.00 0.00 0.00 0.00 0.01 0.02 0.04 0.07 0.06 0.06 0.06 0.03 0.02 0.01 0.01 0.01 0.00 0.00 0.00 0.00 0.00 0.00 0.00 0.00 0.00 0.00 0.00 0.01 0.01 0.03 0.01 0.00 0.00 0.00 0.00 0.00 0.00 0.00 0.00
0.00 0.00 0.00 0.00 0.00 0.01 0.00 0.00 0.01 0.05 0.07 0.04 0.02 0.03 0.02 0.00 0.00 0.00 0.00 0.00 0.00 0.00 0.00 0.00 0.00 0.00 0.00 0.00 0.01 0.01 0.01 0.01 0.02 0.03 0.02 0.01 0.00 0.00 0.01 0.01 0.01 0.00 0.01
0.00 0.00 0.00 0.00 0.00 0.00 0.00 0.01 0.03 0.05 0.02 0.02 0.02 0.01 0.00 0.00 0.00 0.00 0.00 0.00 0.00 0.00 0.00 0.00 0.00 0.00 0.00 0.01 0.01 0.01 0.02 0.02 0.03 0.04 0.03 0.02 0.01 0.01 0.01 0.01 0.02 0.01 0.01
0.00 0.00 0.01 0.04 0.07 0.10 0.13 0.10 0.10 0.07 0.03 0.01 0.03 0.01 0.00 0.00 0.00 0.00 0.00 0.00 0.00 0.00 0.00 0.00 0.00 0.00 0.00 0.00 0.00 0.01 0.02 0.05 0.08 0.07 0.06 0.05 0.02 0.02 0.02 0.03 0.04 0.03 0.02
0.00 0.00 0.02 0.05 0.08 0.07 0.05 0.07 0.05 0.04 0.06 0.06 0.01 0.00 0.00 0.00 0.00 0.00 0.00 0.00 0.00 0.00 0.00 0.00 0.00 0.00 0.00 0.00 0.01 0.01 0.01 0.02 0.08 0.13 0.16 0.07 0.05 0.03 0.04 0.05 0.05 0.06 0.04
0.00 0.00 0.00 0.01 0.02 0.02 0.04 0.06 0.08 0.12 0.06 0.00 0.00 0.00 0.00 0.00 0.00 0.00 0.00 0.00 0.00 0.00 0.00 0.00 0.00 0.00 0.00 0.02 0.09 0.09 0.04 0.03 0.02 0.06 0.11 0.07 0.06 0.07 0.08 0.09 0.10 0.13 0.08
0.00 0.00 0.00 0.01 0.03 0.02 0.04 0.09 0.08 0.01 0.00 0.00 0.00 0.00 0.00 0.00 0.00 0.00 0.00 0.01 0.00 0.00 0.00 0.01 0.01 0.02 0.02 0.08 0.17 0.16 0.07 0.03 0.01 0.02 0.05 0.06 0.07 0.07 0.10 0.20 0.24 0.26 0.18
0.00 0.00 0.00 0.01 0.03 0.04 0.06 0.02 0.00 0.00 0.00 0.00 0.00 0.00 0.00 0.00 0.01 0.01 0.01 0.01 0.03 0.02 0.02 0.01 0.01 0.03 0.12 0.17 0.27 0.24 0.22 0.06 0.03 0.04 0.03 0.03 0.04 0.05 0.04 0.14 0.18 0.22 0.15
0.00 0.00 0.01 0.02 0.04 0.04 0.02 0.00 0.00 0.00 0.00 0.00 0.01 0.01 0.01 0.01 0.01 0.01 0.02 0.02 0.06 0.09 0.04 0.03 0.05 0.22 0.20 0.14 0.13 0.22 0.22 0.10 0.08 0.08 0.06 0.05 0.05 0.06 0.08 0.12 0.16 0.22 0.19
0.01 0.01 0.02 0.04 0.04 0.01 0.00 0.00 0.00 0.00 0.00 0.00 0.01 0.01 0.01 0.01 0.01 0.00 0.01 0.02 0.05 0.15 0.10 0.15 0.23 0.14 0.10 0.06 0.09 0.16 0.10 0.08 0.12 0.14 0.14 0.11 0.12 0.11 0.11 0.14 0.17 0.20 0.14
0.02 0.03 0.03 0.02 0.00 0.00 0.00 0.00 0.00 0.00 0.00 0.01 0.01 0.01 0.01 0.01 0.00 0.00 0.01 0.02 0.03 0.10 0.21 0.21 0.13 0.11 0.05 0.05 0.11 0.12 0.08 0.16 0.19 0.17 0.15 0.12 0.14 0.14 0.17 0.18 0.17 0.15 0.16
0.01 0.00 0.00 0.00 0.00 0.00 0.00 0.00 0.00 0.00 0.00 0.00 0.01 0.01 0.01 0.01 0.01 0.03 0.06 0.04 0.06 0.14 0.11 0.13 0.15 0.07 0.08 0.13 0.14 0.12 0.15 0.17 0.17 0.20 0.16 0.11 0.12 0.14 0.22 0.27 0.36 0.30 0.30
0.00 0.00 0.00 0.00 0.00 0.00 0.00 0.00 0.00 0.00 0.00 0.00 0.00 0.02 0.04 0.04 0.03 0.10 0.12 0.15 0.23 0.16 0.13 0.15 0.10 0.09 0.08 0.08 0.07 0.07 0.08 0.07 0.09 0.13 0.14 0.12 0.11 0.12 0.14 0.17 0.19 0.19 0.27
0.00 0.00 0.00 0.01 0.01 0.00 0.00 0.00 0.00 0.00 0.00 0.00 0.00 0.01 0.02 0.04 0.06 0.08 0.10 0.16 0.17 0.11 0.14 0.13 0.14 0.14 0.12 0.11 0.09 0.06 0.05 0.07 0.06 0.09 0.10 0.09 0.10 0.10 0.10 0.10 0.11 0.14 0.17
0.00 0.00 0.01 0.01 0.01 0.01 0.01 0.01 0.01 0.00 0.00 0.00 0.00 0.00 0.01 0.04 0.06 0.08 0.10 0.13 0.14 0.10 0.12 0.13 0.15 0.14 0.10 0.06 0.06 0.07 0.08 0.10 0.07 0.09 0.11 0.11 0.11 0.10 0.12 0.09 0.10 0.13 0.17
0.00 0.01 0.02 0.01 0.02 0.01 0.01 0.02 0.02 0.02 0.02 0.01 0.01 0.00 0.00 0.03 0.06 0.08 0.09 0.09 0.10 0.10 0.12 0.13 0.13 0.11 0.06 0.04 0.04 0.04 0.04 0.05 0.03 0.05 0.08 0.09 0.09 0.09 0.10 0.09 0.10 0.11 0.12
0.01 0.01 0.01 0.02 0.02 0.01 0.02 0.03 0.03 0.02 0.02 0.01 0.01 0.00 0.00 0.02 0.04 0.06 0.07 0.09 0.11 0.11 0.11 0.10 0.10 0.08 0.05 0.04 0.04 0.04 0.04 0.04 0.03 0.03 0.04 0.06 0.07 0.08 0.07 0.06 0.05 0.04 0.04
0.01 0.01 0.02 0.02 0.02 0.02 0.02 0.03 0.03 0.03 0.02 0.02 0.01 0.01 0.01 0.02 0.03 0.04 0.06 0.08 0.08 0.08 0.08 0.07 0.07 0.06 0.05 0.04 0.03 0.02 0.02 0.02 0.02 0.02 0.03 0.04 0.05 0.05 0.06 0.06 0.03 0.03 0.02
0.01 0.02 0.02 0.02 0.02 0.02 0.02 0.03 0.03 0.03 0.03 0.02 0.02 0.02 0.02 0.04 0.05 0.05 0.06 0.06 0.06 0.05 0.05 0.05 0.04 0.04 0.03 0.02 0.01 0.01 0.02 0.02 0.02 0.02 0.02 0.03 0.03 0.03 0.04 0.04 0.03 0.02 0.02
0.03 0.03 0.04 0.04 0.03 0.03 0.02 0.02 0.03 0.03 0.03 0.03 0.02 0.01 0.01 0.03 0.04 0.05 0.04 0.04 0.03 0.03 0.02 0.01 0.01 0.01 0.02 0.02 0.02 0.02 0.01 0.01 0.01 0.01 0.01 0.01 0.02 0.02 0.02 0.02 0.02 0.02 0.02
0.04 0.05 0.04 0.03 0.04 0.04 0.03 0.03 0.03 0.04 0.03 0.03 0.02 0.01 0.02 0.03 0.04 0.04 0.04 0.03 0.02 0.01 0.00 0.00 0.00 0.00 0.00 0.00 0.01 0.01 0.01 0.01 0.01 0.01 0.01 0.01 0.01 0.01 0.01 0.01 0.01 0.01 0.01
0.05 0.04 0.05 0.05 0.05 0.05 0.04 0.04 0.05 0.05 0.04 0.04 0.04 0.04 0.04 0.03 0.03 0.04 0.03 0.02 0.01 0.01 0.00 0.00 0.00 0.00 0.00 0.00 0.00 0.00 0.00 0.00 0.00 0.00 0.00 0.01 0.00 0.00 0.00 0.01 0.01 0.01 0.01
0.06 0.07 0.08 0.09 0.08 0.08 0.07 0.06 0.06 0.07 0.08 0.09 0.07 0.07 0.05 0.05 0.04 0.04 0.04 0.03 0.01 0.01 0.00 0.00 0.00 0.00 0.00 0.00 0.00 0.00 0.00 0.00 0.00 0.00 0.00 0.00 0.00 0.00 0.00 0.00 0.00 0.00 0.00
0.08 0.08 0.09 0.09 0.09 0.09 0.10 0.09 0.07 0.06 0.08 0.07 0.07 0.07 0.06 0.06 0.04 0.03 0.04 0.03 0.02 0.00 0.00 0.00 0.00 0.00 0.00 0.00 0.00 0.00 0.00 0.00 0.00 0.00 0.00 0.00 0.00 0.00 0.00 0.00 0.00 0.00 0.00

GFSGL_prec_precacc_039.txt.gz
Total_Precipitation_Accumulation
0.00 0.00 0.00 0.00 0.00 0.00 0.00 0.00 0.00 0.00 0.00 0.00 0.02 0.04 0.04 0.06 0.09 0.09 0.07 0.06 0.04 0.02 0.01 0.02 0.02 0.01 0.01 0.01 0.01 0.02 0.03 0.04 0.03 0.00 0.00 0.00 0.00 0.00 0.00 0.00 0.01 0.03 0.04
0.00 0.00 0.00 0.00 0.00 0.00 0.00 0.00 0.00 0.00 0.01 0.04 0.05 0.06 0.08 0.09 0.07 0.06 0.03 0.02 0.02 0.02 0.01 0.01 0.01 0.00 0.00 0.00 0.00 0.00 0.00 0.00 0.00 0.00 0.00 0.00 0.00 0.00 0.00 0.00 0.00 0.00 0.00
0.00 0.00 0.00 0.00 0.00 0.00 0.00 0.00 0.01 0.02 0.04 0.07 0.06 0.06 0.06 0.03 0.02 0.02 0.01 0.01 0.00 0.00 0.00 0.00 0.00 0.00 0.00 0.00 0.00 0.00 0.00 0.01 0.01 0.03 0.01 0.00 0.00 0.00 0.00 0.00 0.00 0.00 0.00
0.00 0.00 0.00 0.00 0.00 0.01 0.00 0.00 0.01 0.05 0.07 0.04 0.02 0.03 0.02 0.00 0.00 0.00 0.00 0.00 0.00 0.00 0.00 0.00 0.00 0.00 0.00 0.00 0.01 0.01 0.01 0.01 0.02 0.03 0.02 0.01 0.00 0.00 0.01 0.01 0.01 0.01 0.02
0.00 0.00 0.00 0.00 0.00 0.00 0.00 0.01 0.03 0.05 0.02 0.02 0.02 0.01 0.00 0.00 0.00 0.00 0.00 0.00 0.00 0.00 0.00 0.00 0.00 0.00 0.00 0.01 0.01 0.01 0.02 0.03 0.03 0.04 0.03 0.03 0.02 0.02 0.03 0.03 0.04 0.02 0.01
0.00 0.00 0.01 0.04 0.07 0.10 0.13 0.10 0.10 0.07 0.03 0.01 0.03 0.01 0.00 0.00 0.00 0.00 0.00 0.00 0.00 0.00 0.00 0.00 0.00 0.00 0.00 0.00 0.00 0.01 0.02 0.05 0.10 0.09 0.08 0.06 0.04 0.03 0.05 0.06 0.06 0.06 0.04
0.00 0.00 0.02 0.05 0.08 0.07 0.05 0.07 0.05 0.04 0.06 0.06 0.01 0.00 0.00 0.00 0.00 0.00 0.00 0.00 0.00 0.00 0.00 0.00 0.00 0.00 0.00 0.00 0.01 0.01 0.02 0.03 0.10 0.15 0.19 0.10 0.08 0.06 0.07 0.08 0.08 0.09 0.07
0.00 0.00 0.00 0.01 0.02 0.02 0.04 0.06 0.08 0.12 0.06 0.00 0.00 0.00 0.00 0.00 0.00 0.00 0.00 0.00 0.00 0.00 0.00 0.00 0.00 0.00 0.00 0.02 0.09 0.09 0.04 0.03 0.03 0.06 0.13 0.09 0.06 0.07 0.09 0.11 0.13 0.15 0.10
0.00 0.00 0.00 0.01 0.03 0.02 0.04 0.09 0.08 0.01 0.00 0.00 0.00 0.00 0.00 0.00 0.00 0.00 0.00 0.01 0.00 0.00 0.00 0.01 0.01 0.02 0.02 0.08 0.17 0.17 0.08 0.03 0.02 0.02 0.05 0.06 0.07 0.07 0.11 0.22 0.26 0.29 0.21
0.00 0.00 0.00 0.01 0.03 0.04 0.06 0.02 0.00 0.00 0.00 0.00 0.00 0.00 0.00 0.00 0.01 0.01 0.01 0.01 0.03 0.02 0.02 0.01 0.01 0.03 0.12 0.17 0.28 0.25 0.22 0.06 0.03 0.04 0.03 0.03 0.04 0.06 0.05 0.16 0.22 0.27 0.18
0.00 0.00 0.01 0.02 0.04 0.04 0.02 0.00 0.00 0.00 0.00 0.00 0.01 0.01 0.01 0.01 0.01 0.01 0.02 0.02 0.06 0.09 0.04 0.03 0.05 0.22 0.20 0.14 0.13 0.22 0.22 0.10 0.08 0.09 0.07 0.06 0.05 0.07 0.09 0.13 0.20 0.28 0.25
0.01 0.01 0.02 0.04 0.04 0.01 0.00 0.00 0.00 0.00 0.00 0.00 0.01 0.01 0.01 0.01 0.01 0.00 0.01 0.02 0.05 0.15 0.10 0.15 0.23 0.14 0.10 0.06 0.09 0.16 0.10 0.08 0.12 0.14 0.15 0.12 0.13 0.11 0.11 0.14 0.20 0.24 0.17
0.02 0.03 0.03 0.02 0.00 0.00 0.00 0.00 0.00 0.00 0.00 0.01 0.01 0.01 0.01 0.01 0.01 0.00 0.01 0.02 0.03 0.10 0.21 0.21 0.13 0.11 0.05 0.05 0.11 0.12 0.08 0.16 0.19 0.18 0.15 0.13 0.14 0.15 0.17 0.20 0.19 0.19 0.21
0.01 0.00 0.00 0.00 0.00 0.00 0.00 0.00 0.00 0.00 0.00 0.00 0.01 0.01 0.02 0.01 0.01 0.03 0.07 0.04 0.06 0.14 0.11 0.13 0.15 0.07 0.08 0.13 0.14 0.12 0.15 0.17 0.17 0.20 0.16 0.12 0.13 0.15 0.22 0.27 0.38 0.31 0.34
0.00 0.00 0.00 0.00 0.00 0.00 0.00 0.00 0.00 0.00 0.00 0.01 0.01 0.02 0.05 0.05 0.04 0.11 0.13 0.15 0.24 0.16 0.13 0.15 0.10 0.09 0.08 0.08 0.07 0.07 0.08 0.07 0.09 0.13 0.15 0.12 0.11 0.12 0.15 0.17 0.20 0.20 0.30
0.00 0.00 0.00 0.01 0.01 0.00 0.00 0.00 0.00 0.00 0.00 0.00 0.00 0.01 0.02 0.04 0.06 0.08 0.10 0.16 0.17 0.11 0.14 0.13 0.14 0.15 0.12 0.11 0.09 0.06 0.05 0.07 0.06 0.09 0.10 0.09 0.10 0.11 0.10 0.10 0.11 0.15 0.18
0.00 0.00 0.01 0.01 0.01 0.01 0.01 0.02 0.02 0.01 0.00 0.00 0.00 0.00 0.01 0.04 0.06 0.08 0.10 0.13 0.15 0.10 0.12 0.13 0.15 0.14 0.11 0.06 0.06 0.07 0.08 0.10 0.07 0.09 0.11 0.11 0.11 0.10 0.12 0.09 0.11 0.13 0.17
0.00 0.01 0.02 0.01 0.02 0.02 0.02 0.03 0.03 0.04 0.03 0.02 0.01 0.00 0.00 0.03 0.06 0.08 0.09 0.09 0.11 0.11 0.12 0.13 0.13 0.11 0.06 0.04 0.04 0.04 0.04 0.05 0.03 0.05 0.08 0.09 0.09 0.09 0.10 0.09 0.11 0.12 0.12
0.01 0.01 0.01 0.02 0.02 0.02 0.03 0.04 0.04 0.04 0.04 0.02 0.01 0.01 0.00 0.02 0.04 0.06 0.07 0.11 0.12 0.12 0.12 0.11 0.10 0.08 0.06 0.04 0.05 0.04 0.05 0.04 0.03 0.03 0.04 0.06 0.07 0.08 0.07 0.06 0.05 0.04 0.04
0.01 0.01 0.02 0.02 0.02 0.02 0.02 0.03 0.04 0.04 0.04 0.03 0.02 0.01 0.01 0.02 0.05 0.05 0.07 0.09 0.09 0.09 0.09 0.08 0.07 0.06 0.05 0.04 0.03 0.02 0.02 0.02 0.02 0.02 0.03 0.04 0.06 0.05 0.06 0.06 0.03 0.03 0.02
0.01 0.02 0.02 0.02 0.02 0.02 0.03 0.04 0.04 0.05 0.05 0.04 0.03 0.02 0.02 0.04 0.06 0.07 0.07 0.08 0.07 0.06 0.06 0.05 0.05 0.04 0.03 0.02 0.02 0.02 0.02 0.02 0.02 0.02 0.02 0.03 0.03 0.03 0.04 0.04 0.03 0.02 0.02
0.03 0.03 0.04 0.05 0.05 0.05 0.04 0.04 0.04 0.05 0.05 0.05 0.03 0.02 0.01 0.04 0.04 0.05 0.05 0.05 0.05 0.04 0.03 0.02 0.02 0.02 0.03 0.02 0.02 0.02 0.01 0.01 0.01 0.02 0.01 0.01 0.02 0.02 0.03 0.02 0.02 0.02 0.02
0.05 0.06 0.05 0.04 0.05 0.05 0.06 0.05 0.06 0.07 0.05 0.05 0.04 0.03 0.03 0.05 0.05 0.05 0.04 0.04 0.02 0.02 0.01 0.01 0.01 0.01 0.01 0.01 0.01 0.02 0.01 0.02 0.02 0.01 0.01 0.01 0.01 0.01 0.01 0.02 0.01 0.01 0.01
0.05 0.05 0.06 0.06 0.06 0.07 0.07 0.07 0.08 0.07 0.06 0.06 0.06 0.06 0.06 0.05 0.05 0.05 0.04 0.03 0.02 0.02 0.02 0.01 0.01 0.00 0.00 0.00 0.00 0.00 0.00 0.00 0.00 0.00 0.00 0.01 0.00 0.00 0.00 0.01 0.01 0.01 0.01
0.09 0.10 0.11 0.11 0.10 0.10 0.10 0.08 0.09 0.09 0.11 0.11 0.09 0.09 0.07 0.07 0.07 0.07 0.06 0.06 0.05 0.04 0.03 0.02 0.01 0.00 0.00 0.00 0.00 0.00 0.00 0.00 0.00 0.00 0.00 0.00 0.00 0.00 0.00 0.00 0.00 0.00 0.00
0.12 0.13 0.13 0.12 0.11 0.12 0.15 0.14 0.11 0.10 0.11 0.10 0.09 0.08 0.07 0.07 0.06 0.05 0.06 0.06 0.06 0.04 0.03 0.03 0.01 0.00 0.00 0.00 0.00 0.00 0.00 0.00 0.00 0.00 0.00 0.00 0.00 0.00 0.00 0.00 0.00 0.00 0.00

GFSGL_prec_precacc_042.txt.gz
Total_Precipitation_Accumulation
0.00 0.00 0.00 0.00 0.00 0.00 0.00 0.00 0.00 0.00 0.00 0.00 0.02 0.04 0.04 0.06 0.09 0.09 0.07 0.06 0.05 0.02 0.01 0.02 0.02 0.01 0.01 0.01 0.01 0.02 0.03 0.04 0.03 0.00 0.00 0.00 0.00 0.00 0.00 0.00 0.01 0.03 0.04
0.00 0.00 0.00 0.00 0.00 0.00 0.00 0.00 0.00 0.00 0.01 0.04 0.05 0.06 0.08 0.09 0.07 0.06 0.03 0.02 0.02 0.02 0.02 0.01 0.01 0.00 0.00 0.00 0.00 0.00 0.00 0.00 0.00 0.00 0.00 0.00 0.00 0.00 0.00 0.00 0.00 0.00 0.00
0.00 0.00 0.00 0.00 0.00 0.00 0.00 0.00 0.01 0.02 0.04 0.07 0.06 0.06 0.06 0.03 0.02 0.02 0.01 0.01 0.01 0.00 0.00 0.00 0.00 0.00 0.00 0.00 0.00 0.00 0.00 0.01 0.01 0.03 0.01 0.00 0.00 0.00 0.00 0.00 0.00 0.00 0.00
0.00 0.00 0.00 0.00 0.00 0.01 0.00 0.00 0.01 0.05 0.07 0.04 0.02 0.03 0.02 0.01 0.00 0.00 0.00 0.00 0.00 0.00 0.00 0.00 0.00 0.00 0.00 0.00 0.01 0.01 0.01 0.01 0.02 0.03 0.02 0.01 0.00 0.00 0.01 0.02 0.02 0.01 0.02
0.00 0.00 0.00 0.00 0.00 0.00 0.00 0.01 0.03 0.05 0.02 0.02 0.02 0.01 0.00 0.00 0.00 0.00 0.00 0.00 0.00 0.00 0.00 0.00 0.00 0.00 0.00 0.01 0.01 0.01 0.02 0.03 0.03 0.04 0.03 0.04 0.03 0.02 0.03 0.03 0.04 0.03 0.01
0.00 0.00 0.01 0.04 0.07 0.10 0.13 0.10 0.10 0.07 0.03 0.01 0.03 0.01 0.00 0.00 0.00 0.00 0.00 0.00 0.00 0.00 0.00 0.00 0.00 0.00 0.00 0.00 0.00 0.01 0.02 0.05 0.11 0.10 0.09 0.07 0.04 0.05 0.06 0.07 0.08 0.07 0.05
0.00 0.00 0.02 0.05 0.08 0.07 0.05 0.07 0.05 0.04 0.06 0.06 0.01 0.00 0.00 0.00 0.00 0.00 0.00 0.00 0.00 0.00 0.00 0.00 0.00 0.00 0.00 0.00 0.01 0.01 0.02 0.03 0.10 0.16 0.21 0.12 0.11 0.07 0.07 0.09 0.08 0.09 0.08
0.00 0.00 0.00 0.01 0.02 0.02 0.04 0.06 0.08 0.12 0.06 0.00 0.00 0.00 0.00 0.00 0.00 0.00 0.00 0.00 0.00 0.00 0.00 0.00 0.00 0.00 0.00 0.02 0.09 0.09 0.05 0.03 0.03 0.06 0.13 0.09 0.06 0.07 0.09 0.11 0.13 0.15 0.10
0.00 0.00 0.00 0.01 0.03 0.02 0.04 0.09 0.08 0.01 0.00 0.00 0.01 0.01 0.01 0.01 0.00 0.00 0.00 0.01 0.00 0.00 0.00 0.01 0.01 0.02 0.02 0.08 0.17 0.17 0.08 0.03 0.02 0.03 0.05 0.06 0.07 0.07 0.11 0.23 0.27 0.31 0.22
0.00 0.00 0.00 0.01 0.03 0.04 0.06 0.02 0.00 0.00 0.00 0.00 0.00 0.00 0.00 0.01 0.01 0.01 0.01 0.01 0.03 0.02 0.02 0.01 0.01 0.03 0.12 0.17 0.28 0.25 0.22 0.06 0.03 0.04 0.03 0.03 0.04 0.07 0.06 0.18 0.27 0.34 0.23
0.00 0.00 0.01 0.02 0.04 0.04 0.02 0.00 0.00 0.00 0.00 0.00 0.01 0.01 0.01 0.01 0.01 0.01 0.02 0.02 0.06 0.09 0.04 0.03 0.05 0.22 0.20 0.14 0.13 0.22 0.22 0.10 0.08 0.09 0.07 0.06 0.06 0.08 0.09 0.14 0.20 0.30 0.30
0.01 0.01 0.02 0.04 0.04 0.01 0.00 0.00 0.00 0.00 0.00 0.00 0.01 0.01 0.01 0.01 0.01 0.00 0.01 0.02 0.05 0.15 0.10 0.15 0.23 0.14 0.10 0.06 0.09 0.16 0.10 0.08 0.12 0.14 0.15 0.12 0.13 0.12 0.11 0.15 0.21 0.25 0.21
0.02 0.03 0.03 0.02 0.00 0.00 0.00 0.00 0.00 0.00 0.00 0.01 0.01 0.02 0.02 0.01 0.01 0.01 0.01 0.02 0.03 0.10 0.21 0.21 0.13 0.11 0.05 0.05 0.11 0.12 0.08 0.16 0.19 0.18 0.15 0.13 0.14 0.15 0.17 0.20 0.19 0.19 0.22
0.01 0.00 0.00 0.00 0.00 0.00 0.00 0.00 0.00 0.00 0.00 0.00 0.01 0.01 0.02 0.01 0.01 0.04 0.07 0.05 0.06 0.14 0.11 0.14 0.15 0.07 0.08 0.13 0.14 0.12 0.15 0.17 0.17 0.20 0.16 0.12 0.13 0.15 0.23 0.28 0.38 0.31 0.35
0.00 0.00 0.00 0.00 0.00 0.00 0.00 0.00 0.00 0.00 0.00 0.01 0.01 0.02 0.06 0.06 0.04 0.11 0.14 0.17 0.26 0.17 0.13 0.15 0.10 0.09 0.08 0.08 0.07 0.07 0.08 0.07 0.09 0.13 0.15 0.12 0.11 0.12 0.15 0.17 0.20 0.20 0.30
0.00 0.00 0.00 0.01 0.01 0.00 0.00 0.00 0.00 0.00 0.00 0.00 0.00 0.01 0.02 0.04 0.06 0.08 0.10 0.16 0.17 0.11 0.14 0.13 0.14 0.15 0.13 0.11 0.09 0.06 0.05 0.07 0.06 0.09 0.10 0.09 0.10 0.11 0.11 0.10 0.12 0.15 0.18
0.00 0.00 0.01 0.01 0.01 0.01 0.01 0.02 0.02 0.01 0.00 0.00 0.00 0.00 0.01 0.04 0.06 0.08 0.11 0.14 0.15 0.11 0.13 0.13 0.15 0.15 0.11 0.06 0.06 0.07 0.08 0.10 0.07 0.09 0.11 0.11 0.11 0.10 0.12 0.10 0.11 0.13 0.18
0.00 0.01 0.02 0.01 0.02 0.02 0.02 0.03 0.03 0.04 0.04 0.02 0.01 0.00 0.00 0.03 0.06 0.08 0.09 0.10 0.12 0.12 0.13 0.13 0.13 0.12 0.07 0.05 0.04 0.04 0.04 0.05 0.03 0.05 0.08 0.10 0.09 0.10 0.10 0.09 0.11 0.12 0.12
0.01 0.01 0.01 0.02 0.02 0.02 0.03 0.04 0.04 0.04 0.04 0.02 0.01 0.01 0.00 0.02 0.04 0.06 0.07 0.11 0.13 0.13 0.13 0.12 0.11 0.09 0.06 0.04 0.05 0.04 0.05 0.04 0.04 0.03 0.04 0.06 0.07 0.08 0.07 0.06 0.05 0.05 0.04
0.01 0.01 0.02 0.03 0.03 0.03 0.03 0.04 0.05 0.05 0.04 0.04 0.03 0.02 0.01 0.03 0.05 0.06 0.08 0.09 0.09 0.09 0.09 0.08 0.08 0.07 0.06 0.04 0.03 0.03 0.02 0.02 0.03 0.02 0.03 0.04 0.06 0.06 0.07 0.06 0.04 0.03 0.02
0.02 0.03 0.03 0.04 0.04 0.04 0.05 0.06 0.06 0.07 0.06 0.04 0.04 0.03 0.03 0.06 0.07 0.07 0.08 0.10 0.09 0.07 0.06 0.05 0.05 0.04 0.03 0.03 0.02 0.02 0.02 0.02 0.02 0.02 0.02 0.03 0.04 0.03 0.04 0.04 0.03 0.02 0.02
0.03 0.04 0.06 0.07 0.06 0.06 0.06 0.06 0.06 0.07 0.07 0.07 0.06 0.03 0.02 0.06 0.06 0.05 0.05 0.05 0.05 0.05 0.04 0.03 0.03 0.02 0.03 0.02 0.02 0.02 0.02 0.01 0.02 0.02 0.01 0.01 0.02 0.02 0.03 0.02 0.02 0.02 0.02
0.06 0.07 0.06 0.05 0.06 0.06 0.06 0.06 0.07 0.09 0.08 0.08 0.05 0.04 0.05 0.10 0.10 0.07 0.05 0.04 0.02 0.02 0.01 0.02 0.02 0.01 0.01 0.01 0.01 0.02 0.02 0.02 0.02 0.01 0.01 0.01 0.01 0.01 0.01 0.02 0.02 0.01 0.01
0.07 0.07 0.09 0.10 0.11 0.09 0.09 0.09 0.09 0.08 0.08 0.09 0.09 0.09 0.08 0.07 0.08 0.08 0.06 0.04 0.03 0.03 0.03 0.04 0.03 0.01 0.01 0.01 0.01 0.00 0.00 0.00 0.00 0.00 0.00 0.01 0.00 0.00 0.00 0.01 0.01 0.01 0.01
0.11 0.13 0.15 0.17 0.19 0.19 0.14 0.10 0.10 0.11 0.14 0.16 0.15 0.13 0.10 0.10 0.09 0.08 0.07 0.07 0.07 0.06 0.05 0.04 0.04 0.03 0.01 0.02 0.01 0.00 0.00 0.00 0.00 0.00 0.00 0.00 0.00 0.00 0.00 0.00 0.00 0.00 0.00
0.14 0.16 0.17 0.19 0.21 0.17 0.17 0.15 0.13 0.12 0.14 0.13 0.12 0.11 0.10 0.10 0.08 0.06 0.07 0.07 0.06 0.05 0.04 0.05 0.04 0.03 0.02 0.02 0.02 0.01 0.00 0.00 0.00 0.00 0.00 0.00 0.00 0.00 0.00 0.00 0.00 0.00 0.00

GFSGL_prec_precacc_045.txt.gz
Total_Precipitation_Accumulation
0.00 0.00 0.00 0.00 0.00 0.00 0.00 0.00 0.00 0.00 0.00 0.00 0.02 0.04 0.04 0.06 0.09 0.09 0.07 0.06 0.05 0.02 0.01 0.02 0.02 0.01 0.01 0.01 0.01 0.02 0.03 0.04 0.03 0.00 0.00 0.00 0.00 0.00 0.00 0.00 0.01 0.03 0.04
0.00 0.00 0.00 0.00 0.00 0.00 0.00 0.00 0.00 0.00 0.01 0.04 0.05 0.06 0.08 0.09 0.07 0.06 0.03 0.02 0.02 0.02 0.02 0.01 0.01 0.00 0.00 0.00 0.00 0.00 0.00 0.00 0.00 0.00 0.00 0.00 0.00 0.00 0.00 0.00 0.00 0.00 0.00
0.00 0.00 0.00 0.00 0.00 0.00 0.00 0.00 0.01 0.02 0.04 0.07 0.06 0.06 0.06 0.03 0.02 0.02 0.01 0.01 0.01 0.00 0.00 0.00 0.00 0.00 0.00 0.00 0.00 0.00 0.00 0.01 0.01 0.03 0.01 0.00 0.00 0.00 0.00 0.00 0.00 0.00 0.00
0.00 0.00 0.00 0.00 0.00 0.01 0.00 0.00 0.01 0.05 0.07 0.04 0.02 0.03 0.02 0.01 0.00 0.00 0.00 0.00 0.00 0.00 0.00 0.00 0.00 0.00 0.00 0.00 0.01 0.01 0.01 0.01 0.02 0.03 0.02 0.01 0.00 0.00 0.01 0.02 0.02 0.01 0.02
0.00 0.00 0.00 0.00 0.00 0.00 0.00 0.01 0.03 0.05 0.02 0.02 0.02 0.01 0.00 0.00 0.00 0.00 0.00 0.00 0.00 0.00 0.00 0.00 0.00 0.00 0.00 0.01 0.01 0.01 0.02 0.03 0.03 0.04 0.03 0.04 0.03 0.02 0.04 0.04 0.05 0.03 0.01
0.00 0.00 0.01 0.04 0.07 0.10 0.13 0.10 0.10 0.07 0.03 0.01 0.03 0.01 0.00 0.00 0.00 0.00 0.00 0.00 0.00 0.00 0.00 0.00 0.00 0.00 0.00 0.00 0.00 0.01 0.02 0.05 0.11 0.10 0.09 0.07 0.04 0.06 0.07 0.07 0.08 0.07 0.05
0.00 0.00 0.02 0.05 0.08 0.07 0.05 0.07 0.05 0.04 0.06 0.06 0.01 0.00 0.00 0.00 0.00 0.00 0.00 0.00 0.00 0.00 0.00 0.00 0.00 0.00 0.00 0.00 0.01 0.01 0.02 0.03 0.10 0.16 0.21 0.13 0.12 0.07 0.07 0.09 0.08 0.09 0.08
0.00 0.00 0.00 0.01 0.02 0.02 0.04 0.06 0.08 0.12 0.06 0.00 0.00 0.00 0.00 0.00 0.00 0.00 0.00 0.00 0.00 0.00 0.00 0.00 0.00 0.00 0.00 0.02 0.09 0.09 0.05 0.03 0.03 0.06 0.13 0.09 0.06 0.07 0.09 0.11 0.13 0.16 0.10
0.00 0.00 0.00 0.01 0.03 0.02 0.04 0.10 0.08 0.01 0.00 0.00 0.01 0.01 0.01 0.01 0.00 0.00 0.00 0.01 0.00 0.00 0.00 0.01 0.01 0.02 0.02 0.08 0.17 0.17 0.08 0.03 0.02 0.03 0.05 0.06 0.07 0.07 0.11 0.25 0.29 0.33 0.24
0.00 0.00 0.00 0.01 0.03 0.05 0.07 0.02 0.00 0.00 0.00 0.00 0.00 0.00 0.00 0.01 0.01 0.01 0.01 0.01 0.03 0.02 0.02 0.01 0.01 0.03 0.12 0.17 0.28 0.25 0.22 0.06 0.03 0.04 0.03 0.03 0.04 0.07 0.06 0.19 0.27 0.35 0.24
0.00 0.00 0.01 0.03 0.04 0.04 0.02 0.00 0.00 0.00 0.00 0.00 0.01 0.01 0.01 0.01 0.01 0.01 0.02 0.02 0.06 0.09 0.04 0.03 0.05 0.22 0.20 0.14 0.13 0.22 0.22 0.10 0.08 0.09 0.07 0.06 0.06 0.08 0.09 0.14 0.20 0.31 0.33
0.01 0.01 0.02 0.04 0.04 0.01 0.00 0.00 0.00 0.00 0.00 0.00 0.01 0.01 0.01 0.01 0.01 0.00 0.01 0.02 0.05 0.15 0.10 0.15 0.23 0.14 0.10 0.06 0.09 0.16 0.10 0.08 0.12 0.14 0.15 0.12 0.13 0.12 0.11 0.15 0.21 0.25 0.22
0.02 0.03 0.03 0.02 0.00 0.00 0.00 0.00 0.00 0.00 0.00 0.01 0.01 0.02 0.02 0.01 0.01 0.01 0.01 0.02 0.03 0.10 0.21 0.21 0.13 0.11 0.05 0.05 0.11 0.12 0.08 0.16 0.19 0.18 0.15 0.13 0.14 0.15 0.17 0.20 0.19 0.19 0.22
0.01 0.00 0.00 0.00 0.00 0.00 0.00 0.00 0.00 0.00 0.00 0.00 0.01 0.01 0.02 0.01 0.01 0.04 0.07 0.05 0.06 0.14 0.11 0.14 0.15 0.07 0.08 0.13 0.14 0.12 0.15 0.17 0.17 0.20 0.16 0.12 0.13 0.15 0.23 0.28 0.38 0.31 0.35
0.00 0.00 0.00 0.00 0.00 0.00 0.00 0.00 0.00 0.00 0.00 0.01 0.01 0.02 0.06 0.06 0.04 0.11 0.14 0.17 0.26 0.18 0.14 0.16 0.10 0.09 0.08 0.08 0.07 0.07 0.08 0.07 0.09 0.13 0.15 0.12 0.11 0.12 0.15 0.17 0.20 0.20 0.30
0.00 0.00 0.00 0.01 0.01 0.00 0.00 0.00 0.00 0.00 0.00 0.00 0.00 0.01 0.02 0.04 0.06 0.08 0.10 0.16 0.17 0.11 0.14 0.13 0.14 0.15 0.13 0.11 0.09 0.06 0.05 0.07 0.06 0.09 0.10 0.09 0.10 0.11 0.11 0.10 0.12 0.15 0.18
0.00 0.00 0.01 0.01 0.01 0.01 0.01 0.02 0.02 0.01 0.00 0.00 0.00 0.00 0.01 0.04 0.06 0.08 0.11 0.14 0.15 0.11 0.13 0.13 0.15 0.15 0.11 0.06 0.06 0.07 0.08 0.10 0.07 0.09 0.11 0.11 0.11 0.10 0.12 0.10 0.11 0.13 0.18
0.00 0.01 0.02 0.01 0.02 0.02 0.02 0.03 0.03 0.04 0.04 0.02 0.01 0.00 0.00 0.03 0.06 0.08 0.09 0.11 0.13 0.12 0.13 0.13 0.13 0.12 0.07 0.05 0.04 0.04 0.04 0.05 0.03 0.05 0.08 0.10 0.09 0.10 0.10 0.09 0.11 0.12 0.12
0.01 0.01 0.01 0.02 0.02 0.02 0.04 0.04 0.05 0.05 0.04 0.02 0.01 0.01 0.00 0.02 0.04 0.06 0.08 0.15 0.13 0.13 0.13 0.12 0.11 0.09 0.06 0.04 0.05 0.04 0.05 0.04 0.04 0.03 0.04 0.06 0.07 0.08 0.07 0.06 0.05 0.05 0.04
0.01 0.01 0.02 0.04 0.04 0.04 0.05 0.06 0.07 0.08 0.07 0.05 0.04 0.02 0.01 0.03 0.06 0.06 0.08 0.11 0.11 0.10 0.10 0.09 0.08 0.07 0.06 0.05 0.03 0.03 0.02 0.02 0.03 0.02 0.03 0.04 0.06 0.06 0.07 0.06 0.04 0.03 0.02
0.02 0.03 0.03 0.04 0.05 0.06 0.06 0.08 0.08 0.09 0.09 0.07 0.05 0.03 0.03 0.09 0.11 0.09 0.10 0.12 0.10 0.07 0.06 0.06 0.05 0.04 0.03 0.03 0.02 0.02 0.02 0.02 0.02 0.02 0.02 0.03 0.04 0.03 0.04 0.04 0.03 0.02 0.02
0.03 0.04 0.06 0.07 0.07 0.07 0.07 0.07 0.08 0.09 0.07 0.07 0.07 0.06 0.06 0.12 0.09 0.07 0.07 0.08 0.08 0.08 0.06 0.04 0.04 0.02 0.03 0.02 0.02 0.02 0.02 0.01 0.02 0.02 0.01 0.01 0.02 0.02 0.03 0.02 0.02 0.02 0.02
0.06 0.07 0.06 0.05 0.06 0.07 0.09 0.11 0.13 0.12 0.09 0.08 0.06 0.04 0.06 0.11 0.11 0.09 0.07 0.05 0.05 0.05 0.03 0.05 0.05 0.03 0.01 0.01 0.01 0.02 0.02 0.02 0.02 0.01 0.01 0.01 0.01 0.01 0.01 0.02 0.02 0.01 0.01
0.07 0.08 0.10 0.11 0.12 0.14 0.13 0.13 0.16 0.15 0.11 0.10 0.11 0.12 0.12 0.11 0.13 0.12 0.09 0.07 0.06 0.06 0.05 0.06 0.06 0.05 0.03 0.03 0.01 0.01 0.00 0.00 0.00 0.00 0.00 0.01 0.00 0.00 0.00 0.01 0.01 0.01 0.01
0.11 0.14 0.17 0.19 0.22 0.24 0.28 0.28 0.23 0.15 0.16 0.16 0.16 0.16 0.13 0.13 0.13 0.14 0.13 0.10 0.08 0.07 0.05 0.05 0.05 0.04 0.04 0.06 0.05 0.01 0.00 0.00 0.00 0.00 0.00 0.00 0.00 0.00 0.00 0.00 0.00 0.00 0.00
0.15 0.18 0.19 0.22 0.25 0.25 0.25 0.21 0.18 0.15 0.15 0.13 0.12 0.12 0.11 0.10 0.09 0.08 0.08 0.10 0.10 0.09 0.06 0.06 0.05 0.04 0.04 0.05 0.07 0.04 0.01 0.01 0.01 0.00 0.00 0.00 0.00 0.00 0.00 0.00 0.00 0.00 0.00

GFSGL_prec_precacc_048.txt.gz
Total_Precipitation_Accumulation
0.00 0.00 0.00 0.00 0.00 0.00 0.00 0.00 0.00 0.00 0.01 0.01 0.02 0.04 0.04 0.06 0.09 0.09 0.07 0.06 0.05 0.02 0.01 0.02 0.02 0.01 0.01 0.01 0.01 0.02 0.03 0.04 0.03 0.00 0.00 0.00 0.00 0.00 0.00 0.00 0.01 0.03 0.04
0.00 0.00 0.00 0.01 0.01 0.01 0.01 0.01 0.00 0.00 0.01 0.04 0.05 0.06 0.08 0.09 0.07 0.06 0.03 0.02 0.02 0.02 0.02 0.01 0.01 0.00 0.00 0.00 0.00 0.00 0.00 0.00 0.00 0.00 0.00 0.00 0.00 0.00 0.00 0.00 0.00 0.00 0.00
0.00 0.00 0.01 0.02 0.01 0.01 0.01 0.01 0.01 0.02 0.04 0.07 0.06 0.06 0.06 0.03 0.02 0.02 0.01 0.01 0.01 0.00 0.00 0.00 0.00 0.00 0.00 0.00 0.00 0.00 0.00 0.01 0.01 0.03 0.01 0.00 0.00 0.00 0.00 0.00 0.00 0.00 0.00
0.03 0.03 0.02 0.01 0.01 0.01 0.00 0.00 0.01 0.05 0.07 0.04 0.02 0.03 0.02 0.01 0.00 0.00 0.00 0.00 0.00 0.00 0.00 0.00 0.00 0.00 0.00 0.00 0.01 0.01 0.01 0.01 0.02 0.03 0.02 0.01 0.00 0.00 0.01 0.02 0.02 0.01 0.02
0.03 0.01 0.01 0.00 0.00 0.00 0.00 0.01 0.03 0.05 0.02 0.02 0.02 0.01 0.00 0.00 0.00 0.00 0.00 0.00 0.00 0.00 0.00 0.00 0.00 0.00 0.00 0.01 0.01 0.01 0.02 0.03 0.03 0.04 0.03 0.04 0.03 0.02 0.04 0.05 0.05 0.03 0.01
0.00 0.00 0.01 0.04 0.07 0.10 0.13 0.10 0.10 0.07 0.03 0.01 0.03 0.01 0.00 0.00 0.00 0.00 0.00 0.00 0.00 0.00 0.00 0.00 0.00 0.00 0.00 0.00 0.00 0.01 0.02 0.05 0.11 0.10 0.09 0.07 0.04 0.06 0.07 0.07 0.08 0.07 0.05
0.00 0.01 0.02 0.05 0.08 0.07 0.05 0.07 0.05 0.04 0.06 0.06 0.01 0.00 0.00 0.00 0.00 0.00 0.00 0.00 0.00 0.00 0.00 0.00 0.00 0.00 0.00 0.00 0.01 0.01 0.02 0.03 0.10 0.16 0.21 0.13 0.12 0.07 0.07 0.09 0.08 0.09 0.08
0.00 0.00 0.00 0.01 0.02 0.02 0.04 0.07 0.09 0.12 0.06 0.00 0.00 0.00 0.00 0.00 0.00 0.00 0.00 0.00 0.00 0.00 0.00 0.00 0.00 0.00 0.00 0.02 0.09 0.09 0.05 0.03 0.03 0.06 0.13 0.09 0.06 0.07 0.09 0.12 0.16 0.18 0.10
0.00 0.00 0.00 0.01 0.03 0.04 0.08 0.11 0.08 0.01 0.00 0.00 0.01 0.01 0.01 0.01 0.00 0.00 0.00 0.01 0.00 0.00 0.00 0.01 0.01 0.02 0.02 0.08 0.17 0.17 0.08 0.03 0.02 0.03 0.05 0.06 0.07 0.07 0.11 0.26 0.30 0.33 0.24
0.00 0.00 0.00 0.03 0.09 0.08 0.07 0.02 0.00 0.00 0.00 0.00 0.00 0.00 0.00 0.01 0.01 0.01 0.01 0.01 0.03 0.02 0.02 0.01 0.01 0.03 0.12 0.17 0.28 0.25 0.22 0.06 0.03 0.04 0.03 0.03 0.04 0.07 0.06 0.19 0.27 0.36 0.25
0.00 0.03 0.07 0.06 0.04 0.04 0.02 0.00 0.00 0.00 0.00 0.00 0.01 0.01 0.01 0.01 0.01 0.01 0.02 0.02 0.06 0.09 0.04 0.03 0.05 0.22 0.20 0.14 0.13 0.22 0.22 0.10 0.08 0.09 0.07 0.06 0.06 0.08 0.09 0.14 0.20 0.31 0.34
0.02 0.03 0.02 0.04 0.04 0.01 0.00 0.00 0.00 0.00 0.00 0.00 0.01 0.01 0.01 0.01 0.01 0.00 0.01 0.02 0.05 0.15 0.10 0.15 0.23 0.14 0.10 0.06 0.09 0.16 0.10 0.08 0.12 0.14 0.15 0.12 0.13 0.12 0.11 0.15 0.21 0.25 0.22
0.02 0.03 0.03 0.02 0.00 0.00 0.00 0.00 0.00 0.00 0.00 0.01 0.01 0.02 0.02 0.01 0.01 0.01 0.01 0.02 0.03 0.10 0.21 0.21 0.13 0.11 0.05 0.05 0.11 0.12 0.08 0.16 0.19 0.18 0.15 0.13 0.14 0.15 0.17 0.20 0.19 0.19 0.22
0.01 0.00 0.00 0.00 0.00 0.00 0.00 0.00 0.00 0.00 0.00 0.00 0.01 0.01 0.02 0.01 0.01 0.04 0.07 0.05 0.06 0.14 0.11 0.14 0.15 0.07 0.08 0.13 0.14 0.12 0.15 0.17 0.17 0.20 0.16 0.12 0.13 0.15 0.23 0.28 0.38 0.31 0.35
0.00 0.00 0.00 0.00 0.00 0.00 0.00 0.00 0.00 0.00 0.00 0.01 0.01 0.02 0.06 0.06 0.04 0.11 0.14 0.17 0.26 0.18 0.15 0.16 0.11 0.09 0.08 0.08 0.07 0.07 0.08 0.07 0.09 0.13 0.15 0.12 0.11 0.12 0.15 0.17 0.20 0.20 0.30
0.00 0.00 0.00 0.01 0.01 0.00 0.00 0.00 0.00 0.00 0.00 0.00 0.00 0.01 0.02 0.04 0.06 0.08 0.10 0.16 0.17 0.11 0.15 0.14 0.15 0.15 0.13 0.11 0.09 0.06 0.05 0.07 0.06 0.09 0.10 0.09 0.10 0.11 0.11 0.10 0.12 0.15 0.18
0.00 0.00 0.01 0.01 0.01 0.01 0.01 0.02 0.02 0.01 0.00 0.00 0.00 0.00 0.01 0.04 0.06 0.08 0.11 0.14 0.16 0.13 0.15 0.14 0.15 0.15 0.11 0.06 0.06 0.07 0.08 0.10 0.07 0.09 0.11 0.11 0.11 0.10 0.12 0.10 0.11 0.13 0.18
0.00 0.01 0.02 0.01 0.02 0.02 0.02 0.03 0.04 0.04 0.04 0.03 0.02 0.01 0.01 0.03 0.06 0.08 0.09 0.13 0.16 0.14 0.14 0.14 0.13 0.12 0.07 0.05 0.04 0.04 0.04 0.05 0.03 0.05 0.08 0.10 0.09 0.10 0.10 0.09 0.11 0.12 0.12
0.01 0.01 0.01 0.02 0.02 0.02 0.04 0.05 0.06 0.07 0.06 0.04 0.02 0.01 0.00 0.02 0.04 0.06 0.08 0.18 0.15 0.14 0.13 0.13 0.11 0.09 0.06 0.04 0.05 0.04 0.05 0.04 0.04 0.03 0.04 0.06 0.07 0.08 0.07 0.06 0.05 0.05 0.04
0.01 0.01 0.02 0.04 0.04 0.04 0.05 0.06 0.08 0.09 0.09 0.07 0.05 0.03 0.01 0.03 0.06 0.06 0.08 0.12 0.14 0.11 0.10 0.10 0.08 0.07 0.06 0.05 0.03 0.03 0.02 0.02 0.03 0.02 0.03 0.04 0.06 0.06 0.07 0.06 0.04 0.03 0.02
0.02 0.03 0.03 0.05 0.05 0.06 0.07 0.08 0.09 0.12 0.13 0.11 0.08 0.05 0.03 0.09 0.13 0.13 0.12 0.13 0.12 0.09 0.07 0.07 0.06 0.05 0.04 0.03 0.02 0.02 0.02 0.02 0.02 0.02 0.02 0.03 0.04 0.03 0.04 0.04 0.03 0.02 0.02
0.03 0.04 0.06 0.07 0.07 0.07 0.07 0.08 0.08 0.10 0.10 0.11 0.11 0.10 0.07 0.13 0.10 0.08 0.07 0.08 0.08 0.09 0.08 0.07 0.06 0.03 0.03 0.03 0.03 0.03 0.02 0.01 0.02 0.02 0.01 0.01 0.02 0.02 0.03 0.02 0.02 0.02 0.02
0.06 0.07 0.07 0.06 0.07 0.08 0.11 0.12 0.16 0.17 0.16 0.16 0.14 0.08 0.06 0.12 0.12 0.11 0.10 0.08 0.08 0.08 0.07 0.11 0.10 0.05 0.01 0.01 0.02 0.03 0.02 0.02 0.02 0.01 0.01 0.01 0.01 0.01 0.01 0.02 0.02 0.01 0.01
0.08 0.08 0.10 0.11 0.13 0.15 0.16 0.17 0.21 0.27 0.28 0.24 0.18 0.15 0.13 0.12 0.14 0.14 0.13 0.12 0.12 0.10 0.07 0.09 0.09 0.07 0.06 0.04 0.02 0.02 0.01 0.01 0.00 0.00 0.00 0.01 0.00 0.00 0.00 0.01 0.01 0.01 0.01
0.12 0.15 0.17 0.19 0.22 0.25 0.29 0.30 0.27 0.21 0.20 0.21 0.19 0.17 0.14 0.13 0.13 0.14 0.15 0.13 0.12 0.10 0.09 0.08 0.07 0.05 0.05 0.07 0.06 0.02 0.01 0.03 0.02 0.00 0.00 0.00 0.00 0.00 0.00 0.00 0.00 0.00 0.00
0.15 0.18 0.19 0.22 0.26 0.26 0.26 0.22 0.19 0.16 0.17 0.15 0.15 0.13 0.12 0.11 0.09 0.08 0.08 0.10 0.11 0.10 0.07 0.08 0.07 0.05 0.05 0.06 0.08 0.06 0.04 0.06 0.04 0.02 0.00 0.00 0.00 0.00 0.00 0.00 0.00 0.00 0.00

GFSGL_prec_precacc_051.txt.gz
Total_Precipitation_Accumulation
0.01 0.02 0.01 0.01 0.01 0.01 0.01 0.01 0.01 0.03 0.06 0.03 0.03 0.04 0.04 0.06 0.09 0.09 0.07 0.06 0.05 0.02 0.01 0.02 0.02 0.01 0.01 0.01 0.01 0.02 0.03 0.04 0.03 0.00 0.00 0.00 0.00 0.00 0.00 0.00 0.01 0.03 0.04
0.03 0.02 0.01 0.01 0.02 0.01 0.02 0.04 0.09 0.10 0.03 0.04 0.06 0.06 0.08 0.09 0.07 0.06 0.03 0.02 0.02 0.02 0.02 0.01 0.01 0.00 0.00 0.00 0.00 0.00 0.00 0.00 0.00 0.00 0.00 0.00 0.00 0.00 0.00 0.00 0.00 0.00 0.00
0.02 0.03 0.02 0.03 0.02 0.03 0.06 0.06 0.03 0.03 0.05 0.07 0.06 0.06 0.06 0.03 0.02 0.02 0.01 0.01 0.01 0.00 0.00 0.00 0.00 0.00 0.00 0.00 0.00 0.00 0.00 0.01 0.01 0.03 0.01 0.00 0.00 0.00 0.00 0.00 0.00 0.00 0.00
0.06 0.06 0.06 0.04 0.03 0.02 0.01 0.01 0.01 0.05 0.07 0.04 0.02 0.03 0.02 0.01 0.00 0.00 0.00 0.00 0.00 0.00 0.00 0.00 0.00 0.00 0.00 0.00 0.01 0.01 0.01 0.01 0.02 0.03 0.02 0.01 0.00 0.00 0.01 0.02 0.02 0.01 0.02
0.08 0.05 0.03 0.01 0.01 0.00 0.01 0.01 0.03 0.05 0.02 0.02 0.02 0.01 0.00 0.00 0.00 0.00 0.00 0.00 0.00 0.00 0.00 0.00 0.00 0.00 0.00 0.01 0.01 0.01 0.02 0.03 0.03 0.04 0.03 0.04 0.03 0.02 0.04 0.05 0.05 0.03 0.01
0.05 0.03 0.02 0.04 0.08 0.10 0.13 0.10 0.10 0.07 0.03 0.02 0.03 0.01 0.00 0.00 0.00 0.00 0.00 0.00 0.00 0.00 0.00 0.00 0.00 0.00 0.00 0.00 0.00 0.01 0.02 0.05 0.11 0.10 0.09 0.07 0.04 0.06 0.07 0.07 0.08 0.07 0.06
0.01 0.01 0.02 0.05 0.08 0.07 0.05 0.07 0.05 0.05 0.07 0.06 0.01 0.00 0.00 0.00 0.00 0.00 0.00 0.00 0.00 0.00 0.00 0.00 0.00 0.00 0.00 0.00 0.01 0.01 0.02 0.03 0.10 0.16 0.21 0.13 0.12 0.07 0.07 0.09 0.08 0.10 0.09
0.00 0.00 0.00 0.01 0.02 0.02 0.04 0.09 0.14 0.15 0.06 0.00 0.00 0.00 0.00 0.00 0.00 0.00 0.00 0.00 0.00 0.00 0.00 0.00 0.00 0.00 0.00 0.02 0.09 0.09 0.05 0.03 0.03 0.06 0.13 0.09 0.06 0.07 0.09 0.13 0.17 0.19 0.10
0.00 0.00 0.00 0.01 0.03 0.05 0.12 0.16 0.10 0.02 0.00 0.00 0.01 0.01 0.01 0.01 0.00 0.00 0.00 0.01 0.00 0.00 0.00 0.01 0.01 0.02 0.02 0.08 0.17 0.17 0.08 0.03 0.02 0.03 0.05 0.06 0.07 0.07 0.11 0.26 0.30 0.33 0.24
0.00 0.00 0.00 0.04 0.13 0.14 0.10 0.02 0.00 0.00 0.00 0.00 0.00 0.00 0.00 0.01 0.01 0.01 0.01 0.01 0.03 0.02 0.02 0.01 0.01 0.03 0.12 0.17 0.28 0.25 0.22 0.06 0.03 0.04 0.03 0.03 0.04 0.07 0.06 0.19 0.27 0.37 0.26
0.01 0.06 0.11 0.10 0.06 0.04 0.02 0.00 0.00 0.00 0.00 0.00 0.01 0.01 0.01 0.01 0.01 0.01 0.02 0.02 0.06 0.09 0.04 0.03 0.05 0.22 0.20 0.14 0.13 0.22 0.22 0.10 0.08 0.09 0.07 0.06 0.06 0.08 0.09 0.14 0.20 0.31 0.34
0.04 0.03 0.02 0.04 0.04 0.01 0.00 0.00 0.00 0.00 0.00 0.00 0.01 0.01 0.01 0.01 0.01 0.00 0.01 0.02 0.05 0.15 0.10 0.15 0.23 0.14 0.10 0.06 0.09 0.16 0.10 0.08 0.12 0.14 0.15 0.12 0.13 0.12 0.11 0.15 0.21 0.25 0.22
0.02 0.03 0.03 0.02 0.00 0.00 0.00 0.00 0.00 0.00 0.00 0.01 0.01 0.02 0.02 0.01 0.01 0.01 0.01 0.02 0.03 0.10 0.21 0.21 0.13 0.11 0.05 0.05 0.11 0.12 0.08 0.16 0.19 0.18 0.15 0.13 0.14 0.15 0.17 0.20 0.19 0.19 0.22
0.01 0.00 0.00 0.00 0.00 0.00 0.00 0.00 0.00 0.00 0.00 0.00 0.01 0.01 0.02 0.01 0.01 0.04 0.07 0.05 0.06 0.15 0.11 0.14 0.15 0.08 0.08 0.13 0.14 0.12 0.15 0.17 0.17 0.20 0.16 0.12 0.13 0.15 0.23 0.28 0.38 0.31 0.35
0.00 0.00 0.00 0.00 0.00 0.00 0.00 0.00 0.00 0.00 0.00 0.01 0.01 0.02 0.06 0.06 0.04 0.11 0.14 0.17 0.26 0.18 0.16 0.19 0.13 0.11 0.10 0.09 0.07 0.07 0.08 0.07 0.09 0.13 0.15 0.12 0.11 0.12 0.15 0.17 0.20 0.20 0.30
0.00 0.00 0.00 0.01 0.01 0.00 0.00 0.00 0.00 0.00 0.00 0.00 0.00 0.01 0.02 0.04 0.06 0.08 0.11 0.16 0.17 0.12 0.19 0.16 0.15 0.15 0.14 0.11 0.09 0.06 0.05 0.07 0.06 0.09 0.10 0.09 0.10 0.11 0.11 0.10 0.12 0.15 0.18
0.00 0.00 0.01 0.01 0.01 0.01 0.01 0.02 0.02 0.01 0.00 0.00 0.00 0.01 0.02 0.06 0.10 0.12 0.15 0.16 0.16 0.15 0.19 0.14 0.16 0.15 0.12 0.07 0.06 0.07 0.08 0.10 0.07 0.09 0.11 0.11 0.11 0.10 0.12 0.10 0.11 0.13 0.18
0.00 0.01 0.02 0.01 0.02 0.02 0.02 0.03 0.04 0.05 0.05 0.03 0.02 0.01 0.01 0.05 0.09 0.12 0.12 0.16 0.19 0.15 0.16 0.14 0.14 0.12 0.08 0.06 0.04 0.04 0.04 0.05 0.03 0.05 0.08 0.10 0.09 0.10 0.10 0.09 0.11 0.12 0.12
0.01 0.01 0.01 0.02 0.02 0.02 0.04 0.05 0.06 0.07 0.07 0.04 0.03 0.01 0.01 0.02 0.05 0.08 0.08 0.20 0.17 0.14 0.13 0.14 0.12 0.09 0.07 0.06 0.06 0.04 0.05 0.04 0.04 0.03 0.04 0.06 0.07 0.08 0.07 0.06 0.05 0.05 0.04
0.01 0.01 0.02 0.04 0.04 0.04 0.05 0.07 0.08 0.09 0.10 0.08 0.06 0.04 0.03 0.08 0.12 0.10 0.09 0.12 0.14 0.12 0.11 0.11 0.10 0.09 0.08 0.06 0.05 0.03 0.02 0.02 0.03 0.02 0.03 0.04 0.06 0.06 0.07 0.06 0.04 0.03 0.02
0.02 0.03 0.03 0.05 0.05 0.06 0.07 0.09 0.10 0.14 0.14 0.11 0.08 0.06 0.08 0.18 0.20 0.16 0.13 0.13 0.12 0.10 0.09 0.08 0.07 0.07 0.06 0.05 0.04 0.03 0.02 0.02 0.02 0.02 0.02 0.03 0.04 0.03 0.04 0.04 0.03 0.02 0.02
0.03 0.04 0.06 0.08 0.07 0.08 0.08 0.08 0.10 0.12 0.11 0.12 0.14 0.16 0.20 0.26 0.19 0.12 0.09 0.09 0.09 0.11 0.11 0.12 0.10 0.06 0.06 0.06 0.05 0.05 0.03 0.02 0.02 0.02 0.01 0.02 0.02 0.02 0.03 0.02 0.02 0.02 0.02
0.06 0.08 0.07 0.06 0.07 0.08 0.11 0.13 0.16 0.18 0.17 0.18 0.18 0.15 0.12 0.17 0.17 0.14 0.11 0.09 0.10 0.13 0.13 0.16 0.15 0.10 0.05 0.04 0.05 0.05 0.04 0.02 0.02 0.02 0.01 0.01 0.01 0.01 0.01 0.02 0.02 0.01 0.01
0.08 0.08 0.10 0.11 0.13 0.15 0.16 0.17 0.22 0.27 0.29 0.26 0.21 0.20 0.19 0.17 0.18 0.16 0.14 0.12 0.12 0.10 0.09 0.11 0.12 0.11 0.09 0.07 0.05 0.06 0.05 0.02 0.03 0.02 0.01 0.01 0.00 0.00 0.00 0.01 0.01 0.01 0.01
0.12 0.15 0.17 0.19 0.23 0.26 0.29 0.30 0.27 0.21 0.20 0.21 0.20 0.19 0.16 0.15 0.15 0.16 0.15 0.13 0.12 0.10 0.09 0.09 0.08 0.06 0.06 0.08 0.08 0.03 0.02 0.06 0.06 0.05 0.04 0.01 0.00 0.00 0.00 0.00 0.00 0.00 0.00
0.15 0.18 0.19 0.22 0.26 0.26 0.26 0.22 0.19 0.16 0.17 0.16 0.15 0.14 0.13 0.12 0.10 0.09 0.09 0.10 0.11 0.10 0.07 0.08 0.07 0.06 0.07 0.08 0.09 0.08 0.05 0.09 0.09 0.07 0.05 0.02 0.00 0.00 0.00 0.00 0.00 0.00 0.00

GFSGL_prec_precacc_054.txt.gz
Total_Precipitation_Accumulation
0.04 0.04 0.03 0.02 0.02 0.02 0.01 0.01 0.01 0.04 0.09 0.14 0.12 0.06 0.04 0.06 0.10 0.09 0.07 0.06 0.05 0.02 0.01 0.02 0.02 0.01 0.01 0.01 0.01 0.02 0.03 0.04 0.03 0.00 0.00 0.00 0.00 0.00 0.00 0.00 0.01 0.03 0.04
0.09 0.08 0.06 0.07 0.09 0.08 0.05 0.06 0.10 0.12 0.09 0.07 0.07 0.07 0.08 0.09 0.07 0.06 0.03 0.02 0.02 0.02 0.02 0.01 0.01 0.00 0.00 0.00 0.00 0.00 0.00 0.00 0.00 0.00 0.00 0.00 0.00 0.00 0.00 0.00 0.00 0.00 0.00
0.11 0.10 0.11 0.10 0.09 0.09 0.09 0.08 0.05 0.04 0.05 0.08 0.06 0.06 0.06 0.03 0.02 0.02 0.01 0.01 0.01 0.00 0.00 0.00 0.00 0.00 0.00 0.00 0.00 0.00 0.00 0.01 0.01 0.03 0.01 0.00 0.00 0.00 0.00 0.00 0.00 0.00 0.00
0.17 0.17 0.16 0.11 0.08 0.04 0.02 0.02 0.02 0.05 0.09 0.05 0.03 0.03 0.02 0.01 0.00 0.00 0.00 0.00 0.00 0.00 0.00 0.00 0.00 0.00 0.00 0.00 0.01 0.01 0.01 0.01 0.02 0.03 0.02 0.01 0.00 0.00 0.01 0.02 0.02 0.01 0.02
0.14 0.12 0.10 0.06 0.02 0.01 0.01 0.02 0.05 0.09 0.05 0.02 0.02 0.02 0.00 0.00 0.00 0.00 0.00 0.00 0.00 0.00 0.00 0.00 0.00 0.00 0.00 0.01 0.01 0.01 0.02 0.03 0.03 0.04 0.03 0.04 0.03 0.02 0.04 0.05 0.05 0.03 0.01
0.08 0.06 0.04 0.05 0.08 0.11 0.13 0.12 0.12 0.07 0.03 0.03 0.04 0.01 0.00 0.00 0.00 0.00 0.00 0.00 0.00 0.00 0.00 0.00 0.00 0.00 0.00 0.00 0.00 0.01 0.02 0.05 0.11 0.10 0.09 0.07 0.04 0.06 0.07 0.07 0.08 0.07 0.06
0.02 0.02 0.03 0.06 0.08 0.07 0.05 0.07 0.05 0.07 0.12 0.10 0.02 0.00 0.00 0.00 0.00 0.00 0.00 0.00 0.00 0.00 0.00 0.00 0.00 0.00 0.00 0.00 0.01 0.01 0.02 0.03 0.10 0.16 0.21 0.13 0.12 0.07 0.07 0.09 0.08 0.11 0.10
0.00 0.00 0.01 0.01 0.02 0.02 0.04 0.10 0.16 0.19 0.09 0.01 0.00 0.00 0.00 0.00 0.00 0.00 0.00 0.00 0.00 0.00 0.00 0.00 0.00 0.00 0.00 0.02 0.09 0.09 0.05 0.03 0.03 0.06 0.13 0.09 0.06 0.07 0.09 0.13 0.18 0.19 0.10
0.00 0.00 0.00 0.01 0.04 0.06 0.14 0.22 0.17 0.04 0.00 0.00 0.01 0.01 0.01 0.01 0.00 0.00 0.00 0.01 0.00 0.00 0.00 0.01 0.01 0.02 0.02 0.08 0.17 0.17 0.08 0.03 0.02 0.03 0.05 0.06 0.07 0.07 0.11 0.26 0.30 0.34 0.24
0.00 0.00 0.00 0.05 0.19 0.23 0.16 0.05 0.00 0.00 0.00 0.00 0.00 0.00 0.00 0.01 0.01 0.01 0.01 0.01 0.03 0.02 0.02 0.01 0.01 0.03 0.12 0.17 0.28 0.25 0.22 0.06 0.03 0.04 0.03 0.03 0.04 0.07 0.06 0.19 0.27 0.37 0.26
0.02 0.09 0.15 0.16 0.09 0.05 0.02 0.00 0.00 0.00 0.00 0.00 0.01 0.01 0.01 0.01 0.01 0.01 0.02 0.02 0.06 0.09 0.04 0.03 0.05 0.22 0.20 0.14 0.13 0.22 0.22 0.10 0.08 0.09 0.07 0.06 0.06 0.08 0.09 0.14 0.20 0.31 0.34
0.05 0.04 0.02 0.04 0.04 0.01 0.00 0.00 0.00 0.00 0.00 0.00 0.01 0.01 0.01 0.01 0.01 0.00 0.01 0.02 0.05 0.15 0.10 0.15 0.23 0.14 0.10 0.06 0.09 0.16 0.10 0.08 0.12 0.14 0.15 0.12 0.13 0.12 0.11 0.15 0.21 0.25 0.22
0.02 0.03 0.03 0.02 0.00 0.00 0.00 0.00 0.00 0.00 0.00 0.01 0.01 0.02 0.02 0.01 0.01 0.01 0.01 0.02 0.03 0.10 0.21 0.21 0.13 0.11 0.06 0.06 0.12 0.12 0.08 0.16 0.19 0.18 0.15 0.13 0.14 0.15 0.17 0.20 0.19 0.19 0.22
0.01 0.00 0.00 0.00 0.00 0.00 0.00 0.00 0.00 0.00 0.00 0.00 0.01 0.01 0.02 0.01 0.01 0.04 0.07 0.05 0.06 0.15 0.11 0.14 0.15 0.09 0.10 0.16 0.15 0.13 0.16 0.18 0.18 0.20 0.16 0.12 0.13 0.15 0.23 0.28 0.38 0.31 0.35
0.00 0.00 0.00 0.00 0.00 0.00 0.00 0.00 0.00 0.00 0.00 0.01 0.01 0.02 0.06 0.06 0.04 0.11 0.14 0.17 0.27 0.19 0.17 0.20 0.14 0.13 0.12 0.11 0.09 0.08 0.09 0.08 0.10 0.13 0.15 0.12 0.11 0.12 0.15 0.17 0.20 0.20 0.30
0.00 0.00 0.00 0.01 0.01 0.00 0.00 0.00 0.00 0.00 0.00 0.00 0.00 0.01 0.02 0.04 0.06 0.08 0.12 0.19 0.23 0.20 0.31 0.21 0.15 0.16 0.15 0.12 0.11 0.07 0.06 0.08 0.06 0.09 0.10 0.09 0.10 0.11 0.11 0.10 0.12 0.15 0.18
0.00 0.00 0.01 0.01 0.01 0.01 0.01 0.02 0.02 0.01 0.00 0.00 0.00 0.01 0.02 0.06 0.10 0.13 0.16 0.20 0.21 0.22 0.31 0.17 0.16 0.15 0.12 0.08 0.08 0.08 0.09 0.10 0.07 0.09 0.11 0.11 0.11 0.10 0.12 0.10 0.11 0.13 0.18
0.00 0.01 0.02 0.01 0.02 0.02 0.02 0.03 0.04 0.05 0.05 0.03 0.02 0.01 0.01 0.05 0.09 0.12 0.13 0.21 0.26 0.20 0.20 0.17 0.15 0.12 0.08 0.07 0.07 0.07 0.06 0.06 0.04 0.05 0.08 0.10 0.09 0.10 0.10 0.09 0.11 0.12 0.12
0.01 0.01 0.01 0.02 0.02 0.02 0.04 0.06 0.07 0.08 0.07 0.05 0.03 0.01 0.01 0.02 0.05 0.09 0.11 0.28 0.25 0.19 0.15 0.14 0.12 0.10 0.07 0.07 0.09 0.07 0.07 0.05 0.04 0.03 0.04 0.06 0.07 0.08 0.07 0.06 0.05 0.05 0.04
0.01 0.01 0.02 0.04 0.04 0.04 0.05 0.07 0.08 0.10 0.10 0.08 0.06 0.04 0.04 0.09 0.12 0.12 0.16 0.22 0.21 0.14 0.11 0.11 0.11 0.12 0.11 0.08 0.07 0.07 0.05 0.03 0.03 0.02 0.03 0.04 0.06 0.06 0.07 0.06 0.04 0.03 0.02
0.02 0.03 0.03 0.05 0.05 0.06 0.07 0.09 0.10 0.15 0.14 0.11 0.09 0.07 0.09 0.21 0.23 0.21 0.21 0.21 0.17 0.13 0.10 0.10 0.08 0.08 0.08 0.08 0.06 0.07 0.06 0.04 0.03 0.02 0.02 0.03 0.04 0.04 0.04 0.04 0.03 0.02 0.02
0.03 0.04 0.06 0.08 0.07 0.08 0.08 0.08 0.11 0.12 0.11 0.13 0.14 0.16 0.21 0.28 0.23 0.18 0.16 0.15 0.14 0.14 0.13 0.16 0.16 0.11 0.10 0.12 0.12 0.10 0.06 0.04 0.03 0.02 0.01 0.02 0.02 0.02 0.03 0.02 0.02 0.02 0.02
0.06 0.08 0.07 0.06 0.07 0.08 0.11 0.13 0.17 0.18 0.17 0.19 0.18 0.15 0.13 0.18 0.19 0.17 0.15 0.13 0.14 0.16 0.14 0.17 0.16 0.11 0.07 0.09 0.12 0.13 0.08 0.03 0.03 0.05 0.03 0.01 0.01 0.02 0.01 0.02 0.02 0.01 0.01
0.08 0.08 0.10 0.11 0.13 0.15 0.16 0.17 0.22 0.27 0.29 0.26 0.21 0.20 0.19 0.17 0.19 0.18 0.16 0.15 0.14 0.12 0.09 0.12 0.13 0.12 0.11 0.10 0.11 0.12 0.11 0.06 0.07 0.07 0.06 0.04 0.01 0.00 0.00 0.01 0.01 0.01 0.01
0.12 0.15 0.17 0.19 0.23 0.26 0.29 0.30 0.27 0.21 0.20 0.21 0.20 0.19 0.16 0.15 0.16 0.16 0.16 0.15 0.13 0.11 0.10 0.09 0.08 0.06 0.06 0.10 0.10 0.05 0.05 0.10 0.12 0.11 0.10 0.05 0.01 0.00 0.00 0.00 0.00 0.00 0.00
0.15 0.18 0.19 0.22 0.26 0.26 0.26 0.22 0.19 0.16 0.17 0.16 0.15 0.14 0.13 0.12 0.10 0.09 0.09 0.11 0.11 0.10 0.08 0.08 0.07 0.06 0.07 0.08 0.11 0.10 0.08 0.11 0.13 0.13 0.12 0.07 0.03 0.02 0.01 0.00 0.00 0.00 0.00

GFSGL_prec_precacc_057.txt.gz
Total_Precipitation_Accumulation
0.08 0.11 0.10 0.10 0.06 0.05 0.05 0.03 0.02 0.06 0.12 0.15 0.14 0.09 0.06 0.06 0.10 0.09 0.07 0.06 0.05 0.02 0.01 0.02 0.02 0.01 0.01 0.01 0.01 0.02 0.03 0.04 0.03 0.00 0.00 0.00 0.00 0.00 0.00 0.00 0.01 0.03 0.04
0.15 0.17 0.17 0.18 0.20 0.20 0.15 0.11 0.15 0.17 0.14 0.08 0.09 0.11 0.14 0.13 0.08 0.07 0.03 0.02 0.02 0.02 0.02 0.01 0.01 0.00 0.00 0.00 0.00 0.00 0.00 0.00 0.00 0.00 0.00 0.00 0.00 0.00 0.00 0.00 0.00 0.00 0.00
0.15 0.17 0.23 0.21 0.19 0.19 0.18 0.16 0.16 0.17 0.08 0.09 0.10 0.12 0.10 0.07 0.04 0.02 0.01 0.01 0.01 0.00 0.00 0.00 0.00 0.00 0.00 0.00 0.00 0.00 0.00 0.01 0.01 0.03 0.01 0.00 0.00 0.00 0.00 0.00 0.00 0.00 0.00
0.21 0.22 0.25 0.24 0.20 0.15 0.09 0.06 0.05 0.08 0.09 0.07 0.07 0.09 0.06 0.02 0.00 0.00 0.00 0.00 0.00 0.00 0.00 0.00 0.00 0.00 0.00 0.00 0.01 0.01 0.01 0.01 0.02 0.03 0.02 0.01 0.00 0.00 0.01 0.02 0.02 0.01 0.02
0.17 0.15 0.14 0.10 0.06 0.04 0.03 0.02 0.05 0.10 0.09 0.09 0.06 0.03 0.01 0.01 0.00 0.00 0.00 0.00 0.00 0.00 0.00 0.00 0.00 0.00 0.00 0.01 0.01 0.01 0.02 0.03 0.03 0.04 0.03 0.04 0.03 0.02 0.04 0.05 0.05 0.03 0.01
0.08 0.07 0.05 0.05 0.09 0.11 0.13 0.12 0.13 0.10 0.05 0.04 0.06 0.04 0.02 0.00 0.00 0.00 0.00 0.00 0.00 0.00 0.00 0.00 0.00 0.00 0.00 0.00 0.00 0.01 0.02 0.05 0.11 0.10 0.09 0.07 0.04 0.06 0.07 0.07 0.08 0.07 0.06
0.02 0.02 0.03 0.06 0.08 0.07 0.06 0.08 0.06 0.08 0.13 0.14 0.09 0.05 0.02 0.01 0.00 0.00 0.00 0.00 0.00 0.00 0.00 0.00 0.00 0.00 0.00 0.00 0.01 0.01 0.02 0.03 0.10 0.16 0.21 0.13 0.12 0.07 0.07 0.09 0.08 0.11 0.10
0.00 0.00 0.01 0.01 0.02 0.02 0.05 0.12 0.18 0.24 0.19 0.10 0.03 0.01 0.00 0.00 0.00 0.00 0.00 0.00 0.00 0.00 0.00 0.00 0.00 0.00 0.00 0.02 0.09 0.09 0.05 0.03 0.03 0.06 0.13 0.09 0.06 0.07 0.09 0.13 0.18 0.19 0.10
0.00 0.00 0.00 0.01 0.04 0.06 0.16 0.27 0.25 0.10 0.02 0.00 0.01 0.01 0.01 0.01 0.00 0.00 0.00 0.01 0.00 0.00 0.00 0.01 0.01 0.02 0.02 0.08 0.17 0.17 0.08 0.03 0.02 0.03 0.05 0.06 0.07 0.07 0.11 0.26 0.30 0.34 0.24
0.00 0.00 0.00 0.05 0.21 0.27 0.20 0.06 0.00 0.00 0.00 0.00 0.00 0.00 0.00 0.01 0.01 0.01 0.01 0.01 0.03 0.02 0.02 0.01 0.01 0.03 0.12 0.17 0.28 0.25 0.22 0.06 0.03 0.04 0.03 0.03 0.04 0.07 0.06 0.19 0.27 0.37 0.26
0.02 0.09 0.16 0.17 0.10 0.05 0.02 0.00 0.00 0.00 0.00 0.00 0.01 0.01 0.01 0.01 0.01 0.01 0.02 0.02 0.06 0.09 0.04 0.03 0.05 0.22 0.20 0.14 0.13 0.22 0.22 0.10 0.08 0.09 0.07 0.06 0.06 0.08 0.09 0.14 0.20 0.31 0.34
0.05 0.04 0.02 0.04 0.04 0.01 0.00 0.00 0.00 0.00 0.00 0.00 0.01 0.01 0.01 0.01 0.01 0.00 0.01 0.02 0.05 0.15 0.10 0.15 0.23 0.14 0.10 0.06 0.09 0.16 0.10 0.08 0.12 0.14 0.15 0.12 0.13 0.12 0.11 0.15 0.21 0.25 0.22
0.02 0.03 0.03 0.02 0.00 0.00 0.00 0.00 0.00 0.00 0.00 0.01 0.01 0.02 0.02 0.01 0.01 0.01 0.01 0.02 0.03 0.10 0.22 0.21 0.13 0.11 0.06 0.06 0.12 0.13 0.09 0.18 0.20 0.19 0.16 0.13 0.14 0.15 0.17 0.20 0.19 0.19 0.22
0.01 0.00 0.00 0.00 0.00 0.00 0.00 0.00 0.00 0.00 0.00 0.00 0.01 0.01 0.02 0.01 0.01 0.04 0.07 0.05 0.06 0.15 0.12 0.15 0.16 0.10 0.11 0.16 0.16 0.14 0.19 0.20 0.19 0.21 0.16 0.12 0.13 0.15 0.23 0.28 0.38 0.31 0.35
0.00 0.00 0.00 0.00 0.00 0.00 0.00 0.00 0.00 0.00 0.00 0.01 0.01 0.03 0.06 0.06 0.04 0.11 0.14 0.18 0.28 0.20 0.20 0.27 0.20 0.17 0.15 0.14 0.12 0.10 0.11 0.12 0.13 0.14 0.15 0.12 0.11 0.12 0.15 0.17 0.20 0.20 0.30
0.00 0.00 0.00 0.01 0.01 0.00 0.00 0.00 0.00 0.00 0.00 0.00 0.00 0.01 0.02 0.04 0.06 0.08 0.12 0.20 0.23 0.21 0.37 0.32 0.23 0.21 0.19 0.15 0.11 0.07 0.07 0.10 0.08 0.10 0.12 0.10 0.10 0.11 0.11 0.10 0.12 0.15 0.18
0.00 0.00 0.01 0.01 0.01 0.01 0.01 0.02 0.02 0.01 0.00 0.00 0.00 0.01 0.02 0.06 0.10 0.13 0.16 0.20 0.22 0.23 0.34 0.23 0.21 0.20 0.16 0.11 0.09 0.08 0.10 0.10 0.09 0.10 0.11 0.11 0.11 0.10 0.12 0.10 0.11 0.13 0.18
0.00 0.01 0.02 0.01 0.02 0.02 0.02 0.03 0.04 0.05 0.05 0.03 0.02 0.01 0.01 0.05 0.09 0.12 0.13 0.21 0.27 0.21 0.23 0.20 0.19 0.16 0.11 0.09 0.07 0.07 0.07 0.08 0.07 0.06 0.08 0.10 0.10 0.10 0.10 0.09 0.11 0.12 0.12
0.01 0.01 0.01 0.02 0.02 0.02 0.04 0.06 0.07 0.08 0.08 0.05 0.03 0.01 0.01 0.02 0.05 0.09 0.11 0.29 0.28 0.25 0.25 0.25 0.21 0.15 0.08 0.08 0.10 0.11 0.11 0.09 0.06 0.04 0.05 0.06 0.07 0.08 0.07 0.06 0.05 0.05 0.04
0.01 0.01 0.02 0.04 0.04 0.04 0.05 0.07 0.08 0.10 0.10 0.08 0.06 0.04 0.04 0.09 0.12 0.12 0.17 0.23 0.25 0.20 0.15 0.14 0.12 0.13 0.13 0.10 0.09 0.10 0.09 0.06 0.05 0.03 0.03 0.05 0.06 0.06 0.07 0.06 0.04 0.03 0.02
0.02 0.03 0.03 0.05 0.05 0.06 0.07 0.09 0.10 0.15 0.14 0.11 0.09 0.07 0.09 0.21 0.23 0.22 0.22 0.22 0.19 0.15 0.13 0.12 0.10 0.10 0.09 0.11 0.09 0.09 0.08 0.06 0.05 0.03 0.02 0.03 0.04 0.04 0.04 0.04 0.03 0.02 0.02
0.03 0.04 0.06 0.08 0.07 0.08 0.08 0.08 0.11 0.12 0.11 0.13 0.14 0.16 0.21 0.28 0.23 0.18 0.16 0.16 0.16 0.18 0.18 0.20 0.19 0.15 0.14 0.16 0.16 0.15 0.10 0.07 0.06 0.05 0.03 0.02 0.02 0.02 0.03 0.03 0.02 0.02 0.02
0.06 0.08 0.07 0.06 0.07 0.08 0.11 0.13 0.17 0.18 0.17 0.19 0.18 0.15 0.13 0.18 0.19 0.17 0.15 0.14 0.14 0.17 0.17 0.20 0.19 0.13 0.09 0.10 0.14 0.17 0.14 0.08 0.07 0.10 0.07 0.03 0.01 0.02 0.02 0.02 0.02 0.01 0.01
0.08 0.08 0.10 0.11 0.13 0.15 0.16 0.17 0.22 0.27 0.29 0.26 0.21 0.20 0.19 0.17 0.19 0.19 0.16 0.15 0.14 0.12 0.11 0.14 0.14 0.14 0.12 0.11 0.11 0.14 0.15 0.13 0.15 0.13 0.12 0.09 0.03 0.01 0.01 0.01 0.01 0.01 0.01
0.12 0.15 0.17 0.19 0.23 0.26 0.29 0.30 0.27 0.21 0.20 0.21 0.20 0.19 0.16 0.15 0.16 0.16 0.16 0.15 0.13 0.11 0.10 0.10 0.10 0.07 0.07 0.10 0.10 0.07 0.07 0.13 0.18 0.17 0.18 0.10 0.04 0.03 0.02 0.01 0.00 0.00 0.00
0.15 0.18 0.19 0.22 0.26 0.26 0.26 0.22 0.19 0.16 0.17 0.16 0.15 0.14 0.13 0.12 0.10 0.09 0.09 0.11 0.11 0.10 0.08 0.08 0.07 0.07 0.08 0.08 0.11 0.10 0.08 0.12 0.15 0.16 0.18 0.14 0.07 0.04 0.04 0.02 0.01 0.00 0.00

GFSGL_prec_precacc_060.txt.gz
Total_Precipitation_Accumulation
0.08 0.11 0.11 0.14 0.12 0.10 0.08 0.07 0.05 0.08 0.14 0.19 0.16 0.14 0.12 0.14 0.16 0.11 0.09 0.09 0.07 0.03 0.01 0.02 0.02 0.01 0.01 0.01 0.01 0.02 0.03 0.04 0.03 0.00 0.00 0.00 0.00 0.00 0.00 0.00 0.01 0.03 0.04
0.15 0.18 0.19 0.23 0.25 0.25 0.20 0.15 0.16 0.18 0.18 0.18 0.27 0.26 0.16 0.15 0.12 0.12 0.09 0.04 0.02 0.02 0.02 0.01 0.01 0.00 0.00 0.00 0.00 0.00 0.00 0.00 0.00 0.00 0.00 0.00 0.00 0.00 0.00 0.00 0.00 0.00 0.00
0.15 0.18 0.24 0.24 0.23 0.23 0.22 0.21 0.30 0.49 0.57 0.50 0.32 0.20 0.13 0.10 0.10 0.08 0.04 0.02 0.01 0.00 0.00 0.00 0.00 0.00 0.00 0.00 0.00 0.00 0.00 0.01 0.01 0.03 0.01 0.00 0.00 0.00 0.00 0.00 0.00 0.00 0.00
0.21 0.23 0.27 0.27 0.22 0.18 0.13 0.14 0.18 0.21 0.18 0.11 0.08 0.12 0.15 0.12 0.06 0.02 0.00 0.00 0.00 0.00 0.00 0.00 0.00 0.00 0.00 0.00 0.01 0.01 0.01 0.01 0.02 0.03 0.02 0.01 0.00 0.00 0.01 0.02 0.02 0.01 0.02
0.19 0.16 0.15 0.11 0.07 0.04 0.04 0.03 0.06 0.10 0.09 0.09 0.08 0.07 0.05 0.06 0.04 0.01 0.00 0.00 0.00 0.00 0.00 0.00 0.00 0.00 0.00 0.01 0.01 0.01 0.02 0.03 0.03 0.04 0.03 0.04 0.03 0.02 0.04 0.05 0.05 0.03 0.01
0.10 0.08 0.05 0.05 0.09 0.11 0.13 0.12 0.13 0.10 0.05 0.04 0.08 0.09 0.08 0.04 0.02 0.01 0.00 0.00 0.00 0.00 0.00 0.00 0.00 0.00 0.00 0.00 0.00 0.01 0.02 0.05 0.11 0.10 0.09 0.07 0.04 0.06 0.07 0.07 0.08 0.07 0.06
0.02 0.02 0.03 0.06 0.08 0.07 0.06 0.08 0.06 0.08 0.14 0.17 0.15 0.10 0.04 0.02 0.01 0.00 0.00 0.00 0.00 0.00 0.00 0.00 0.00 0.00 0.00 0.00 0.01 0.01 0.02 0.03 0.10 0.16 0.21 0.13 0.12 0.07 0.07 0.09 0.08 0.11 0.10
0.00 0.00 0.01 0.01 0.02 0.02 0.05 0.12 0.18 0.25 0.22 0.13 0.05 0.01 0.01 0.00 0.00 0.00 0.00 0.00 0.00 0.00 0.00 0.00 0.00 0.00 0.00 0.02 0.09 0.09 0.05 0.03 0.03 0.06 0.13 0.09 0.06 0.07 0.09 0.13 0.18 0.20 0.10
0.00 0.00 0.00 0.01 0.04 0.06 0.16 0.28 0.26 0.11 0.02 0.00 0.01 0.01 0.01 0.01 0.00 0.00 0.00 0.01 0.00 0.00 0.00 0.01 0.01 0.02 0.02 0.08 0.17 0.17 0.08 0.03 0.02 0.03 0.05 0.06 0.07 0.07 0.11 0.26 0.30 0.34 0.24
0.00 0.00 0.00 0.05 0.21 0.27 0.21 0.07 0.00 0.00 0.00 0.00 0.00 0.00 0.00 0.01 0.01 0.01 0.01 0.01 0.03 0.02 0.02 0.01 0.01 0.03 0.12 0.17 0.28 0.25 0.22 0.06 0.03 0.04 0.03 0.03 0.04 0.07 0.06 0.19 0.27 0.37 0.26
0.02 0.09 0.16 0.17 0.10 0.05 0.02 0.00 0.00 0.00 0.00 0.00 0.01 0.01 0.01 0.01 0.01 0.01 0.02 0.02 0.06 0.09 0.04 0.03 0.05 0.22 0.20 0.14 0.14 0.23 0.23 0.10 0.08 0.09 0.07 0.06 0.06 0.08 0.09 0.14 0.20 0.32 0.34
0.05 0.04 0.02 0.04 0.04 0.01 0.00 0.00 0.00 0.00 0.00 0.00 0.01 0.01 0.01 0.01 0.01 0.00 0.01 0.02 0.05 0.15 0.11 0.15 0.23 0.14 0.10 0.07 0.09 0.16 0.10 0.08 0.13 0.15 0.16 0.12 0.13 0.12 0.11 0.15 0.21 0.25 0.22
0.02 0.03 0.03 0.02 0.00 0.00 0.00 0.00 0.00 0.00 0.00 0.01 0.01 0.02 0.02 0.01 0.01 0.01 0.01 0.02 0.03 0.10 0.22 0.21 0.14 0.11 0.07 0.07 0.12 0.13 0.10 0.20 0.24 0.22 0.17 0.13 0.15 0.15 0.18 0.20 0.19 0.19 0.22
0.01 0.00 0.00 0.00 0.00 0.00 0.00 0.00 0.00 0.00 0.00 0.00 0.01 0.01 0.02 0.01 0.01 0.04 0.07 0.05 0.06 0.15 0.12 0.16 0.17 0.11 0.13 0.20 0.20 0.20 0.27 0.29 0.24 0.23 0.17 0.12 0.13 0.15 0.23 0.28 0.38 0.31 0.35
0.00 0.00 0.00 0.00 0.00 0.00 0.00 0.00 0.00 0.00 0.00 0.01 0.01 0.03 0.06 0.06 0.04 0.11 0.15 0.18 0.28 0.21 0.21 0.28 0.21 0.18 0.17 0.16 0.15 0.15 0.16 0.15 0.17 0.16 0.18 0.15 0.13 0.13 0.15 0.18 0.21 0.20 0.31
0.00 0.00 0.00 0.01 0.01 0.00 0.00 0.00 0.00 0.00 0.00 0.00 0.00 0.01 0.02 0.04 0.06 0.08 0.12 0.20 0.23 0.21 0.38 0.33 0.25 0.22 0.21 0.18 0.16 0.11 0.09 0.10 0.08 0.11 0.14 0.12 0.12 0.12 0.12 0.11 0.12 0.16 0.19
0.00 0.00 0.01 0.01 0.01 0.01 0.01 0.02 0.02 0.01 0.00 0.00 0.00 0.01 0.02 0.06 0.10 0.13 0.16 0.20 0.22 0.23 0.35 0.25 0.23 0.23 0.18 0.14 0.15 0.15 0.15 0.11 0.09 0.12 0.13 0.12 0.12 0.12 0.13 0.11 0.12 0.14 0.18
0.00 0.01 0.02 0.01 0.02 0.02 0.02 0.03 0.04 0.05 0.05 0.03 0.02 0.01 0.01 0.05 0.09 0.12 0.13 0.21 0.27 0.21 0.24 0.23 0.24 0.23 0.21 0.21 0.16 0.11 0.10 0.10 0.09 0.08 0.10 0.11 0.12 0.11 0.11 0.10 0.11 0.12 0.13
0.01 0.01 0.01 0.02 0.02 0.02 0.04 0.06 0.07 0.08 0.08 0.05 0.03 0.01 0.01 0.02 0.05 0.09 0.11 0.29 0.29 0.26 0.26 0.26 0.24 0.20 0.15 0.14 0.16 0.14 0.13 0.12 0.10 0.08 0.07 0.08 0.10 0.10 0.08 0.06 0.06 0.05 0.04
0.01 0.01 0.02 0.04 0.04 0.04 0.05 0.07 0.08 0.10 0.10 0.08 0.06 0.04 0.04 0.09 0.13 0.13 0.17 0.23 0.26 0.20 0.16 0.15 0.14 0.16 0.16 0.13 0.12 0.14 0.13 0.09 0.07 0.06 0.05 0.07 0.08 0.07 0.07 0.06 0.04 0.04 0.02
0.02 0.03 0.03 0.05 0.05 0.06 0.07 0.09 0.10 0.15 0.14 0.11 0.09 0.07 0.09 0.21 0.23 0.22 0.22 0.22 0.19 0.15 0.13 0.12 0.11 0.11 0.11 0.12 0.11 0.11 0.11 0.09 0.08 0.06 0.04 0.06 0.07 0.05 0.04 0.05 0.03 0.03 0.02
0.03 0.04 0.06 0.08 0.07 0.08 0.08 0.08 0.11 0.12 0.11 0.13 0.14 0.16 0.21 0.28 0.23 0.18 0.16 0.16 0.16 0.18 0.18 0.21 0.20 0.16 0.16 0.19 0.19 0.18 0.13 0.10 0.11 0.10 0.07 0.07 0.06 0.04 0.04 0.03 0.03 0.02 0.02
0.06 0.08 0.07 0.06 0.07 0.08 0.11 0.13 0.17 0.18 0.17 0.19 0.18 0.15 0.13 0.18 0.19 0.17 0.15 0.14 0.15 0.18 0.17 0.21 0.20 0.14 0.11 0.13 0.17 0.20 0.16 0.10 0.11 0.16 0.14 0.09 0.05 0.04 0.03 0.03 0.02 0.02 0.01
0.08 0.08 0.10 0.11 0.13 0.15 0.16 0.17 0.22 0.27 0.29 0.26 0.21 0.20 0.19 0.18 0.19 0.19 0.16 0.15 0.14 0.12 0.11 0.14 0.15 0.14 0.13 0.12 0.13 0.16 0.17 0.14 0.16 0.16 0.18 0.16 0.07 0.04 0.03 0.03 0.02 0.01 0.01
0.12 0.15 0.17 0.19 0.23 0.26 0.29 0.30 0.27 0.21 0.20 0.21 0.20 0.19 0.16 0.16 0.16 0.16 0.16 0.15 0.13 0.12 0.11 0.10 0.10 0.08 0.08 0.11 0.12 0.08 0.08 0.14 0.20 0.21 0.24 0.16 0.09 0.06 0.05 0.04 0.02 0.01 0.01
0.15 0.18 0.19 0.22 0.26 0.26 0.26 0.22 0.19 0.16 0.17 0.16 0.15 0.14 0.13 0.12 0.10 0.10 0.09 0.11 0.11 0.10 0.08 0.08 0.07 0.07 0.08 0.09 0.12 0.11 0.09 0.13 0.16 0.18 0.23 0.19 0.12 0.08 0.07 0.06 0.04 0.01 0.00

GFSGL_prec_precacc_063.txt.gz
Total_Precipitation_Accumulation
0.08 0.11 0.12 0.18 0.16 0.15 0.16 0.13 0.09 0.11 0.17 0.22 0.17 0.17 0.24 0.26 0.23 0.16 0.13 0.14 0.12 0.06 0.03 0.02 0.02 0.01 0.01 0.01 0.01 0.02 0.03 0.04 0.03 0.00 0.00 0.00 0.00 0.00 0.00 0.00 0.01 0.03 0.04
0.15 0.18 0.20 0.23 0.26 0.27 0.23 0.17 0.19 0.20 0.18 0.22 0.42 0.54 0.38 0.27 0.20 0.18 0.13 0.08 0.06 0.04 0.02 0.01 0.01 0.00 0.00 0.00 0.00 0.00 0.00 0.00 0.00 0.00 0.00 0.00 0.00 0.00 0.00 0.00 0.00 0.00 0.00
0.15 0.18 0.24 0.24 0.24 0.24 0.23 0.22 0.30 0.50 0.65 0.68 0.55 0.39 0.24 0.17 0.15 0.14 0.11 0.08 0.04 0.01 0.00 0.00 0.00 0.00 0.00 0.00 0.00 0.00 0.00 0.01 0.01 0.03 0.01 0.00 0.00 0.00 0.00 0.00 0.00 0.00 0.00
0.21 0.23 0.29 0.29 0.23 0.19 0.14 0.15 0.19 0.22 0.20 0.14 0.11 0.13 0.16 0.14 0.09 0.08 0.05 0.02 0.00 0.00 0.00 0.00 0.00 0.00 0.00 0.00 0.01 0.01 0.01 0.01 0.02 0.03 0.02 0.01 0.00 0.00 0.01 0.02 0.02 0.01 0.02
0.19 0.18 0.18 0.14 0.09 0.06 0.04 0.04 0.06 0.10 0.09 0.09 0.08 0.08 0.06 0.07 0.08 0.06 0.02 0.00 0.00 0.00 0.00 0.00 0.00 0.00 0.00 0.01 0.01 0.01 0.02 0.03 0.03 0.04 0.03 0.04 0.03 0.02 0.04 0.05 0.05 0.03 0.01
0.12 0.14 0.11 0.10 0.10 0.12 0.13 0.12 0.13 0.10 0.05 0.04 0.08 0.09 0.09 0.06 0.04 0.02 0.00 0.00 0.00 0.00 0.00 0.00 0.00 0.00 0.00 0.00 0.00 0.01 0.02 0.05 0.11 0.10 0.09 0.08 0.04 0.07 0.08 0.08 0.08 0.07 0.06
0.05 0.03 0.03 0.06 0.09 0.07 0.06 0.08 0.06 0.08 0.14 0.17 0.16 0.11 0.05 0.02 0.01 0.00 0.00 0.00 0.00 0.00 0.00 0.00 0.00 0.00 0.00 0.00 0.01 0.01 0.02 0.03 0.10 0.16 0.21 0.13 0.13 0.08 0.09 0.09 0.08 0.11 0.10
0.00 0.00 0.01 0.01 0.02 0.02 0.05 0.12 0.18 0.25 0.22 0.13 0.05 0.01 0.01 0.00 0.00 0.00 0.00 0.00 0.00 0.00 0.00 0.00 0.00 0.00 0.00 0.02 0.09 0.10 0.06 0.05 0.04 0.07 0.13 0.09 0.07 0.07 0.10 0.13 0.18 0.20 0.10
0.00 0.00 0.00 0.01 0.04 0.06 0.16 0.28 0.26 0.11 0.02 0.00 0.01 0.01 0.01 0.01 0.00 0.00 0.00 0.01 0.00 0.00 0.00 0.01 0.01 0.02 0.02 0.08 0.18 0.18 0.09 0.05 0.04 0.04 0.05 0.06 0.07 0.07 0.11 0.26 0.30 0.34 0.25
0.00 0.00 0.00 0.05 0.21 0.27 0.21 0.07 0.00 0.00 0.00 0.00 0.00 0.00 0.00 0.01 0.01 0.01 0.01 0.01 0.03 0.02 0.02 0.01 0.01 0.03 0.12 0.17 0.29 0.28 0.25 0.08 0.07 0.08 0.05 0.04 0.04 0.07 0.06 0.19 0.27 0.37 0.26
0.02 0.09 0.16 0.17 0.10 0.05 0.02 0.00 0.00 0.00 0.00 0.00 0.01 0.01 0.01 0.01 0.01 0.01 0.02 0.02 0.06 0.09 0.04 0.03 0.05 0.22 0.20 0.14 0.15 0.25 0.25 0.13 0.12 0.13 0.09 0.07 0.06 0.08 0.09 0.14 0.20 0.32 0.34
0.05 0.04 0.02 0.04 0.04 0.01 0.00 0.00 0.00 0.00 0.00 0.00 0.01 0.01 0.01 0.01 0.01 0.00 0.01 0.02 0.05 0.15 0.11 0.15 0.23 0.14 0.10 0.07 0.10 0.16 0.10 0.09 0.15 0.19 0.20 0.14 0.13 0.12 0.11 0.15 0.21 0.25 0.22
0.02 0.03 0.03 0.02 0.00 0.00 0.00 0.00 0.00 0.00 0.00 0.01 0.01 0.02 0.02 0.01 0.01 0.01 0.01 0.02 0.03 0.10 0.22 0.21 0.14 0.11 0.07 0.08 0.13 0.13 0.12 0.24 0.31 0.31 0.24 0.16 0.16 0.16 0.18 0.20 0.19 0.19 0.22
0.01 0.00 0.00 0.00 0.00 0.00 0.00 0.00 0.00 0.00 0.00 0.00 0.01 0.01 0.02 0.01 0.01 0.04 0.07 0.05 0.06 0.15 0.12 0.16 0.17 0.11 0.13 0.20 0.21 0.20 0.29 0.32 0.30 0.29 0.22 0.15 0.16 0.17 0.24 0.28 0.39 0.32 0.35
0.00 0.00 0.00 0.00 0.00 0.00 0.00 0.00 0.00 0.00 0.00 0.01 0.01 0.03 0.06 0.06 0.04 0.11 0.15 0.18 0.28 0.21 0.21 0.29 0.22 0.19 0.18 0.17 0.16 0.16 0.18 0.18 0.22 0.23 0.26 0.21 0.17 0.16 0.17 0.18 0.22 0.21 0.31
0.00 0.00 0.00 0.01 0.01 0.00 0.00 0.00 0.00 0.00 0.00 0.00 0.00 0.01 0.02 0.04 0.06 0.08 0.12 0.20 0.23 0.21 0.38 0.34 0.26 0.24 0.23 0.19 0.18 0.14 0.13 0.14 0.11 0.15 0.16 0.14 0.14 0.15 0.14 0.13 0.14 0.17 0.19
0.00 0.00 0.01 0.01 0.01 0.01 0.01 0.02 0.02 0.01 0.00 0.00 0.00 0.01 0.02 0.06 0.10 0.13 0.16 0.20 0.22 0.23 0.36 0.25 0.24 0.24 0.20 0.16 0.18 0.20 0.23 0.18 0.13 0.16 0.14 0.14 0.14 0.14 0.16 0.13 0.15 0.16 0.19
0.00 0.01 0.02 0.01 0.02 0.02 0.02 0.03 0.04 0.05 0.05 0.03 0.02 0.01 0.01 0.05 0.09 0.12 0.13 0.21 0.27 0.21 0.24 0.24 0.24 0.24 0.22 0.24 0.24 0.24 0.21 0.18 0.14 0.10 0.12 0.14 0.14 0.14 0.15 0.13 0.13 0.14 0.14
0.01 0.01 0.01 0.02 0.02 0.02 0.04 0.06 0.07 0.08 0.08 0.05 0.03 0.01 0.01 0.02 0.05 0.09 0.11 0.29 0.29 0.26 0.26 0.26 0.25 0.20 0.16 0.15 0.18 0.19 0.19 0.18 0.15 0.12 0.10 0.11 0.13 0.13 0.11 0.09 0.07 0.06 0.05
0.01 0.01 0.02 0.04 0.04 0.04 0.05 0.07 0.08 0.10 0.10 0.08 0.06 0.04 0.04 0.09 0.13 0.13 0.17 0.23 0.26 0.20 0.16 0.15 0.14 0.16 0.16 0.14 0.14 0.16 0.16 0.13 0.13 0.11 0.09 0.10 0.11 0.10 0.11 0.09 0.06 0.05 0.03
0.02 0.03 0.03 0.05 0.05 0.06 0.07 0.09 0.10 0.15 0.14 0.11 0.09 0.07 0.09 0.21 0.23 0.22 0.22 0.23 0.19 0.16 0.13 0.13 0.11 0.12 0.11 0.13 0.12 0.13 0.13 0.12 0.11 0.11 0.10 0.11 0.12 0.10 0.08 0.08 0.05 0.04 0.03
0.03 0.04 0.06 0.08 0.07 0.08 0.08 0.08 0.11 0.12 0.11 0.13 0.14 0.16 0.21 0.28 0.23 0.19 0.16 0.16 0.16 0.18 0.19 0.21 0.20 0.17 0.17 0.20 0.21 0.20 0.15 0.13 0.14 0.14 0.11 0.10 0.11 0.11 0.10 0.06 0.05 0.04 0.02
0.06 0.08 0.07 0.06 0.07 0.08 0.11 0.13 0.17 0.18 0.17 0.19 0.18 0.15 0.13 0.19 0.19 0.17 0.16 0.14 0.15 0.18 0.18 0.21 0.20 0.15 0.11 0.14 0.18 0.22 0.19 0.13 0.14 0.18 0.16 0.12 0.10 0.11 0.09 0.06 0.04 0.03 0.02
0.08 0.08 0.10 0.11 0.13 0.15 0.16 0.17 0.22 0.27 0.29 0.26 0.21 0.20 0.19 0.18 0.19 0.19 0.17 0.15 0.14 0.12 0.11 0.14 0.15 0.14 0.13 0.12 0.14 0.17 0.18 0.16 0.19 0.18 0.21 0.18 0.11 0.09 0.11 0.08 0.04 0.02 0.02
0.12 0.15 0.17 0.19 0.23 0.26 0.30 0.30 0.27 0.21 0.21 0.21 0.21 0.19 0.16 0.16 0.16 0.17 0.16 0.15 0.13 0.12 0.11 0.10 0.10 0.08 0.08 0.11 0.12 0.09 0.10 0.16 0.21 0.23 0.25 0.18 0.12 0.11 0.11 0.10 0.06 0.03 0.02
0.15 0.18 0.19 0.22 0.26 0.26 0.26 0.22 0.19 0.16 0.17 0.16 0.16 0.15 0.13 0.13 0.10 0.10 0.10 0.11 0.11 0.10 0.08 0.08 0.07 0.07 0.08 0.09 0.12 0.12 0.10 0.14 0.17 0.20 0.24 0.21 0.15 0.12 0.12 0.12 0.08 0.05 0.01

GFSGL_prec_precacc_066.txt.gz
Total_Precipitation_Accumulation
0.08 0.11 0.13 0.23 0.23 0.35 0.50 0.28 0.16 0.19 0.25 0.27 0.20 0.18 0.27 0.37 0.37 0.28 0.21 0.20 0.16 0.10 0.06 0.05 0.03 0.02 0.01 0.01 0.01 0.02 0.03 0.04 0.03 0.00 0.00 0.00 0.00 0.00 0.00 0.00 0.01 0.03 0.04
0.16 0.36 0.35 0.58 0.51 0.33 0.37 0.29 0.28 0.28 0.25 0.24 0.44 0.55 0.43 0.31 0.25 0.23 0.16 0.10 0.08 0.06 0.04 0.03 0.01 0.00 0.00 0.00 0.00 0.00 0.00 0.00 0.00 0.00 0.00 0.00 0.00 0.00 0.00 0.00 0.00 0.00 0.00
0.32 0.45 0.35 0.52 0.26 0.25 0.26 0.26 0.34 0.55 0.70 0.70 0.57 0.43 0.30 0.21 0.17 0.14 0.11 0.08 0.05 0.02 0.00 0.00 0.00 0.00 0.00 0.00 0.00 0.00 0.00 0.01 0.01 0.03 0.01 0.00 0.00 0.00 0.00 0.00 0.00 0.00 0.00
0.24 0.27 0.34 0.33 0.25 0.24 0.16 0.21 0.22 0.24 0.23 0.15 0.12 0.14 0.16 0.14 0.09 0.08 0.06 0.03 0.01 0.00 0.00 0.00 0.00 0.00 0.00 0.00 0.01 0.01 0.01 0.01 0.02 0.03 0.02 0.01 0.00 0.00 0.01 0.02 0.02 0.01 0.02
0.22 0.20 0.21 0.18 0.18 0.09 0.07 0.08 0.08 0.11 0.10 0.09 0.08 0.08 0.06 0.07 0.09 0.06 0.02 0.00 0.00 0.00 0.00 0.00 0.00 0.00 0.00 0.01 0.01 0.01 0.02 0.03 0.03 0.04 0.03 0.04 0.03 0.02 0.04 0.05 0.05 0.03 0.01
0.14 0.17 0.14 0.16 0.16 0.15 0.16 0.13 0.13 0.10 0.05 0.04 0.08 0.09 0.09 0.06 0.06 0.02 0.00 0.00 0.00 0.00 0.00 0.00 0.00 0.00 0.00 0.00 0.00 0.01 0.02 0.05 0.11 0.10 0.10 0.08 0.04 0.07 0.08 0.09 0.08 0.07 0.06
0.09 0.09 0.09 0.11 0.12 0.09 0.07 0.08 0.06 0.08 0.14 0.17 0.16 0.11 0.05 0.02 0.01 0.00 0.00 0.00 0.00 0.00 0.00 0.00 0.00 0.00 0.00 0.00 0.01 0.01 0.02 0.03 0.10 0.16 0.22 0.13 0.13 0.08 0.09 0.09 0.09 0.11 0.10
0.01 0.01 0.01 0.01 0.02 0.02 0.05 0.12 0.18 0.25 0.22 0.13 0.05 0.01 0.01 0.00 0.00 0.00 0.00 0.00 0.00 0.00 0.00 0.00 0.00 0.00 0.00 0.02 0.09 0.10 0.06 0.05 0.04 0.08 0.15 0.10 0.08 0.08 0.10 0.13 0.18 0.20 0.10
0.00 0.00 0.00 0.01 0.04 0.06 0.16 0.28 0.26 0.11 0.02 0.00 0.01 0.01 0.01 0.01 0.00 0.00 0.00 0.01 0.00 0.00 0.00 0.01 0.01 0.02 0.02 0.08 0.18 0.18 0.09 0.05 0.05 0.08 0.09 0.08 0.08 0.08 0.11 0.26 0.30 0.34 0.25
0.00 0.00 0.00 0.05 0.21 0.27 0.21 0.07 0.00 0.00 0.00 0.00 0.00 0.00 0.00 0.01 0.01 0.01 0.01 0.01 0.03 0.02 0.02 0.01 0.01 0.03 0.12 0.17 0.29 0.28 0.25 0.08 0.07 0.10 0.10 0.06 0.06 0.09 0.08 0.19 0.27 0.37 0.26
0.02 0.09 0.16 0.17 0.10 0.05 0.02 0.00 0.00 0.00 0.00 0.00 0.01 0.01 0.01 0.01 0.01 0.01 0.02 0.02 0.06 0.09 0.04 0.03 0.05 0.22 0.20 0.14 0.15 0.25 0.25 0.13 0.13 0.14 0.12 0.11 0.09 0.09 0.10 0.14 0.20 0.32 0.34
0.05 0.04 0.02 0.04 0.04 0.01 0.00 0.00 0.00 0.00 0.00 0.00 0.01 0.01 0.01 0.01 0.01 0.00 0.01 0.02 0.05 0.15 0.11 0.15 0.23 0.14 0.10 0.07 0.10 0.16 0.10 0.09 0.15 0.21 0.21 0.16 0.17 0.16 0.13 0.15 0.21 0.25 0.22
0.02 0.03 0.03 0.02 0.00 0.00 0.00 0.00 0.00 0.00 0.00 0.01 0.01 0.02 0.02 0.01 0.01 0.01 0.01 0.02 0.03 0.10 0.22 0.21 0.14 0.11 0.07 0.08 0.13 0.13 0.12 0.24 0.31 0.32 0.26 0.20 0.18 0.18 0.20 0.23 0.22 0.19 0.22
0.01 0.00 0.00 0.00 0.00 0.00 0.00 0.00 0.00 0.00 0.00 0.00 0.01 0.01 0.02 0.01 0.01 0.04 0.07 0.05 0.06 0.15 0.12 0.16 0.17 0.11 0.13 0.20 0.21 0.21 0.29 0.33 0.31 0.30 0.22 0.17 0.19 0.22 0.29 0.32 0.40 0.32 0.36
0.00 0.00 0.00 0.00 0.00 0.00 0.00 0.00 0.00 0.00 0.00 0.01 0.01 0.03 0.06 0.06 0.04 0.11 0.15 0.18 0.28 0.21 0.21 0.29 0.22 0.19 0.18 0.17 0.17 0.16 0.18 0.19 0.23 0.23 0.27 0.25 0.26 0.29 0.28 0.23 0.24 0.22 0.33
0.00 0.00 0.00 0.01 0.01 0.00 0.00 0.00 0.00 0.00 0.00 0.00 0.00 0.01 0.02 0.04 0.06 0.08 0.12 0.20 0.23 0.21 0.38 0.34 0.27 0.25 0.23 0.20 0.19 0.14 0.13 0.15 0.12 0.16 0.19 0.18 0.21 0.22 0.17 0.15 0.15 0.18 0.20
0.00 0.00 0.01 0.01 0.01 0.01 0.01 0.02 0.02 0.01 0.00 0.00 0.00 0.01 0.02 0.06 0.10 0.13 0.16 0.20 0.22 0.23 0.36 0.25 0.24 0.24 0.21 0.17 0.18 0.21 0.26 0.27 0.25 0.24 0.23 0.22 0.19 0.16 0.17 0.15 0.16 0.16 0.20
0.00 0.01 0.02 0.01 0.02 0.02 0.02 0.03 0.04 0.05 0.05 0.03 0.02 0.01 0.01 0.05 0.09 0.12 0.13 0.21 0.27 0.21 0.24 0.24 0.24 0.24 0.22 0.24 0.24 0.24 0.22 0.22 0.21 0.19 0.19 0.17 0.16 0.15 0.17 0.15 0.15 0.17 0.16
0.01 0.01 0.01 0.02 0.02 0.02 0.04 0.06 0.07 0.08 0.08 0.05 0.03 0.01 0.01 0.02 0.05 0.09 0.12 0.29 0.29 0.26 0.26 0.26 0.25 0.21 0.16 0.16 0.19 0.19 0.20 0.19 0.18 0.18 0.15 0.15 0.15 0.15 0.13 0.10 0.09 0.07 0.06
0.02 0.03 0.04 0.05 0.04 0.05 0.05 0.07 0.08 0.10 0.10 0.08 0.06 0.04 0.04 0.09 0.13 0.13 0.17 0.23 0.26 0.20 0.16 0.15 0.14 0.16 0.16 0.15 0.15 0.16 0.16 0.14 0.16 0.16 0.17 0.17 0.16 0.14 0.14 0.12 0.09 0.08 0.04
0.05 0.06 0.05 0.05 0.05 0.06 0.07 0.09 0.10 0.15 0.14 0.11 0.09 0.07 0.09 0.21 0.23 0.22 0.22 0.23 0.19 0.16 0.14 0.13 0.11 0.12 0.12 0.14 0.13 0.14 0.14 0.12 0.13 0.14 0.13 0.14 0.16 0.15 0.12 0.13 0.10 0.06 0.04
0.04 0.05 0.06 0.08 0.07 0.08 0.08 0.08 0.11 0.12 0.11 0.13 0.14 0.16 0.21 0.28 0.24 0.19 0.17 0.16 0.16 0.18 0.19 0.22 0.20 0.17 0.17 0.20 0.21 0.21 0.16 0.14 0.16 0.16 0.12 0.12 0.13 0.13 0.14 0.13 0.11 0.08 0.03
0.07 0.08 0.07 0.06 0.07 0.08 0.11 0.13 0.17 0.18 0.17 0.19 0.18 0.15 0.13 0.19 0.20 0.18 0.16 0.14 0.15 0.18 0.18 0.22 0.20 0.15 0.12 0.14 0.19 0.23 0.20 0.14 0.16 0.20 0.18 0.14 0.12 0.12 0.14 0.14 0.12 0.08 0.04
0.08 0.08 0.10 0.11 0.13 0.15 0.16 0.17 0.22 0.27 0.29 0.26 0.22 0.21 0.19 0.18 0.20 0.19 0.17 0.16 0.15 0.13 0.12 0.15 0.15 0.15 0.13 0.13 0.15 0.17 0.19 0.17 0.20 0.20 0.24 0.20 0.12 0.10 0.14 0.14 0.12 0.08 0.04
0.12 0.15 0.17 0.20 0.23 0.26 0.30 0.31 0.27 0.21 0.21 0.22 0.21 0.20 0.17 0.16 0.16 0.17 0.17 0.15 0.14 0.12 0.11 0.11 0.10 0.08 0.08 0.12 0.12 0.09 0.10 0.17 0.23 0.24 0.27 0.20 0.13 0.11 0.13 0.14 0.13 0.10 0.06
0.15 0.18 0.20 0.22 0.26 0.26 0.27 0.23 0.19 0.17 0.17 0.16 0.16 0.15 0.14 0.13 0.11 0.10 0.10 0.11 0.12 0.10 0.08 0.08 0.08 0.07 0.08 0.09 0.12 0.12 0.10 0.14 0.18 0.21 0.26 0.22 0.16 0.13 0.14 0.15 0.15 0.14 0.06

GFSGL_prec_precacc_069.txt.gz
Total_Precipitation_Accumulation
0.09 0.12 0.13 0.23 0.27 0.54 0.82 0.80 0.58 0.54 0.44 0.37 0.28 0.22 0.29 0.39 0.38 0.28 0.22 0.21 0.17 0.10 0.06 0.05 0.04 0.02 0.01 0.01 0.01 0.02 0.03 0.04 0.03 0.00 0.00 0.00 0.00 0.00 0.00 0.00 0.01 0.03 0.04
0.19 0.46 0.51 0.81 0.91 0.88 1.13 0.88 0.39 0.31 0.28 0.31 0.47 0.56 0.44 0.32 0.26 0.24 0.19 0.11 0.08 0.07 0.05 0.03 0.01 0.00 0.00 0.00 0.00 0.00 0.00 0.00 0.00 0.00 0.00 0.00 0.00 0.00 0.00 0.00 0.00 0.00 0.00
0.81 0.87 0.75 0.96 0.85 0.83 0.54 0.44 0.44 0.60 0.74 0.73 0.60 0.45 0.30 0.22 0.17 0.14 0.12 0.09 0.06 0.03 0.01 0.00 0.00 0.00 0.00 0.00 0.00 0.00 0.00 0.01 0.01 0.03 0.01 0.00 0.00 0.00 0.00 0.00 0.00 0.00 0.00
0.38 0.35 0.51 0.54 0.44 0.36 0.25 0.25 0.24 0.27 0.25 0.16 0.13 0.15 0.16 0.14 0.09 0.08 0.06 0.03 0.01 0.00 0.00 0.00 0.00 0.00 0.00 0.00 0.01 0.01 0.01 0.01 0.02 0.03 0.02 0.01 0.00 0.00 0.01 0.02 0.02 0.01 0.02
0.26 0.27 0.27 0.24 0.23 0.12 0.09 0.10 0.12 0.13 0.11 0.10 0.09 0.08 0.06 0.07 0.09 0.06 0.02 0.00 0.00 0.00 0.00 0.00 0.00 0.00 0.00 0.01 0.01 0.01 0.02 0.03 0.04 0.04 0.04 0.04 0.03 0.02 0.04 0.05 0.05 0.03 0.02
0.16 0.20 0.18 0.20 0.18 0.19 0.22 0.14 0.15 0.11 0.06 0.05 0.08 0.09 0.09 0.06 0.06 0.02 0.00 0.00 0.00 0.00 0.00 0.00 0.00 0.00 0.00 0.00 0.00 0.01 0.02 0.06 0.11 0.11 0.10 0.08 0.05 0.07 0.09 0.10 0.09 0.08 0.06
0.11 0.09 0.10 0.12 0.13 0.10 0.08 0.08 0.06 0.08 0.14 0.17 0.16 0.11 0.05 0.02 0.01 0.00 0.00 0.00 0.00 0.00 0.00 0.00 0.00 0.00 0.00 0.00 0.01 0.01 0.02 0.03 0.10 0.16 0.22 0.14 0.14 0.09 0.11 0.11 0.10 0.12 0.11
0.01 0.01 0.01 0.01 0.02 0.02 0.05 0.12 0.18 0.25 0.22 0.13 0.05 0.01 0.01 0.00 0.00 0.00 0.00 0.00 0.00 0.00 0.00 0.00 0.00 0.00 0.00 0.02 0.09 0.10 0.06 0.05 0.04 0.08 0.15 0.10 0.08 0.09 0.12 0.15 0.20 0.21 0.11
0.00 0.00 0.00 0.01 0.04 0.06 0.16 0.28 0.26 0.11 0.02 0.00 0.01 0.01 0.01 0.01 0.00 0.00 0.00 0.01 0.00 0.00 0.00 0.01 0.01 0.02 0.02 0.08 0.18 0.18 0.09 0.05 0.05 0.08 0.09 0.09 0.09 0.08 0.13 0.28 0.33 0.38 0.27
0.00 0.00 0.00 0.05 0.21 0.27 0.21 0.07 0.00 0.00 0.00 0.00 0.00 0.00 0.00 0.01 0.01 0.01 0.01 0.01 0.03 0.02 0.02 0.01 0.01 0.03 0.12 0.17 0.29 0.28 0.25 0.08 0.07 0.10 0.10 0.06 0.06 0.09 0.09 0.23 0.31 0.43 0.30
0.02 0.09 0.16 0.17 0.10 0.05 0.02 0.00 0.00 0.00 0.00 0.00 0.01 0.01 0.01 0.01 0.01 0.01 0.02 0.02 0.06 0.09 0.04 0.03 0.05 0.22 0.20 0.14 0.15 0.25 0.25 0.13 0.13 0.14 0.12 0.11 0.09 0.10 0.10 0.14 0.21 0.34 0.37
0.05 0.04 0.02 0.04 0.04 0.01 0.00 0.00 0.00 0.00 0.00 0.00 0.01 0.01 0.01 0.01 0.01 0.00 0.01 0.02 0.05 0.15 0.11 0.15 0.23 0.14 0.10 0.07 0.10 0.16 0.10 0.09 0.16 0.21 0.22 0.16 0.17 0.16 0.14 0.15 0.21 0.25 0.23
0.02 0.03 0.03 0.02 0.00 0.00 0.00 0.00 0.00 0.00 0.00 0.01 0.01 0.02 0.02 0.01 0.01 0.01 0.01 0.02 0.03 0.10 0.22 0.21 0.14 0.11 0.07 0.08 0.13 0.13 0.12 0.24 0.31 0.33 0.27 0.20 0.18 0.18 0.21 0.25 0.24 0.22 0.24
0.01 0.00 0.00 0.00 0.00 0.00 0.00 0.00 0.00 0.00 0.00 0.00 0.01 0.01 0.02 0.01 0.01 0.04 0.07 0.05 0.06 0.15 0.12 0.16 0.17 0.11 0.13 0.20 0.21 0.21 0.29 0.33 0.31 0.32 0.24 0.17 0.19 0.22 0.31 0.36 0.50 0.41 0.41
0.00 0.00 0.00 0.00 0.00 0.00 0.00 0.00 0.00 0.00 0.00 0.01 0.01 0.03 0.06 0.06 0.04 0.11 0.15 0.18 0.28 0.21 0.21 0.29 0.22 0.19 0.18 0.17 0.17 0.16 0.18 0.19 0.23 0.24 0.28 0.26 0.27 0.30 0.31 0.28 0.34 0.32 0.37
0.00 0.00 0.00 0.01 0.01 0.00 0.00 0.00 0.00 0.00 0.00 0.00 0.00 0.01 0.02 0.04 0.06 0.08 0.12 0.20 0.23 0.21 0.38 0.34 0.27 0.25 0.23 0.20 0.19 0.14 0.13 0.15 0.13 0.17 0.21 0.20 0.24 0.30 0.33 0.32 0.30 0.26 0.22
0.00 0.00 0.01 0.01 0.01 0.01 0.01 0.02 0.02 0.01 0.00 0.00 0.00 0.01 0.02 0.06 0.10 0.13 0.16 0.20 0.22 0.23 0.36 0.25 0.24 0.24 0.21 0.17 0.18 0.21 0.26 0.27 0.25 0.28 0.30 0.30 0.31 0.30 0.31 0.18 0.16 0.17 0.20
0.00 0.01 0.02 0.01 0.02 0.02 0.02 0.04 0.05 0.05 0.05 0.03 0.02 0.01 0.01 0.05 0.09 0.12 0.13 0.21 0.27 0.21 0.24 0.24 0.24 0.24 0.22 0.24 0.24 0.24 0.22 0.22 0.21 0.20 0.22 0.22 0.22 0.21 0.23 0.19 0.17 0.17 0.16
0.01 0.01 0.01 0.02 0.03 0.04 0.06 0.07 0.07 0.08 0.08 0.05 0.03 0.01 0.01 0.02 0.05 0.09 0.12 0.29 0.29 0.26 0.26 0.26 0.25 0.21 0.16 0.16 0.19 0.19 0.20 0.20 0.18 0.18 0.16 0.16 0.19 0.21 0.18 0.13 0.11 0.08 0.07
0.04 0.07 0.08 0.09 0.09 0.07 0.06 0.07 0.08 0.10 0.10 0.08 0.06 0.04 0.04 0.09 0.13 0.13 0.17 0.23 0.26 0.20 0.16 0.15 0.14 0.16 0.16 0.15 0.15 0.16 0.16 0.14 0.16 0.16 0.18 0.20 0.19 0.19 0.20 0.17 0.15 0.13 0.05
0.20 0.16 0.12 0.10 0.08 0.07 0.08 0.09 0.10 0.15 0.14 0.11 0.09 0.07 0.09 0.21 0.23 0.22 0.22 0.23 0.19 0.16 0.14 0.13 0.11 0.12 0.12 0.14 0.13 0.14 0.14 0.13 0.13 0.15 0.13 0.16 0.20 0.20 0.16 0.16 0.13 0.10 0.07
0.15 0.11 0.10 0.09 0.08 0.08 0.08 0.08 0.11 0.12 0.11 0.13 0.14 0.16 0.21 0.28 0.24 0.19 0.17 0.16 0.16 0.18 0.19 0.22 0.20 0.17 0.17 0.20 0.21 0.21 0.16 0.15 0.16 0.17 0.13 0.12 0.14 0.16 0.16 0.14 0.14 0.13 0.09
0.08 0.09 0.07 0.06 0.07 0.08 0.11 0.13 0.17 0.18 0.17 0.19 0.18 0.15 0.13 0.19 0.20 0.18 0.16 0.14 0.15 0.18 0.18 0.22 0.20 0.15 0.12 0.14 0.19 0.23 0.21 0.14 0.16 0.20 0.18 0.14 0.13 0.14 0.16 0.16 0.14 0.15 0.12
0.08 0.09 0.10 0.11 0.13 0.15 0.16 0.17 0.22 0.27 0.29 0.26 0.22 0.21 0.19 0.18 0.20 0.19 0.17 0.16 0.15 0.13 0.12 0.15 0.15 0.15 0.13 0.13 0.15 0.18 0.19 0.17 0.20 0.21 0.25 0.21 0.12 0.11 0.16 0.16 0.14 0.12 0.11
0.12 0.15 0.17 0.20 0.23 0.26 0.30 0.31 0.27 0.21 0.21 0.22 0.21 0.20 0.17 0.16 0.16 0.17 0.17 0.15 0.14 0.12 0.11 0.11 0.10 0.08 0.08 0.12 0.12 0.09 0.10 0.17 0.24 0.24 0.27 0.20 0.14 0.12 0.15 0.16 0.15 0.14 0.12
0.15 0.18 0.20 0.22 0.26 0.26 0.27 0.23 0.19 0.17 0.17 0.16 0.16 0.15 0.14 0.13 0.11 0.10 0.10 0.11 0.12 0.11 0.08 0.08 0.08 0.07 0.08 0.09 0.12 0.12 0.10 0.14 0.18 0.21 0.27 0.23 0.17 0.14 0.15 0.17 0.17 0.16 0.10

GFSGL_prec_precacc_072.txt.gz
Total_Precipitation_Accumulation
0.14 0.16 0.13 0.23 0.27 0.66 0.99 1.04 0.88 0.87 0.93 0.73 0.49 0.38 0.45 0.51 0.42 0.29 0.23 0.22 0.17 0.11 0.06 0.05 0.04 0.02 0.01 0.01 0.01 0.02 0.03 0.04 0.03 0.00 0.00 0.00 0.00 0.00 0.00 0.00 0.01 0.03 0.04
0.51 0.81 0.72 0.93 1.01 1.09 1.44 1.39 1.15 0.89 0.60 0.46 0.63 0.65 0.52 0.38 0.28 0.25 0.19 0.11 0.09 0.07 0.05 0.03 0.02 0.01 0.00 0.00 0.00 0.00 0.00 0.00 0.00 0.00 0.00 0.00 0.00 0.00 0.00 0.00 0.00 0.00 0.00
1.11 1.14 0.98 1.29 1.32 1.58 1.23 0.84 0.73 0.75 0.81 0.79 0.66 0.50 0.34 0.24 0.18 0.15 0.12 0.10 0.06 0.03 0.01 0.00 0.00 0.00 0.00 0.00 0.00 0.00 0.00 0.01 0.01 0.03 0.01 0.00 0.00 0.00 0.00 0.00 0.00 0.00 0.00
0.47 0.39 0.54 0.66 0.60 0.55 0.38 0.35 0.31 0.31 0.31 0.23 0.21 0.19 0.18 0.14 0.10 0.09 0.06 0.03 0.01 0.00 0.00 0.00 0.00 0.00 0.00 0.00 0.01 0.01 0.01 0.01 0.02 0.03 0.03 0.01 0.00 0.00 0.01 0.02 0.02 0.01 0.02
0.28 0.27 0.28 0.27 0.28 0.17 0.13 0.14 0.15 0.18 0.16 0.16 0.12 0.10 0.07 0.08 0.10 0.08 0.03 0.00 0.00 0.00 0.00 0.00 0.00 0.00 0.00 0.01 0.01 0.01 0.02 0.03 0.04 0.04 0.04 0.04 0.03 0.02 0.04 0.05 0.06 0.04 0.02
0.19 0.21 0.19 0.22 0.20 0.20 0.22 0.15 0.16 0.13 0.09 0.07 0.10 0.11 0.10 0.07 0.08 0.03 0.01 0.00 0.00 0.00 0.00 0.00 0.00 0.00 0.00 0.00 0.00 0.01 0.02 0.06 0.11 0.11 0.10 0.08 0.05 0.07 0.09 0.10 0.10 0.09 0.07
0.12 0.10 0.11 0.13 0.14 0.11 0.08 0.09 0.07 0.08 0.14 0.18 0.16 0.12 0.05 0.02 0.02 0.00 0.00 0.00 0.00 0.00 0.00 0.00 0.00 0.00 0.00 0.00 0.01 0.01 0.02 0.03 0.10 0.16 0.22 0.14 0.14 0.09 0.11 0.12 0.11 0.14 0.13
0.01 0.01 0.01 0.01 0.03 0.02 0.05 0.12 0.18 0.25 0.22 0.13 0.05 0.01 0.01 0.00 0.00 0.00 0.00 0.00 0.00 0.00 0.00 0.00 0.00 0.00 0.00 0.02 0.09 0.10 0.06 0.05 0.04 0.08 0.15 0.10 0.08 0.09 0.12 0.16 0.21 0.23 0.13
0.00 0.00 0.00 0.01 0.04 0.06 0.16 0.28 0.26 0.11 0.02 0.00 0.01 0.01 0.01 0.01 0.00 0.00 0.00 0.01 0.00 0.00 0.00 0.01 0.01 0.02 0.02 0.08 0.18 0.18 0.09 0.05 0.05 0.08 0.09 0.09 0.09 0.08 0.13 0.28 0.34 0.40 0.30
0.00 0.00 0.00 0.05 0.21 0.27 0.21 0.07 0.00 0.00 0.00 0.00 0.00 0.00 0.00 0.01 0.01 0.01 0.01 0.01 0.03 0.02 0.02 0.01 0.01 0.03 0.12 0.17 0.29 0.28 0.25 0.08 0.07 0.10 0.10 0.06 0.06 0.09 0.09 0.23 0.31 0.45 0.31
0.02 0.09 0.16 0.17 0.10 0.05 0.02 0.00 0.00 0.00 0.00 0.00 0.01 0.01 0.01 0.01 0.01 0.01 0.02 0.02 0.06 0.09 0.04 0.03 0.05 0.22 0.20 0.14 0.15 0.25 0.25 0.13 0.13 0.14 0.12 0.11 0.09 0.10 0.10 0.15 0.22 0.35 0.40
0.05 0.04 0.02 0.04 0.04 0.01 0.00 0.00 0.00 0.00 0.00 0.00 0.01 0.01 0.01 0.01 0.01 0.00 0.01 0.02 0.05 0.15 0.11 0.15 0.23 0.14 0.10 0.07 0.10 0.16 0.10 0.09 0.16 0.21 0.22 0.16 0.17 0.16 0.14 0.16 0.21 0.25 0.23
0.02 0.03 0.03 0.02 0.00 0.00 0.00 0.00 0.00 0.00 0.00 0.01 0.01 0.02 0.02 0.01 0.01 0.01 0.01 0.02 0.03 0.10 0.22 0.21 0.14 0.11 0.07 0.08 0.13 0.13 0.12 0.24 0.31 0.33 0.27 0.20 0.19 0.18 0.21 0.25 0.24 0.22 0.25
0.01 0.00 0.00 0.00 0.00 0.00 0.00 0.00 0.00 0.00 0.00 0.00 0.01 0.01 0.02 0.01 0.01 0.04 0.07 0.05 0.06 0.15 0.12 0.16 0.17 0.11 0.13 0.20 0.21 0.21 0.29 0.33 0.31 0.32 0.24 0.18 0.19 0.22 0.31 0.36 0.51 0.42 0.45
0.00 0.00 0.00 0.00 0.00 0.00 0.00 0.00 0.00 0.00 0.00 0.01 0.01 0.03 0.06 0.06 0.04 0.11 0.15 0.18 0.28 0.21 0.21 0.29 0.22 0.19 0.18 0.17 0.17 0.16 0.18 0.19 0.23 0.24 0.28 0.26 0.27 0.31 0.32 0.29 0.37 0.37 0.43
0.00 0.00 0.00 0.01 0.01 0.00 0.00 0.00 0.00 0.00 0.00 0.00 0.00 0.01 0.02 0.05 0.06 0.08 0.12 0.20 0.23 0.21 0.38 0.34 0.27 0.25 0.23 0.20 0.19 0.14 0.13 0.15 0.13 0.17 0.21 0.20 0.25 0.30 0.35 0.34 0.35 0.35 0.32
0.00 0.00 0.01 0.01 0.01 0.01 0.01 0.02 0.02 0.01 0.00 0.00 0.00 0.01 0.03 0.06 0.10 0.13 0.16 0.20 0.22 0.23 0.36 0.25 0.24 0.24 0.21 0.17 0.18 0.21 0.26 0.27 0.25 0.28 0.30 0.30 0.32 0.32 0.34 0.31 0.29 0.22 0.22
0.00 0.02 0.02 0.02 0.03 0.02 0.02 0.04 0.06 0.08 0.09 0.05 0.02 0.01 0.01 0.05 0.09 0.12 0.13 0.21 0.27 0.21 0.24 0.24 0.24 0.24 0.22 0.24 0.24 0.24 0.22 0.22 0.22 0.20 0.22 0.22 0.23 0.23 0.25 0.24 0.26 0.27 0.20
0.02 0.03 0.03 0.04 0.06 0.08 0.12 0.13 0.11 0.10 0.09 0.05 0.03 0.01 0.01 0.02 0.06 0.09 0.12 0.29 0.29 0.26 0.26 0.26 0.25 0.21 0.16 0.16 0.19 0.19 0.20 0.20 0.18 0.18 0.16 0.17 0.19 0.22 0.19 0.16 0.15 0.12 0.11
0.08 0.12 0.15 0.18 0.19 0.16 0.14 0.13 0.12 0.12 0.12 0.09 0.07 0.05 0.04 0.09 0.13 0.13 0.17 0.23 0.26 0.20 0.16 0.15 0.14 0.16 0.16 0.15 0.15 0.17 0.16 0.14 0.16 0.17 0.18 0.20 0.19 0.20 0.22 0.20 0.18 0.16 0.09
0.27 0.24 0.21 0.19 0.17 0.16 0.15 0.14 0.13 0.17 0.16 0.12 0.09 0.07 0.09 0.21 0.23 0.22 0.23 0.23 0.19 0.16 0.14 0.13 0.12 0.12 0.12 0.14 0.13 0.14 0.14 0.13 0.13 0.15 0.14 0.16 0.20 0.20 0.18 0.19 0.17 0.13 0.09
0.21 0.17 0.15 0.14 0.12 0.12 0.11 0.10 0.12 0.13 0.12 0.13 0.14 0.16 0.21 0.28 0.24 0.19 0.17 0.16 0.16 0.18 0.19 0.22 0.20 0.17 0.17 0.20 0.21 0.21 0.16 0.15 0.16 0.17 0.13 0.12 0.15 0.16 0.17 0.17 0.17 0.16 0.11
0.12 0.12 0.10 0.08 0.09 0.09 0.11 0.13 0.17 0.18 0.17 0.19 0.18 0.15 0.13 0.19 0.20 0.18 0.16 0.15 0.15 0.18 0.18 0.22 0.20 0.15 0.12 0.14 0.19 0.23 0.22 0.15 0.16 0.21 0.19 0.15 0.13 0.14 0.16 0.16 0.16 0.17 0.14
0.09 0.09 0.10 0.11 0.13 0.15 0.16 0.18 0.22 0.27 0.29 0.26 0.22 0.21 0.19 0.18 0.20 0.19 0.17 0.16 0.15 0.13 0.12 0.15 0.15 0.15 0.13 0.13 0.15 0.18 0.19 0.17 0.20 0.21 0.26 0.22 0.13 0.11 0.16 0.16 0.15 0.14 0.12
0.12 0.15 0.17 0.20 0.23 0.26 0.30 0.31 0.28 0.21 0.21 0.22 0.21 0.20 0.17 0.16 0.16 0.17 0.17 0.15 0.14 0.12 0.11 0.11 0.10 0.08 0.08 0.12 0.12 0.09 0.10 0.17 0.24 0.25 0.28 0.21 0.14 0.12 0.15 0.16 0.16 0.15 0.13
0.15 0.18 0.20 0.22 0.27 0.27 0.27 0.23 0.20 0.17 0.18 0.16 0.16 0.15 0.14 0.13 0.11 0.10 0.10 0.11 0.12 0.11 0.08 0.08 0.08 0.07 0.08 0.09 0.12 0.12 0.10 0.14 0.18 0.21 0.28 0.24 0.17 0.14 0.16 0.17 0.18 0.18 0.11

GFSGL_prec_precacc_075.txt.gz
Total_Precipitation_Accumulation
0.25 0.18 0.13 0.23 0.27 0.67 1.03 1.08 0.94 0.97 1.08 0.95 0.76 0.62 0.62 0.61 0.54 0.40 0.31 0.25 0.19 0.13 0.08 0.06 0.04 0.02 0.01 0.01 0.01 0.02 0.03 0.04 0.03 0.00 0.00 0.00 0.00 0.00 0.00 0.00 0.01 0.03 0.04
0.75 0.93 0.77 0.95 1.02 1.14 1.51 1.49 1.26 1.13 0.93 0.81 0.89 0.81 0.59 0.43 0.33 0.28 0.22 0.14 0.11 0.09 0.06 0.04 0.02 0.02 0.01 0.01 0.00 0.00 0.00 0.00 0.00 0.00 0.00 0.00 0.00 0.00 0.00 0.00 0.00 0.00 0.00
1.22 1.20 1.01 1.30 1.35 1.65 1.51 1.33 1.19 1.08 1.00 0.85 0.67 0.51 0.36 0.26 0.22 0.19 0.17 0.14 0.09 0.05 0.02 0.01 0.00 0.00 0.00 0.00 0.00 0.00 0.00 0.01 0.01 0.03 0.01 0.00 0.00 0.00 0.00 0.00 0.00 0.00 0.00
0.50 0.45 0.62 0.69 0.61 0.61 0.46 0.47 0.41 0.39 0.34 0.25 0.24 0.24 0.22 0.19 0.15 0.15 0.11 0.06 0.03 0.02 0.01 0.00 0.00 0.01 0.01 0.01 0.01 0.01 0.01 0.01 0.02 0.03 0.03 0.01 0.00 0.00 0.01 0.02 0.02 0.01 0.02
0.29 0.31 0.32 0.31 0.30 0.18 0.16 0.16 0.21 0.24 0.21 0.18 0.16 0.14 0.12 0.14 0.16 0.12 0.06 0.03 0.02 0.02 0.01 0.00 0.00 0.01 0.01 0.01 0.01 0.01 0.02 0.03 0.04 0.04 0.04 0.04 0.03 0.02 0.04 0.05 0.06 0.04 0.02
0.23 0.25 0.24 0.26 0.22 0.20 0.23 0.16 0.17 0.16 0.12 0.11 0.14 0.16 0.15 0.10 0.15 0.08 0.03 0.01 0.01 0.01 0.00 0.00 0.00 0.01 0.00 0.00 0.00 0.01 0.02 0.06 0.11 0.11 0.10 0.08 0.05 0.07 0.09 0.10 0.10 0.10 0.08
0.15 0.14 0.14 0.15 0.15 0.11 0.09 0.10 0.08 0.11 0.16 0.20 0.19 0.15 0.08 0.05 0.08 0.02 0.02 0.00 0.00 0.00 0.00 0.00 0.00 0.00 0.00 0.00 0.01 0.01 0.02 0.03 0.10 0.16 0.22 0.14 0.14 0.09 0.11 0.12 0.11 0.14 0.13
0.02 0.03 0.04 0.03 0.03 0.03 0.06 0.13 0.19 0.26 0.23 0.15 0.07 0.03 0.02 0.02 0.02 0.01 0.01 0.00 0.00 0.00 0.00 0.00 0.00 0.00 0.00 0.02 0.09 0.10 0.06 0.05 0.04 0.08 0.15 0.10 0.08 0.09 0.12 0.16 0.21 0.23 0.13
0.00 0.01 0.01 0.01 0.04 0.07 0.17 0.30 0.28 0.13 0.04 0.02 0.02 0.01 0.01 0.02 0.01 0.01 0.01 0.01 0.00 0.00 0.00 0.01 0.01 0.02 0.02 0.08 0.18 0.18 0.09 0.05 0.05 0.08 0.09 0.09 0.09 0.08 0.13 0.28 0.34 0.41 0.31
0.00 0.00 0.00 0.06 0.22 0.29 0.22 0.08 0.02 0.01 0.01 0.01 0.01 0.00 0.01 0.01 0.02 0.02 0.01 0.01 0.03 0.02 0.02 0.01 0.01 0.03 0.12 0.17 0.29 0.28 0.25 0.08 0.07 0.10 0.10 0.06 0.06 0.09 0.09 0.23 0.32 0.46 0.32
0.02 0.09 0.16 0.18 0.10 0.05 0.02 0.01 0.00 0.00 0.00 0.00 0.01 0.01 0.01 0.01 0.02 0.01 0.02 0.02 0.06 0.09 0.04 0.03 0.05 0.22 0.20 0.14 0.15 0.25 0.25 0.13 0.13 0.14 0.12 0.11 0.09 0.10 0.10 0.15 0.22 0.37 0.42
0.05 0.04 0.03 0.04 0.04 0.01 0.00 0.00 0.00 0.00 0.00 0.00 0.01 0.01 0.01 0.01 0.01 0.00 0.01 0.02 0.05 0.15 0.11 0.15 0.23 0.14 0.10 0.07 0.10 0.16 0.10 0.09 0.16 0.21 0.22 0.16 0.17 0.16 0.14 0.16 0.21 0.25 0.24
0.02 0.04 0.03 0.02 0.00 0.00 0.00 0.00 0.00 0.00 0.00 0.01 0.01 0.02 0.02 0.01 0.01 0.01 0.01 0.02 0.03 0.10 0.22 0.21 0.14 0.11 0.07 0.08 0.13 0.13 0.12 0.24 0.31 0.33 0.27 0.20 0.19 0.18 0.21 0.25 0.24 0.22 0.25
0.01 0.00 0.00 0.00 0.00 0.00 0.00 0.00 0.00 0.00 0.00 0.00 0.01 0.01 0.02 0.01 0.01 0.04 0.07 0.05 0.06 0.15 0.12 0.16 0.17 0.11 0.13 0.20 0.21 0.21 0.29 0.33 0.31 0.32 0.24 0.18 0.19 0.22 0.31 0.36 0.51 0.43 0.47
0.00 0.00 0.00 0.00 0.00 0.00 0.00 0.00 0.00 0.00 0.00 0.01 0.01 0.03 0.06 0.06 0.04 0.11 0.15 0.18 0.28 0.21 0.21 0.29 0.22 0.19 0.18 0.17 0.17 0.16 0.18 0.19 0.23 0.24 0.28 0.26 0.27 0.31 0.32 0.29 0.37 0.37 0.45
0.00 0.00 0.00 0.01 0.01 0.00 0.00 0.00 0.00 0.00 0.00 0.00 0.00 0.01 0.02 0.05 0.07 0.09 0.12 0.20 0.23 0.21 0.38 0.34 0.27 0.25 0.23 0.20 0.19 0.14 0.13 0.15 0.13 0.17 0.21 0.20 0.25 0.30 0.35 0.34 0.35 0.36 0.34
0.01 0.00 0.01 0.02 0.01 0.01 0.01 0.02 0.03 0.02 0.00 0.01 0.01 0.02 0.03 0.07 0.10 0.13 0.16 0.20 0.22 0.23 0.36 0.25 0.24 0.24 0.21 0.17 0.18 0.21 0.26 0.27 0.25 0.28 0.30 0.30 0.32 0.32 0.34 0.31 0.30 0.28 0.28
0.01 0.02 0.03 0.03 0.05 0.04 0.03 0.04 0.07 0.09 0.10 0.07 0.04 0.01 0.01 0.05 0.10 0.13 0.15 0.22 0.28 0.21 0.24 0.24 0.24 0.24 0.22 0.24 0.24 0.24 0.22 0.22 0.22 0.20 0.22 0.22 0.23 0.23 0.25 0.24 0.27 0.29 0.26
0.04 0.06 0.06 0.07 0.07 0.09 0.13 0.15 0.14 0.13 0.11 0.08 0.06 0.05 0.04 0.05 0.08 0.11 0.13 0.30 0.30 0.26 0.26 0.26 0.25 0.21 0.16 0.16 0.19 0.19 0.20 0.20 0.18 0.18 0.16 0.17 0.19 0.22 0.19 0.16 0.15 0.13 0.14
0.14 0.16 0.18 0.21 0.21 0.19 0.16 0.15 0.14 0.15 0.15 0.13 0.10 0.09 0.08 0.11 0.13 0.13 0.17 0.24 0.26 0.20 0.16 0.15 0.14 0.16 0.16 0.15 0.15 0.17 0.16 0.14 0.16 0.17 0.18 0.20 0.19 0.20 0.22 0.20 0.18 0.17 0.11
0.29 0.26 0.24 0.21 0.19 0.18 0.17 0.16 0.15 0.19 0.19 0.15 0.11 0.09 0.11 0.23 0.25 0.23 0.23 0.23 0.20 0.16 0.14 0.13 0.12 0.12 0.12 0.14 0.13 0.14 0.14 0.13 0.13 0.15 0.14 0.16 0.20 0.21 0.18 0.19 0.17 0.15 0.12
0.22 0.19 0.17 0.16 0.14 0.13 0.12 0.11 0.14 0.15 0.14 0.15 0.16 0.17 0.22 0.29 0.24 0.19 0.17 0.16 0.17 0.19 0.19 0.22 0.20 0.17 0.17 0.20 0.21 0.21 0.16 0.15 0.16 0.17 0.13 0.12 0.15 0.16 0.18 0.17 0.17 0.16 0.14
0.13 0.13 0.10 0.09 0.09 0.09 0.12 0.14 0.18 0.19 0.18 0.19 0.18 0.16 0.13 0.19 0.20 0.18 0.16 0.15 0.16 0.18 0.18 0.22 0.20 0.15 0.12 0.14 0.19 0.23 0.22 0.15 0.16 0.21 0.19 0.15 0.13 0.14 0.16 0.17 0.16 0.18 0.16
0.09 0.09 0.10 0.11 0.13 0.15 0.16 0.18 0.22 0.27 0.30 0.26 0.22 0.21 0.20 0.18 0.20 0.20 0.17 0.16 0.15 0.13 0.12 0.15 0.15 0.15 0.13 0.13 0.15 0.18 0.19 0.17 0.20 0.22 0.27 0.23 0.13 0.12 0.16 0.16 0.15 0.14 0.14
0.12 0.15 0.17 0.20 0.23 0.27 0.30 0.31 0.28 0.21 0.21 0.22 0.22 0.20 0.17 0.16 0.16 0.17 0.17 0.15 0.14 0.12 0.11 0.11 0.10 0.08 0.08 0.12 0.12 0.09 0.10 0.17 0.24 0.25 0.29 0.21 0.15 0.13 0.15 0.17 0.16 0.15 0.14
0.15 0.18 0.20 0.22 0.27 0.27 0.27 0.23 0.20 0.17 0.18 0.16 0.16 0.15 0.14 0.13 0.11 0.10 0.10 0.11 0.12 0.11 0.08 0.08 0.08 0.07 0.08 0.09 0.12 0.12 0.10 0.14 0.18 0.22 0.29 0.25 0.18 0.14 0.16 0.18 0.18 0.18 0.12

GFSGL_prec_precacc_078.txt.gz
Total_Precipitation_Accumulation
0.27 0.18 0.13 0.23 0.27 0.67 1.03 1.08 0.94 0.97 1.08 0.97 0.80 0.71 0.72 0.74 0.69 0.53 0.37 0.31 0.28 0.21 0.15 0.14 0.13 0.08 0.03 0.01 0.01 0.02 0.03 0.04 0.03 0.00 0.00 0.00 0.00 0.00 0.00 0.00 0.01 0.03 0.04
0.90 0.99 0.78 0.97 1.03 1.14 1.51 1.49 1.26 1.13 0.93 0.83 0.94 0.85 0.65 0.48 0.36 0.30 0.23 0.16 0.14 0.13 0.12 0.11 0.08 0.05 0.02 0.01 0.01 0.00 0.00 0.00 0.00 0.00 0.00 0.00 0.00 0.00 0.00 0.00 0.00 0.00 0.00
1.30 1.32 1.08 1.34 1.36 1.65 1.51 1.33 1.20 1.09 1.02 0.88 0.70 0.53 0.36 0.26 0.22 0.20 0.17 0.17 0.14 0.13 0.12 0.11 0.09 0.05 0.03 0.02 0.01 0.01 0.01 0.01 0.01 0.03 0.01 0.00 0.00 0.00 0.00 0.00 0.00 0.00 0.00
0.52 0.49 0.72 0.80 0.65 0.64 0.47 0.47 0.42 0.44 0.40 0.29 0.25 0.24 0.23 0.19 0.16 0.16 0.16 0.14 0.13 0.13 0.13 0.09 0.04 0.02 0.01 0.01 0.01 0.01 0.01 0.01 0.02 0.03 0.03 0.01 0.00 0.00 0.01 0.02 0.02 0.01 0.02
0.29 0.31 0.35 0.37 0.36 0.25 0.20 0.19 0.24 0.29 0.29 0.29 0.22 0.17 0.14 0.16 0.18 0.16 0.13 0.11 0.10 0.09 0.08 0.05 0.03 0.04 0.02 0.01 0.01 0.01 0.02 0.03 0.04 0.04 0.04 0.04 0.03 0.02 0.04 0.05 0.06 0.04 0.02
0.23 0.25 0.24 0.28 0.25 0.24 0.26 0.18 0.19 0.20 0.17 0.17 0.20 0.22 0.18 0.14 0.22 0.14 0.08 0.05 0.08 0.07 0.06 0.04 0.04 0.05 0.02 0.01 0.01 0.01 0.02 0.06 0.11 0.11 0.10 0.08 0.05 0.07 0.09 0.10 0.10 0.10 0.08
0.15 0.15 0.15 0.16 0.16 0.12 0.09 0.10 0.08 0.12 0.20 0.26 0.25 0.19 0.12 0.10 0.16 0.08 0.07 0.02 0.02 0.03 0.03 0.02 0.01 0.01 0.01 0.00 0.01 0.01 0.02 0.03 0.10 0.16 0.22 0.14 0.14 0.09 0.11 0.12 0.11 0.14 0.14
0.03 0.04 0.04 0.04 0.04 0.04 0.06 0.13 0.20 0.26 0.25 0.16 0.09 0.05 0.05 0.07 0.08 0.04 0.04 0.01 0.01 0.01 0.01 0.00 0.00 0.01 0.01 0.02 0.09 0.10 0.06 0.05 0.04 0.08 0.15 0.10 0.08 0.09 0.12 0.16 0.21 0.23 0.14
0.00 0.01 0.02 0.03 0.05 0.07 0.18 0.30 0.29 0.15 0.07 0.04 0.04 0.03 0.04 0.05 0.04 0.02 0.02 0.01 0.01 0.01 0.01 0.01 0.01 0.02 0.02 0.08 0.18 0.18 0.09 0.05 0.05 0.08 0.09 0.09 0.09 0.08 0.13 0.28 0.34 0.41 0.31
0.00 0.01 0.01 0.06 0.23 0.29 0.23 0.10 0.05 0.05 0.04 0.04 0.04 0.04 0.04 0.02 0.05 0.03 0.02 0.01 0.03 0.02 0.02 0.01 0.01 0.03 0.12 0.17 0.29 0.28 0.25 0.08 0.07 0.10 0.10 0.06 0.06 0.09 0.09 0.23 0.32 0.47 0.33
0.02 0.09 0.17 0.19 0.11 0.07 0.05 0.04 0.04 0.03 0.02 0.02 0.03 0.02 0.02 0.02 0.03 0.02 0.02 0.02 0.06 0.09 0.04 0.03 0.05 0.22 0.20 0.14 0.15 0.25 0.25 0.13 0.13 0.14 0.12 0.11 0.09 0.10 0.10 0.15 0.22 0.37 0.43
0.06 0.05 0.03 0.05 0.05 0.03 0.02 0.03 0.02 0.02 0.02 0.01 0.02 0.02 0.02 0.02 0.02 0.01 0.01 0.02 0.05 0.15 0.11 0.15 0.23 0.14 0.10 0.07 0.10 0.16 0.10 0.09 0.16 0.21 0.22 0.16 0.17 0.16 0.14 0.16 0.21 0.25 0.25
0.03 0.04 0.04 0.03 0.01 0.01 0.01 0.02 0.01 0.01 0.01 0.01 0.01 0.02 0.02 0.02 0.02 0.01 0.01 0.02 0.03 0.10 0.22 0.22 0.14 0.11 0.07 0.08 0.13 0.13 0.12 0.24 0.31 0.33 0.27 0.20 0.19 0.18 0.21 0.25 0.24 0.22 0.25
0.01 0.01 0.00 0.01 0.01 0.00 0.00 0.00 0.00 0.00 0.01 0.01 0.01 0.01 0.02 0.01 0.01 0.04 0.07 0.05 0.07 0.16 0.13 0.16 0.17 0.11 0.13 0.20 0.21 0.21 0.29 0.33 0.31 0.32 0.24 0.18 0.19 0.22 0.31 0.36 0.51 0.43 0.47
0.00 0.00 0.00 0.00 0.00 0.00 0.00 0.00 0.00 0.00 0.00 0.01 0.01 0.04 0.08 0.08 0.05 0.11 0.15 0.18 0.29 0.21 0.21 0.29 0.22 0.19 0.18 0.17 0.17 0.16 0.18 0.19 0.23 0.24 0.28 0.26 0.27 0.31 0.32 0.29 0.37 0.37 0.46
0.00 0.00 0.00 0.01 0.01 0.00 0.00 0.00 0.01 0.02 0.03 0.03 0.04 0.05 0.05 0.06 0.07 0.09 0.12 0.20 0.23 0.21 0.38 0.34 0.27 0.25 0.23 0.20 0.19 0.14 0.13 0.15 0.13 0.17 0.21 0.20 0.25 0.31 0.35 0.34 0.35 0.36 0.34
0.01 0.02 0.04 0.05 0.05 0.04 0.04 0.06 0.08 0.06 0.02 0.02 0.02 0.02 0.03 0.07 0.10 0.13 0.16 0.20 0.22 0.23 0.36 0.25 0.24 0.24 0.21 0.17 0.18 0.21 0.26 0.27 0.25 0.28 0.30 0.30 0.32 0.32 0.35 0.31 0.30 0.28 0.28
0.01 0.04 0.04 0.04 0.06 0.05 0.05 0.06 0.08 0.10 0.12 0.10 0.06 0.03 0.04 0.09 0.14 0.17 0.18 0.26 0.31 0.24 0.26 0.25 0.26 0.25 0.23 0.25 0.25 0.25 0.22 0.22 0.22 0.20 0.22 0.22 0.23 0.23 0.25 0.24 0.27 0.29 0.27
0.07 0.09 0.11 0.11 0.11 0.12 0.15 0.17 0.16 0.15 0.15 0.12 0.11 0.10 0.09 0.09 0.11 0.13 0.16 0.33 0.33 0.30 0.29 0.29 0.27 0.22 0.17 0.16 0.19 0.19 0.20 0.20 0.18 0.18 0.16 0.17 0.19 0.22 0.19 0.16 0.15 0.13 0.14
0.19 0.22 0.21 0.23 0.23 0.20 0.17 0.16 0.16 0.16 0.17 0.15 0.13 0.12 0.10 0.13 0.15 0.14 0.18 0.25 0.28 0.22 0.17 0.15 0.15 0.16 0.16 0.15 0.15 0.17 0.17 0.14 0.16 0.17 0.18 0.20 0.20 0.20 0.22 0.20 0.18 0.17 0.11
0.32 0.29 0.25 0.22 0.20 0.19 0.17 0.16 0.16 0.20 0.19 0.16 0.12 0.11 0.12 0.24 0.26 0.24 0.24 0.24 0.20 0.16 0.14 0.14 0.12 0.12 0.12 0.14 0.14 0.14 0.14 0.13 0.13 0.15 0.14 0.16 0.20 0.21 0.18 0.19 0.17 0.15 0.12
0.24 0.20 0.17 0.16 0.14 0.14 0.12 0.12 0.14 0.15 0.14 0.16 0.17 0.18 0.22 0.29 0.24 0.19 0.17 0.17 0.17 0.19 0.20 0.22 0.21 0.17 0.17 0.20 0.21 0.21 0.16 0.15 0.17 0.17 0.13 0.12 0.15 0.16 0.18 0.17 0.17 0.17 0.14
0.13 0.13 0.11 0.09 0.10 0.09 0.12 0.14 0.18 0.19 0.18 0.19 0.18 0.16 0.13 0.19 0.20 0.18 0.16 0.15 0.16 0.18 0.18 0.22 0.20 0.15 0.12 0.14 0.19 0.23 0.22 0.15 0.16 0.21 0.20 0.15 0.13 0.15 0.16 0.17 0.17 0.18 0.16
0.09 0.09 0.10 0.11 0.13 0.16 0.16 0.18 0.22 0.27 0.30 0.26 0.22 0.21 0.20 0.19 0.20 0.20 0.17 0.16 0.15 0.13 0.12 0.15 0.15 0.15 0.13 0.13 0.15 0.18 0.19 0.17 0.21 0.22 0.28 0.23 0.14 0.12 0.16 0.16 0.15 0.15 0.14
0.12 0.15 0.17 0.20 0.23 0.27 0.30 0.31 0.28 0.22 0.21 0.22 0.22 0.20 0.17 0.16 0.16 0.17 0.17 0.15 0.14 0.12 0.11 0.11 0.10 0.08 0.08 0.12 0.12 0.09 0.10 0.18 0.24 0.26 0.30 0.22 0.15 0.13 0.16 0.17 0.16 0.16 0.14
0.15 0.18 0.20 0.22 0.27 0.27 0.27 0.23 0.20 0.17 0.18 0.16 0.16 0.16 0.14 0.13 0.11 0.10 0.10 0.11 0.12 0.11 0.08 0.08 0.08 0.07 0.08 0.09 0.12 0.12 0.10 0.14 0.18 0.23 0.30 0.26 0.18 0.14 0.16 0.18 0.18 0.19 0.13

GFSGL_prec_precacc_081.txt.gz
Total_Precipitation_Accumulation
0.27 0.18 0.13 0.23 0.27 0.67 1.03 1.08 0.94 0.97 1.08 0.97 0.80 0.71 0.72 0.76 0.72 0.57 0.43 0.38 0.34 0.27 0.20 0.19 0.22 0.27 0.29 0.28 0.22 0.12 0.08 0.04 0.03 0.00 0.00 0.00 0.00 0.00 0.00 0.00 0.01 0.03 0.04
0.93 1.02 0.78 0.97 1.03 1.14 1.51 1.49 1.26 1.13 0.93 0.83 0.94 0.86 0.67 0.52 0.40 0.34 0.29 0.21 0.21 0.24 0.23 0.20 0.18 0.17 0.20 0.21 0.14 0.05 0.02 0.01 0.01 0.01 0.00 0.00 0.00 0.00 0.00 0.00 0.00 0.00 0.00
1.32 1.40 1.13 1.34 1.36 1.65 1.51 1.33 1.20 1.09 1.02 0.89 0.70 0.54 0.38 0.29 0.24 0.22 0.19 0.17 0.14 0.13 0.13 0.15 0.16 0.15 0.12 0.09 0.06 0.04 0.02 0.02 0.01 0.03 0.01 0.00 0.00 0.00 0.00 0.00 0.00 0.00 0.00
0.52 0.50 0.74 0.82 0.66 0.64 0.47 0.48 0.42 0.45 0.40 0.31 0.28 0.28 0.27 0.22 0.18 0.18 0.16 0.15 0.14 0.13 0.14 0.13 0.10 0.08 0.07 0.06 0.05 0.04 0.03 0.02 0.02 0.03 0.03 0.01 0.00 0.00 0.01 0.02 0.02 0.01 0.02
0.29 0.31 0.35 0.37 0.37 0.27 0.22 0.22 0.27 0.30 0.30 0.30 0.27 0.22 0.19 0.19 0.20 0.18 0.14 0.11 0.10 0.11 0.11 0.09 0.07 0.10 0.09 0.06 0.04 0.02 0.02 0.03 0.04 0.04 0.04 0.04 0.03 0.02 0.04 0.05 0.06 0.04 0.02
0.23 0.25 0.24 0.28 0.25 0.26 0.28 0.21 0.21 0.21 0.18 0.17 0.21 0.23 0.20 0.17 0.29 0.18 0.10 0.06 0.08 0.09 0.08 0.07 0.07 0.10 0.05 0.05 0.03 0.02 0.03 0.06 0.11 0.11 0.10 0.08 0.05 0.07 0.09 0.10 0.10 0.10 0.08
0.15 0.15 0.15 0.16 0.16 0.13 0.10 0.11 0.09 0.14 0.22 0.28 0.26 0.21 0.14 0.13 0.23 0.12 0.09 0.03 0.03 0.04 0.04 0.03 0.02 0.03 0.04 0.01 0.02 0.02 0.02 0.03 0.10 0.16 0.22 0.14 0.14 0.09 0.11 0.12 0.11 0.14 0.14
0.03 0.04 0.04 0.04 0.04 0.04 0.06 0.14 0.21 0.28 0.26 0.18 0.11 0.07 0.07 0.11 0.13 0.06 0.06 0.01 0.02 0.03 0.04 0.04 0.04 0.03 0.02 0.04 0.10 0.10 0.06 0.05 0.04 0.08 0.15 0.10 0.08 0.09 0.12 0.16 0.21 0.23 0.14
0.00 0.01 0.02 0.03 0.06 0.08 0.18 0.31 0.30 0.16 0.08 0.05 0.05 0.05 0.06 0.08 0.09 0.06 0.04 0.01 0.02 0.02 0.01 0.01 0.02 0.02 0.03 0.09 0.18 0.18 0.09 0.05 0.05 0.08 0.09 0.09 0.09 0.08 0.13 0.28 0.34 0.41 0.31
0.00 0.01 0.01 0.07 0.24 0.31 0.25 0.10 0.05 0.05 0.05 0.05 0.07 0.07 0.08 0.05 0.10 0.06 0.03 0.02 0.04 0.03 0.02 0.02 0.02 0.04 0.13 0.17 0.29 0.28 0.25 0.08 0.07 0.10 0.10 0.06 0.06 0.09 0.09 0.23 0.32 0.47 0.33
0.02 0.09 0.17 0.19 0.12 0.07 0.05 0.05 0.05 0.05 0.05 0.05 0.06 0.05 0.05 0.05 0.07 0.05 0.03 0.02 0.06 0.09 0.05 0.03 0.05 0.22 0.20 0.14 0.15 0.25 0.25 0.13 0.13 0.14 0.12 0.11 0.09 0.10 0.10 0.15 0.22 0.37 0.43
0.06 0.05 0.03 0.06 0.05 0.03 0.03 0.04 0.04 0.04 0.04 0.04 0.05 0.04 0.04 0.04 0.05 0.03 0.02 0.02 0.05 0.15 0.11 0.15 0.23 0.14 0.10 0.07 0.10 0.16 0.10 0.09 0.16 0.21 0.22 0.16 0.17 0.16 0.14 0.16 0.21 0.25 0.25
0.03 0.04 0.04 0.03 0.02 0.02 0.03 0.03 0.03 0.03 0.03 0.03 0.03 0.04 0.03 0.03 0.03 0.03 0.01 0.03 0.03 0.10 0.22 0.22 0.14 0.11 0.07 0.08 0.13 0.13 0.12 0.24 0.31 0.33 0.27 0.20 0.19 0.18 0.21 0.25 0.24 0.22 0.25
0.01 0.01 0.00 0.01 0.01 0.01 0.01 0.01 0.01 0.02 0.02 0.02 0.02 0.02 0.03 0.02 0.02 0.05 0.09 0.07 0.07 0.16 0.13 0.16 0.17 0.11 0.13 0.20 0.21 0.21 0.29 0.33 0.31 0.32 0.24 0.18 0.19 0.22 0.31 0.36 0.51 0.43 0.47
0.00 0.00 0.00 0.00 0.01 0.01 0.00 0.00 0.00 0.00 0.01 0.01 0.03 0.07 0.12 0.13 0.10 0.15 0.17 0.19 0.29 0.21 0.21 0.29 0.22 0.19 0.18 0.17 0.17 0.16 0.18 0.19 0.23 0.24 0.28 0.26 0.27 0.31 0.32 0.29 0.37 0.37 0.46
0.00 0.00 0.00 0.01 0.01 0.00 0.01 0.02 0.06 0.08 0.10 0.09 0.10 0.10 0.09 0.09 0.09 0.09 0.12 0.20 0.23 0.21 0.38 0.34 0.27 0.25 0.23 0.20 0.19 0.14 0.13 0.15 0.13 0.17 0.21 0.20 0.25 0.31 0.35 0.34 0.35 0.36 0.34
0.01 0.02 0.05 0.06 0.05 0.05 0.06 0.09 0.11 0.09 0.03 0.02 0.02 0.02 0.04 0.07 0.10 0.13 0.16 0.20 0.23 0.23 0.36 0.25 0.24 0.24 0.21 0.17 0.19 0.22 0.26 0.27 0.25 0.28 0.30 0.30 0.32 0.32 0.35 0.31 0.30 0.28 0.28
0.05 0.08 0.06 0.05 0.07 0.07 0.07 0.07 0.08 0.11 0.12 0.10 0.07 0.03 0.04 0.10 0.15 0.18 0.18 0.26 0.31 0.24 0.26 0.26 0.26 0.25 0.24 0.26 0.26 0.26 0.23 0.22 0.22 0.20 0.22 0.22 0.23 0.23 0.25 0.24 0.27 0.29 0.27
0.12 0.15 0.16 0.15 0.15 0.14 0.16 0.17 0.16 0.15 0.15 0.13 0.11 0.11 0.09 0.09 0.11 0.14 0.16 0.33 0.33 0.31 0.30 0.30 0.28 0.24 0.18 0.16 0.19 0.20 0.20 0.20 0.18 0.18 0.16 0.17 0.19 0.22 0.20 0.16 0.15 0.13 0.14
0.24 0.27 0.25 0.25 0.25 0.21 0.18 0.16 0.16 0.16 0.17 0.15 0.14 0.13 0.11 0.13 0.15 0.15 0.19 0.25 0.28 0.22 0.17 0.16 0.15 0.17 0.17 0.15 0.15 0.17 0.17 0.14 0.16 0.17 0.18 0.20 0.20 0.20 0.22 0.20 0.18 0.17 0.11
0.36 0.33 0.27 0.23 0.21 0.19 0.18 0.16 0.16 0.20 0.19 0.16 0.13 0.11 0.13 0.24 0.26 0.25 0.24 0.24 0.20 0.16 0.14 0.14 0.12 0.12 0.12 0.14 0.14 0.15 0.14 0.13 0.13 0.15 0.14 0.16 0.20 0.21 0.18 0.20 0.17 0.15 0.12
0.26 0.21 0.18 0.17 0.15 0.14 0.12 0.12 0.14 0.15 0.14 0.16 0.17 0.18 0.22 0.29 0.24 0.19 0.17 0.17 0.17 0.19 0.20 0.22 0.21 0.17 0.17 0.20 0.21 0.21 0.16 0.15 0.17 0.17 0.13 0.13 0.15 0.16 0.18 0.17 0.18 0.17 0.14
0.14 0.14 0.11 0.09 0.10 0.09 0.12 0.14 0.18 0.19 0.18 0.19 0.18 0.16 0.13 0.19 0.20 0.18 0.16 0.15 0.16 0.18 0.18 0.22 0.20 0.15 0.12 0.14 0.19 0.23 0.22 0.15 0.16 0.21 0.20 0.15 0.14 0.15 0.17 0.17 0.17 0.19 0.17
0.09 0.09 0.10 0.11 0.13 0.16 0.16 0.18 0.22 0.27 0.30 0.26 0.22 0.21 0.20 0.19 0.20 0.20 0.17 0.16 0.15 0.13 0.12 0.15 0.15 0.15 0.13 0.13 0.15 0.18 0.19 0.17 0.21 0.23 0.28 0.24 0.14 0.12 0.17 0.17 0.16 0.15 0.15
0.12 0.15 0.17 0.20 0.23 0.27 0.30 0.31 0.28 0.22 0.21 0.22 0.22 0.20 0.17 0.16 0.16 0.17 0.17 0.15 0.14 0.12 0.11 0.11 0.10 0.08 0.08 0.12 0.12 0.09 0.10 0.18 0.25 0.26 0.30 0.23 0.15 0.13 0.16 0.18 0.17 0.16 0.15
0.15 0.18 0.20 0.22 0.27 0.27 0.27 0.23 0.20 0.17 0.18 0.16 0.16 0.16 0.14 0.13 0.11 0.10 0.10 0.11 0.12 0.11 0.08 0.08 0.08 0.07 0.08 0.09 0.12 0.12 0.10 0.14 0.19 0.23 0.31 0.27 0.19 0.15 0.16 0.19 0.19 0.20 0.13

GFSGL_prec_precacc_084.txt.gz
Total_Precipitation_Accumulation
0.27 0.18 0.13 0.23 0.27 0.67 1.03 1.08 0.94 0.97 1.08 0.97 0.80 0.71 0.72 0.76 0.72 0.57 0.43 0.38 0.35 0.28 0.23 0.23 0.30 0.42 0.52 0.49 0.44 0.36 0.32 0.27 0.18 0.06 0.02 0.00 0.00 0.00 0.00 0.00 0.01 0.03 0.04
0.93 1.02 0.78 0.97 1.03 1.14 1.51 1.49 1.26 1.13 0.93 0.83 0.94 0.86 0.67 0.52 0.40 0.34 0.29 0.23 0.24 0.27 0.27 0.29 0.29 0.28 0.28 0.26 0.23 0.17 0.14 0.11 0.07 0.05 0.02 0.01 0.00 0.00 0.00 0.00 0.00 0.00 0.00
1.33 1.41 1.13 1.34 1.36 1.65 1.51 1.33 1.20 1.09 1.02 0.89 0.70 0.54 0.38 0.29 0.24 0.23 0.20 0.19 0.16 0.15 0.14 0.15 0.16 0.16 0.12 0.10 0.09 0.09 0.07 0.06 0.06 0.08 0.06 0.03 0.01 0.00 0.01 0.00 0.00 0.00 0.00
0.52 0.51 0.76 0.82 0.66 0.64 0.47 0.48 0.42 0.45 0.40 0.31 0.28 0.28 0.27 0.22 0.18 0.19 0.16 0.15 0.14 0.14 0.14 0.13 0.10 0.08 0.07 0.07 0.08 0.08 0.07 0.08 0.08 0.10 0.07 0.04 0.01 0.01 0.01 0.02 0.02 0.01 0.02
0.29 0.31 0.36 0.38 0.37 0.27 0.22 0.22 0.27 0.30 0.30 0.30 0.27 0.22 0.19 0.20 0.22 0.20 0.14 0.12 0.12 0.12 0.12 0.10 0.08 0.13 0.12 0.08 0.06 0.06 0.09 0.08 0.07 0.07 0.06 0.05 0.03 0.02 0.04 0.05 0.06 0.04 0.02
0.23 0.25 0.24 0.28 0.26 0.26 0.28 0.21 0.22 0.22 0.19 0.18 0.21 0.23 0.20 0.18 0.30 0.21 0.13 0.08 0.11 0.12 0.12 0.10 0.10 0.15 0.08 0.09 0.07 0.07 0.06 0.08 0.13 0.12 0.11 0.09 0.05 0.07 0.09 0.10 0.10 0.10 0.08
0.15 0.15 0.15 0.16 0.16 0.13 0.10 0.11 0.10 0.17 0.25 0.31 0.27 0.21 0.14 0.14 0.27 0.16 0.16 0.06 0.05 0.07 0.07 0.06 0.04 0.05 0.07 0.02 0.04 0.03 0.03 0.05 0.12 0.17 0.23 0.14 0.14 0.09 0.11 0.12 0.11 0.14 0.14
0.03 0.04 0.04 0.04 0.04 0.04 0.07 0.14 0.21 0.28 0.26 0.18 0.11 0.08 0.08 0.14 0.19 0.09 0.09 0.03 0.03 0.05 0.06 0.05 0.06 0.05 0.05 0.06 0.11 0.11 0.07 0.06 0.05 0.08 0.15 0.10 0.08 0.09 0.12 0.16 0.21 0.23 0.14
0.00 0.01 0.02 0.03 0.06 0.09 0.19 0.31 0.30 0.16 0.08 0.05 0.06 0.06 0.06 0.09 0.12 0.07 0.06 0.02 0.03 0.04 0.04 0.05 0.05 0.04 0.07 0.11 0.19 0.18 0.09 0.05 0.05 0.08 0.09 0.09 0.09 0.08 0.13 0.28 0.34 0.41 0.31
0.00 0.01 0.01 0.07 0.24 0.31 0.25 0.11 0.06 0.06 0.06 0.06 0.08 0.08 0.11 0.06 0.13 0.08 0.05 0.02 0.04 0.03 0.03 0.03 0.04 0.05 0.13 0.18 0.30 0.28 0.25 0.08 0.07 0.10 0.10 0.06 0.06 0.09 0.09 0.23 0.32 0.47 0.33
0.02 0.09 0.17 0.19 0.12 0.08 0.06 0.05 0.05 0.05 0.05 0.06 0.07 0.06 0.07 0.08 0.10 0.08 0.06 0.03 0.07 0.09 0.05 0.03 0.05 0.23 0.20 0.14 0.15 0.25 0.25 0.13 0.13 0.14 0.12 0.11 0.09 0.10 0.10 0.15 0.22 0.37 0.43
0.06 0.05 0.04 0.06 0.05 0.03 0.03 0.04 0.04 0.04 0.05 0.05 0.06 0.06 0.06 0.06 0.08 0.05 0.02 0.03 0.05 0.15 0.11 0.15 0.23 0.14 0.10 0.07 0.10 0.16 0.10 0.09 0.16 0.21 0.22 0.16 0.17 0.16 0.14 0.16 0.21 0.25 0.25
0.03 0.04 0.04 0.03 0.02 0.02 0.03 0.03 0.03 0.03 0.04 0.04 0.04 0.05 0.04 0.03 0.05 0.05 0.02 0.03 0.04 0.10 0.22 0.22 0.14 0.11 0.07 0.08 0.13 0.13 0.12 0.24 0.31 0.33 0.27 0.20 0.19 0.18 0.21 0.25 0.24 0.22 0.25
0.01 0.01 0.01 0.01 0.01 0.01 0.01 0.01 0.02 0.02 0.02 0.02 0.03 0.03 0.03 0.02 0.03 0.07 0.13 0.10 0.09 0.16 0.13 0.16 0.17 0.11 0.13 0.20 0.21 0.21 0.29 0.33 0.31 0.32 0.24 0.18 0.19 0.22 0.31 0.36 0.51 0.43 0.47
0.00 0.00 0.00 0.00 0.01 0.01 0.00 0.01 0.01 0.01 0.02 0.02 0.05 0.10 0.16 0.17 0.15 0.19 0.19 0.21 0.30 0.22 0.22 0.29 0.22 0.19 0.18 0.17 0.17 0.16 0.18 0.19 0.23 0.24 0.29 0.26 0.27 0.31 0.32 0.29 0.37 0.37 0.46
0.00 0.00 0.00 0.01 0.01 0.00 0.01 0.03 0.11 0.13 0.14 0.14 0.15 0.12 0.12 0.10 0.10 0.09 0.12 0.20 0.23 0.21 0.38 0.34 0.27 0.25 0.24 0.20 0.19 0.15 0.13 0.15 0.13 0.17 0.22 0.21 0.25 0.31 0.35 0.34 0.35 0.36 0.34
0.04 0.06 0.09 0.12 0.11 0.11 0.12 0.14 0.18 0.17 0.08 0.04 0.03 0.03 0.04 0.07 0.11 0.13 0.16 0.21 0.23 0.23 0.36 0.26 0.25 0.25 0.21 0.17 0.19 0.22 0.27 0.27 0.26 0.28 0.30 0.31 0.32 0.32 0.35 0.31 0.30 0.28 0.28
0.35 0.36 0.30 0.27 0.24 0.19 0.14 0.12 0.12 0.14 0.15 0.13 0.08 0.04 0.05 0.10 0.15 0.18 0.18 0.26 0.31 0.24 0.26 0.26 0.26 0.26 0.24 0.26 0.26 0.26 0.23 0.22 0.22 0.20 0.22 0.23 0.23 0.24 0.25 0.24 0.27 0.30 0.27
0.31 0.33 0.28 0.24 0.20 0.18 0.18 0.18 0.17 0.16 0.15 0.14 0.12 0.12 0.10 0.09 0.11 0.14 0.16 0.33 0.33 0.31 0.30 0.30 0.29 0.24 0.18 0.17 0.20 0.20 0.21 0.20 0.19 0.19 0.17 0.17 0.20 0.23 0.20 0.16 0.16 0.13 0.14
0.34 0.35 0.30 0.29 0.28 0.23 0.18 0.17 0.16 0.17 0.17 0.15 0.14 0.13 0.11 0.13 0.15 0.15 0.19 0.25 0.28 0.23 0.18 0.16 0.16 0.17 0.17 0.16 0.15 0.18 0.17 0.15 0.16 0.17 0.19 0.21 0.20 0.21 0.23 0.21 0.19 0.18 0.11
0.45 0.40 0.31 0.25 0.22 0.20 0.18 0.17 0.16 0.20 0.19 0.16 0.13 0.11 0.13 0.24 0.26 0.25 0.25 0.24 0.20 0.17 0.15 0.14 0.12 0.12 0.12 0.14 0.14 0.15 0.15 0.13 0.14 0.16 0.14 0.16 0.21 0.22 0.19 0.20 0.18 0.15 0.13
0.28 0.23 0.19 0.18 0.16 0.15 0.13 0.12 0.14 0.15 0.14 0.16 0.17 0.18 0.22 0.29 0.24 0.19 0.18 0.17 0.17 0.19 0.20 0.22 0.21 0.18 0.17 0.21 0.22 0.21 0.16 0.15 0.17 0.18 0.13 0.13 0.16 0.17 0.19 0.18 0.18 0.18 0.15
0.15 0.14 0.11 0.09 0.10 0.09 0.12 0.14 0.18 0.19 0.18 0.20 0.19 0.16 0.14 0.19 0.20 0.19 0.17 0.15 0.16 0.18 0.18 0.22 0.20 0.15 0.12 0.14 0.19 0.24 0.22 0.15 0.17 0.22 0.21 0.16 0.14 0.16 0.17 0.18 0.18 0.20 0.17
0.09 0.09 0.10 0.11 0.13 0.16 0.16 0.18 0.22 0.27 0.30 0.27 0.22 0.22 0.20 0.19 0.20 0.20 0.17 0.16 0.15 0.13 0.12 0.15 0.15 0.15 0.13 0.13 0.15 0.18 0.19 0.17 0.21 0.23 0.29 0.25 0.14 0.13 0.17 0.18 0.16 0.16 0.16
0.12 0.15 0.17 0.20 0.23 0.27 0.30 0.31 0.28 0.22 0.21 0.22 0.22 0.21 0.17 0.16 0.16 0.17 0.17 0.15 0.14 0.12 0.11 0.11 0.10 0.08 0.08 0.12 0.12 0.09 0.10 0.18 0.25 0.27 0.31 0.23 0.16 0.14 0.17 0.19 0.17 0.17 0.15
0.15 0.18 0.20 0.22 0.27 0.27 0.27 0.23 0.20 0.17 0.18 0.16 0.16 0.16 0.14 0.13 0.11 0.10 0.10 0.11 0.12 0.11 0.08 0.08 0.08 0.07 0.08 0.09 0.12 0.12 0.10 0.14 0.19 0.24 0.32 0.27 0.19 0.15 0.17 0.20 0.19 0.20 0.14

GFSGL_prec_precacc_087.txt.gz
Total_Precipitation_Accumulation
0.27 0.18 0.14 0.23 0.27 0.67 1.03 1.08 0.94 0.97 1.09 0.97 0.80 0.71 0.73 0.76 0.73 0.58 0.44 0.39 0.36 0.30 0.26 0.26 0.31 0.43 0.54 0.53 0.50 0.45 0.43 0.41 0.36 0.17 0.07 0.04 0.01 0.00 0.00 0.00 0.01 0.03 0.04
0.93 1.02 0.78 0.97 1.03 1.14 1.52 1.49 1.26 1.13 0.93 0.83 0.94 0.86 0.67 0.52 0.40 0.34 0.29 0.23 0.24 0.28 0.29 0.33 0.31 0.29 0.30 0.27 0.25 0.19 0.16 0.15 0.16 0.12 0.06 0.03 0.03 0.02 0.02 0.01 0.00 0.00 0.00
1.33 1.41 1.13 1.34 1.36 1.65 1.51 1.33 1.20 1.09 1.02 0.89 0.70 0.54 0.38 0.29 0.24 0.23 0.20 0.19 0.16 0.16 0.15 0.16 0.17 0.16 0.13 0.11 0.10 0.10 0.10 0.10 0.10 0.14 0.14 0.14 0.10 0.08 0.07 0.03 0.01 0.00 0.00
0.52 0.51 0.76 0.82 0.66 0.64 0.47 0.48 0.42 0.45 0.40 0.31 0.28 0.28 0.27 0.22 0.18 0.19 0.16 0.15 0.14 0.14 0.14 0.13 0.10 0.08 0.08 0.08 0.10 0.11 0.12 0.13 0.15 0.18 0.14 0.10 0.08 0.07 0.05 0.04 0.04 0.01 0.02
0.29 0.31 0.36 0.38 0.37 0.27 0.22 0.22 0.27 0.30 0.30 0.30 0.27 0.22 0.19 0.20 0.22 0.20 0.14 0.13 0.12 0.12 0.12 0.11 0.10 0.17 0.16 0.11 0.08 0.07 0.10 0.10 0.11 0.12 0.10 0.08 0.06 0.06 0.06 0.06 0.07 0.04 0.02
0.23 0.25 0.24 0.28 0.26 0.26 0.28 0.21 0.22 0.22 0.19 0.18 0.21 0.23 0.20 0.18 0.30 0.21 0.13 0.09 0.12 0.13 0.13 0.12 0.15 0.23 0.12 0.15 0.10 0.10 0.08 0.10 0.14 0.13 0.12 0.10 0.06 0.09 0.10 0.11 0.11 0.10 0.08
0.15 0.15 0.15 0.16 0.16 0.13 0.10 0.11 0.10 0.17 0.25 0.31 0.27 0.21 0.15 0.15 0.28 0.16 0.16 0.07 0.06 0.08 0.08 0.08 0.07 0.09 0.14 0.04 0.07 0.07 0.07 0.10 0.15 0.20 0.26 0.15 0.14 0.10 0.11 0.12 0.11 0.14 0.14
0.03 0.04 0.04 0.04 0.04 0.04 0.07 0.14 0.21 0.28 0.27 0.19 0.12 0.09 0.08 0.16 0.21 0.12 0.11 0.03 0.03 0.05 0.08 0.08 0.09 0.09 0.12 0.11 0.12 0.12 0.09 0.08 0.08 0.10 0.16 0.11 0.08 0.09 0.12 0.16 0.21 0.23 0.14
0.00 0.01 0.02 0.03 0.06 0.09 0.19 0.31 0.30 0.16 0.08 0.05 0.06 0.06 0.07 0.10 0.14 0.09 0.07 0.02 0.03 0.05 0.07 0.09 0.11 0.09 0.18 0.16 0.20 0.20 0.11 0.06 0.06 0.08 0.09 0.09 0.09 0.08 0.13 0.29 0.34 0.41 0.31
0.00 0.01 0.01 0.07 0.24 0.31 0.25 0.11 0.06 0.06 0.06 0.06 0.08 0.08 0.12 0.07 0.16 0.09 0.05 0.02 0.04 0.04 0.06 0.08 0.12 0.07 0.16 0.19 0.30 0.28 0.25 0.08 0.07 0.10 0.10 0.07 0.07 0.10 0.09 0.23 0.32 0.47 0.33
0.02 0.09 0.17 0.19 0.12 0.08 0.06 0.05 0.05 0.05 0.06 0.07 0.08 0.07 0.07 0.09 0.12 0.10 0.07 0.04 0.07 0.09 0.06 0.04 0.06 0.25 0.21 0.14 0.15 0.25 0.25 0.13 0.13 0.14 0.12 0.11 0.09 0.10 0.10 0.15 0.22 0.37 0.43
0.06 0.05 0.04 0.06 0.05 0.03 0.03 0.04 0.05 0.05 0.05 0.06 0.06 0.07 0.06 0.06 0.11 0.07 0.04 0.04 0.06 0.16 0.11 0.15 0.23 0.15 0.10 0.07 0.10 0.16 0.11 0.09 0.16 0.21 0.22 0.16 0.17 0.16 0.14 0.16 0.21 0.25 0.25
0.03 0.04 0.04 0.03 0.02 0.03 0.05 0.05 0.04 0.04 0.04 0.04 0.04 0.05 0.04 0.04 0.07 0.08 0.03 0.03 0.04 0.10 0.22 0.22 0.14 0.11 0.07 0.08 0.13 0.13 0.12 0.24 0.31 0.33 0.27 0.20 0.19 0.18 0.21 0.25 0.24 0.22 0.25
0.01 0.01 0.02 0.04 0.05 0.04 0.03 0.03 0.03 0.03 0.03 0.02 0.03 0.04 0.03 0.03 0.04 0.09 0.15 0.11 0.10 0.17 0.14 0.16 0.17 0.11 0.13 0.20 0.21 0.21 0.29 0.33 0.31 0.32 0.24 0.18 0.19 0.22 0.32 0.37 0.51 0.43 0.47
0.03 0.04 0.04 0.04 0.04 0.02 0.02 0.04 0.03 0.04 0.05 0.04 0.06 0.11 0.17 0.19 0.19 0.22 0.22 0.22 0.31 0.22 0.22 0.29 0.22 0.19 0.18 0.17 0.17 0.17 0.19 0.19 0.24 0.25 0.29 0.27 0.28 0.31 0.32 0.30 0.37 0.37 0.46
0.04 0.03 0.04 0.03 0.02 0.01 0.02 0.07 0.17 0.20 0.22 0.25 0.26 0.22 0.22 0.19 0.15 0.11 0.13 0.20 0.23 0.21 0.38 0.34 0.28 0.25 0.24 0.20 0.19 0.15 0.14 0.16 0.14 0.18 0.22 0.21 0.25 0.31 0.35 0.35 0.35 0.36 0.35
0.11 0.12 0.14 0.14 0.13 0.15 0.19 0.25 0.36 0.42 0.31 0.26 0.21 0.16 0.12 0.12 0.12 0.14 0.16 0.21 0.23 0.23 0.36 0.26 0.25 0.25 0.21 0.18 0.19 0.22 0.27 0.28 0.26 0.29 0.31 0.31 0.33 0.33 0.35 0.31 0.30 0.29 0.29
0.59 0.61 0.57 0.59 0.57 0.53 0.48 0.43 0.35 0.31 0.27 0.22 0.14 0.07 0.06 0.11 0.15 0.18 0.18 0.26 0.31 0.24 0.26 0.26 0.27 0.26 0.24 0.26 0.26 0.26 0.23 0.23 0.22 0.20 0.22 0.23 0.24 0.25 0.26 0.25 0.27 0.30 0.28
0.58 0.68 0.60 0.49 0.38 0.31 0.29 0.27 0.23 0.20 0.18 0.16 0.14 0.13 0.10 0.09 0.11 0.14 0.16 0.33 0.33 0.31 0.30 0.30 0.29 0.24 0.18 0.17 0.20 0.20 0.21 0.21 0.19 0.19 0.17 0.18 0.20 0.23 0.20 0.16 0.16 0.14 0.15
0.53 0.54 0.43 0.40 0.38 0.32 0.26 0.22 0.19 0.19 0.19 0.17 0.16 0.15 0.12 0.14 0.15 0.15 0.19 0.25 0.28 0.23 0.18 0.16 0.16 0.17 0.17 0.16 0.16 0.18 0.18 0.15 0.16 0.17 0.19 0.21 0.20 0.21 0.23 0.21 0.19 0.19 0.12
0.56 0.53 0.43 0.34 0.28 0.24 0.21 0.19 0.17 0.21 0.20 0.16 0.13 0.11 0.13 0.24 0.26 0.25 0.25 0.24 0.20 0.17 0.15 0.14 0.13 0.13 0.13 0.15 0.14 0.15 0.15 0.13 0.14 0.16 0.15 0.17 0.21 0.22 0.19 0.21 0.19 0.16 0.13
0.31 0.25 0.21 0.19 0.17 0.16 0.14 0.12 0.14 0.15 0.14 0.16 0.17 0.18 0.22 0.29 0.24 0.19 0.18 0.17 0.17 0.19 0.20 0.22 0.21 0.18 0.17 0.21 0.22 0.21 0.17 0.15 0.17 0.18 0.14 0.13 0.16 0.17 0.19 0.18 0.19 0.18 0.16
0.16 0.15 0.12 0.09 0.10 0.09 0.12 0.14 0.18 0.19 0.18 0.20 0.19 0.16 0.14 0.19 0.20 0.19 0.17 0.16 0.16 0.18 0.18 0.22 0.21 0.15 0.12 0.14 0.19 0.24 0.23 0.15 0.17 0.22 0.21 0.16 0.15 0.16 0.18 0.19 0.18 0.20 0.18
0.09 0.09 0.10 0.11 0.13 0.16 0.16 0.18 0.22 0.27 0.30 0.27 0.22 0.22 0.20 0.19 0.21 0.20 0.17 0.16 0.15 0.13 0.12 0.15 0.15 0.15 0.13 0.13 0.15 0.18 0.19 0.17 0.22 0.23 0.29 0.25 0.15 0.13 0.18 0.18 0.16 0.16 0.16
0.12 0.15 0.17 0.20 0.23 0.27 0.30 0.31 0.28 0.22 0.21 0.22 0.22 0.21 0.17 0.16 0.16 0.17 0.17 0.16 0.14 0.12 0.11 0.11 0.10 0.08 0.08 0.12 0.12 0.09 0.10 0.18 0.25 0.27 0.31 0.24 0.16 0.14 0.17 0.19 0.18 0.18 0.16
0.15 0.18 0.20 0.22 0.27 0.27 0.27 0.23 0.20 0.17 0.18 0.17 0.16 0.16 0.14 0.13 0.11 0.10 0.10 0.11 0.12 0.11 0.08 0.08 0.08 0.07 0.08 0.09 0.12 0.12 0.10 0.14 0.19 0.24 0.32 0.28 0.20 0.16 0.18 0.20 0.20 0.21 0.14

GFSGL_prec_precacc_093.txt.gz
Total_Precipitation_Accumulation
0.27 0.19 0.14 0.24 0.28 0.67 1.04 1.08 0.94 0.97 1.09 0.97 0.80 0.72 0.74 0.79 0.79 0.64 0.46 0.42 0.38 0.33 0.37 0.40 0.38 0.55 0.67 0.58 0.61 0.58 0.51 0.49 0.44 0.20 0.10 0.05 0.04 0.01 0.00 0.01 0.01 0.03 0.04
0.93 1.02 0.78 0.97 1.03 1.14 1.52 1.49 1.26 1.13 0.93 0.83 0.94 0.86 0.68 0.53 0.44 0.39 0.34 0.30 0.29 0.32 0.33 0.44 0.34 0.36 0.37 0.31 0.32 0.24 0.21 0.20 0.20 0.16 0.10 0.06 0.04 0.03 0.03 0.02 0.02 0.02 0.01
1.33 1.41 1.13 1.35 1.36 1.65 1.51 1.33 1.20 1.09 1.02 0.89 0.70 0.54 0.38 0.29 0.25 0.23 0.21 0.21 0.20 0.18 0.18 0.20 0.19 0.21 0.14 0.13 0.15 0.13 0.11 0.13 0.16 0.22 0.23 0.23 0.20 0.14 0.13 0.09 0.04 0.02 0.03
0.52 0.51 0.76 0.82 0.66 0.64 0.47 0.48 0.43 0.45 0.40 0.31 0.28 0.28 0.27 0.23 0.19 0.19 0.17 0.16 0.16 0.15 0.16 0.16 0.12 0.11 0.09 0.10 0.12 0.13 0.16 0.18 0.21 0.28 0.30 0.26 0.23 0.18 0.15 0.13 0.13 0.10 0.09
0.29 0.31 0.36 0.38 0.37 0.27 0.23 0.22 0.27 0.31 0.30 0.30 0.28 0.23 0.20 0.20 0.22 0.20 0.15 0.13 0.12 0.13 0.13 0.13 0.12 0.18 0.19 0.16 0.16 0.14 0.18 0.23 0.27 0.31 0.27 0.25 0.23 0.21 0.20 0.17 0.17 0.13 0.11
0.23 0.25 0.24 0.28 0.26 0.26 0.28 0.21 0.22 0.23 0.19 0.18 0.21 0.23 0.20 0.18 0.30 0.21 0.13 0.11 0.16 0.16 0.15 0.13 0.17 0.31 0.21 0.30 0.27 0.28 0.24 0.21 0.25 0.29 0.30 0.28 0.23 0.24 0.23 0.24 0.23 0.21 0.18
0.15 0.15 0.15 0.16 0.16 0.13 0.10 0.11 0.10 0.17 0.26 0.31 0.27 0.21 0.15 0.16 0.28 0.16 0.17 0.08 0.08 0.12 0.13 0.14 0.16 0.21 0.30 0.14 0.31 0.30 0.27 0.29 0.27 0.29 0.37 0.32 0.32 0.29 0.30 0.28 0.23 0.24 0.20
0.03 0.04 0.04 0.04 0.04 0.04 0.07 0.14 0.21 0.28 0.27 0.19 0.12 0.09 0.09 0.16 0.22 0.12 0.13 0.08 0.09 0.14 0.16 0.17 0.21 0.27 0.35 0.34 0.29 0.24 0.16 0.17 0.18 0.22 0.29 0.26 0.22 0.19 0.17 0.18 0.22 0.24 0.14
0.00 0.02 0.06 0.07 0.07 0.09 0.19 0.31 0.31 0.16 0.08 0.05 0.06 0.06 0.07 0.11 0.17 0.12 0.11 0.08 0.14 0.17 0.18 0.23 0.30 0.31 0.51 0.33 0.28 0.29 0.20 0.15 0.18 0.16 0.14 0.11 0.11 0.10 0.14 0.29 0.35 0.42 0.31
0.00 0.04 0.11 0.13 0.28 0.33 0.27 0.11 0.06 0.06 0.06 0.06 0.09 0.09 0.16 0.10 0.22 0.14 0.10 0.05 0.12 0.13 0.14 0.18 0.28 0.14 0.25 0.24 0.33 0.30 0.27 0.09 0.09 0.11 0.10 0.07 0.07 0.10 0.10 0.23 0.32 0.47 0.33
0.04 0.13 0.23 0.24 0.16 0.09 0.08 0.07 0.08 0.08 0.09 0.11 0.13 0.12 0.13 0.16 0.20 0.18 0.13 0.07 0.12 0.17 0.16 0.15 0.20 0.38 0.26 0.17 0.16 0.26 0.27 0.14 0.14 0.14 0.12 0.11 0.10 0.10 0.10 0.15 0.22 0.37 0.43
0.14 0.13 0.11 0.15 0.11 0.09 0.06 0.07 0.08 0.10 0.12 0.12 0.13 0.14 0.14 0.15 0.25 0.19 0.14 0.15 0.19 0.22 0.20 0.24 0.35 0.24 0.13 0.09 0.11 0.17 0.11 0.10 0.16 0.21 0.22 0.16 0.17 0.16 0.14 0.16 0.21 0.25 0.25
0.12 0.15 0.16 0.14 0.12 0.12 0.13 0.12 0.11 0.09 0.09 0.11 0.12 0.15 0.15 0.14 0.20 0.23 0.15 0.14 0.13 0.16 0.31 0.34 0.26 0.19 0.10 0.11 0.16 0.16 0.13 0.25 0.32 0.33 0.27 0.20 0.19 0.18 0.21 0.25 0.24 0.22 0.25
0.05 0.07 0.09 0.11 0.14 0.12 0.15 0.17 0.19 0.21 0.22 0.21 0.25 0.28 0.28 0.25 0.23 0.28 0.35 0.31 0.29 0.36 0.36 0.37 0.36 0.28 0.27 0.31 0.27 0.23 0.29 0.33 0.31 0.32 0.25 0.18 0.19 0.22 0.32 0.37 0.52 0.43 0.47
0.05 0.05 0.07 0.10 0.10 0.10 0.14 0.24 0.27 0.38 0.45 0.39 0.41 0.43 0.48 0.60 0.76 0.81 0.77 0.76 0.76 0.60 0.51 0.55 0.42 0.31 0.24 0.19 0.17 0.17 0.19 0.19 0.24 0.25 0.29 0.27 0.28 0.31 0.32 0.30 0.37 0.38 0.46
0.18 0.16 0.17 0.13 0.13 0.14 0.14 0.25 0.47 0.56 0.57 0.59 0.64 0.61 0.72 0.76 0.79 0.69 0.59 0.58 0.54 0.42 0.49 0.40 0.31 0.28 0.26 0.21 0.20 0.15 0.14 0.16 0.14 0.18 0.22 0.21 0.26 0.31 0.36 0.35 0.35 0.37 0.35
0.58 0.57 0.58 0.51 0.43 0.41 0.45 0.50 0.68 0.90 0.87 0.89 0.88 0.84 0.77 0.75 0.60 0.46 0.34 0.31 0.29 0.27 0.40 0.29 0.27 0.26 0.22 0.18 0.19 0.22 0.27 0.28 0.26 0.29 0.31 0.31 0.33 0.33 0.36 0.32 0.31 0.29 0.30
1.17 1.24 1.28 1.43 1.46 1.46 1.42 1.35 1.22 1.15 1.06 0.94 0.78 0.58 0.42 0.33 0.32 0.32 0.29 0.32 0.35 0.26 0.27 0.26 0.27 0.26 0.24 0.26 0.26 0.26 0.23 0.23 0.22 0.20 0.23 0.23 0.24 0.25 0.26 0.25 0.28 0.31 0.28
0.70 0.88 0.94 0.93 0.84 0.73 0.70 0.68 0.66 0.61 0.56 0.50 0.42 0.34 0.28 0.22 0.19 0.18 0.18 0.34 0.33 0.31 0.30 0.30 0.29 0.24 0.18 0.17 0.20 0.20 0.22 0.21 0.19 0.19 0.17 0.18 0.21 0.24 0.21 0.17 0.16 0.14 0.15
0.62 0.68 0.58 0.57 0.59 0.54 0.47 0.40 0.36 0.33 0.31 0.28 0.27 0.27 0.20 0.16 0.16 0.15 0.19 0.25 0.28 0.23 0.18 0.16 0.16 0.17 0.17 0.16 0.16 0.18 0.18 0.15 0.16 0.17 0.19 0.21 0.21 0.21 0.23 0.22 0.20 0.19 0.12
0.61 0.58 0.47 0.40 0.35 0.32 0.28 0.23 0.21 0.24 0.22 0.18 0.15 0.12 0.13 0.24 0.26 0.25 0.25 0.24 0.20 0.17 0.15 0.14 0.13 0.13 0.13 0.15 0.14 0.15 0.15 0.14 0.14 0.16 0.15 0.17 0.21 0.22 0.19 0.21 0.19 0.16 0.14
0.33 0.28 0.24 0.22 0.20 0.18 0.16 0.13 0.15 0.15 0.15 0.16 0.17 0.18 0.22 0.29 0.24 0.19 0.18 0.17 0.17 0.19 0.20 0.22 0.21 0.18 0.17 0.21 0.22 0.21 0.17 0.16 0.17 0.18 0.14 0.13 0.16 0.18 0.20 0.19 0.19 0.19 0.16
0.18 0.16 0.13 0.10 0.11 0.10 0.12 0.14 0.18 0.19 0.18 0.20 0.19 0.16 0.14 0.20 0.20 0.19 0.17 0.16 0.16 0.18 0.18 0.22 0.21 0.16 0.12 0.14 0.19 0.24 0.23 0.16 0.17 0.22 0.22 0.17 0.15 0.16 0.18 0.19 0.19 0.21 0.18
0.10 0.09 0.11 0.11 0.13 0.16 0.16 0.18 0.22 0.27 0.30 0.27 0.22 0.22 0.20 0.19 0.21 0.20 0.17 0.16 0.15 0.13 0.12 0.15 0.16 0.15 0.13 0.13 0.15 0.18 0.19 0.17 0.22 0.24 0.30 0.26 0.15 0.13 0.18 0.19 0.17 0.16 0.16
0.12 0.15 0.17 0.20 0.23 0.27 0.30 0.31 0.28 0.22 0.21 0.23 0.22 0.21 0.17 0.16 0.16 0.17 0.17 0.16 0.14 0.12 0.11 0.11 0.10 0.08 0.08 0.12 0.12 0.09 0.11 0.18 0.25 0.27 0.31 0.24 0.17 0.14 0.17 0.20 0.18 0.18 0.16
0.15 0.18 0.20 0.22 0.27 0.27 0.28 0.24 0.20 0.17 0.18 0.17 0.16 0.16 0.14 0.13 0.11 0.10 0.10 0.11 0.12 0.11 0.08 0.08 0.08 0.07 0.08 0.09 0.13 0.13 0.10 0.14 0.19 0.24 0.33 0.29 0.20 0.16 0.18 0.21 0.21 0.22 0.15

GFSGL_prec_precacc_096.txt.gz
Total_Precipitation_Accumulation
0.27 0.19 0.14 0.24 0.28 0.67 1.04 1.08 0.94 0.97 1.09 0.97 0.80 0.72 0.75 0.79 0.79 0.65 0.46 0.43 0.41 0.35 0.39 0.44 0.40 0.56 0.68 0.59 0.62 0.62 0.54 0.54 0.45 0.20 0.10 0.05 0.04 0.01 0.01 0.01 0.02 0.04 0.04
0.93 1.03 0.78 0.97 1.03 1.14 1.52 1.49 1.26 1.13 0.93 0.83 0.94 0.86 0.68 0.53 0.44 0.39 0.34 0.30 0.30 0.33 0.35 0.47 0.35 0.42 0.39 0.32 0.34 0.25 0.22 0.21 0.22 0.16 0.10 0.06 0.05 0.05 0.05 0.06 0.06 0.03 0.03
1.33 1.41 1.13 1.35 1.36 1.65 1.51 1.33 1.20 1.09 1.02 0.89 0.70 0.54 0.38 0.29 0.25 0.23 0.21 0.21 0.20 0.19 0.19 0.22 0.19 0.23 0.15 0.13 0.16 0.14 0.12 0.14 0.17 0.23 0.24 0.23 0.21 0.16 0.14 0.09 0.06 0.05 0.06
0.52 0.51 0.76 0.82 0.67 0.64 0.47 0.48 0.43 0.45 0.40 0.31 0.28 0.28 0.27 0.23 0.19 0.19 0.17 0.16 0.16 0.15 0.16 0.17 0.14 0.13 0.09 0.10 0.13 0.14 0.16 0.19 0.25 0.30 0.32 0.28 0.25 0.20 0.16 0.15 0.15 0.13 0.12
0.29 0.31 0.36 0.38 0.37 0.27 0.23 0.22 0.27 0.31 0.30 0.30 0.28 0.23 0.20 0.20 0.22 0.20 0.15 0.13 0.12 0.13 0.13 0.13 0.12 0.18 0.19 0.16 0.16 0.15 0.19 0.25 0.30 0.33 0.30 0.28 0.26 0.27 0.25 0.19 0.19 0.14 0.13
0.23 0.25 0.24 0.28 0.26 0.26 0.28 0.22 0.22 0.23 0.19 0.18 0.21 0.23 0.20 0.18 0.30 0.21 0.13 0.11 0.16 0.16 0.15 0.14 0.17 0.31 0.21 0.31 0.28 0.30 0.27 0.25 0.32 0.41 0.47 0.44 0.34 0.32 0.27 0.25 0.25 0.23 0.21
0.18 0.17 0.16 0.16 0.16 0.13 0.10 0.11 0.10 0.17 0.26 0.31 0.27 0.21 0.15 0.16 0.28 0.16 0.17 0.08 0.08 0.13 0.15 0.16 0.17 0.22 0.31 0.14 0.32 0.33 0.36 0.48 0.50 0.51 0.56 0.45 0.43 0.39 0.33 0.30 0.26 0.26 0.21
0.08 0.07 0.10 0.08 0.08 0.05 0.07 0.14 0.22 0.28 0.27 0.19 0.12 0.09 0.09 0.16 0.22 0.12 0.13 0.08 0.10 0.15 0.18 0.19 0.23 0.27 0.37 0.40 0.41 0.42 0.36 0.33 0.33 0.34 0.41 0.37 0.30 0.22 0.18 0.18 0.22 0.24 0.14
0.08 0.07 0.12 0.13 0.11 0.12 0.20 0.32 0.31 0.17 0.09 0.06 0.07 0.06 0.08 0.11 0.18 0.12 0.11 0.09 0.16 0.19 0.20 0.26 0.33 0.32 0.58 0.45 0.36 0.37 0.32 0.28 0.27 0.23 0.18 0.14 0.11 0.10 0.14 0.29 0.35 0.42 0.31
0.04 0.11 0.21 0.20 0.31 0.36 0.31 0.12 0.07 0.07 0.08 0.08 0.10 0.09 0.17 0.10 0.24 0.16 0.11 0.07 0.16 0.17 0.17 0.23 0.39 0.19 0.35 0.31 0.37 0.34 0.32 0.15 0.14 0.16 0.13 0.08 0.07 0.10 0.10 0.23 0.32 0.47 0.33
0.05 0.20 0.34 0.35 0.25 0.16 0.16 0.10 0.09 0.10 0.12 0.16 0.18 0.16 0.14 0.19 0.22 0.21 0.16 0.09 0.16 0.21 0.18 0.19 0.31 0.54 0.37 0.28 0.26 0.36 0.40 0.27 0.23 0.19 0.14 0.12 0.10 0.10 0.10 0.15 0.22 0.37 0.43
0.15 0.15 0.15 0.24 0.24 0.21 0.15 0.12 0.09 0.11 0.13 0.14 0.17 0.20 0.20 0.23 0.37 0.28 0.21 0.23 0.27 0.27 0.30 0.36 0.50 0.40 0.25 0.22 0.25 0.32 0.26 0.23 0.28 0.30 0.26 0.17 0.17 0.16 0.14 0.16 0.21 0.25 0.25
0.12 0.16 0.19 0.20 0.23 0.27 0.29 0.27 0.24 0.18 0.14 0.14 0.15 0.19 0.20 0.20 0.31 0.38 0.27 0.27 0.28 0.27 0.47 0.57 0.54 0.48 0.37 0.37 0.41 0.41 0.36 0.44 0.44 0.38 0.28 0.20 0.19 0.18 0.21 0.25 0.24 0.22 0.25
0.05 0.07 0.11 0.15 0.22 0.23 0.26 0.29 0.34 0.38 0.37 0.35 0.36 0.36 0.36 0.33 0.34 0.41 0.50 0.52 0.60 0.77 0.87 0.95 0.92 0.82 0.76 0.71 0.57 0.42 0.39 0.37 0.33 0.33 0.25 0.18 0.19 0.22 0.32 0.37 0.52 0.43 0.47
0.05 0.05 0.09 0.14 0.17 0.17 0.24 0.35 0.38 0.48 0.58 0.60 0.69 0.77 0.87 1.00 1.18 1.25 1.20 1.18 1.22 1.09 1.03 1.03 0.85 0.68 0.52 0.39 0.30 0.22 0.21 0.20 0.24 0.25 0.29 0.27 0.28 0.31 0.32 0.30 0.37 0.38 0.46
0.18 0.16 0.17 0.14 0.19 0.28 0.34 0.48 0.72 0.78 0.78 0.83 0.92 0.93 1.15 1.23 1.27 1.13 1.03 0.99 0.88 0.70 0.70 0.59 0.47 0.38 0.31 0.24 0.21 0.16 0.14 0.16 0.14 0.18 0.22 0.21 0.26 0.31 0.36 0.35 0.35 0.37 0.35
0.58 0.58 0.60 0.56 0.51 0.52 0.57 0.67 0.99 1.36 1.38 1.34 1.25 1.16 1.06 1.08 0.94 0.76 0.59 0.49 0.42 0.36 0.48 0.36 0.32 0.28 0.23 0.18 0.20 0.23 0.27 0.28 0.26 0.29 0.31 0.31 0.33 0.33 0.36 0.32 0.31 0.29 0.30
1.17 1.24 1.29 1.47 1.55 1.58 1.58 1.56 1.46 1.42 1.32 1.23 1.10 0.88 0.69 0.56 0.51 0.48 0.42 0.42 0.45 0.33 0.32 0.30 0.29 0.27 0.25 0.27 0.26 0.26 0.23 0.23 0.22 0.20 0.23 0.23 0.24 0.25 0.26 0.25 0.28 0.31 0.28
0.71 0.88 0.94 0.95 0.87 0.78 0.78 0.78 0.78 0.75 0.69 0.64 0.55 0.47 0.39 0.31 0.26 0.23 0.20 0.35 0.35 0.31 0.31 0.30 0.29 0.24 0.18 0.17 0.20 0.20 0.22 0.21 0.19 0.19 0.17 0.18 0.21 0.24 0.21 0.17 0.16 0.14 0.15
0.64 0.69 0.58 0.58 0.60 0.55 0.49 0.44 0.41 0.37 0.35 0.32 0.31 0.31 0.23 0.17 0.16 0.15 0.19 0.25 0.28 0.23 0.18 0.16 0.16 0.17 0.17 0.16 0.16 0.18 0.18 0.15 0.16 0.17 0.19 0.21 0.21 0.21 0.23 0.22 0.20 0.19 0.12
0.62 0.60 0.48 0.40 0.36 0.33 0.28 0.24 0.22 0.25 0.24 0.19 0.15 0.12 0.13 0.24 0.26 0.25 0.25 0.24 0.20 0.17 0.15 0.14 0.13 0.13 0.13 0.15 0.14 0.15 0.15 0.14 0.14 0.16 0.15 0.17 0.21 0.22 0.19 0.21 0.19 0.16 0.14
0.35 0.30 0.25 0.23 0.21 0.19 0.16 0.14 0.15 0.16 0.15 0.16 0.18 0.18 0.22 0.29 0.24 0.19 0.18 0.17 0.17 0.19 0.20 0.22 0.21 0.18 0.17 0.21 0.22 0.21 0.17 0.16 0.17 0.18 0.14 0.13 0.16 0.18 0.20 0.19 0.19 0.19 0.16
0.20 0.18 0.14 0.12 0.12 0.11 0.12 0.14 0.18 0.19 0.18 0.20 0.19 0.16 0.14 0.20 0.20 0.19 0.17 0.16 0.16 0.18 0.18 0.22 0.21 0.16 0.12 0.14 0.19 0.24 0.23 0.16 0.17 0.22 0.22 0.17 0.15 0.16 0.18 0.19 0.19 0.21 0.18
0.12 0.11 0.12 0.12 0.13 0.16 0.16 0.18 0.22 0.27 0.30 0.27 0.22 0.22 0.20 0.19 0.21 0.20 0.17 0.16 0.15 0.13 0.12 0.15 0.16 0.15 0.13 0.13 0.15 0.18 0.19 0.17 0.22 0.24 0.30 0.26 0.15 0.13 0.18 0.19 0.17 0.16 0.17
0.12 0.15 0.17 0.20 0.23 0.27 0.30 0.31 0.28 0.22 0.21 0.23 0.22 0.21 0.17 0.16 0.16 0.17 0.17 0.16 0.14 0.12 0.11 0.11 0.10 0.08 0.08 0.12 0.12 0.09 0.11 0.18 0.25 0.27 0.31 0.24 0.17 0.15 0.18 0.20 0.18 0.18 0.16
0.15 0.18 0.20 0.22 0.27 0.27 0.28 0.24 0.20 0.17 0.18 0.17 0.17 0.16 0.14 0.13 0.11 0.10 0.10 0.11 0.12 0.11 0.08 0.08 0.08 0.07 0.08 0.09 0.13 0.13 0.10 0.14 0.19 0.24 0.33 0.29 0.20 0.16 0.18 0.21 0.21 0.22 0.15

GFSGL_prec_precacc_102.txt.gz
Total_Precipitation_Accumulation
0.28 0.19 0.14 0.24 0.28 0.67 1.04 1.08 0.94 0.97 1.09 0.98 0.81 0.72 0.78 0.85 0.85 0.70 0.50 0.49 0.48 0.38 0.40 0.44 0.41 0.57 0.68 0.59 0.64 0.65 0.59 0.60 0.50 0.20 0.10 0.05 0.04 0.01 0.01 0.01 0.02 0.05 0.06
0.93 1.03 0.78 0.97 1.03 1.14 1.52 1.49 1.26 1.13 0.93 0.83 0.94 0.86 0.69 0.57 0.48 0.42 0.36 0.31 0.31 0.34 0.36 0.48 0.36 0.44 0.41 0.33 0.35 0.26 0.23 0.23 0.27 0.16 0.10 0.06 0.05 0.05 0.05 0.06 0.06 0.04 0.03
1.34 1.41 1.13 1.35 1.36 1.65 1.51 1.33 1.20 1.09 1.02 0.89 0.70 0.54 0.39 0.32 0.27 0.24 0.22 0.23 0.21 0.19 0.19 0.22 0.20 0.25 0.16 0.14 0.16 0.15 0.12 0.15 0.20 0.27 0.24 0.23 0.21 0.16 0.14 0.09 0.06 0.05 0.07
0.54 0.51 0.76 0.82 0.67 0.64 0.47 0.48 0.43 0.45 0.40 0.31 0.28 0.28 0.27 0.23 0.19 0.19 0.17 0.16 0.16 0.16 0.16 0.17 0.14 0.14 0.09 0.11 0.14 0.15 0.18 0.21 0.27 0.34 0.34 0.29 0.25 0.20 0.17 0.16 0.16 0.14 0.14
0.34 0.32 0.36 0.38 0.37 0.27 0.23 0.22 0.27 0.31 0.30 0.30 0.28 0.23 0.20 0.20 0.22 0.20 0.15 0.13 0.12 0.13 0.13 0.13 0.12 0.19 0.20 0.18 0.18 0.17 0.21 0.28 0.34 0.37 0.32 0.29 0.28 0.29 0.29 0.25 0.27 0.25 0.27
0.37 0.36 0.27 0.28 0.26 0.26 0.28 0.22 0.22 0.23 0.19 0.18 0.21 0.23 0.20 0.18 0.30 0.21 0.13 0.11 0.16 0.16 0.15 0.14 0.17 0.31 0.22 0.32 0.30 0.33 0.31 0.31 0.36 0.45 0.51 0.49 0.42 0.42 0.40 0.39 0.39 0.40 0.39
0.44 0.36 0.26 0.22 0.18 0.14 0.10 0.11 0.10 0.17 0.26 0.31 0.27 0.21 0.15 0.16 0.28 0.16 0.17 0.08 0.08 0.13 0.15 0.16 0.17 0.22 0.31 0.14 0.33 0.34 0.37 0.51 0.54 0.56 0.62 0.54 0.54 0.49 0.47 0.45 0.41 0.40 0.34
0.18 0.21 0.26 0.17 0.12 0.09 0.09 0.16 0.22 0.28 0.27 0.19 0.12 0.09 0.09 0.16 0.22 0.12 0.13 0.08 0.10 0.15 0.18 0.19 0.23 0.27 0.37 0.40 0.41 0.42 0.36 0.34 0.35 0.37 0.44 0.42 0.38 0.34 0.31 0.32 0.34 0.35 0.22
0.15 0.21 0.23 0.21 0.19 0.19 0.28 0.40 0.35 0.18 0.10 0.07 0.07 0.06 0.08 0.11 0.18 0.12 0.11 0.09 0.16 0.20 0.21 0.26 0.33 0.33 0.63 0.50 0.38 0.38 0.35 0.33 0.37 0.32 0.28 0.28 0.29 0.29 0.29 0.41 0.46 0.52 0.41
0.10 0.16 0.25 0.23 0.36 0.41 0.38 0.21 0.15 0.12 0.10 0.10 0.12 0.11 0.18 0.11 0.25 0.17 0.13 0.08 0.17 0.19 0.18 0.25 0.47 0.28 0.48 0.42 0.44 0.42 0.47 0.34 0.33 0.36 0.36 0.31 0.28 0.30 0.29 0.38 0.47 0.62 0.47
0.05 0.21 0.36 0.38 0.28 0.20 0.22 0.18 0.16 0.15 0.16 0.21 0.23 0.19 0.17 0.24 0.26 0.28 0.20 0.11 0.18 0.25 0.27 0.27 0.42 0.73 0.51 0.44 0.41 0.50 0.65 0.57 0.59 0.52 0.46 0.41 0.35 0.32 0.29 0.28 0.30 0.43 0.48
0.15 0.15 0.15 0.25 0.27 0.26 0.22 0.21 0.20 0.22 0.24 0.26 0.32 0.38 0.38 0.38 0.59 0.47 0.44 0.51 0.53 0.41 0.45 0.50 0.76 0.71 0.52 0.51 0.52 0.63 0.61 0.56 0.60 0.65 0.62 0.53 0.49 0.42 0.31 0.25 0.27 0.30 0.28
0.12 0.16 0.19 0.20 0.24 0.31 0.36 0.36 0.35 0.35 0.35 0.33 0.36 0.50 0.57 0.60 0.82 0.93 0.78 0.87 0.92 0.79 0.96 1.10 1.08 0.93 0.78 0.82 0.89 0.89 0.84 0.90 0.93 0.88 0.73 0.56 0.42 0.31 0.29 0.30 0.28 0.24 0.26
0.05 0.07 0.11 0.15 0.23 0.26 0.31 0.37 0.47 0.57 0.71 0.83 0.90 0.91 0.86 0.79 0.83 0.99 1.14 1.17 1.31 1.54 1.83 1.95 1.88 1.71 1.63 1.60 1.47 1.27 1.14 0.99 0.80 0.65 0.45 0.30 0.26 0.26 0.34 0.38 0.52 0.43 0.47
0.05 0.05 0.09 0.14 0.17 0.18 0.27 0.42 0.47 0.66 0.83 0.87 0.99 1.11 1.24 1.39 1.58 1.64 1.61 1.62 1.74 1.71 1.75 1.87 1.72 1.47 1.22 0.99 0.78 0.58 0.43 0.33 0.33 0.30 0.32 0.29 0.29 0.32 0.33 0.30 0.38 0.38 0.46
0.18 0.16 0.17 0.14 0.20 0.28 0.35 0.53 0.80 0.92 0.96 1.05 1.19 1.25 1.60 1.73 1.83 1.69 1.63 1.63 1.55 1.36 1.28 1.09 0.88 0.72 0.59 0.45 0.34 0.24 0.19 0.19 0.16 0.19 0.23 0.22 0.26 0.32 0.36 0.35 0.35 0.37 0.35
0.58 0.58 0.60 0.56 0.51 0.52 0.58 0.68 1.04 1.44 1.54 1.67 1.69 1.63 1.55 1.61 1.46 1.28 1.09 0.95 0.86 0.72 0.78 0.64 0.56 0.48 0.37 0.27 0.26 0.27 0.30 0.29 0.26 0.29 0.31 0.31 0.33 0.33 0.36 0.32 0.31 0.29 0.30
1.17 1.25 1.29 1.47 1.55 1.59 1.59 1.57 1.47 1.44 1.35 1.31 1.22 1.04 0.91 0.82 0.79 0.76 0.66 0.60 0.61 0.47 0.44 0.39 0.35 0.31 0.27 0.28 0.27 0.27 0.24 0.23 0.22 0.20 0.23 0.23 0.24 0.25 0.26 0.25 0.28 0.31 0.28
0.71 0.89 0.95 0.95 0.88 0.79 0.78 0.79 0.79 0.76 0.71 0.68 0.61 0.53 0.49 0.40 0.34 0.31 0.27 0.39 0.38 0.34 0.31 0.31 0.29 0.24 0.18 0.17 0.20 0.20 0.22 0.21 0.19 0.19 0.17 0.18 0.21 0.24 0.21 0.17 0.16 0.14 0.15
0.65 0.69 0.59 0.58 0.61 0.56 0.50 0.45 0.42 0.39 0.37 0.35 0.34 0.36 0.28 0.19 0.17 0.16 0.20 0.26 0.28 0.23 0.18 0.16 0.16 0.17 0.17 0.16 0.16 0.18 0.18 0.15 0.16 0.17 0.19 0.21 0.21 0.21 0.23 0.22 0.20 0.19 0.12
0.64 0.62 0.49 0.41 0.37 0.34 0.30 0.26 0.24 0.27 0.25 0.21 0.17 0.13 0.13 0.24 0.27 0.25 0.25 0.24 0.20 0.17 0.15 0.14 0.13 0.13 0.13 0.15 0.14 0.15 0.15 0.14 0.14 0.16 0.15 0.17 0.21 0.22 0.19 0.21 0.19 0.16 0.14
0.37 0.32 0.27 0.25 0.23 0.21 0.18 0.16 0.16 0.16 0.15 0.16 0.18 0.18 0.22 0.29 0.24 0.19 0.18 0.17 0.17 0.19 0.20 0.22 0.21 0.18 0.17 0.21 0.22 0.21 0.17 0.16 0.17 0.18 0.14 0.13 0.16 0.18 0.20 0.19 0.19 0.19 0.16
0.23 0.21 0.17 0.15 0.14 0.13 0.14 0.15 0.18 0.19 0.18 0.20 0.19 0.16 0.14 0.20 0.20 0.19 0.17 0.16 0.16 0.18 0.18 0.22 0.21 0.16 0.12 0.14 0.19 0.24 0.23 0.16 0.17 0.22 0.22 0.17 0.15 0.16 0.18 0.19 0.19 0.21 0.18
0.15 0.13 0.14 0.13 0.14 0.16 0.16 0.18 0.22 0.27 0.30 0.27 0.22 0.22 0.20 0.19 0.21 0.20 0.17 0.16 0.15 0.13 0.12 0.15 0.16 0.15 0.13 0.13 0.15 0.18 0.19 0.17 0.22 0.24 0.30 0.26 0.15 0.13 0.18 0.19 0.17 0.16 0.17
0.13 0.16 0.17 0.20 0.23 0.27 0.30 0.31 0.28 0.22 0.21 0.23 0.22 0.21 0.17 0.16 0.16 0.17 0.17 0.16 0.14 0.12 0.11 0.11 0.10 0.08 0.08 0.12 0.12 0.09 0.11 0.18 0.25 0.27 0.31 0.24 0.17 0.15 0.18 0.20 0.18 0.18 0.16
0.15 0.18 0.20 0.22 0.27 0.27 0.28 0.24 0.20 0.17 0.18 0.17 0.17 0.16 0.14 0.13 0.11 0.10 0.10 0.11 0.12 0.11 0.08 0.08 0.08 0.07 0.08 0.09 0.13 0.13 0.10 0.14 0.19 0.24 0.33 0.29 0.20 0.16 0.18 0.21 0.21 0.22 0.15

GFSGL_prec_precacc_105.txt.gz
Total_Precipitation_Accumulation
0.28 0.19 0.14 0.24 0.28 0.67 1.04 1.08 0.94 0.97 1.09 0.98 0.81 0.72 0.79 0.88 0.93 0.79 0.55 0.51 0.52 0.45 0.50 0.53 0.45 0.58 0.69 0.59 0.65 0.66 0.59 0.61 0.51 0.21 0.11 0.06 0.04 0.01 0.01 0.01 0.02 0.05 0.06
0.95 1.04 0.79 0.97 1.03 1.14 1.52 1.49 1.26 1.13 0.93 0.83 0.94 0.86 0.69 0.57 0.49 0.45 0.39 0.34 0.32 0.35 0.38 0.49 0.37 0.46 0.42 0.33 0.36 0.27 0.24 0.25 0.28 0.17 0.10 0.07 0.06 0.05 0.05 0.06 0.06 0.04 0.03
1.34 1.41 1.14 1.35 1.36 1.65 1.51 1.33 1.20 1.09 1.02 0.89 0.70 0.54 0.39 0.32 0.28 0.27 0.24 0.24 0.22 0.21 0.21 0.23 0.20 0.26 0.17 0.14 0.17 0.15 0.13 0.18 0.24 0.29 0.25 0.24 0.21 0.16 0.14 0.09 0.06 0.05 0.07
0.55 0.52 0.76 0.82 0.67 0.64 0.47 0.48 0.43 0.45 0.40 0.31 0.28 0.28 0.27 0.23 0.19 0.20 0.18 0.17 0.17 0.17 0.17 0.17 0.14 0.14 0.09 0.12 0.15 0.16 0.20 0.24 0.30 0.36 0.35 0.29 0.25 0.20 0.17 0.16 0.16 0.14 0.14
0.38 0.34 0.36 0.38 0.37 0.27 0.23 0.22 0.27 0.31 0.30 0.30 0.28 0.23 0.20 0.20 0.22 0.21 0.15 0.13 0.12 0.13 0.13 0.13 0.12 0.19 0.20 0.18 0.18 0.17 0.23 0.31 0.37 0.41 0.37 0.32 0.29 0.29 0.29 0.25 0.27 0.26 0.29
0.45 0.44 0.31 0.28 0.26 0.26 0.28 0.22 0.22 0.23 0.19 0.18 0.21 0.23 0.20 0.18 0.31 0.21 0.14 0.12 0.16 0.16 0.15 0.14 0.17 0.31 0.22 0.32 0.31 0.34 0.32 0.32 0.37 0.47 0.54 0.53 0.46 0.45 0.45 0.45 0.45 0.44 0.41
0.53 0.43 0.29 0.23 0.18 0.14 0.10 0.11 0.10 0.17 0.26 0.31 0.27 0.21 0.15 0.16 0.28 0.16 0.17 0.08 0.08 0.13 0.15 0.16 0.17 0.22 0.31 0.14 0.33 0.35 0.38 0.53 0.57 0.57 0.65 0.59 0.61 0.56 0.52 0.49 0.44 0.45 0.42
0.27 0.28 0.27 0.18 0.13 0.09 0.09 0.16 0.22 0.28 0.27 0.19 0.12 0.09 0.09 0.16 0.22 0.12 0.13 0.08 0.10 0.15 0.18 0.19 0.23 0.27 0.37 0.40 0.41 0.42 0.36 0.35 0.35 0.37 0.44 0.42 0.39 0.35 0.32 0.35 0.41 0.44 0.34
0.28 0.38 0.36 0.27 0.22 0.20 0.28 0.40 0.35 0.18 0.10 0.07 0.07 0.06 0.08 0.11 0.19 0.13 0.12 0.09 0.16 0.20 0.21 0.26 0.33 0.33 0.63 0.50 0.38 0.38 0.35 0.33 0.38 0.33 0.29 0.29 0.31 0.32 0.32 0.44 0.50 0.57 0.47
0.15 0.18 0.27 0.27 0.40 0.43 0.40 0.23 0.16 0.13 0.11 0.10 0.13 0.11 0.19 0.11 0.26 0.17 0.13 0.08 0.17 0.19 0.19 0.26 0.49 0.30 0.49 0.43 0.44 0.42 0.47 0.35 0.34 0.38 0.38 0.35 0.32 0.35 0.35 0.43 0.53 0.69 0.55
0.06 0.22 0.36 0.39 0.28 0.21 0.23 0.20 0.19 0.18 0.20 0.25 0.27 0.23 0.20 0.27 0.29 0.31 0.23 0.13 0.18 0.27 0.32 0.33 0.48 0.88 0.62 0.55 0.49 0.55 0.78 0.70 0.73 0.61 0.54 0.49 0.43 0.40 0.39 0.38 0.40 0.52 0.56
0.15 0.15 0.15 0.25 0.27 0.26 0.22 0.22 0.21 0.26 0.29 0.31 0.37 0.43 0.43 0.42 0.66 0.52 0.50 0.72 0.88 0.79 0.81 0.78 0.99 0.90 0.68 0.67 0.67 0.82 0.79 0.66 0.65 0.72 0.71 0.64 0.61 0.53 0.40 0.33 0.34 0.34 0.31
0.12 0.16 0.19 0.20 0.24 0.31 0.36 0.37 0.36 0.38 0.40 0.37 0.41 0.54 0.61 0.62 0.85 0.98 0.80 0.91 1.02 1.02 1.36 1.54 1.53 1.33 1.13 1.18 1.25 1.22 1.13 1.15 1.19 1.18 1.06 0.86 0.67 0.48 0.41 0.38 0.32 0.25 0.27
0.05 0.07 0.11 0.15 0.23 0.26 0.32 0.37 0.47 0.59 0.73 0.85 0.93 0.95 0.90 0.84 0.88 1.06 1.25 1.32 1.48 1.71 2.05 2.26 2.29 2.17 2.07 2.05 1.95 1.76 1.61 1.42 1.18 0.97 0.69 0.46 0.36 0.32 0.38 0.40 0.54 0.44 0.47
0.05 0.05 0.09 0.14 0.17 0.18 0.28 0.43 0.48 0.68 0.84 0.89 1.00 1.12 1.27 1.43 1.66 1.72 1.69 1.71 1.83 1.80 1.85 1.98 1.86 1.64 1.42 1.21 1.02 0.82 0.65 0.50 0.45 0.40 0.39 0.33 0.32 0.34 0.34 0.31 0.38 0.38 0.46
0.18 0.16 0.17 0.14 0.20 0.29 0.35 0.54 0.82 0.94 0.97 1.06 1.21 1.27 1.63 1.75 1.84 1.69 1.64 1.65 1.58 1.40 1.31 1.14 0.96 0.81 0.68 0.54 0.43 0.31 0.25 0.25 0.20 0.22 0.26 0.23 0.27 0.32 0.36 0.35 0.35 0.37 0.35
0.58 0.58 0.60 0.56 0.51 0.53 0.58 0.68 1.05 1.46 1.55 1.69 1.70 1.64 1.56 1.62 1.46 1.28 1.09 0.96 0.87 0.73 0.79 0.66 0.60 0.52 0.41 0.30 0.28 0.28 0.31 0.30 0.27 0.29 0.31 0.31 0.33 0.33 0.36 0.32 0.31 0.29 0.30
1.17 1.25 1.29 1.48 1.55 1.59 1.59 1.57 1.47 1.44 1.36 1.33 1.25 1.06 0.93 0.84 0.80 0.76 0.66 0.60 0.61 0.47 0.44 0.39 0.35 0.31 0.27 0.28 0.27 0.27 0.24 0.23 0.22 0.20 0.23 0.23 0.24 0.25 0.26 0.25 0.28 0.31 0.28
0.71 0.89 0.95 0.95 0.88 0.79 0.78 0.79 0.79 0.76 0.71 0.69 0.62 0.54 0.50 0.40 0.35 0.31 0.27 0.39 0.38 0.34 0.31 0.31 0.29 0.24 0.18 0.17 0.20 0.20 0.22 0.21 0.19 0.19 0.17 0.18 0.21 0.24 0.21 0.17 0.16 0.14 0.15
0.65 0.70 0.59 0.58 0.61 0.56 0.50 0.45 0.42 0.39 0.38 0.35 0.35 0.37 0.28 0.19 0.17 0.16 0.20 0.26 0.28 0.23 0.18 0.16 0.16 0.17 0.17 0.16 0.16 0.18 0.18 0.15 0.16 0.17 0.19 0.21 0.21 0.21 0.23 0.22 0.20 0.19 0.12
0.65 0.62 0.50 0.41 0.38 0.35 0.30 0.27 0.25 0.27 0.26 0.22 0.18 0.14 0.13 0.24 0.27 0.25 0.25 0.24 0.20 0.17 0.15 0.14 0.13 0.13 0.13 0.15 0.14 0.15 0.15 0.14 0.14 0.16 0.15 0.17 0.21 0.22 0.19 0.21 0.19 0.16 0.14
0.38 0.32 0.28 0.26 0.24 0.22 0.19 0.16 0.16 0.16 0.15 0.16 0.18 0.18 0.22 0.29 0.24 0.19 0.18 0.17 0.17 0.19 0.20 0.22 0.21 0.18 0.17 0.21 0.22 0.21 0.17 0.16 0.17 0.18 0.14 0.13 0.16 0.18 0.20 0.19 0.19 0.19 0.16
0.23 0.21 0.17 0.15 0.15 0.13 0.14 0.15 0.18 0.19 0.18 0.20 0.19 0.16 0.14 0.20 0.20 0.19 0.17 0.16 0.16 0.18 0.18 0.22 0.21 0.16 0.12 0.14 0.19 0.24 0.23 0.16 0.17 0.22 0.22 0.17 0.15 0.16 0.18 0.19 0.19 0.21 0.18
0.15 0.14 0.14 0.14 0.14 0.16 0.16 0.18 0.22 0.27 0.30 0.27 0.22 0.22 0.20 0.19 0.21 0.20 0.17 0.16 0.15 0.13 0.12 0.15 0.16 0.15 0.13 0.13 0.15 0.18 0.19 0.17 0.22 0.24 0.30 0.26 0.15 0.13 0.18 0.19 0.17 0.16 0.17
0.13 0.16 0.17 0.20 0.23 0.27 0.30 0.31 0.28 0.22 0.21 0.23 0.22 0.21 0.17 0.16 0.16 0.17 0.17 0.16 0.14 0.12 0.11 0.11 0.10 0.08 0.08 0.12 0.12 0.09 0.11 0.18 0.25 0.27 0.31 0.24 0.17 0.15 0.18 0.20 0.18 0.18 0.16
0.15 0.18 0.20 0.22 0.27 0.27 0.28 0.24 0.20 0.17 0.18 0.17 0.17 0.16 0.14 0.13 0.11 0.10 0.10 0.11 0.12 0.11 0.08 0.08 0.08 0.07 0.08 0.09 0.13 0.13 0.10 0.14 0.19 0.24 0.33 0.29 0.20 0.16 0.18 0.21 0.21 0.22 0.15

GFSGL_prec_precacc_108.txt.gz
Total_Precipitation_Accumulation
0.28 0.20 0.14 0.24 0.28 0.67 1.04 1.08 0.94 0.97 1.09 0.99 0.82 0.73 0.79 0.89 0.95 0.82 0.60 0.57 0.56 0.48 0.53 0.57 0.51 0.65 0.71 0.60 0.66 0.66 0.59 0.61 0.51 0.22 0.14 0.07 0.04 0.02 0.01 0.02 0.02 0.05 0.06
0.95 1.04 0.79 0.97 1.03 1.14 1.52 1.49 1.26 1.13 0.93 0.84 0.94 0.86 0.69 0.58 0.52 0.49 0.44 0.43 0.37 0.37 0.39 0.51 0.41 0.51 0.46 0.35 0.38 0.28 0.25 0.26 0.29 0.18 0.12 0.10 0.07 0.05 0.06 0.07 0.07 0.04 0.03
1.35 1.42 1.14 1.35 1.36 1.65 1.51 1.33 1.20 1.09 1.02 0.89 0.71 0.54 0.39 0.33 0.28 0.28 0.26 0.27 0.28 0.24 0.23 0.25 0.22 0.30 0.19 0.16 0.17 0.16 0.15 0.19 0.26 0.33 0.29 0.29 0.25 0.18 0.18 0.14 0.09 0.06 0.07
0.56 0.55 0.80 0.86 0.67 0.64 0.47 0.48 0.43 0.45 0.41 0.31 0.29 0.28 0.27 0.23 0.19 0.20 0.18 0.17 0.18 0.18 0.18 0.18 0.16 0.17 0.11 0.13 0.17 0.17 0.21 0.25 0.32 0.38 0.36 0.31 0.29 0.23 0.20 0.21 0.22 0.19 0.18
0.47 0.42 0.43 0.40 0.37 0.27 0.23 0.22 0.27 0.31 0.30 0.30 0.28 0.23 0.20 0.20 0.22 0.21 0.16 0.13 0.13 0.13 0.14 0.13 0.12 0.19 0.21 0.18 0.19 0.18 0.23 0.31 0.39 0.44 0.38 0.33 0.31 0.31 0.30 0.29 0.35 0.36 0.42
0.55 0.52 0.36 0.29 0.26 0.26 0.28 0.22 0.22 0.23 0.19 0.18 0.21 0.23 0.21 0.18 0.31 0.22 0.14 0.12 0.17 0.16 0.16 0.14 0.18 0.33 0.22 0.33 0.32 0.35 0.34 0.34 0.40 0.50 0.57 0.57 0.49 0.50 0.49 0.52 0.56 0.57 0.59
0.63 0.50 0.33 0.23 0.18 0.14 0.10 0.11 0.10 0.17 0.26 0.31 0.27 0.22 0.15 0.16 0.28 0.16 0.17 0.08 0.09 0.13 0.15 0.16 0.18 0.23 0.33 0.15 0.34 0.36 0.39 0.55 0.60 0.62 0.71 0.65 0.65 0.58 0.55 0.53 0.50 0.52 0.50
0.36 0.33 0.30 0.18 0.13 0.09 0.09 0.16 0.22 0.28 0.27 0.19 0.12 0.09 0.09 0.16 0.23 0.12 0.13 0.08 0.11 0.15 0.18 0.19 0.23 0.28 0.38 0.42 0.42 0.43 0.37 0.36 0.37 0.38 0.45 0.44 0.40 0.36 0.33 0.35 0.42 0.48 0.39
0.36 0.41 0.40 0.30 0.22 0.20 0.28 0.40 0.35 0.18 0.10 0.07 0.07 0.06 0.08 0.12 0.20 0.13 0.12 0.09 0.17 0.21 0.22 0.28 0.35 0.35 0.63 0.51 0.38 0.38 0.35 0.34 0.40 0.35 0.30 0.30 0.32 0.32 0.33 0.44 0.51 0.58 0.49
0.36 0.36 0.36 0.34 0.44 0.46 0.41 0.23 0.17 0.14 0.12 0.11 0.13 0.12 0.20 0.12 0.27 0.18 0.14 0.08 0.17 0.19 0.19 0.26 0.50 0.31 0.50 0.45 0.45 0.42 0.47 0.35 0.35 0.38 0.39 0.36 0.33 0.38 0.39 0.47 0.57 0.77 0.66
0.20 0.30 0.42 0.41 0.31 0.22 0.24 0.21 0.21 0.20 0.22 0.26 0.30 0.24 0.22 0.30 0.31 0.34 0.24 0.15 0.19 0.27 0.33 0.35 0.53 0.96 0.69 0.63 0.58 0.62 0.87 0.77 0.79 0.65 0.58 0.56 0.52 0.50 0.49 0.48 0.49 0.62 0.66
0.23 0.15 0.15 0.25 0.27 0.26 0.22 0.22 0.22 0.28 0.33 0.35 0.41 0.46 0.46 0.45 0.71 0.56 0.56 0.84 1.09 0.97 1.04 1.00 1.19 1.10 0.93 0.98 1.00 1.17 1.11 0.94 0.92 0.98 0.94 0.86 0.80 0.70 0.54 0.44 0.43 0.41 0.36
0.12 0.16 0.19 0.20 0.24 0.31 0.36 0.37 0.36 0.39 0.43 0.39 0.44 0.58 0.63 0.65 0.89 1.03 0.83 0.94 1.09 1.10 1.47 1.69 1.71 1.50 1.28 1.32 1.42 1.46 1.44 1.51 1.55 1.50 1.36 1.14 0.89 0.66 0.55 0.49 0.40 0.31 0.31
0.05 0.07 0.11 0.15 0.23 0.26 0.32 0.38 0.48 0.59 0.74 0.87 0.96 0.98 0.93 0.86 0.90 1.09 1.29 1.36 1.52 1.78 2.14 2.34 2.36 2.25 2.16 2.15 2.07 1.89 1.75 1.59 1.36 1.15 0.87 0.62 0.51 0.46 0.49 0.49 0.61 0.49 0.50
0.05 0.05 0.09 0.14 0.17 0.19 0.28 0.43 0.49 0.69 0.86 0.89 1.00 1.13 1.27 1.45 1.69 1.73 1.70 1.73 1.84 1.82 1.87 2.00 1.87 1.65 1.43 1.23 1.03 0.84 0.67 0.54 0.49 0.44 0.43 0.37 0.35 0.36 0.36 0.32 0.39 0.38 0.47
0.18 0.16 0.18 0.14 0.20 0.29 0.35 0.55 0.84 0.94 0.97 1.07 1.21 1.27 1.65 1.78 1.86 1.70 1.64 1.65 1.58 1.40 1.31 1.14 0.96 0.82 0.69 0.55 0.43 0.32 0.26 0.25 0.20 0.22 0.26 0.23 0.27 0.32 0.36 0.35 0.35 0.37 0.35
0.58 0.59 0.60 0.57 0.52 0.53 0.58 0.69 1.07 1.47 1.56 1.70 1.71 1.65 1.57 1.64 1.47 1.29 1.09 0.96 0.87 0.73 0.79 0.67 0.60 0.52 0.41 0.30 0.28 0.28 0.31 0.30 0.27 0.29 0.31 0.31 0.33 0.33 0.36 0.32 0.31 0.29 0.30
1.18 1.25 1.29 1.48 1.56 1.59 1.59 1.57 1.47 1.44 1.36 1.34 1.26 1.08 0.94 0.84 0.80 0.77 0.67 0.60 0.61 0.47 0.44 0.39 0.35 0.31 0.27 0.28 0.27 0.27 0.24 0.23 0.22 0.20 0.23 0.23 0.24 0.25 0.26 0.25 0.28 0.31 0.28
0.71 0.89 0.95 0.95 0.88 0.79 0.78 0.79 0.79 0.77 0.71 0.70 0.63 0.55 0.51 0.41 0.35 0.31 0.27 0.39 0.38 0.34 0.31 0.31 0.29 0.24 0.18 0.17 0.20 0.20 0.22 0.21 0.19 0.19 0.17 0.18 0.21 0.24 0.21 0.17 0.16 0.14 0.15
0.66 0.70 0.59 0.58 0.61 0.56 0.50 0.45 0.42 0.39 0.38 0.35 0.35 0.38 0.28 0.19 0.17 0.16 0.20 0.26 0.28 0.23 0.18 0.16 0.16 0.17 0.17 0.16 0.16 0.18 0.18 0.15 0.16 0.17 0.19 0.21 0.21 0.21 0.23 0.22 0.20 0.19 0.12
0.65 0.62 0.50 0.42 0.38 0.35 0.30 0.27 0.25 0.27 0.26 0.22 0.18 0.14 0.13 0.24 0.27 0.25 0.25 0.24 0.20 0.17 0.15 0.14 0.13 0.13 0.13 0.15 0.14 0.15 0.15 0.14 0.14 0.16 0.15 0.17 0.21 0.22 0.19 0.21 0.19 0.16 0.14
0.38 0.33 0.28 0.26 0.24 0.22 0.19 0.16 0.17 0.16 0.15 0.16 0.18 0.18 0.22 0.29 0.24 0.19 0.18 0.17 0.17 0.19 0.20 0.22 0.21 0.18 0.17 0.21 0.22 0.21 0.17 0.16 0.17 0.18 0.14 0.13 0.16 0.18 0.20 0.19 0.19 0.19 0.16
0.24 0.22 0.18 0.16 0.15 0.14 0.14 0.15 0.18 0.19 0.18 0.20 0.19 0.16 0.14 0.20 0.20 0.19 0.17 0.16 0.16 0.18 0.18 0.22 0.21 0.16 0.12 0.14 0.19 0.24 0.23 0.16 0.17 0.22 0.22 0.17 0.15 0.16 0.18 0.19 0.19 0.21 0.18
0.16 0.15 0.15 0.14 0.14 0.16 0.16 0.18 0.22 0.27 0.30 0.27 0.22 0.22 0.20 0.19 0.21 0.20 0.18 0.16 0.15 0.13 0.12 0.15 0.16 0.15 0.13 0.14 0.15 0.18 0.19 0.17 0.22 0.24 0.30 0.26 0.15 0.13 0.18 0.19 0.17 0.16 0.17
0.14 0.16 0.17 0.20 0.23 0.27 0.30 0.31 0.28 0.22 0.21 0.23 0.22 0.21 0.17 0.16 0.16 0.17 0.17 0.16 0.14 0.12 0.11 0.11 0.10 0.08 0.09 0.12 0.13 0.10 0.11 0.18 0.25 0.27 0.31 0.24 0.17 0.15 0.18 0.20 0.18 0.18 0.16
0.15 0.18 0.20 0.22 0.27 0.27 0.28 0.24 0.20 0.17 0.18 0.17 0.17 0.16 0.14 0.13 0.11 0.10 0.10 0.11 0.12 0.11 0.08 0.08 0.08 0.07 0.08 0.09 0.13 0.13 0.10 0.14 0.19 0.24 0.33 0.29 0.20 0.16 0.18 0.21 0.21 0.22 0.15

GFSGL_prec_precacc_111.txt.gz
Total_Precipitation_Accumulation
0.28 0.20 0.15 0.24 0.28 0.67 1.04 1.08 0.94 0.97 1.09 0.99 0.83 0.73 0.79 0.90 0.97 0.85 0.62 0.60 0.64 0.65 0.68 0.69 0.61 0.73 0.77 0.64 0.68 0.67 0.59 0.61 0.52 0.23 0.15 0.12 0.10 0.08 0.09 0.08 0.07 0.11 0.11
0.96 1.05 0.79 0.97 1.04 1.14 1.52 1.49 1.26 1.13 0.93 0.84 0.95 0.87 0.69 0.59 0.52 0.50 0.47 0.47 0.42 0.48 0.52 0.62 0.50 0.59 0.53 0.38 0.42 0.29 0.25 0.26 0.30 0.18 0.12 0.13 0.10 0.08 0.09 0.12 0.14 0.09 0.04
1.36 1.42 1.15 1.36 1.37 1.66 1.51 1.33 1.20 1.09 1.02 0.89 0.71 0.55 0.40 0.34 0.30 0.30 0.29 0.31 0.38 0.36 0.37 0.34 0.29 0.34 0.26 0.21 0.21 0.18 0.16 0.20 0.27 0.33 0.30 0.30 0.29 0.27 0.28 0.21 0.12 0.09 0.09
0.58 0.56 0.82 0.90 0.72 0.66 0.47 0.48 0.43 0.45 0.41 0.31 0.29 0.28 0.27 0.23 0.20 0.21 0.20 0.19 0.21 0.25 0.27 0.25 0.22 0.20 0.15 0.21 0.24 0.23 0.26 0.29 0.35 0.40 0.37 0.31 0.29 0.26 0.27 0.29 0.28 0.24 0.25
0.49 0.45 0.48 0.47 0.42 0.29 0.23 0.22 0.27 0.31 0.30 0.30 0.28 0.23 0.20 0.21 0.22 0.21 0.16 0.13 0.13 0.14 0.15 0.16 0.14 0.21 0.24 0.22 0.22 0.20 0.27 0.36 0.43 0.46 0.39 0.33 0.31 0.32 0.31 0.31 0.46 0.49 0.54
0.61 0.60 0.46 0.41 0.33 0.28 0.28 0.22 0.23 0.23 0.19 0.18 0.21 0.23 0.21 0.18 0.31 0.22 0.14 0.12 0.17 0.16 0.16 0.14 0.18 0.35 0.23 0.33 0.32 0.36 0.36 0.37 0.41 0.51 0.58 0.58 0.50 0.51 0.51 0.54 0.63 0.71 0.73
0.73 0.65 0.48 0.37 0.24 0.15 0.10 0.12 0.11 0.17 0.26 0.31 0.27 0.22 0.15 0.16 0.28 0.16 0.17 0.08 0.09 0.13 0.15 0.16 0.18 0.23 0.33 0.15 0.35 0.37 0.40 0.56 0.60 0.62 0.72 0.65 0.65 0.59 0.56 0.55 0.54 0.61 0.62
0.52 0.50 0.44 0.25 0.14 0.09 0.09 0.16 0.22 0.28 0.27 0.19 0.12 0.09 0.09 0.16 0.23 0.12 0.13 0.08 0.11 0.15 0.18 0.19 0.23 0.28 0.38 0.43 0.42 0.44 0.38 0.36 0.37 0.39 0.46 0.44 0.41 0.37 0.34 0.37 0.45 0.53 0.45
0.45 0.49 0.45 0.34 0.23 0.20 0.29 0.41 0.35 0.18 0.10 0.07 0.07 0.07 0.08 0.12 0.20 0.13 0.12 0.09 0.17 0.21 0.22 0.28 0.36 0.35 0.65 0.53 0.39 0.40 0.40 0.39 0.46 0.40 0.33 0.34 0.36 0.37 0.37 0.47 0.53 0.61 0.55
0.48 0.48 0.47 0.43 0.49 0.47 0.41 0.23 0.17 0.14 0.12 0.11 0.13 0.12 0.20 0.12 0.27 0.18 0.14 0.08 0.17 0.21 0.22 0.29 0.52 0.31 0.52 0.47 0.46 0.42 0.47 0.36 0.36 0.41 0.42 0.38 0.34 0.39 0.42 0.48 0.59 0.80 0.73
0.53 0.53 0.73 0.62 0.43 0.28 0.27 0.24 0.23 0.22 0.23 0.26 0.31 0.25 0.23 0.31 0.32 0.35 0.24 0.15 0.19 0.27 0.34 0.38 0.57 1.05 0.75 0.72 0.66 0.70 1.02 0.91 0.94 0.74 0.64 0.61 0.56 0.54 0.54 0.53 0.55 0.70 0.78
0.75 0.61 0.41 0.57 0.49 0.38 0.29 0.26 0.24 0.30 0.36 0.37 0.42 0.47 0.48 0.46 0.73 0.57 0.58 0.89 1.15 1.05 1.17 1.16 1.35 1.29 1.17 1.27 1.27 1.43 1.36 1.14 1.07 1.11 1.09 1.03 0.99 0.88 0.70 0.58 0.54 0.51 0.46
0.46 0.49 0.47 0.40 0.36 0.40 0.44 0.41 0.37 0.39 0.44 0.41 0.46 0.60 0.65 0.66 0.92 1.09 0.89 1.03 1.19 1.17 1.55 1.79 1.83 1.64 1.44 1.49 1.61 1.65 1.61 1.65 1.70 1.65 1.49 1.25 0.98 0.73 0.60 0.53 0.44 0.35 0.34
0.10 0.13 0.16 0.22 0.28 0.28 0.33 0.39 0.48 0.60 0.75 0.89 0.98 1.01 0.94 0.87 0.90 1.10 1.31 1.39 1.57 1.83 2.21 2.42 2.43 2.31 2.21 2.22 2.14 1.96 1.82 1.66 1.41 1.19 0.90 0.64 0.52 0.46 0.49 0.50 0.62 0.50 0.51
0.05 0.05 0.09 0.14 0.17 0.19 0.28 0.44 0.49 0.70 0.87 0.90 1.01 1.14 1.28 1.45 1.70 1.74 1.71 1.73 1.85 1.83 1.88 2.02 1.89 1.66 1.44 1.24 1.04 0.85 0.68 0.54 0.49 0.44 0.43 0.37 0.35 0.36 0.36 0.32 0.39 0.38 0.47
0.18 0.16 0.18 0.14 0.20 0.29 0.35 0.57 0.86 0.96 0.99 1.09 1.23 1.28 1.67 1.79 1.88 1.72 1.65 1.67 1.59 1.40 1.31 1.15 0.97 0.82 0.69 0.55 0.43 0.32 0.26 0.25 0.20 0.22 0.26 0.23 0.27 0.32 0.36 0.35 0.35 0.37 0.35
0.59 0.59 0.61 0.57 0.52 0.53 0.59 0.69 1.08 1.48 1.56 1.71 1.72 1.66 1.57 1.64 1.47 1.29 1.09 0.96 0.87 0.73 0.79 0.67 0.61 0.52 0.41 0.30 0.28 0.28 0.31 0.30 0.27 0.29 0.31 0.31 0.33 0.33 0.36 0.32 0.31 0.29 0.30
1.18 1.25 1.30 1.48 1.56 1.60 1.60 1.58 1.48 1.45 1.37 1.35 1.28 1.08 0.94 0.85 0.81 0.77 0.67 0.60 0.61 0.47 0.44 0.39 0.35 0.31 0.27 0.28 0.27 0.27 0.24 0.23 0.22 0.20 0.23 0.23 0.24 0.25 0.26 0.25 0.28 0.31 0.28
0.71 0.90 0.96 0.96 0.88 0.79 0.79 0.79 0.79 0.77 0.72 0.71 0.64 0.56 0.52 0.41 0.35 0.31 0.27 0.39 0.38 0.34 0.31 0.31 0.29 0.24 0.18 0.17 0.20 0.20 0.22 0.21 0.19 0.19 0.17 0.18 0.21 0.24 0.21 0.17 0.16 0.14 0.15
0.66 0.70 0.59 0.59 0.61 0.57 0.51 0.45 0.43 0.40 0.38 0.36 0.36 0.39 0.29 0.19 0.17 0.16 0.20 0.26 0.28 0.23 0.18 0.16 0.16 0.17 0.17 0.16 0.16 0.18 0.18 0.15 0.16 0.17 0.19 0.21 0.21 0.21 0.23 0.22 0.20 0.19 0.12
0.66 0.63 0.51 0.42 0.38 0.35 0.31 0.27 0.25 0.27 0.26 0.22 0.18 0.14 0.13 0.24 0.27 0.25 0.25 0.24 0.20 0.17 0.15 0.14 0.13 0.13 0.13 0.15 0.14 0.15 0.15 0.14 0.14 0.16 0.15 0.17 0.21 0.22 0.19 0.21 0.19 0.16 0.14
0.39 0.33 0.29 0.27 0.25 0.22 0.19 0.16 0.17 0.16 0.15 0.16 0.18 0.18 0.22 0.29 0.24 0.19 0.18 0.17 0.17 0.19 0.20 0.22 0.21 0.18 0.17 0.21 0.22 0.21 0.17 0.16 0.17 0.18 0.14 0.13 0.16 0.18 0.20 0.19 0.19 0.19 0.16
0.25 0.23 0.19 0.16 0.16 0.14 0.14 0.15 0.18 0.19 0.18 0.20 0.19 0.16 0.14 0.20 0.20 0.19 0.17 0.16 0.16 0.18 0.18 0.22 0.21 0.16 0.12 0.14 0.19 0.24 0.23 0.16 0.17 0.22 0.22 0.17 0.15 0.16 0.18 0.19 0.19 0.21 0.18
0.16 0.16 0.15 0.15 0.15 0.16 0.16 0.18 0.22 0.27 0.30 0.27 0.22 0.22 0.20 0.19 0.21 0.20 0.18 0.16 0.15 0.13 0.12 0.15 0.16 0.15 0.13 0.14 0.16 0.18 0.19 0.18 0.22 0.24 0.30 0.26 0.15 0.13 0.18 0.19 0.17 0.16 0.17
0.14 0.17 0.18 0.20 0.23 0.27 0.30 0.31 0.28 0.22 0.21 0.23 0.22 0.21 0.17 0.16 0.16 0.17 0.17 0.16 0.14 0.12 0.11 0.11 0.10 0.08 0.09 0.12 0.13 0.10 0.11 0.18 0.25 0.27 0.31 0.24 0.17 0.15 0.18 0.20 0.18 0.18 0.16
0.15 0.18 0.20 0.22 0.27 0.27 0.28 0.24 0.20 0.17 0.19 0.17 0.17 0.16 0.14 0.13 0.11 0.10 0.10 0.11 0.12 0.11 0.08 0.08 0.08 0.07 0.08 0.09 0.13 0.13 0.10 0.14 0.19 0.24 0.33 0.29 0.20 0.16 0.19 0.22 0.21 0.22 0.15

GFSGL_prec_precacc_114.txt.gz
Total_Precipitation_Accumulation
0.28 0.20 0.15 0.24 0.28 0.68 1.04 1.08 0.94 0.97 1.09 0.99 0.83 0.73 0.79 0.90 0.97 0.85 0.63 0.60 0.65 0.65 0.68 0.72 0.69 0.84 0.89 0.74 0.75 0.72 0.62 0.61 0.52 0.24 0.16 0.17 0.17 0.16 0.13 0.12 0.14 0.20 0.15
0.96 1.05 0.79 0.98 1.04 1.16 1.53 1.49 1.26 1.13 0.93 0.84 0.95 0.87 0.70 0.59 0.52 0.51 0.48 0.49 0.45 0.51 0.55 0.67 0.62 0.77 0.70 0.52 0.50 0.34 0.28 0.27 0.30 0.19 0.13 0.16 0.14 0.13 0.11 0.13 0.16 0.16 0.11
1.36 1.43 1.15 1.36 1.38 1.68 1.53 1.34 1.20 1.09 1.02 0.89 0.71 0.55 0.40 0.34 0.30 0.30 0.30 0.32 0.40 0.41 0.43 0.39 0.36 0.46 0.40 0.38 0.35 0.25 0.19 0.22 0.27 0.34 0.30 0.30 0.30 0.28 0.29 0.23 0.16 0.10 0.10
0.59 0.58 0.83 0.91 0.74 0.69 0.50 0.49 0.43 0.45 0.41 0.31 0.29 0.28 0.27 0.23 0.21 0.21 0.20 0.20 0.23 0.30 0.39 0.36 0.31 0.28 0.25 0.33 0.39 0.32 0.31 0.33 0.37 0.41 0.39 0.33 0.30 0.27 0.27 0.30 0.31 0.28 0.28
0.53 0.49 0.50 0.49 0.44 0.32 0.26 0.23 0.28 0.31 0.30 0.30 0.28 0.23 0.20 0.21 0.22 0.22 0.16 0.13 0.13 0.15 0.19 0.20 0.21 0.30 0.37 0.34 0.36 0.30 0.33 0.43 0.49 0.50 0.43 0.37 0.34 0.35 0.32 0.31 0.48 0.53 0.59
0.65 0.63 0.47 0.44 0.41 0.37 0.33 0.24 0.23 0.24 0.20 0.19 0.21 0.23 0.21 0.18 0.32 0.22 0.14 0.12 0.17 0.17 0.16 0.15 0.22 0.43 0.29 0.39 0.39 0.41 0.39 0.41 0.47 0.57 0.62 0.62 0.52 0.53 0.52 0.55 0.65 0.74 0.76
0.79 0.70 0.51 0.43 0.38 0.29 0.20 0.16 0.12 0.18 0.26 0.31 0.27 0.22 0.15 0.16 0.28 0.17 0.17 0.08 0.09 0.13 0.15 0.16 0.19 0.25 0.36 0.15 0.37 0.40 0.42 0.57 0.62 0.64 0.74 0.67 0.66 0.59 0.56 0.55 0.55 0.63 0.66
0.66 0.63 0.54 0.36 0.30 0.25 0.19 0.22 0.24 0.29 0.27 0.20 0.13 0.09 0.09 0.16 0.23 0.12 0.13 0.08 0.11 0.15 0.18 0.19 0.23 0.28 0.38 0.43 0.42 0.44 0.38 0.36 0.38 0.40 0.46 0.45 0.41 0.37 0.34 0.37 0.45 0.56 0.52
0.60 0.60 0.56 0.47 0.34 0.30 0.34 0.43 0.36 0.19 0.11 0.07 0.07 0.07 0.08 0.12 0.20 0.13 0.12 0.09 0.18 0.22 0.22 0.28 0.36 0.35 0.65 0.54 0.39 0.40 0.40 0.40 0.49 0.45 0.37 0.37 0.39 0.39 0.40 0.49 0.55 0.66 0.63
0.67 0.63 0.62 0.52 0.57 0.52 0.43 0.25 0.18 0.15 0.13 0.12 0.13 0.12 0.21 0.12 0.28 0.18 0.15 0.08 0.18 0.21 0.23 0.29 0.54 0.32 0.53 0.48 0.47 0.42 0.48 0.37 0.37 0.43 0.45 0.42 0.37 0.43 0.48 0.51 0.61 0.88 0.85
0.87 0.73 0.95 0.80 0.51 0.35 0.31 0.25 0.24 0.23 0.23 0.27 0.31 0.25 0.23 0.31 0.32 0.35 0.24 0.15 0.19 0.27 0.35 0.41 0.61 1.11 0.80 0.78 0.71 0.72 1.08 0.97 1.01 0.78 0.67 0.64 0.59 0.56 0.58 0.61 0.65 0.83 0.95
1.26 1.06 0.82 1.07 0.84 0.56 0.45 0.35 0.27 0.31 0.37 0.39 0.44 0.48 0.48 0.47 0.74 0.57 0.58 0.90 1.17 1.05 1.18 1.17 1.39 1.34 1.23 1.38 1.40 1.59 1.51 1.27 1.18 1.20 1.17 1.11 1.06 0.96 0.79 0.66 0.62 0.58 0.52
0.91 1.02 1.09 0.92 1.02 0.97 0.79 0.74 0.55 0.46 0.48 0.43 0.48 0.62 0.67 0.68 0.94 1.12 0.91 1.07 1.25 1.21 1.59 1.87 1.90 1.70 1.52 1.60 1.76 1.79 1.72 1.74 1.79 1.74 1.57 1.32 1.05 0.79 0.63 0.54 0.45 0.35 0.34
0.44 0.50 0.59 0.74 0.75 0.80 0.81 0.83 0.79 0.76 0.83 0.93 1.02 1.06 0.98 0.90 0.93 1.12 1.34 1.42 1.64 1.93 2.33 2.52 2.52 2.37 2.24 2.25 2.19 2.00 1.85 1.69 1.44 1.22 0.93 0.67 0.54 0.47 0.49 0.50 0.62 0.50 0.51
0.12 0.10 0.15 0.26 0.33 0.37 0.52 0.68 0.67 0.82 0.96 0.97 1.06 1.18 1.33 1.50 1.74 1.77 1.72 1.74 1.86 1.85 1.90 2.03 1.90 1.68 1.45 1.25 1.06 0.86 0.70 0.55 0.50 0.45 0.44 0.37 0.35 0.36 0.36 0.32 0.39 0.38 0.47
0.20 0.17 0.19 0.15 0.21 0.30 0.37 0.60 0.91 1.00 1.02 1.12 1.25 1.30 1.69 1.82 1.90 1.73 1.66 1.68 1.60 1.41 1.32 1.15 0.98 0.82 0.69 0.55 0.43 0.32 0.26 0.25 0.20 0.22 0.26 0.23 0.27 0.32 0.36 0.35 0.35 0.37 0.35
0.59 0.59 0.61 0.57 0.53 0.54 0.60 0.70 1.10 1.50 1.57 1.72 1.74 1.68 1.59 1.65 1.47 1.29 1.09 0.96 0.87 0.73 0.80 0.67 0.61 0.53 0.41 0.30 0.28 0.28 0.31 0.30 0.27 0.29 0.31 0.31 0.33 0.33 0.36 0.32 0.31 0.29 0.30
1.18 1.25 1.30 1.49 1.56 1.60 1.60 1.58 1.49 1.45 1.38 1.37 1.29 1.09 0.95 0.85 0.81 0.77 0.67 0.60 0.61 0.47 0.44 0.39 0.35 0.31 0.27 0.28 0.27 0.27 0.24 0.23 0.22 0.20 0.23 0.23 0.24 0.25 0.26 0.25 0.28 0.31 0.28
0.72 0.90 0.96 0.96 0.89 0.80 0.79 0.80 0.80 0.78 0.73 0.73 0.65 0.57 0.53 0.41 0.35 0.31 0.27 0.39 0.38 0.34 0.31 0.31 0.29 0.24 0.18 0.17 0.20 0.20 0.22 0.21 0.19 0.19 0.17 0.18 0.21 0.24 0.21 0.17 0.16 0.14 0.15
0.67 0.71 0.60 0.59 0.62 0.57 0.51 0.46 0.43 0.40 0.38 0.36 0.37 0.41 0.29 0.19 0.17 0.16 0.20 0.26 0.28 0.23 0.18 0.16 0.16 0.17 0.17 0.16 0.16 0.18 0.18 0.15 0.16 0.17 0.19 0.21 0.21 0.21 0.23 0.22 0.20 0.19 0.12
0.67 0.64 0.51 0.43 0.39 0.36 0.31 0.27 0.25 0.28 0.26 0.22 0.18 0.14 0.13 0.24 0.27 0.25 0.25 0.24 0.20 0.17 0.15 0.14 0.13 0.13 0.13 0.15 0.14 0.15 0.15 0.14 0.14 0.16 0.15 0.17 0.21 0.22 0.19 0.21 0.19 0.16 0.14
0.39 0.34 0.29 0.28 0.26 0.23 0.20 0.17 0.17 0.16 0.15 0.16 0.18 0.18 0.22 0.29 0.24 0.19 0.18 0.17 0.18 0.19 0.20 0.22 0.21 0.18 0.17 0.21 0.22 0.21 0.17 0.16 0.18 0.18 0.14 0.13 0.16 0.18 0.20 0.19 0.19 0.19 0.16
0.26 0.24 0.19 0.17 0.16 0.15 0.15 0.16 0.19 0.19 0.18 0.20 0.19 0.16 0.14 0.20 0.21 0.19 0.17 0.16 0.16 0.19 0.18 0.22 0.21 0.16 0.12 0.15 0.19 0.24 0.23 0.16 0.17 0.23 0.22 0.17 0.15 0.16 0.18 0.20 0.19 0.21 0.18
0.17 0.16 0.16 0.15 0.15 0.16 0.17 0.18 0.22 0.27 0.30 0.27 0.23 0.22 0.21 0.19 0.21 0.20 0.18 0.16 0.15 0.13 0.12 0.15 0.16 0.15 0.14 0.14 0.16 0.18 0.19 0.18 0.22 0.24 0.30 0.26 0.15 0.13 0.18 0.19 0.17 0.16 0.17
0.15 0.17 0.18 0.20 0.23 0.27 0.31 0.31 0.28 0.22 0.22 0.23 0.22 0.21 0.18 0.17 0.17 0.17 0.17 0.16 0.14 0.12 0.11 0.11 0.10 0.08 0.09 0.12 0.13 0.10 0.11 0.18 0.25 0.27 0.31 0.24 0.17 0.15 0.18 0.20 0.18 0.18 0.16
0.16 0.18 0.20 0.22 0.27 0.27 0.28 0.24 0.20 0.17 0.19 0.17 0.17 0.16 0.15 0.14 0.11 0.11 0.10 0.11 0.12 0.11 0.08 0.08 0.08 0.07 0.08 0.09 0.13 0.13 0.10 0.14 0.19 0.24 0.33 0.29 0.21 0.16 0.19 0.22 0.21 0.23 0.15

GFSGL_prec_precacc_117.txt.gz
Total_Precipitation_Accumulation
0.28 0.20 0.15 0.24 0.28 0.68 1.05 1.09 0.95 0.98 1.09 0.99 0.83 0.74 0.80 0.91 0.98 0.86 0.63 0.61 0.65 0.66 0.69 0.73 0.69 0.86 0.99 0.91 0.88 0.83 0.69 0.65 0.54 0.24 0.16 0.19 0.21 0.22 0.18 0.18 0.17 0.22 0.16
0.96 1.05 0.79 0.98 1.04 1.16 1.53 1.51 1.28 1.14 0.94 0.84 0.95 0.87 0.70 0.60 0.53 0.51 0.48 0.49 0.45 0.52 0.56 0.68 0.62 0.78 0.78 0.67 0.63 0.46 0.38 0.32 0.32 0.21 0.14 0.17 0.17 0.16 0.18 0.18 0.18 0.18 0.13
1.36 1.43 1.16 1.39 1.40 1.69 1.54 1.36 1.22 1.10 1.03 0.89 0.71 0.55 0.40 0.35 0.31 0.31 0.30 0.32 0.40 0.42 0.44 0.39 0.37 0.48 0.43 0.44 0.46 0.34 0.26 0.29 0.30 0.35 0.32 0.31 0.31 0.30 0.30 0.24 0.16 0.11 0.10
0.59 0.59 0.85 0.93 0.76 0.71 0.52 0.53 0.47 0.47 0.41 0.32 0.29 0.29 0.27 0.24 0.21 0.22 0.21 0.20 0.24 0.31 0.40 0.37 0.33 0.31 0.27 0.35 0.45 0.42 0.39 0.38 0.42 0.45 0.42 0.35 0.32 0.28 0.29 0.30 0.33 0.30 0.30
0.53 0.50 0.52 0.50 0.46 0.33 0.29 0.29 0.32 0.32 0.31 0.30 0.28 0.23 0.21 0.21 0.23 0.22 0.16 0.14 0.14 0.16 0.20 0.22 0.27 0.42 0.52 0.46 0.50 0.48 0.50 0.54 0.55 0.59 0.52 0.44 0.40 0.39 0.35 0.35 0.51 0.55 0.60
0.65 0.63 0.48 0.45 0.43 0.39 0.37 0.29 0.30 0.27 0.20 0.19 0.22 0.23 0.21 0.18 0.33 0.23 0.14 0.12 0.17 0.17 0.17 0.16 0.27 0.57 0.43 0.53 0.56 0.60 0.56 0.56 0.57 0.63 0.69 0.70 0.59 0.61 0.60 0.62 0.70 0.78 0.80
0.80 0.72 0.54 0.45 0.41 0.34 0.23 0.21 0.20 0.23 0.28 0.32 0.28 0.22 0.16 0.16 0.29 0.18 0.18 0.09 0.09 0.14 0.15 0.17 0.20 0.30 0.47 0.27 0.55 0.54 0.53 0.66 0.67 0.68 0.77 0.71 0.71 0.65 0.62 0.62 0.62 0.69 0.71
0.68 0.67 0.61 0.43 0.34 0.34 0.27 0.30 0.33 0.35 0.32 0.22 0.13 0.10 0.10 0.16 0.23 0.13 0.14 0.09 0.11 0.15 0.18 0.19 0.23 0.28 0.41 0.47 0.48 0.51 0.43 0.41 0.43 0.42 0.47 0.46 0.44 0.40 0.37 0.41 0.49 0.62 0.58
0.62 0.64 0.62 0.54 0.40 0.43 0.49 0.58 0.48 0.27 0.16 0.10 0.08 0.07 0.09 0.13 0.20 0.14 0.12 0.09 0.18 0.22 0.22 0.29 0.37 0.35 0.66 0.55 0.40 0.41 0.41 0.41 0.52 0.47 0.39 0.39 0.42 0.43 0.44 0.51 0.58 0.71 0.72
0.76 0.74 0.71 0.62 0.65 0.66 0.55 0.38 0.35 0.23 0.17 0.14 0.14 0.13 0.22 0.12 0.28 0.19 0.15 0.08 0.18 0.22 0.23 0.30 0.55 0.32 0.54 0.49 0.47 0.42 0.48 0.38 0.38 0.45 0.47 0.44 0.40 0.46 0.53 0.55 0.65 0.94 0.92
1.11 0.97 1.13 0.97 0.65 0.48 0.42 0.35 0.31 0.28 0.28 0.31 0.34 0.28 0.25 0.32 0.33 0.36 0.26 0.15 0.19 0.27 0.35 0.41 0.61 1.12 0.83 0.81 0.73 0.73 1.09 0.98 1.04 0.80 0.69 0.66 0.61 0.60 0.63 0.66 0.73 0.92 1.05
1.55 1.43 1.12 1.34 1.09 0.78 0.62 0.47 0.34 0.36 0.41 0.43 0.47 0.50 0.49 0.48 0.75 0.59 0.60 0.92 1.19 1.05 1.18 1.18 1.40 1.36 1.25 1.43 1.46 1.69 1.61 1.35 1.22 1.24 1.21 1.15 1.10 1.00 0.84 0.71 0.67 0.64 0.58
1.19 1.43 1.45 1.38 1.57 1.39 1.13 0.98 0.70 0.54 0.52 0.48 0.52 0.64 0.68 0.68 0.95 1.14 0.94 1.11 1.29 1.23 1.62 1.91 1.92 1.71 1.55 1.66 1.85 1.89 1.80 1.80 1.85 1.80 1.63 1.39 1.10 0.83 0.66 0.55 0.45 0.35 0.34
0.67 0.77 0.91 1.19 1.33 1.42 1.49 1.38 1.20 1.06 0.99 1.02 1.09 1.12 1.04 0.93 0.94 1.16 1.41 1.51 1.71 1.98 2.40 2.59 2.58 2.44 2.32 2.31 2.25 2.04 1.88 1.73 1.48 1.25 0.96 0.71 0.56 0.47 0.49 0.50 0.62 0.50 0.51
0.30 0.30 0.33 0.51 0.70 0.86 1.09 1.33 1.42 1.49 1.44 1.30 1.27 1.28 1.40 1.59 1.86 1.86 1.78 1.81 1.99 2.02 2.02 2.12 1.97 1.72 1.47 1.27 1.07 0.88 0.72 0.59 0.54 0.47 0.45 0.38 0.35 0.36 0.36 0.32 0.39 0.38 0.47
0.28 0.29 0.32 0.27 0.36 0.49 0.61 0.90 1.28 1.48 1.48 1.53 1.64 1.58 1.87 1.97 2.05 1.88 1.80 1.77 1.67 1.44 1.33 1.16 0.99 0.83 0.70 0.55 0.44 0.32 0.26 0.25 0.20 0.22 0.26 0.23 0.27 0.32 0.36 0.35 0.35 0.37 0.35
0.60 0.62 0.65 0.62 0.59 0.62 0.69 0.78 1.21 1.61 1.68 1.83 1.83 1.76 1.67 1.71 1.52 1.32 1.11 0.98 0.88 0.73 0.80 0.68 0.61 0.53 0.41 0.30 0.28 0.28 0.31 0.30 0.27 0.29 0.31 0.31 0.33 0.33 0.36 0.32 0.31 0.29 0.30
1.18 1.26 1.31 1.50 1.57 1.62 1.63 1.62 1.52 1.50 1.42 1.43 1.32 1.10 0.96 0.86 0.81 0.77 0.67 0.60 0.61 0.47 0.44 0.39 0.35 0.31 0.27 0.28 0.27 0.27 0.24 0.23 0.22 0.20 0.23 0.23 0.24 0.25 0.26 0.25 0.28 0.31 0.28
0.73 0.91 0.96 0.97 0.89 0.80 0.80 0.81 0.81 0.79 0.75 0.76 0.66 0.57 0.53 0.41 0.35 0.31 0.27 0.39 0.38 0.34 0.31 0.31 0.29 0.24 0.18 0.17 0.20 0.20 0.22 0.21 0.19 0.19 0.17 0.18 0.21 0.24 0.21 0.17 0.16 0.14 0.15
0.67 0.72 0.60 0.60 0.62 0.57 0.51 0.46 0.43 0.40 0.38 0.37 0.37 0.42 0.29 0.19 0.17 0.16 0.20 0.26 0.28 0.23 0.18 0.16 0.16 0.17 0.17 0.16 0.16 0.18 0.18 0.15 0.16 0.17 0.19 0.21 0.21 0.21 0.23 0.22 0.20 0.19 0.12
0.68 0.65 0.52 0.43 0.39 0.36 0.31 0.27 0.25 0.28 0.26 0.22 0.19 0.14 0.13 0.24 0.27 0.25 0.25 0.25 0.21 0.17 0.15 0.14 0.13 0.13 0.13 0.15 0.14 0.15 0.15 0.14 0.14 0.16 0.15 0.17 0.21 0.22 0.19 0.21 0.19 0.16 0.14
0.39 0.34 0.30 0.28 0.26 0.23 0.20 0.17 0.17 0.16 0.15 0.16 0.18 0.18 0.22 0.29 0.24 0.20 0.18 0.18 0.18 0.19 0.20 0.22 0.21 0.18 0.17 0.21 0.22 0.21 0.17 0.16 0.18 0.18 0.14 0.13 0.16 0.18 0.20 0.19 0.19 0.19 0.16
0.26 0.24 0.20 0.17 0.16 0.15 0.15 0.16 0.19 0.19 0.18 0.20 0.19 0.16 0.14 0.20 0.21 0.19 0.17 0.16 0.16 0.19 0.18 0.22 0.21 0.16 0.12 0.15 0.19 0.24 0.23 0.16 0.17 0.23 0.22 0.17 0.15 0.16 0.18 0.20 0.19 0.21 0.18
0.18 0.16 0.16 0.15 0.15 0.16 0.17 0.18 0.22 0.27 0.30 0.27 0.23 0.22 0.21 0.19 0.21 0.20 0.18 0.16 0.15 0.13 0.12 0.15 0.16 0.15 0.14 0.14 0.16 0.18 0.19 0.18 0.22 0.24 0.30 0.26 0.15 0.13 0.18 0.19 0.17 0.16 0.17
0.15 0.18 0.19 0.20 0.23 0.27 0.31 0.31 0.28 0.22 0.22 0.23 0.22 0.21 0.18 0.17 0.17 0.17 0.17 0.16 0.14 0.12 0.11 0.11 0.10 0.08 0.09 0.12 0.13 0.10 0.11 0.18 0.25 0.27 0.31 0.24 0.17 0.15 0.18 0.20 0.18 0.18 0.16
0.16 0.18 0.20 0.22 0.27 0.27 0.28 0.24 0.20 0.17 0.19 0.17 0.17 0.16 0.15 0.14 0.11 0.11 0.10 0.11 0.12 0.11 0.08 0.08 0.08 0.07 0.08 0.09 0.13 0.13 0.10 0.14 0.19 0.24 0.33 0.29 0.21 0.16 0.19 0.22 0.21 0.23 0.15

GFSGL_prec_precacc_120.txt.gz
Total_Precipitation_Accumulation
0.28 0.20 0.15 0.24 0.28 0.68 1.05 1.09 0.96 0.99 1.10 1.01 0.85 0.75 0.81 0.92 0.99 0.87 0.64 0.61 0.66 0.66 0.70 0.74 0.70 0.87 1.01 0.96 0.95 0.95 0.88 0.80 0.63 0.32 0.20 0.20 0.21 0.23 0.21 0.22 0.19 0.23 0.16
0.96 1.05 0.79 0.98 1.04 1.16 1.54 1.51 1.28 1.16 0.94 0.85 0.97 0.89 0.71 0.60 0.54 0.53 0.50 0.49 0.46 0.52 0.57 0.69 0.64 0.79 0.79 0.70 0.71 0.58 0.51 0.44 0.39 0.27 0.18 0.19 0.17 0.19 0.21 0.20 0.20 0.20 0.15
1.36 1.43 1.16 1.39 1.41 1.70 1.55 1.36 1.23 1.13 1.04 0.91 0.74 0.57 0.41 0.36 0.31 0.31 0.31 0.32 0.40 0.42 0.44 0.40 0.38 0.49 0.44 0.45 0.48 0.43 0.38 0.39 0.37 0.40 0.36 0.33 0.34 0.32 0.33 0.28 0.19 0.12 0.11
0.59 0.59 0.85 0.93 0.76 0.73 0.55 0.56 0.49 0.49 0.43 0.33 0.30 0.30 0.28 0.24 0.22 0.23 0.22 0.21 0.24 0.31 0.40 0.37 0.34 0.31 0.28 0.36 0.47 0.45 0.45 0.46 0.46 0.48 0.44 0.37 0.34 0.30 0.31 0.34 0.37 0.34 0.33
0.53 0.50 0.52 0.50 0.46 0.34 0.30 0.30 0.34 0.35 0.33 0.31 0.31 0.25 0.21 0.21 0.24 0.23 0.17 0.16 0.16 0.18 0.21 0.23 0.30 0.46 0.60 0.60 0.67 0.59 0.57 0.60 0.61 0.64 0.57 0.48 0.43 0.43 0.40 0.40 0.58 0.63 0.66
0.65 0.63 0.48 0.45 0.43 0.40 0.38 0.31 0.32 0.32 0.26 0.24 0.23 0.25 0.22 0.19 0.33 0.24 0.15 0.13 0.18 0.19 0.19 0.18 0.29 0.64 0.54 0.70 0.77 0.85 0.77 0.73 0.68 0.71 0.78 0.79 0.68 0.69 0.68 0.72 0.79 0.85 0.84
0.80 0.72 0.54 0.45 0.41 0.34 0.24 0.22 0.23 0.30 0.36 0.40 0.33 0.24 0.16 0.16 0.29 0.18 0.19 0.09 0.10 0.16 0.16 0.18 0.22 0.35 0.55 0.38 0.72 0.76 0.77 0.95 0.89 0.83 0.94 0.82 0.80 0.74 0.72 0.72 0.68 0.74 0.76
0.68 0.67 0.61 0.44 0.36 0.37 0.29 0.31 0.36 0.44 0.43 0.31 0.20 0.11 0.10 0.17 0.24 0.14 0.15 0.09 0.12 0.16 0.19 0.20 0.23 0.29 0.44 0.51 0.52 0.62 0.58 0.59 0.61 0.57 0.58 0.57 0.52 0.47 0.44 0.47 0.54 0.68 0.64
0.62 0.64 0.62 0.55 0.45 0.50 0.57 0.64 0.56 0.38 0.34 0.28 0.17 0.09 0.09 0.13 0.21 0.14 0.13 0.09 0.19 0.22 0.22 0.29 0.38 0.35 0.68 0.57 0.41 0.43 0.44 0.45 0.61 0.55 0.47 0.47 0.47 0.47 0.46 0.53 0.60 0.74 0.75
0.76 0.74 0.72 0.65 0.72 0.76 0.65 0.60 0.57 0.41 0.33 0.30 0.21 0.14 0.23 0.12 0.28 0.19 0.15 0.09 0.18 0.22 0.23 0.30 0.56 0.33 0.56 0.50 0.47 0.43 0.50 0.39 0.39 0.46 0.49 0.46 0.42 0.47 0.54 0.55 0.65 0.97 0.96
1.11 0.98 1.16 1.01 0.77 0.64 0.61 0.50 0.63 0.57 0.45 0.46 0.44 0.30 0.25 0.34 0.34 0.37 0.27 0.15 0.19 0.28 0.35 0.41 0.62 1.14 0.84 0.83 0.74 0.73 1.10 0.99 1.04 0.80 0.70 0.66 0.61 0.60 0.64 0.69 0.78 0.99 1.11
1.56 1.45 1.17 1.43 1.24 1.02 0.87 0.75 0.57 0.66 0.76 0.63 0.61 0.57 0.51 0.50 0.80 0.63 0.62 0.95 1.21 1.05 1.18 1.18 1.41 1.38 1.27 1.45 1.49 1.74 1.64 1.38 1.22 1.24 1.21 1.15 1.11 1.02 0.86 0.74 0.72 0.69 0.62
1.20 1.48 1.55 1.52 1.77 1.61 1.42 1.24 1.03 0.82 0.72 0.73 0.76 0.82 0.75 0.72 0.99 1.20 0.99 1.15 1.33 1.25 1.63 1.93 1.94 1.72 1.56 1.67 1.88 1.91 1.83 1.82 1.88 1.83 1.66 1.42 1.14 0.88 0.70 0.58 0.47 0.36 0.34
0.69 0.81 1.02 1.34 1.58 1.76 1.83 1.78 1.58 1.41 1.24 1.22 1.27 1.29 1.24 1.06 1.01 1.21 1.44 1.54 1.75 2.01 2.43 2.61 2.60 2.46 2.35 2.35 2.28 2.08 1.90 1.75 1.51 1.28 0.99 0.73 0.58 0.48 0.50 0.50 0.62 0.50 0.51
0.32 0.35 0.43 0.66 0.94 1.23 1.59 1.93 1.90 1.99 1.89 1.62 1.48 1.47 1.54 1.73 2.00 1.98 1.88 1.89 2.05 2.10 2.12 2.21 2.05 1.80 1.58 1.36 1.15 0.96 0.79 0.65 0.58 0.51 0.48 0.40 0.36 0.36 0.36 0.32 0.39 0.38 0.47
0.29 0.32 0.39 0.38 0.53 0.74 0.99 1.37 1.84 2.03 2.00 1.99 2.04 1.94 2.18 2.28 2.34 2.10 1.98 1.96 1.87 1.62 1.45 1.26 1.11 0.97 0.84 0.68 0.51 0.38 0.31 0.32 0.26 0.25 0.26 0.23 0.27 0.32 0.36 0.35 0.35 0.37 0.35
0.60 0.62 0.68 0.68 0.69 0.79 0.89 1.05 1.52 1.94 2.02 2.18 2.16 2.13 2.08 2.14 1.94 1.69 1.40 1.19 1.04 0.88 0.94 0.80 0.72 0.62 0.49 0.35 0.31 0.30 0.33 0.31 0.27 0.29 0.31 0.31 0.33 0.33 0.36 0.32 0.31 0.29 0.30
1.18 1.26 1.32 1.51 1.60 1.66 1.71 1.74 1.68 1.65 1.57 1.59 1.49 1.26 1.14 1.05 0.99 0.91 0.77 0.65 0.65 0.51 0.47 0.43 0.38 0.32 0.28 0.29 0.27 0.27 0.24 0.23 0.22 0.20 0.23 0.23 0.24 0.25 0.26 0.25 0.28 0.31 0.28
0.73 0.91 0.97 0.97 0.89 0.80 0.81 0.82 0.83 0.83 0.80 0.82 0.73 0.63 0.57 0.44 0.36 0.32 0.27 0.39 0.38 0.34 0.31 0.31 0.29 0.24 0.18 0.17 0.20 0.20 0.22 0.21 0.19 0.19 0.17 0.18 0.21 0.24 0.21 0.17 0.16 0.14 0.15
0.67 0.72 0.60 0.60 0.62 0.57 0.51 0.46 0.43 0.40 0.39 0.37 0.38 0.43 0.30 0.20 0.18 0.16 0.20 0.26 0.28 0.23 0.18 0.16 0.16 0.17 0.17 0.16 0.16 0.18 0.18 0.15 0.16 0.17 0.19 0.21 0.21 0.21 0.23 0.22 0.20 0.19 0.12
0.68 0.65 0.52 0.43 0.40 0.36 0.31 0.28 0.25 0.28 0.26 0.22 0.20 0.14 0.13 0.24 0.27 0.26 0.25 0.25 0.21 0.17 0.15 0.15 0.13 0.13 0.13 0.15 0.14 0.15 0.15 0.14 0.14 0.16 0.15 0.17 0.21 0.22 0.19 0.21 0.19 0.16 0.14
0.40 0.34 0.30 0.28 0.26 0.24 0.20 0.17 0.17 0.17 0.16 0.17 0.18 0.18 0.22 0.29 0.25 0.20 0.19 0.18 0.18 0.20 0.20 0.22 0.21 0.18 0.18 0.21 0.22 0.21 0.17 0.16 0.18 0.18 0.14 0.13 0.16 0.18 0.20 0.19 0.19 0.19 0.16
0.26 0.24 0.20 0.17 0.17 0.15 0.15 0.16 0.19 0.19 0.18 0.20 0.19 0.16 0.14 0.20 0.21 0.19 0.17 0.16 0.16 0.19 0.18 0.22 0.21 0.16 0.12 0.15 0.19 0.24 0.23 0.16 0.17 0.23 0.22 0.17 0.15 0.16 0.18 0.20 0.19 0.21 0.18
0.18 0.16 0.16 0.15 0.15 0.16 0.17 0.18 0.22 0.27 0.30 0.27 0.23 0.22 0.21 0.20 0.21 0.21 0.18 0.16 0.15 0.13 0.12 0.15 0.16 0.15 0.14 0.14 0.16 0.18 0.19 0.18 0.22 0.24 0.30 0.26 0.15 0.13 0.18 0.19 0.17 0.16 0.17
0.15 0.18 0.19 0.20 0.23 0.27 0.31 0.31 0.28 0.22 0.22 0.23 0.22 0.21 0.18 0.17 0.17 0.17 0.17 0.16 0.14 0.12 0.11 0.11 0.10 0.08 0.09 0.12 0.13 0.10 0.11 0.18 0.25 0.27 0.31 0.24 0.17 0.15 0.18 0.20 0.18 0.18 0.16
0.16 0.19 0.21 0.23 0.28 0.27 0.28 0.24 0.20 0.18 0.19 0.17 0.17 0.16 0.15 0.14 0.11 0.11 0.10 0.11 0.12 0.11 0.08 0.08 0.08 0.07 0.08 0.09 0.13 0.13 0.10 0.14 0.19 0.24 0.33 0.29 0.21 0.16 0.19 0.22 0.21 0.23 0.15

GFSGL_prec_precacc_123.txt.gz
Total_Precipitation_Accumulation
0.28 0.20 0.15 0.24 0.28 0.68 1.05 1.09 0.96 0.99 1.10 1.01 0.85 0.75 0.82 0.92 1.00 0.88 0.65 0.63 0.67 0.67 0.70 0.74 0.70 0.87 1.01 0.97 0.96 0.98 0.93 0.86 0.73 0.43 0.31 0.29 0.26 0.26 0.22 0.23 0.21 0.25 0.16
0.96 1.05 0.79 0.98 1.04 1.16 1.54 1.51 1.28 1.16 0.95 0.85 0.97 0.89 0.72 0.61 0.54 0.54 0.51 0.51 0.47 0.54 0.58 0.69 0.64 0.80 0.80 0.71 0.72 0.60 0.57 0.54 0.51 0.40 0.30 0.27 0.21 0.20 0.23 0.22 0.21 0.23 0.17
1.36 1.43 1.16 1.39 1.41 1.70 1.55 1.36 1.23 1.13 1.05 0.91 0.74 0.58 0.42 0.37 0.32 0.31 0.31 0.33 0.41 0.43 0.45 0.41 0.38 0.50 0.46 0.47 0.50 0.44 0.41 0.46 0.50 0.52 0.49 0.40 0.38 0.34 0.34 0.30 0.22 0.15 0.13
0.59 0.59 0.85 0.93 0.76 0.73 0.55 0.56 0.50 0.50 0.44 0.33 0.31 0.31 0.29 0.25 0.23 0.24 0.22 0.22 0.25 0.32 0.40 0.38 0.34 0.32 0.29 0.37 0.48 0.47 0.47 0.48 0.51 0.55 0.52 0.45 0.38 0.33 0.33 0.38 0.45 0.44 0.40
0.53 0.50 0.52 0.50 0.46 0.34 0.30 0.30 0.34 0.36 0.33 0.32 0.31 0.26 0.22 0.23 0.26 0.24 0.18 0.16 0.16 0.18 0.21 0.23 0.31 0.48 0.61 0.62 0.72 0.66 0.66 0.69 0.69 0.70 0.61 0.53 0.49 0.47 0.42 0.42 0.62 0.71 0.75
0.65 0.63 0.48 0.45 0.43 0.40 0.38 0.31 0.32 0.33 0.27 0.25 0.24 0.26 0.26 0.21 0.36 0.26 0.16 0.13 0.18 0.19 0.19 0.19 0.30 0.67 0.56 0.77 0.86 0.99 0.93 0.94 0.82 0.78 0.81 0.80 0.70 0.73 0.72 0.75 0.84 0.92 0.91
0.80 0.72 0.54 0.45 0.41 0.34 0.24 0.22 0.23 0.31 0.37 0.41 0.36 0.26 0.18 0.20 0.34 0.20 0.19 0.09 0.10 0.16 0.16 0.18 0.23 0.37 0.58 0.42 0.82 0.87 0.93 1.17 1.07 0.96 1.02 0.86 0.86 0.81 0.82 0.82 0.74 0.80 0.82
0.68 0.67 0.61 0.44 0.36 0.37 0.29 0.31 0.37 0.45 0.45 0.33 0.23 0.16 0.13 0.19 0.30 0.17 0.16 0.09 0.12 0.17 0.20 0.21 0.24 0.31 0.50 0.56 0.57 0.69 0.67 0.75 0.83 0.80 0.74 0.68 0.64 0.61 0.54 0.56 0.67 0.80 0.77
0.62 0.64 0.62 0.55 0.45 0.50 0.58 0.66 0.58 0.40 0.36 0.31 0.22 0.16 0.15 0.16 0.23 0.16 0.14 0.09 0.19 0.23 0.23 0.30 0.39 0.36 0.73 0.62 0.45 0.47 0.49 0.51 0.72 0.71 0.65 0.68 0.68 0.69 0.60 0.61 0.71 0.85 0.84
0.76 0.74 0.72 0.65 0.72 0.76 0.66 0.62 0.60 0.46 0.39 0.35 0.34 0.29 0.40 0.21 0.32 0.21 0.16 0.09 0.18 0.22 0.23 0.30 0.58 0.35 0.58 0.51 0.47 0.44 0.52 0.43 0.44 0.52 0.54 0.51 0.51 0.60 0.69 0.62 0.69 0.99 0.99
1.11 0.98 1.16 1.01 0.77 0.64 0.62 0.53 0.67 0.65 0.53 0.55 0.60 0.50 0.44 0.49 0.45 0.41 0.28 0.15 0.19 0.28 0.35 0.41 0.62 1.15 0.86 0.85 0.75 0.74 1.11 1.01 1.09 0.83 0.72 0.69 0.63 0.62 0.67 0.73 0.81 1.02 1.15
1.56 1.45 1.17 1.43 1.24 1.02 0.90 0.80 0.64 0.80 1.06 0.98 0.91 0.84 0.71 0.65 0.91 0.69 0.63 0.95 1.21 1.05 1.18 1.18 1.41 1.39 1.29 1.47 1.51 1.77 1.66 1.39 1.23 1.25 1.22 1.16 1.11 1.02 0.87 0.77 0.76 0.74 0.68
1.20 1.48 1.55 1.52 1.77 1.62 1.47 1.31 1.17 0.99 0.97 1.08 1.15 1.16 1.06 0.84 1.11 1.29 1.02 1.17 1.34 1.25 1.64 1.94 1.95 1.74 1.57 1.69 1.91 1.94 1.87 1.83 1.88 1.83 1.67 1.43 1.15 0.89 0.72 0.62 0.53 0.43 0.41
0.69 0.81 1.03 1.35 1.59 1.81 1.91 1.91 1.74 1.66 1.58 1.58 1.56 1.60 1.52 1.28 1.13 1.29 1.47 1.57 1.77 2.02 2.45 2.63 2.62 2.47 2.37 2.37 2.30 2.10 1.91 1.77 1.53 1.29 1.01 0.76 0.60 0.50 0.52 0.53 0.65 0.53 0.54
0.32 0.35 0.43 0.67 0.97 1.32 1.77 2.19 2.25 2.34 2.22 2.02 1.89 1.80 1.88 2.05 2.27 2.19 2.08 1.99 2.09 2.15 2.14 2.22 2.07 1.82 1.61 1.39 1.19 1.01 0.84 0.72 0.64 0.55 0.53 0.45 0.40 0.40 0.37 0.32 0.39 0.38 0.47
0.29 0.32 0.39 0.40 0.58 0.83 1.17 1.64 2.22 2.55 2.50 2.45 2.50 2.34 2.58 2.70 2.75 2.40 2.24 2.21 2.10 1.79 1.56 1.40 1.26 1.11 0.96 0.84 0.71 0.62 0.56 0.53 0.44 0.41 0.39 0.31 0.31 0.35 0.37 0.35 0.35 0.37 0.35
0.60 0.62 0.68 0.69 0.71 0.83 1.01 1.24 1.76 2.28 2.47 2.66 2.67 2.59 2.47 2.47 2.25 2.07 1.79 1.58 1.43 1.17 1.21 1.09 0.96 0.86 0.72 0.56 0.49 0.47 0.50 0.47 0.42 0.40 0.40 0.38 0.36 0.34 0.36 0.32 0.31 0.29 0.30
1.18 1.26 1.32 1.51 1.60 1.68 1.74 1.84 1.85 1.85 1.80 1.82 1.74 1.52 1.40 1.29 1.21 1.16 1.05 0.93 0.94 0.79 0.70 0.62 0.56 0.49 0.42 0.41 0.38 0.35 0.31 0.27 0.25 0.22 0.23 0.24 0.24 0.25 0.26 0.25 0.28 0.31 0.28
0.73 0.91 0.97 0.97 0.89 0.81 0.81 0.83 0.86 0.89 0.89 0.92 0.83 0.71 0.67 0.54 0.44 0.38 0.32 0.45 0.46 0.42 0.40 0.37 0.34 0.28 0.21 0.18 0.21 0.21 0.22 0.21 0.19 0.19 0.17 0.18 0.21 0.24 0.21 0.17 0.16 0.14 0.15
0.67 0.72 0.60 0.60 0.62 0.57 0.51 0.46 0.43 0.40 0.39 0.38 0.40 0.45 0.31 0.22 0.20 0.19 0.22 0.27 0.30 0.24 0.19 0.16 0.16 0.17 0.17 0.16 0.16 0.18 0.18 0.15 0.16 0.17 0.19 0.21 0.21 0.21 0.23 0.22 0.20 0.19 0.12
0.68 0.65 0.52 0.43 0.40 0.36 0.31 0.28 0.25 0.28 0.26 0.23 0.20 0.15 0.13 0.24 0.27 0.26 0.25 0.25 0.21 0.18 0.16 0.15 0.13 0.13 0.13 0.15 0.14 0.15 0.15 0.14 0.14 0.16 0.15 0.17 0.21 0.22 0.19 0.21 0.19 0.16 0.14
0.40 0.35 0.30 0.29 0.27 0.24 0.20 0.17 0.17 0.17 0.16 0.17 0.18 0.18 0.22 0.29 0.25 0.20 0.19 0.18 0.19 0.20 0.21 0.22 0.21 0.18 0.18 0.21 0.22 0.21 0.17 0.16 0.18 0.18 0.14 0.13 0.16 0.18 0.20 0.19 0.19 0.19 0.16
0.26 0.24 0.20 0.18 0.17 0.15 0.15 0.16 0.19 0.19 0.18 0.20 0.19 0.16 0.14 0.20 0.21 0.20 0.18 0.16 0.17 0.19 0.18 0.22 0.21 0.16 0.12 0.15 0.19 0.24 0.23 0.16 0.17 0.23 0.22 0.17 0.15 0.16 0.18 0.20 0.19 0.21 0.18
0.18 0.16 0.16 0.16 0.15 0.16 0.17 0.18 0.22 0.27 0.30 0.27 0.23 0.22 0.21 0.20 0.21 0.21 0.18 0.16 0.15 0.13 0.12 0.15 0.16 0.15 0.14 0.14 0.16 0.18 0.19 0.18 0.22 0.24 0.30 0.26 0.15 0.13 0.18 0.19 0.17 0.16 0.17
0.16 0.18 0.19 0.20 0.23 0.27 0.31 0.31 0.28 0.22 0.22 0.23 0.22 0.21 0.18 0.17 0.17 0.17 0.17 0.16 0.14 0.12 0.11 0.11 0.10 0.08 0.09 0.12 0.13 0.10 0.11 0.18 0.25 0.27 0.31 0.24 0.17 0.15 0.18 0.20 0.18 0.18 0.16
0.16 0.19 0.21 0.23 0.28 0.27 0.28 0.24 0.20 0.18 0.19 0.17 0.17 0.16 0.15 0.14 0.11 0.11 0.10 0.11 0.12 0.11 0.08 0.08 0.08 0.07 0.08 0.09 0.13 0.13 0.10 0.14 0.19 0.24 0.33 0.29 0.21 0.16 0.19 0.22 0.21 0.23 0.15

GFSGL_prec_precacc_126.txt.gz
Total_Precipitation_Accumulation
0.28 0.20 0.15 0.24 0.28 0.68 1.05 1.09 0.96 0.99 1.10 1.01 0.85 0.75 0.82 0.92 1.00 0.89 0.66 0.63 0.68 0.69 0.72 0.75 0.71 0.88 1.01 0.97 0.97 0.98 0.94 0.89 0.76 0.47 0.35 0.37 0.45 0.44 0.35 0.31 0.24 0.27 0.18
0.96 1.05 0.79 0.98 1.04 1.16 1.54 1.51 1.28 1.16 0.95 0.85 0.97 0.90 0.72 0.61 0.54 0.54 0.52 0.51 0.48 0.55 0.59 0.71 0.65 0.80 0.80 0.71 0.72 0.60 0.58 0.56 0.55 0.44 0.37 0.36 0.33 0.34 0.32 0.28 0.26 0.25 0.18
1.36 1.43 1.16 1.39 1.41 1.70 1.55 1.36 1.23 1.13 1.05 0.91 0.75 0.59 0.42 0.37 0.32 0.32 0.31 0.34 0.42 0.44 0.46 0.42 0.39 0.50 0.46 0.47 0.50 0.45 0.42 0.47 0.53 0.57 0.56 0.51 0.48 0.42 0.40 0.36 0.29 0.19 0.15
0.59 0.59 0.85 0.93 0.76 0.73 0.55 0.56 0.50 0.50 0.44 0.34 0.32 0.32 0.30 0.26 0.23 0.24 0.23 0.22 0.26 0.33 0.42 0.39 0.36 0.32 0.29 0.37 0.48 0.47 0.47 0.49 0.52 0.59 0.57 0.54 0.49 0.42 0.39 0.43 0.50 0.47 0.43
0.53 0.50 0.52 0.50 0.46 0.34 0.30 0.30 0.34 0.36 0.34 0.32 0.32 0.28 0.23 0.24 0.27 0.25 0.19 0.18 0.17 0.19 0.22 0.26 0.33 0.49 0.62 0.62 0.72 0.66 0.66 0.70 0.69 0.72 0.66 0.60 0.57 0.55 0.47 0.43 0.67 0.81 0.83
0.65 0.63 0.48 0.45 0.43 0.40 0.38 0.31 0.32 0.33 0.27 0.26 0.25 0.28 0.27 0.23 0.38 0.28 0.18 0.14 0.21 0.21 0.20 0.19 0.31 0.68 0.56 0.77 0.86 0.99 0.94 0.95 0.84 0.81 0.88 0.89 0.77 0.79 0.76 0.79 0.88 1.00 1.01
0.80 0.72 0.54 0.45 0.41 0.34 0.24 0.22 0.23 0.31 0.37 0.42 0.36 0.27 0.19 0.20 0.35 0.21 0.22 0.11 0.14 0.18 0.18 0.19 0.23 0.37 0.58 0.42 0.83 0.91 0.96 1.19 1.09 1.00 1.10 0.96 0.96 0.88 0.88 0.88 0.79 0.84 0.86
0.68 0.67 0.61 0.44 0.36 0.37 0.29 0.31 0.37 0.45 0.45 0.33 0.24 0.18 0.15 0.20 0.31 0.21 0.21 0.13 0.15 0.19 0.20 0.21 0.24 0.31 0.50 0.56 0.58 0.72 0.70 0.78 0.88 0.86 0.79 0.75 0.74 0.75 0.65 0.65 0.75 0.90 0.87
0.62 0.64 0.62 0.55 0.45 0.50 0.58 0.66 0.58 0.40 0.36 0.32 0.23 0.17 0.18 0.18 0.26 0.21 0.23 0.13 0.23 0.24 0.23 0.30 0.40 0.36 0.74 0.63 0.46 0.49 0.51 0.54 0.79 0.79 0.76 0.83 0.84 0.84 0.73 0.73 0.83 0.95 0.94
0.77 0.74 0.72 0.65 0.72 0.76 0.66 0.62 0.60 0.46 0.39 0.35 0.35 0.30 0.42 0.23 0.39 0.29 0.23 0.14 0.21 0.23 0.24 0.31 0.60 0.36 0.60 0.51 0.48 0.44 0.54 0.46 0.48 0.57 0.59 0.57 0.60 0.77 0.87 0.70 0.76 1.09 1.07
1.11 0.98 1.16 1.01 0.77 0.64 0.62 0.53 0.67 0.66 0.54 0.58 0.64 0.56 0.50 0.61 0.58 0.58 0.39 0.17 0.20 0.29 0.37 0.42 0.62 1.16 0.87 0.85 0.76 0.74 1.12 1.03 1.13 0.88 0.77 0.74 0.69 0.68 0.78 0.88 0.92 1.10 1.23
1.56 1.45 1.17 1.43 1.24 1.03 0.90 0.80 0.64 0.80 1.08 1.07 0.98 0.88 0.79 0.79 1.16 1.00 0.81 1.05 1.28 1.06 1.19 1.19 1.42 1.41 1.32 1.50 1.53 1.78 1.68 1.41 1.24 1.26 1.22 1.18 1.15 1.06 0.91 0.80 0.82 0.83 0.78
1.20 1.48 1.55 1.52 1.77 1.62 1.47 1.31 1.17 1.00 0.98 1.14 1.26 1.33 1.20 1.01 1.33 1.59 1.32 1.32 1.44 1.30 1.66 1.96 1.97 1.76 1.60 1.72 1.94 1.96 1.88 1.83 1.88 1.83 1.67 1.44 1.16 0.90 0.74 0.64 0.56 0.48 0.49
0.69 0.81 1.03 1.35 1.59 1.81 1.92 1.91 1.76 1.70 1.63 1.64 1.67 1.78 1.73 1.58 1.40 1.53 1.72 1.73 1.85 2.04 2.46 2.64 2.64 2.49 2.39 2.38 2.31 2.11 1.92 1.79 1.55 1.30 1.01 0.77 0.61 0.51 0.54 0.55 0.69 0.59 0.61
0.32 0.35 0.43 0.67 0.97 1.32 1.78 2.23 2.31 2.45 2.36 2.17 2.08 1.99 2.08 2.30 2.62 2.56 2.35 2.24 2.28 2.23 2.17 2.23 2.07 1.83 1.61 1.40 1.19 1.01 0.84 0.74 0.67 0.58 0.56 0.47 0.44 0.46 0.45 0.40 0.45 0.43 0.50
0.29 0.32 0.39 0.40 0.58 0.84 1.18 1.68 2.32 2.70 2.68 2.68 2.79 2.68 2.96 3.06 3.11 2.76 2.57 2.50 2.36 1.99 1.66 1.43 1.27 1.12 0.99 0.87 0.74 0.65 0.61 0.62 0.51 0.50 0.51 0.45 0.46 0.48 0.49 0.46 0.45 0.43 0.40
0.61 0.62 0.68 0.69 0.71 0.84 1.02 1.27 1.83 2.40 2.65 2.92 2.95 2.94 2.88 2.96 2.74 2.58 2.34 2.04 1.82 1.50 1.47 1.28 1.12 1.00 0.86 0.70 0.65 0.65 0.69 0.68 0.63 0.62 0.61 0.57 0.54 0.49 0.47 0.39 0.35 0.31 0.30
1.19 1.26 1.32 1.51 1.60 1.68 1.75 1.86 1.89 1.94 1.91 1.97 1.95 1.76 1.67 1.60 1.54 1.51 1.46 1.33 1.33 1.14 1.02 0.94 0.88 0.77 0.68 0.66 0.62 0.57 0.51 0.49 0.45 0.39 0.37 0.34 0.31 0.30 0.29 0.27 0.29 0.31 0.28
0.73 0.92 0.97 0.97 0.89 0.81 0.81 0.84 0.87 0.91 0.95 1.02 0.93 0.82 0.80 0.70 0.61 0.55 0.49 0.62 0.66 0.63 0.62 0.58 0.52 0.47 0.39 0.34 0.34 0.32 0.31 0.27 0.24 0.23 0.20 0.20 0.22 0.24 0.21 0.17 0.16 0.14 0.15
0.68 0.72 0.61 0.60 0.62 0.57 0.51 0.46 0.43 0.40 0.40 0.40 0.43 0.49 0.38 0.29 0.25 0.26 0.31 0.37 0.41 0.36 0.30 0.26 0.23 0.22 0.21 0.18 0.17 0.19 0.18 0.15 0.17 0.17 0.19 0.21 0.21 0.21 0.23 0.22 0.20 0.19 0.12
0.68 0.65 0.52 0.44 0.40 0.37 0.32 0.28 0.26 0.28 0.26 0.23 0.21 0.15 0.13 0.25 0.28 0.27 0.27 0.28 0.24 0.22 0.20 0.19 0.16 0.15 0.14 0.16 0.15 0.15 0.15 0.14 0.14 0.16 0.15 0.17 0.21 0.22 0.19 0.21 0.19 0.16 0.14
0.40 0.35 0.30 0.29 0.27 0.24 0.20 0.17 0.17 0.17 0.16 0.17 0.19 0.18 0.22 0.30 0.25 0.20 0.19 0.19 0.19 0.21 0.21 0.23 0.22 0.19 0.18 0.21 0.22 0.21 0.17 0.16 0.18 0.18 0.14 0.13 0.16 0.18 0.20 0.19 0.19 0.19 0.16
0.26 0.24 0.20 0.18 0.17 0.15 0.15 0.16 0.19 0.19 0.18 0.20 0.19 0.16 0.15 0.20 0.21 0.20 0.18 0.17 0.17 0.19 0.18 0.22 0.21 0.16 0.12 0.15 0.19 0.24 0.23 0.16 0.17 0.23 0.22 0.17 0.15 0.16 0.18 0.20 0.19 0.21 0.18
0.18 0.16 0.16 0.16 0.15 0.16 0.17 0.18 0.22 0.27 0.30 0.27 0.23 0.22 0.21 0.20 0.21 0.21 0.18 0.16 0.15 0.13 0.12 0.15 0.16 0.15 0.14 0.14 0.16 0.18 0.19 0.18 0.22 0.24 0.30 0.26 0.15 0.13 0.18 0.19 0.17 0.16 0.17
0.16 0.18 0.19 0.21 0.23 0.27 0.31 0.31 0.28 0.22 0.22 0.23 0.22 0.21 0.18 0.17 0.17 0.17 0.17 0.16 0.14 0.12 0.11 0.11 0.10 0.08 0.09 0.12 0.13 0.10 0.11 0.18 0.25 0.27 0.31 0.24 0.17 0.15 0.18 0.20 0.18 0.18 0.16
0.16 0.19 0.21 0.23 0.28 0.27 0.28 0.24 0.21 0.18 0.19 0.17 0.17 0.16 0.15 0.14 0.11 0.11 0.10 0.11 0.12 0.11 0.08 0.08 0.08 0.07 0.08 0.09 0.13 0.13 0.10 0.14 0.19 0.24 0.33 0.29 0.21 0.16 0.19 0.22 0.21 0.23 0.15

GFSGL_prec_precacc_129.txt.gz
Total_Precipitation_Accumulation
0.28 0.20 0.15 0.24 0.28 0.68 1.05 1.09 0.96 0.99 1.10 1.01 0.85 0.75 0.82 0.93 1.01 0.90 0.67 0.64 0.69 0.69 0.72 0.76 0.72 0.88 1.02 0.98 0.97 0.98 0.94 0.89 0.77 0.47 0.35 0.38 0.50 0.52 0.47 0.41 0.31 0.34 0.23
0.96 1.05 0.79 0.98 1.04 1.16 1.54 1.51 1.28 1.16 0.95 0.85 0.97 0.90 0.72 0.61 0.55 0.55 0.54 0.53 0.49 0.56 0.60 0.72 0.66 0.81 0.81 0.72 0.72 0.60 0.59 0.56 0.56 0.44 0.38 0.36 0.34 0.38 0.42 0.41 0.33 0.30 0.21
1.37 1.43 1.16 1.39 1.41 1.70 1.55 1.36 1.23 1.13 1.05 0.91 0.75 0.59 0.42 0.37 0.33 0.32 0.32 0.35 0.44 0.45 0.47 0.43 0.41 0.52 0.48 0.48 0.50 0.45 0.42 0.47 0.53 0.57 0.56 0.52 0.50 0.47 0.53 0.54 0.43 0.26 0.19
0.61 0.59 0.85 0.93 0.76 0.73 0.55 0.56 0.50 0.50 0.44 0.34 0.32 0.32 0.31 0.27 0.24 0.26 0.25 0.24 0.27 0.35 0.43 0.40 0.37 0.34 0.31 0.38 0.48 0.47 0.47 0.49 0.52 0.59 0.57 0.54 0.50 0.44 0.43 0.52 0.63 0.61 0.54
0.53 0.50 0.52 0.50 0.46 0.34 0.30 0.30 0.34 0.36 0.34 0.32 0.32 0.28 0.25 0.25 0.29 0.27 0.21 0.20 0.19 0.21 0.24 0.27 0.34 0.51 0.64 0.63 0.73 0.66 0.66 0.70 0.69 0.72 0.66 0.61 0.59 0.57 0.52 0.47 0.71 0.88 0.94
0.65 0.63 0.48 0.45 0.43 0.40 0.38 0.31 0.32 0.33 0.27 0.26 0.25 0.28 0.29 0.25 0.41 0.30 0.20 0.16 0.23 0.22 0.21 0.21 0.33 0.72 0.60 0.80 0.87 0.99 0.94 0.95 0.84 0.81 0.88 0.90 0.78 0.81 0.82 0.86 0.96 1.09 1.11
0.80 0.72 0.54 0.45 0.41 0.34 0.24 0.22 0.23 0.31 0.37 0.42 0.36 0.27 0.20 0.22 0.38 0.23 0.24 0.14 0.16 0.19 0.21 0.22 0.26 0.38 0.60 0.43 0.85 0.92 0.97 1.20 1.09 1.00 1.10 0.96 0.97 0.91 0.97 1.01 0.88 0.88 0.91
0.68 0.67 0.61 0.44 0.36 0.37 0.29 0.31 0.37 0.45 0.45 0.33 0.24 0.18 0.15 0.22 0.36 0.23 0.23 0.14 0.16 0.22 0.23 0.24 0.29 0.35 0.51 0.56 0.58 0.72 0.70 0.78 0.89 0.86 0.79 0.75 0.76 0.79 0.74 0.74 0.83 0.97 0.96
0.62 0.64 0.62 0.55 0.45 0.50 0.58 0.66 0.58 0.40 0.36 0.32 0.23 0.17 0.18 0.20 0.29 0.22 0.25 0.16 0.26 0.29 0.26 0.34 0.44 0.39 0.76 0.65 0.46 0.49 0.51 0.55 0.82 0.81 0.77 0.84 0.86 0.91 0.80 0.84 0.95 1.04 1.00
0.77 0.74 0.72 0.65 0.72 0.76 0.66 0.62 0.60 0.46 0.39 0.35 0.35 0.30 0.44 0.25 0.43 0.31 0.26 0.18 0.26 0.27 0.31 0.37 0.64 0.39 0.61 0.52 0.48 0.44 0.54 0.46 0.48 0.58 0.60 0.58 0.61 0.82 0.94 0.77 0.82 1.16 1.14
1.11 0.98 1.16 1.01 0.77 0.64 0.62 0.53 0.67 0.66 0.54 0.58 0.64 0.57 0.51 0.64 0.61 0.63 0.47 0.22 0.25 0.35 0.43 0.47 0.68 1.19 0.89 0.86 0.77 0.74 1.13 1.04 1.14 0.89 0.79 0.77 0.73 0.72 0.82 0.95 0.99 1.18 1.28
1.56 1.45 1.17 1.43 1.24 1.03 0.90 0.80 0.64 0.80 1.08 1.07 0.99 0.88 0.80 0.80 1.22 1.09 0.95 1.18 1.36 1.11 1.28 1.31 1.49 1.46 1.35 1.53 1.56 1.80 1.71 1.45 1.26 1.27 1.24 1.21 1.19 1.09 0.94 0.84 0.87 0.92 0.89
1.20 1.48 1.55 1.52 1.77 1.62 1.47 1.31 1.17 1.00 0.98 1.14 1.28 1.36 1.24 1.05 1.37 1.68 1.50 1.61 1.69 1.44 1.77 2.07 2.04 1.81 1.65 1.76 1.98 2.00 1.91 1.85 1.89 1.85 1.69 1.46 1.18 0.92 0.76 0.67 0.58 0.50 0.54
0.69 0.81 1.03 1.35 1.59 1.81 1.92 1.91 1.76 1.71 1.63 1.65 1.68 1.80 1.77 1.66 1.48 1.64 1.88 1.98 2.18 2.35 2.66 2.79 2.74 2.55 2.43 2.41 2.33 2.14 1.93 1.81 1.57 1.30 1.03 0.79 0.63 0.52 0.55 0.57 0.71 0.62 0.65
0.32 0.35 0.43 0.67 0.97 1.32 1.79 2.25 2.33 2.48 2.40 2.20 2.13 2.05 2.15 2.40 2.82 2.74 2.55 2.47 2.52 2.46 2.35 2.40 2.23 1.93 1.65 1.41 1.20 1.02 0.85 0.76 0.70 0.60 0.58 0.48 0.45 0.47 0.48 0.42 0.47 0.45 0.53
0.29 0.32 0.39 0.40 0.58 0.84 1.18 1.68 2.33 2.71 2.69 2.71 2.83 2.74 3.05 3.23 3.33 3.00 2.82 2.75 2.65 2.32 1.94 1.65 1.46 1.25 1.03 0.88 0.75 0.66 0.62 0.64 0.52 0.52 0.54 0.49 0.49 0.52 0.53 0.52 0.52 0.52 0.49
0.61 0.63 0.68 0.69 0.71 0.84 1.02 1.27 1.84 2.41 2.66 2.95 3.00 3.02 2.98 3.10 2.94 2.82 2.66 2.39 2.15 1.78 1.80 1.61 1.38 1.20 1.00 0.78 0.70 0.70 0.75 0.74 0.68 0.68 0.68 0.67 0.66 0.62 0.62 0.52 0.48 0.42 0.39
1.19 1.26 1.32 1.51 1.61 1.69 1.75 1.86 1.89 1.95 1.92 1.99 2.00 1.84 1.78 1.75 1.71 1.73 1.74 1.64 1.70 1.52 1.41 1.31 1.24 1.12 0.96 0.88 0.83 0.76 0.70 0.68 0.64 0.58 0.55 0.51 0.47 0.44 0.43 0.38 0.38 0.38 0.32
0.73 0.92 0.97 0.97 0.89 0.81 0.81 0.84 0.87 0.92 0.96 1.04 0.97 0.87 0.88 0.83 0.75 0.70 0.67 0.82 0.92 0.95 0.97 0.92 0.85 0.78 0.69 0.62 0.60 0.57 0.53 0.48 0.43 0.40 0.35 0.32 0.32 0.32 0.28 0.22 0.20 0.16 0.16
0.68 0.72 0.61 0.60 0.62 0.57 0.51 0.46 0.43 0.40 0.40 0.40 0.43 0.52 0.44 0.37 0.33 0.35 0.41 0.50 0.55 0.54 0.52 0.49 0.46 0.43 0.40 0.35 0.34 0.34 0.31 0.25 0.25 0.24 0.24 0.25 0.23 0.23 0.25 0.22 0.20 0.19 0.12
0.69 0.65 0.52 0.44 0.40 0.37 0.32 0.28 0.26 0.28 0.26 0.23 0.21 0.15 0.14 0.26 0.32 0.32 0.34 0.36 0.33 0.31 0.31 0.30 0.28 0.26 0.23 0.22 0.20 0.20 0.19 0.17 0.17 0.18 0.16 0.18 0.22 0.23 0.20 0.21 0.19 0.16 0.14
0.40 0.35 0.30 0.29 0.27 0.24 0.20 0.17 0.17 0.17 0.16 0.17 0.19 0.18 0.22 0.30 0.25 0.21 0.20 0.20 0.21 0.24 0.25 0.27 0.26 0.22 0.21 0.24 0.24 0.23 0.18 0.17 0.18 0.19 0.15 0.14 0.17 0.18 0.20 0.19 0.19 0.19 0.16
0.26 0.24 0.20 0.18 0.17 0.15 0.15 0.16 0.19 0.19 0.18 0.20 0.19 0.16 0.15 0.21 0.21 0.20 0.18 0.17 0.17 0.19 0.19 0.22 0.22 0.17 0.13 0.16 0.20 0.25 0.24 0.16 0.18 0.23 0.22 0.17 0.15 0.16 0.18 0.20 0.19 0.21 0.18
0.18 0.16 0.16 0.16 0.15 0.16 0.17 0.18 0.22 0.27 0.30 0.27 0.23 0.22 0.21 0.20 0.21 0.21 0.18 0.16 0.15 0.13 0.12 0.15 0.16 0.15 0.14 0.14 0.16 0.18 0.19 0.18 0.22 0.24 0.30 0.26 0.15 0.13 0.18 0.19 0.17 0.16 0.17
0.16 0.18 0.19 0.21 0.23 0.27 0.31 0.31 0.28 0.22 0.22 0.23 0.22 0.21 0.18 0.17 0.17 0.17 0.17 0.16 0.14 0.12 0.11 0.11 0.10 0.08 0.09 0.12 0.13 0.10 0.11 0.18 0.25 0.27 0.31 0.24 0.17 0.15 0.18 0.20 0.18 0.18 0.16
0.16 0.19 0.21 0.23 0.28 0.27 0.28 0.24 0.21 0.18 0.19 0.17 0.17 0.16 0.15 0.14 0.11 0.11 0.10 0.11 0.12 0.11 0.08 0.08 0.08 0.07 0.08 0.09 0.13 0.13 0.10 0.14 0.19 0.24 0.33 0.29 0.21 0.16 0.19 0.22 0.21 0.23 0.15

GFSGL_prec_precacc_132.txt.gz
Total_Precipitation_Accumulation
0.29 0.20 0.15 0.24 0.28 0.68 1.05 1.09 0.96 0.99 1.10 1.01 0.85 0.75 0.82 0.93 1.01 0.91 0.68 0.65 0.71 0.72 0.75 0.78 0.73 0.88 1.02 0.98 0.98 0.99 0.94 0.90 0.77 0.47 0.36 0.38 0.50 0.53 0.47 0.41 0.33 0.37 0.25
0.96 1.05 0.79 0.98 1.04 1.16 1.54 1.51 1.28 1.16 0.95 0.85 0.97 0.90 0.72 0.61 0.55 0.55 0.54 0.53 0.50 0.58 0.62 0.74 0.69 0.83 0.82 0.73 0.73 0.61 0.59 0.57 0.56 0.45 0.38 0.36 0.35 0.38 0.42 0.42 0.35 0.31 0.24
1.37 1.44 1.16 1.39 1.41 1.70 1.55 1.36 1.23 1.13 1.05 0.91 0.75 0.59 0.42 0.37 0.33 0.32 0.32 0.36 0.44 0.46 0.47 0.45 0.42 0.54 0.49 0.48 0.51 0.46 0.43 0.47 0.54 0.58 0.56 0.52 0.50 0.47 0.53 0.56 0.46 0.29 0.21
0.62 0.60 0.86 0.93 0.76 0.73 0.55 0.56 0.50 0.50 0.44 0.34 0.32 0.32 0.31 0.27 0.24 0.26 0.25 0.25 0.28 0.35 0.44 0.41 0.38 0.36 0.32 0.39 0.50 0.49 0.49 0.51 0.53 0.60 0.58 0.54 0.50 0.44 0.43 0.53 0.69 0.68 0.58
0.58 0.51 0.52 0.50 0.46 0.34 0.30 0.30 0.34 0.36 0.34 0.32 0.32 0.28 0.25 0.25 0.29 0.27 0.21 0.20 0.20 0.22 0.25 0.28 0.35 0.53 0.65 0.64 0.74 0.68 0.68 0.71 0.70 0.73 0.67 0.62 0.59 0.57 0.52 0.47 0.72 0.92 1.03
0.68 0.65 0.49 0.45 0.43 0.40 0.38 0.31 0.32 0.33 0.27 0.26 0.25 0.28 0.29 0.25 0.41 0.30 0.20 0.17 0.24 0.24 0.23 0.22 0.33 0.73 0.61 0.82 0.89 1.01 0.95 0.97 0.85 0.82 0.88 0.90 0.78 0.81 0.82 0.86 0.96 1.12 1.17
0.80 0.72 0.54 0.45 0.41 0.34 0.24 0.22 0.23 0.31 0.37 0.42 0.36 0.28 0.20 0.22 0.38 0.23 0.24 0.15 0.17 0.21 0.23 0.24 0.28 0.39 0.61 0.44 0.88 0.95 0.99 1.22 1.10 1.00 1.10 0.96 0.97 0.91 0.97 1.01 0.89 0.92 0.94
0.68 0.67 0.61 0.44 0.36 0.37 0.29 0.31 0.37 0.45 0.45 0.33 0.24 0.18 0.15 0.22 0.36 0.23 0.24 0.15 0.18 0.23 0.26 0.26 0.30 0.36 0.55 0.59 0.60 0.74 0.72 0.80 0.91 0.86 0.79 0.75 0.76 0.79 0.74 0.74 0.85 1.03 1.06
0.62 0.64 0.62 0.55 0.45 0.50 0.58 0.66 0.58 0.40 0.36 0.32 0.23 0.17 0.18 0.20 0.30 0.23 0.27 0.18 0.30 0.31 0.27 0.35 0.46 0.40 0.80 0.71 0.49 0.51 0.55 0.57 0.85 0.83 0.78 0.85 0.86 0.91 0.80 0.86 0.98 1.09 1.06
0.77 0.74 0.72 0.65 0.72 0.76 0.66 0.62 0.60 0.46 0.39 0.35 0.35 0.30 0.45 0.25 0.45 0.32 0.29 0.19 0.29 0.33 0.38 0.40 0.66 0.41 0.67 0.56 0.53 0.49 0.56 0.47 0.49 0.59 0.62 0.59 0.62 0.83 0.94 0.77 0.83 1.23 1.20
1.12 0.98 1.16 1.01 0.77 0.64 0.62 0.53 0.67 0.66 0.54 0.58 0.64 0.57 0.51 0.66 0.62 0.64 0.48 0.23 0.26 0.36 0.44 0.50 0.72 1.27 0.95 0.94 0.82 0.77 1.19 1.07 1.17 0.90 0.79 0.79 0.75 0.74 0.83 0.95 1.00 1.22 1.33
1.56 1.45 1.17 1.43 1.25 1.03 0.90 0.80 0.64 0.80 1.08 1.07 0.99 0.88 0.80 0.81 1.23 1.09 0.96 1.19 1.40 1.14 1.29 1.32 1.56 1.58 1.47 1.66 1.65 1.88 1.75 1.48 1.27 1.28 1.25 1.22 1.21 1.14 0.99 0.87 0.89 0.94 0.94
1.20 1.48 1.55 1.52 1.78 1.62 1.48 1.31 1.18 1.00 0.98 1.14 1.28 1.36 1.25 1.05 1.37 1.69 1.52 1.65 1.75 1.50 1.89 2.22 2.23 2.01 1.81 1.90 2.12 2.12 1.99 1.87 1.91 1.88 1.73 1.49 1.20 0.96 0.81 0.73 0.62 0.52 0.56
0.69 0.82 1.03 1.35 1.59 1.82 1.92 1.92 1.77 1.72 1.64 1.65 1.69 1.81 1.78 1.66 1.48 1.65 1.90 2.02 2.22 2.44 2.83 2.97 2.92 2.74 2.63 2.61 2.49 2.24 1.96 1.83 1.61 1.33 1.06 0.83 0.67 0.57 0.58 0.61 0.77 0.66 0.69
0.32 0.35 0.43 0.67 0.97 1.33 1.79 2.25 2.34 2.50 2.42 2.22 2.15 2.06 2.17 2.42 2.85 2.77 2.59 2.52 2.59 2.59 2.51 2.60 2.49 2.16 1.85 1.60 1.34 1.12 0.94 0.81 0.74 0.63 0.61 0.50 0.49 0.50 0.51 0.46 0.50 0.48 0.56
0.30 0.32 0.39 0.40 0.58 0.84 1.18 1.68 2.33 2.72 2.70 2.72 2.84 2.76 3.07 3.26 3.34 3.03 2.88 2.84 2.75 2.45 2.10 1.87 1.69 1.50 1.27 1.10 0.97 0.79 0.69 0.73 0.56 0.54 0.60 0.54 0.53 0.55 0.56 0.55 0.56 0.55 0.51
0.62 0.63 0.68 0.70 0.71 0.84 1.02 1.27 1.84 2.41 2.66 2.95 3.01 3.02 3.00 3.12 2.95 2.84 2.72 2.55 2.35 1.94 1.96 1.86 1.69 1.47 1.23 0.99 0.88 0.87 0.88 0.83 0.74 0.71 0.71 0.71 0.70 0.67 0.68 0.57 0.53 0.48 0.47
1.19 1.26 1.32 1.52 1.61 1.69 1.75 1.87 1.89 1.95 1.92 1.99 2.00 1.84 1.79 1.77 1.73 1.77 1.80 1.72 1.87 1.78 1.71 1.60 1.56 1.48 1.34 1.21 1.11 0.98 0.89 0.83 0.77 0.69 0.63 0.60 0.58 0.54 0.52 0.49 0.49 0.49 0.44
0.74 0.92 0.97 0.97 0.89 0.81 0.81 0.84 0.87 0.92 0.96 1.04 0.97 0.87 0.88 0.85 0.78 0.74 0.71 0.89 1.04 1.13 1.21 1.20 1.15 1.08 1.03 1.00 0.98 0.91 0.85 0.79 0.71 0.64 0.59 0.53 0.51 0.49 0.45 0.38 0.34 0.29 0.25
0.68 0.73 0.61 0.60 0.62 0.57 0.51 0.46 0.43 0.40 0.40 0.40 0.43 0.53 0.45 0.37 0.34 0.38 0.46 0.56 0.63 0.67 0.68 0.68 0.68 0.66 0.64 0.62 0.63 0.64 0.59 0.53 0.52 0.48 0.46 0.44 0.41 0.38 0.37 0.32 0.28 0.25 0.16
0.69 0.65 0.52 0.44 0.40 0.37 0.32 0.28 0.26 0.28 0.27 0.23 0.21 0.16 0.14 0.26 0.32 0.34 0.37 0.41 0.40 0.41 0.42 0.44 0.43 0.42 0.39 0.38 0.34 0.33 0.31 0.30 0.29 0.29 0.26 0.27 0.30 0.29 0.25 0.25 0.22 0.18 0.15
0.40 0.35 0.30 0.29 0.27 0.24 0.20 0.17 0.17 0.17 0.16 0.17 0.19 0.18 0.22 0.30 0.25 0.21 0.21 0.22 0.24 0.27 0.30 0.34 0.34 0.31 0.29 0.31 0.31 0.29 0.23 0.21 0.22 0.23 0.18 0.17 0.19 0.20 0.22 0.20 0.20 0.19 0.17
0.26 0.24 0.20 0.18 0.17 0.15 0.15 0.16 0.19 0.19 0.19 0.20 0.19 0.16 0.15 0.21 0.22 0.20 0.19 0.17 0.17 0.20 0.19 0.23 0.24 0.20 0.17 0.20 0.25 0.30 0.28 0.20 0.21 0.25 0.24 0.18 0.16 0.17 0.19 0.20 0.19 0.21 0.19
0.18 0.16 0.16 0.16 0.15 0.16 0.17 0.18 0.22 0.27 0.30 0.27 0.23 0.22 0.21 0.20 0.21 0.21 0.19 0.16 0.15 0.13 0.12 0.15 0.16 0.15 0.14 0.14 0.16 0.19 0.20 0.19 0.23 0.25 0.31 0.27 0.16 0.14 0.19 0.19 0.17 0.17 0.17
0.16 0.19 0.19 0.21 0.24 0.27 0.31 0.31 0.29 0.22 0.22 0.23 0.23 0.22 0.18 0.17 0.17 0.17 0.17 0.16 0.14 0.12 0.11 0.11 0.10 0.08 0.09 0.12 0.13 0.10 0.11 0.18 0.25 0.27 0.31 0.24 0.17 0.15 0.18 0.20 0.18 0.18 0.16
0.17 0.20 0.21 0.23 0.28 0.28 0.28 0.25 0.21 0.18 0.19 0.18 0.17 0.16 0.15 0.14 0.12 0.11 0.10 0.11 0.12 0.11 0.08 0.08 0.08 0.07 0.08 0.09 0.13 0.13 0.10 0.14 0.19 0.24 0.33 0.29 0.21 0.16 0.19 0.22 0.21 0.23 0.15

GFSGL_prec_precacc_135.txt.gz
Total_Precipitation_Accumulation
0.38 0.32 0.36 0.43 0.43 0.83 1.20 1.27 1.08 1.05 1.13 1.02 0.86 0.77 0.83 0.94 1.02 0.92 0.69 0.65 0.71 0.72 0.75 0.78 0.74 0.91 1.08 1.04 1.04 1.03 0.97 0.92 0.79 0.47 0.37 0.39 0.51 0.53 0.47 0.41 0.33 0.37 0.25
1.02 1.13 0.92 1.13 1.15 1.21 1.57 1.52 1.32 1.19 0.96 0.86 0.97 0.90 0.72 0.61 0.55 0.55 0.54 0.53 0.50 0.58 0.62 0.74 0.69 0.84 0.85 0.78 0.78 0.64 0.62 0.59 0.58 0.45 0.40 0.39 0.36 0.39 0.42 0.42 0.35 0.31 0.24
1.41 1.51 1.21 1.46 1.45 1.76 1.58 1.38 1.23 1.13 1.05 0.91 0.75 0.59 0.42 0.37 0.33 0.32 0.32 0.36 0.44 0.46 0.48 0.45 0.43 0.55 0.52 0.52 0.55 0.49 0.45 0.49 0.55 0.59 0.57 0.53 0.51 0.47 0.53 0.56 0.46 0.30 0.22
0.68 0.63 0.91 0.94 0.77 0.74 0.57 0.57 0.50 0.50 0.44 0.34 0.32 0.32 0.31 0.27 0.24 0.26 0.25 0.25 0.28 0.35 0.45 0.42 0.39 0.36 0.33 0.41 0.53 0.52 0.51 0.53 0.54 0.62 0.59 0.55 0.50 0.44 0.43 0.53 0.69 0.69 0.59
0.64 0.54 0.54 0.51 0.46 0.34 0.30 0.30 0.34 0.36 0.34 0.32 0.32 0.28 0.25 0.25 0.29 0.27 0.21 0.20 0.20 0.22 0.26 0.29 0.36 0.54 0.66 0.65 0.76 0.70 0.69 0.73 0.72 0.75 0.69 0.62 0.59 0.57 0.52 0.47 0.72 0.93 1.05
0.77 0.70 0.50 0.46 0.43 0.40 0.38 0.31 0.32 0.33 0.27 0.26 0.25 0.28 0.29 0.25 0.41 0.30 0.20 0.17 0.24 0.24 0.23 0.23 0.34 0.74 0.61 0.82 0.90 1.02 0.96 0.98 0.87 0.83 0.89 0.90 0.78 0.81 0.82 0.86 0.96 1.13 1.19
0.81 0.75 0.56 0.46 0.42 0.34 0.24 0.22 0.23 0.31 0.37 0.42 0.36 0.28 0.20 0.22 0.39 0.23 0.25 0.15 0.17 0.21 0.23 0.25 0.29 0.40 0.62 0.45 0.88 0.97 1.02 1.24 1.12 1.02 1.12 0.97 0.98 0.91 0.97 1.01 0.89 0.92 0.94
0.68 0.67 0.62 0.44 0.36 0.37 0.29 0.31 0.37 0.45 0.45 0.33 0.24 0.18 0.15 0.22 0.36 0.24 0.24 0.15 0.18 0.23 0.27 0.27 0.32 0.38 0.55 0.60 0.61 0.75 0.73 0.83 0.94 0.89 0.80 0.76 0.77 0.80 0.74 0.74 0.85 1.03 1.06
0.63 0.64 0.62 0.55 0.45 0.50 0.58 0.66 0.58 0.40 0.36 0.32 0.23 0.17 0.18 0.20 0.30 0.23 0.27 0.18 0.30 0.31 0.28 0.36 0.47 0.42 0.82 0.72 0.50 0.52 0.57 0.60 0.90 0.89 0.84 0.91 0.90 0.92 0.80 0.86 0.98 1.09 1.07
0.77 0.74 0.72 0.65 0.72 0.76 0.66 0.62 0.60 0.46 0.39 0.35 0.35 0.30 0.45 0.25 0.45 0.32 0.29 0.19 0.29 0.34 0.39 0.43 0.71 0.43 0.69 0.58 0.54 0.49 0.58 0.51 0.53 0.62 0.65 0.62 0.65 0.85 0.95 0.77 0.83 1.23 1.20
1.12 0.98 1.16 1.02 0.77 0.64 0.62 0.53 0.67 0.66 0.54 0.58 0.64 0.57 0.51 0.66 0.62 0.64 0.48 0.23 0.27 0.38 0.46 0.51 0.75 1.34 1.00 0.98 0.83 0.78 1.20 1.11 1.22 0.97 0.94 0.93 0.79 0.76 0.84 0.95 1.00 1.22 1.33
1.57 1.45 1.17 1.43 1.25 1.03 0.91 0.80 0.64 0.80 1.08 1.07 0.99 0.88 0.80 0.81 1.23 1.09 0.96 1.20 1.41 1.15 1.30 1.34 1.57 1.61 1.49 1.70 1.70 1.95 1.82 1.55 1.41 1.48 1.43 1.39 1.29 1.18 1.02 0.88 0.89 0.94 0.94
1.21 1.48 1.56 1.53 1.78 1.63 1.48 1.32 1.18 1.00 0.98 1.15 1.28 1.36 1.25 1.05 1.38 1.69 1.52 1.65 1.75 1.50 1.89 2.23 2.25 2.03 1.84 1.94 2.21 2.23 2.11 2.01 2.02 1.99 1.90 1.67 1.32 1.02 0.86 0.78 0.67 0.57 0.60
0.69 0.82 1.03 1.35 1.60 1.82 1.93 1.92 1.77 1.72 1.65 1.66 1.70 1.81 1.78 1.66 1.49 1.65 1.90 2.02 2.22 2.45 2.84 2.98 2.94 2.76 2.68 2.67 2.62 2.38 2.11 2.00 1.79 1.50 1.19 0.93 0.77 0.60 0.61 0.64 0.81 0.71 0.75
0.32 0.35 0.43 0.68 0.98 1.33 1.80 2.27 2.34 2.51 2.43 2.24 2.17 2.08 2.19 2.44 2.87 2.79 2.60 2.53 2.60 2.60 2.53 2.62 2.51 2.20 1.92 1.68 1.42 1.25 1.15 1.03 0.94 0.82 0.80 0.69 0.56 0.55 0.57 0.51 0.54 0.53 0.62
0.30 0.32 0.40 0.40 0.58 0.84 1.19 1.69 2.33 2.72 2.70 2.72 2.85 2.77 3.08 3.28 3.36 3.03 2.89 2.85 2.76 2.47 2.13 1.91 1.74 1.59 1.42 1.25 1.10 0.93 0.82 0.89 0.76 0.72 0.79 0.74 0.69 0.63 0.61 0.61 0.63 0.62 0.58
0.62 0.63 0.69 0.70 0.71 0.84 1.02 1.27 1.84 2.41 2.66 2.95 3.01 3.03 3.01 3.14 2.97 2.84 2.72 2.56 2.36 1.97 2.01 1.93 1.78 1.61 1.40 1.18 1.08 1.09 1.12 1.07 0.94 0.90 0.90 0.90 0.87 0.81 0.81 0.63 0.59 0.55 0.55
1.19 1.27 1.33 1.52 1.61 1.69 1.76 1.87 1.90 1.95 1.92 1.99 2.00 1.85 1.80 1.78 1.74 1.77 1.80 1.73 1.88 1.81 1.79 1.74 1.72 1.66 1.56 1.46 1.41 1.29 1.19 1.11 1.06 1.02 0.93 0.82 0.77 0.72 0.67 0.58 0.57 0.56 0.50
0.74 0.92 0.97 0.97 0.89 0.81 0.81 0.84 0.87 0.92 0.96 1.04 0.97 0.87 0.89 0.85 0.78 0.74 0.71 0.89 1.05 1.16 1.29 1.33 1.34 1.29 1.26 1.24 1.25 1.25 1.22 1.17 1.07 0.96 0.90 0.84 0.79 0.72 0.66 0.58 0.51 0.43 0.37
0.69 0.73 0.61 0.60 0.62 0.57 0.51 0.46 0.43 0.40 0.40 0.40 0.44 0.53 0.45 0.38 0.34 0.39 0.46 0.57 0.65 0.70 0.74 0.78 0.82 0.82 0.82 0.81 0.83 0.88 0.87 0.84 0.85 0.81 0.77 0.73 0.69 0.65 0.62 0.56 0.50 0.45 0.32
0.69 0.65 0.52 0.44 0.40 0.37 0.32 0.28 0.26 0.28 0.27 0.23 0.21 0.16 0.14 0.27 0.32 0.34 0.37 0.42 0.42 0.43 0.47 0.50 0.51 0.53 0.53 0.53 0.50 0.49 0.49 0.50 0.52 0.53 0.50 0.50 0.51 0.48 0.43 0.41 0.36 0.30 0.24
0.40 0.35 0.30 0.29 0.27 0.24 0.20 0.17 0.17 0.17 0.16 0.17 0.19 0.18 0.22 0.30 0.26 0.21 0.21 0.22 0.25 0.28 0.32 0.37 0.39 0.37 0.37 0.41 0.42 0.40 0.35 0.33 0.35 0.36 0.31 0.29 0.31 0.31 0.31 0.28 0.27 0.24 0.20
0.27 0.25 0.20 0.18 0.17 0.15 0.16 0.16 0.19 0.19 0.19 0.21 0.19 0.17 0.15 0.21 0.22 0.21 0.19 0.18 0.17 0.20 0.20 0.24 0.24 0.21 0.19 0.23 0.29 0.35 0.34 0.28 0.28 0.31 0.29 0.23 0.21 0.21 0.23 0.23 0.22 0.23 0.20
0.18 0.17 0.17 0.16 0.15 0.16 0.17 0.18 0.23 0.27 0.30 0.28 0.23 0.23 0.21 0.20 0.22 0.21 0.19 0.16 0.15 0.13 0.12 0.15 0.16 0.16 0.14 0.15 0.16 0.19 0.22 0.22 0.26 0.29 0.35 0.31 0.20 0.17 0.22 0.22 0.19 0.18 0.18
0.16 0.19 0.20 0.21 0.24 0.28 0.31 0.32 0.29 0.23 0.22 0.24 0.23 0.22 0.18 0.17 0.17 0.17 0.17 0.16 0.14 0.12 0.11 0.11 0.10 0.08 0.09 0.12 0.13 0.10 0.11 0.18 0.25 0.28 0.32 0.25 0.18 0.16 0.19 0.21 0.19 0.19 0.17
0.17 0.20 0.22 0.24 0.29 0.28 0.29 0.25 0.21 0.18 0.20 0.18 0.18 0.17 0.15 0.14 0.12 0.11 0.10 0.11 0.12 0.11 0.08 0.08 0.08 0.07 0.08 0.09 0.13 0.13 0.10 0.14 0.19 0.24 0.33 0.29 0.21 0.16 0.19 0.22 0.21 0.23 0.15